<?xml version='1.0' encoding='UTF-8'?><gpx version="1.1" creator="JPX - https://github.com/jenetics/jpx" xmlns="http://www.topografix.com/GPX/1/1"><trk><trkseg><trkpt lat="40.01216138700449" lon="18.17778447362152"><ele>144.0</ele><time>2026-04-11T11:25:15.998Z</time></trkpt><trkpt lat="40.01212900159561" lon="18.17770532911232"><ele>144.0</ele><time>2026-04-11T11:25:17.998Z</time></trkpt><trkpt lat="40.01208935440482" lon="18.177635350088124"><ele>144.0</ele><time>2026-04-11T11:25:19.998Z</time></trkpt><trkpt lat="40.012057922625935" lon="18.177559940852483"><ele>144.0</ele><time>2026-04-11T11:25:21.998Z</time></trkpt><trkpt lat="40.01210365604216" lon="18.177492251382205"><ele>144.0</ele><time>2026-04-11T11:25:23.998Z</time></trkpt><trkpt lat="40.01220424117138" lon="18.17742303570904"><ele>144.0</ele><time>2026-04-11T11:25:25.998Z</time></trkpt><trkpt lat="40.012270734508505" lon="18.17739995964967"><ele>144.0</ele><time>2026-04-11T11:25:26.998Z</time></trkpt><trkpt lat="40.01233879385782" lon="18.177377699717123"><ele>144.0</ele><time>2026-04-11T11:25:27.998Z</time></trkpt><trkpt lat="40.01240034406946" lon="18.177339605450516"><ele>144.0</ele><time>2026-04-11T11:25:28.998Z</time></trkpt><trkpt lat="40.01247111920761" lon="18.17731501392804"><ele>144.0</ele><time>2026-04-11T11:25:29.998Z</time></trkpt><trkpt lat="40.012526791300566" lon="18.177255561097585"><ele>144.0</ele><time>2026-04-11T11:25:34.998Z</time></trkpt><trkpt lat="40.01249879411216" lon="18.17712060704153"><ele>144.0</ele><time>2026-04-11T11:25:36.998Z</time></trkpt><trkpt lat="40.01247295240856" lon="18.177025902179242"><ele>143.25</ele><time>2026-04-11T11:25:37.998Z</time></trkpt><trkpt lat="40.01243662171084" lon="18.17691466218584"><ele>142.5</ele><time>2026-04-11T11:25:38.998Z</time></trkpt><trkpt lat="40.01238803428846" lon="18.176754921324527"><ele>141.75</ele><time>2026-04-11T11:25:39.998Z</time></trkpt><trkpt lat="40.01234075268195" lon="18.176609639755977"><ele>141.0</ele><time>2026-04-11T11:25:40.998Z</time></trkpt><trkpt lat="40.01228606929706" lon="18.176454429289432"><ele>140.4</ele><time>2026-04-11T11:25:41.998Z</time></trkpt><trkpt lat="40.01223683351917" lon="18.176305087504144"><ele>139.8</ele><time>2026-04-11T11:25:42.998Z</time></trkpt><trkpt lat="40.01219125724287" lon="18.176174961016567"><ele>139.20000000000002</ele><time>2026-04-11T11:25:43.998Z</time></trkpt><trkpt lat="40.01215405249075" lon="18.176056839038246"><ele>138.6</ele><time>2026-04-11T11:25:44.998Z</time></trkpt><trkpt lat="40.01212312209885" lon="18.175956088246288"><ele>138.0</ele><time>2026-04-11T11:25:45.998Z</time></trkpt><trkpt lat="40.012097491325925" lon="18.175866282477433"><ele>138.0</ele><time>2026-04-11T11:25:46.998Z</time></trkpt><trkpt lat="40.012058010351026" lon="18.175766365291597"><ele>138.0</ele><time>2026-04-11T11:25:47.998Z</time></trkpt><trkpt lat="40.01200014709338" lon="18.1756252502293"><ele>138.0</ele><time>2026-04-11T11:25:48.998Z</time></trkpt><trkpt lat="40.01193260447738" lon="18.175488663011038"><ele>138.0</ele><time>2026-04-11T11:25:49.998Z</time></trkpt><trkpt lat="40.01187837402852" lon="18.17537557140681"><ele>138.0</ele><time>2026-04-11T11:25:50.998Z</time></trkpt><trkpt lat="40.011829268302705" lon="18.17528762599"><ele>137.5</ele><time>2026-04-11T11:25:51.998Z</time></trkpt><trkpt lat="40.01179598781956" lon="18.1751994612266"><ele>137.0</ele><time>2026-04-11T11:25:52.998Z</time></trkpt><trkpt lat="40.01177834739357" lon="18.175108957286497"><ele>136.5</ele><time>2026-04-11T11:25:53.998Z</time></trkpt><trkpt lat="40.01177983473413" lon="18.174982777644573"><ele>136.0</ele><time>2026-04-11T11:25:54.998Z</time></trkpt><trkpt lat="40.011788216670226" lon="18.174851508513505"><ele>135.5</ele><time>2026-04-11T11:25:55.998Z</time></trkpt><trkpt lat="40.01180116887239" lon="18.174716366852575"><ele>135.0</ele><time>2026-04-11T11:25:56.998Z</time></trkpt><trkpt lat="40.01181750324064" lon="18.174556028629727"><ele>134.5</ele><time>2026-04-11T11:25:57.998Z</time></trkpt><trkpt lat="40.01183125411681" lon="18.174379598454795"><ele>134.0</ele><time>2026-04-11T11:25:58.998Z</time></trkpt><trkpt lat="40.011837873264994" lon="18.174190619865445"><ele>133.5</ele><time>2026-04-11T11:25:59.998Z</time></trkpt><trkpt lat="40.01184271510923" lon="18.174005138077717"><ele>133.0</ele><time>2026-04-11T11:26:00.998Z</time></trkpt><trkpt lat="40.01183307123993" lon="18.173835883228527"><ele>130.66666666666669</ele><time>2026-04-11T11:26:01.998Z</time></trkpt><trkpt lat="40.01180202982961" lon="18.173662409600745"><ele>128.33333333333334</ele><time>2026-04-11T11:26:02.998Z</time></trkpt><trkpt lat="40.011763995965964" lon="18.17345436189862"><ele>126.0</ele><time>2026-04-11T11:26:03.998Z</time></trkpt><trkpt lat="40.01172442801725" lon="18.17326274337735"><ele>125.66666666666667</ele><time>2026-04-11T11:26:04.998Z</time></trkpt><trkpt lat="40.01168776916297" lon="18.17310786258932"><ele>125.33333333333334</ele><time>2026-04-11T11:26:05.998Z</time></trkpt><trkpt lat="40.011654088870415" lon="18.172989186306275"><ele>125.0</ele><time>2026-04-11T11:26:06.998Z</time></trkpt><trkpt lat="40.011626438938336" lon="18.172887543895154"><ele>124.66666666666667</ele><time>2026-04-11T11:26:07.998Z</time></trkpt><trkpt lat="40.011609000325365" lon="18.17279522353183"><ele>124.33333333333334</ele><time>2026-04-11T11:26:08.998Z</time></trkpt><trkpt lat="40.01159060728704" lon="18.172704937674574"><ele>124.0</ele><time>2026-04-11T11:26:09.998Z</time></trkpt><trkpt lat="40.01157433312614" lon="18.172618759128135"><ele>123.80000000000001</ele><time>2026-04-11T11:26:10.998Z</time></trkpt><trkpt lat="40.01154327520444" lon="18.172487686263427"><ele>123.60000000000001</ele><time>2026-04-11T11:26:12.998Z</time></trkpt><trkpt lat="40.01151382336684" lon="18.17236836373796"><ele>123.4</ele><time>2026-04-11T11:26:14.998Z</time></trkpt><trkpt lat="40.0114849569267" lon="18.17227876463576"><ele>123.2</ele><time>2026-04-11T11:26:16.998Z</time></trkpt><trkpt lat="40.01148243396073" lon="18.172157025551662"><ele>123.0</ele><time>2026-04-11T11:29:16.997Z</time></trkpt><trkpt lat="40.01144278428485" lon="18.172003365338465"><ele>122.5</ele><time>2026-04-11T11:29:18.997Z</time></trkpt><trkpt lat="40.011415283172404" lon="18.171916645871764"><ele>122.0</ele><time>2026-04-11T11:29:19.997Z</time></trkpt><trkpt lat="40.01138772811375" lon="18.17180766701479"><ele>121.5</ele><time>2026-04-11T11:29:20.997Z</time></trkpt><trkpt lat="40.01135879067622" lon="18.171688639411627"><ele>121.0</ele><time>2026-04-11T11:29:21.997Z</time></trkpt><trkpt lat="40.01133898732455" lon="18.171575260312686"><ele>120.5</ele><time>2026-04-11T11:29:22.997Z</time></trkpt><trkpt lat="40.01132147762073" lon="18.171458710789018"><ele>120.0</ele><time>2026-04-11T11:29:23.997Z</time></trkpt><trkpt lat="40.011303304684496" lon="18.17134926939265"><ele>119.8</ele><time>2026-04-11T11:29:24.997Z</time></trkpt><trkpt lat="40.01127927912767" lon="18.171239135978727"><ele>119.6</ele><time>2026-04-11T11:29:25.997Z</time></trkpt><trkpt lat="40.01125001011678" lon="18.171119009239124"><ele>119.4</ele><time>2026-04-11T11:29:26.997Z</time></trkpt><trkpt lat="40.01121774427677" lon="18.170990284398123"><ele>119.2</ele><time>2026-04-11T11:29:27.997Z</time></trkpt><trkpt lat="40.01119103971505" lon="18.170840213869624"><ele>119.0</ele><time>2026-04-11T11:29:28.997Z</time></trkpt><trkpt lat="40.01118553966194" lon="18.1706872479782"><ele>118.6</ele><time>2026-04-11T11:29:29.997Z</time></trkpt><trkpt lat="40.011183742279414" lon="18.170551507414796"><ele>118.2</ele><time>2026-04-11T11:29:30.997Z</time></trkpt><trkpt lat="40.01119160100117" lon="18.17044596101264"><ele>117.79999999999998</ele><time>2026-04-11T11:29:31.997Z</time></trkpt><trkpt lat="40.01111886460225" lon="18.170287296350796"><ele>117.39999999999999</ele><time>2026-04-11T11:29:33.997Z</time></trkpt><trkpt lat="40.01107308619533" lon="18.170218305907984"><ele>117.0</ele><time>2026-04-11T11:29:34.997Z</time></trkpt><trkpt lat="40.01107643779473" lon="18.170123884955757"><ele>117.0</ele><time>2026-04-11T11:29:35.997Z</time></trkpt><trkpt lat="40.01106818005521" lon="18.17003053497139"><ele>117.0</ele><time>2026-04-11T11:29:36.997Z</time></trkpt><trkpt lat="40.01107987655055" lon="18.169922102866067"><ele>117.0</ele><time>2026-04-11T11:29:37.997Z</time></trkpt><trkpt lat="40.011099711261274" lon="18.16981410749903"><ele>117.0</ele><time>2026-04-11T11:29:38.997Z</time></trkpt><trkpt lat="40.011130412700496" lon="18.169715144268903"><ele>117.0</ele><time>2026-04-11T11:29:39.997Z</time></trkpt><trkpt lat="40.01115340965618" lon="18.16959012159888"><ele>117.0</ele><time>2026-04-11T11:29:41.997Z</time></trkpt><trkpt lat="40.01109893048444" lon="18.16950914003799"><ele>116.5</ele><time>2026-04-11T11:29:45.997Z</time></trkpt><trkpt lat="40.01098284480418" lon="18.169437104336776"><ele>116.0</ele><time>2026-04-11T11:29:47.997Z</time></trkpt><trkpt lat="40.01092069829459" lon="18.169401852858936"><ele>115.5</ele><time>2026-04-11T11:29:48.997Z</time></trkpt><trkpt lat="40.010847384608525" lon="18.169397035793047"><ele>115.0</ele><time>2026-04-11T11:29:49.997Z</time></trkpt><trkpt lat="40.010777799189846" lon="18.16937167173051"><ele>114.5</ele><time>2026-04-11T11:29:50.997Z</time></trkpt><trkpt lat="40.01072015485687" lon="18.169306772738057"><ele>114.0</ele><time>2026-04-11T11:29:51.997Z</time></trkpt><trkpt lat="40.01064955302549" lon="18.169244349108716"><ele>113.66666666666667</ele><time>2026-04-11T11:29:52.997Z</time></trkpt><trkpt lat="40.010583011106455" lon="18.169221429968147"><ele>113.33333333333334</ele><time>2026-04-11T11:29:53.997Z</time></trkpt><trkpt lat="40.01051626409887" lon="18.169204857929373"><ele>113.0</ele><time>2026-04-11T11:29:54.997Z</time></trkpt><trkpt lat="40.01039604222545" lon="18.169192404315623"><ele>112.66666666666667</ele><time>2026-04-11T11:29:56.997Z</time></trkpt><trkpt lat="40.01032866882638" lon="18.16918468389215"><ele>112.33333333333334</ele><time>2026-04-11T11:29:57.997Z</time></trkpt><trkpt lat="40.01025687826731" lon="18.16916225434877"><ele>112.0</ele><time>2026-04-11T11:29:58.997Z</time></trkpt><trkpt lat="40.01018923039649" lon="18.169142427126133"><ele>112.00000000000001</ele><time>2026-04-11T11:29:59.997Z</time></trkpt><trkpt lat="40.010071417939145" lon="18.169094096376696"><ele>112.0</ele><time>2026-04-11T11:30:01.997Z</time></trkpt><trkpt lat="40.0100153158297" lon="18.169051727099728"><ele>112.0</ele><time>2026-04-11T11:30:02.997Z</time></trkpt><trkpt lat="40.0099249850227" lon="18.169002394376257"><ele>112.0</ele><time>2026-04-11T11:30:04.997Z</time></trkpt><trkpt lat="40.009862150515644" lon="18.16897226715098"><ele>112.00000000000001</ele><time>2026-04-11T11:30:05.997Z</time></trkpt><trkpt lat="40.009789342285664" lon="18.16891586189946"><ele>112.0</ele><time>2026-04-11T11:30:06.997Z</time></trkpt><trkpt lat="40.00970311322008" lon="18.168841682055508"><ele>110.39999999999999</ele><time>2026-04-11T11:30:07.997Z</time></trkpt><trkpt lat="40.00960836713537" lon="18.16878921691886"><ele>108.79999999999998</ele><time>2026-04-11T11:30:08.997Z</time></trkpt><trkpt lat="40.009529300933096" lon="18.16871556507738"><ele>107.2</ele><time>2026-04-11T11:30:09.997Z</time></trkpt><trkpt lat="40.009450022791405" lon="18.168659828854715"><ele>105.6</ele><time>2026-04-11T11:30:10.997Z</time></trkpt><trkpt lat="40.00937631523717" lon="18.168600425470533"><ele>104.0</ele><time>2026-04-11T11:30:11.997Z</time></trkpt><trkpt lat="40.00931275959011" lon="18.16855021467446"><ele>103.99999999999999</ele><time>2026-04-11T11:30:12.997Z</time></trkpt><trkpt lat="40.009255188399194" lon="18.168504612828194"><ele>104.0</ele><time>2026-04-11T11:30:13.997Z</time></trkpt><trkpt lat="40.009192179338214" lon="18.16845773711298"><ele>104.0</ele><time>2026-04-11T11:30:14.997Z</time></trkpt><trkpt lat="40.009111694717944" lon="18.168418336347578"><ele>104.0</ele><time>2026-04-11T11:30:15.997Z</time></trkpt><trkpt lat="40.00900386061836" lon="18.16836697636689"><ele>103.99999999999999</ele><time>2026-04-11T11:30:16.997Z</time></trkpt><trkpt lat="40.008903874928414" lon="18.168324820272826"><ele>104.0</ele><time>2026-04-11T11:30:17.997Z</time></trkpt><trkpt lat="40.00882076636684" lon="18.168285241150127"><ele>103.16666666666666</ele><time>2026-04-11T11:30:18.997Z</time></trkpt><trkpt lat="40.008744689060855" lon="18.168250473717745"><ele>102.33333333333333</ele><time>2026-04-11T11:30:19.997Z</time></trkpt><trkpt lat="40.0086626856438" lon="18.168211038641843"><ele>101.5</ele><time>2026-04-11T11:30:20.997Z</time></trkpt><trkpt lat="40.008585765505444" lon="18.168184434332815"><ele>100.66666666666666</ele><time>2026-04-11T11:30:21.997Z</time></trkpt><trkpt lat="40.00851628867612" lon="18.16814494083462"><ele>99.83333333333333</ele><time>2026-04-11T11:30:22.997Z</time></trkpt><trkpt lat="40.008439333810614" lon="18.168096354596393"><ele>99.0</ele><time>2026-04-11T11:30:23.997Z</time></trkpt><trkpt lat="40.008364871840776" lon="18.16806362894582"><ele>97.71428571428572</ele><time>2026-04-11T11:30:24.997Z</time></trkpt><trkpt lat="40.00829177182478" lon="18.16802599070292"><ele>96.42857142857142</ele><time>2026-04-11T11:30:25.996Z</time></trkpt><trkpt lat="40.008221288147396" lon="18.167990317801838"><ele>95.14285714285714</ele><time>2026-04-11T11:30:26.996Z</time></trkpt><trkpt lat="40.00815371793963" lon="18.167949406014728"><ele>93.85714285714286</ele><time>2026-04-11T11:30:27.996Z</time></trkpt><trkpt lat="40.00808768267665" lon="18.16790895389113"><ele>92.57142857142858</ele><time>2026-04-11T11:30:28.996Z</time></trkpt><trkpt lat="40.008019152223916" lon="18.16786739812145"><ele>91.28571428571428</ele><time>2026-04-11T11:30:29.996Z</time></trkpt><trkpt lat="40.00795713046618" lon="18.167819087456508"><ele>90.0</ele><time>2026-04-11T11:30:30.996Z</time></trkpt><trkpt lat="40.00790021200656" lon="18.167757765121582"><ele>90.0</ele><time>2026-04-11T11:30:31.996Z</time></trkpt><trkpt lat="40.007847871551085" lon="18.167692044753426"><ele>90.0</ele><time>2026-04-11T11:30:32.996Z</time></trkpt><trkpt lat="40.007800450650635" lon="18.167633551158787"><ele>90.0</ele><time>2026-04-11T11:30:33.996Z</time></trkpt><trkpt lat="40.00773710676917" lon="18.167521409184726"><ele>90.0</ele><time>2026-04-11T11:30:35.996Z</time></trkpt><trkpt lat="40.00769397218558" lon="18.167444669758037"><ele>90.0</ele><time>2026-04-11T11:30:37.996Z</time></trkpt><trkpt lat="40.00764982858269" lon="18.167368433085826"><ele>90.0</ele><time>2026-04-11T11:30:39.996Z</time></trkpt><trkpt lat="40.00758713572621" lon="18.167256251712598"><ele>90.25</ele><time>2026-04-11T11:30:42.996Z</time></trkpt><trkpt lat="40.00754129360464" lon="18.16717339971192"><ele>90.5</ele><time>2026-04-11T11:30:43.996Z</time></trkpt><trkpt lat="40.00746576351695" lon="18.167079535516784"><ele>90.75</ele><time>2026-04-11T11:30:44.996Z</time></trkpt><trkpt lat="40.00735932968527" lon="18.166950742752277"><ele>91.0</ele><time>2026-04-11T11:30:45.996Z</time></trkpt><trkpt lat="40.007267871692136" lon="18.166807213263517"><ele>90.5</ele><time>2026-04-11T11:30:46.996Z</time></trkpt><trkpt lat="40.00717782563644" lon="18.166673868849266"><ele>90.0</ele><time>2026-04-11T11:30:47.996Z</time></trkpt><trkpt lat="40.00710473157875" lon="18.16653368514873"><ele>89.5</ele><time>2026-04-11T11:30:48.996Z</time></trkpt><trkpt lat="40.0070536241011" lon="18.166392949278325"><ele>89.0</ele><time>2026-04-11T11:30:49.996Z</time></trkpt><trkpt lat="40.00697412245905" lon="18.16626543249353"><ele>89.0</ele><time>2026-04-11T11:30:50.996Z</time></trkpt><trkpt lat="40.00689953901619" lon="18.166103407815896"><ele>89.0</ele><time>2026-04-11T11:30:51.996Z</time></trkpt><trkpt lat="40.00694565690621" lon="18.16629683464883"><ele>89.0</ele><time>2026-04-11T11:30:52.996Z</time></trkpt><trkpt lat="40.00689740921765" lon="18.166190445489857"><ele>89.0</ele><time>2026-04-11T11:30:54.996Z</time></trkpt><trkpt lat="40.00686372403569" lon="18.1661067123888"><ele>89.0</ele><time>2026-04-11T11:30:57.996Z</time></trkpt><trkpt lat="40.00682734148336" lon="18.16601122521527"><ele>89.0</ele><time>2026-04-11T11:31:00.996Z</time></trkpt><trkpt lat="40.00679129343333" lon="18.165926124253172"><ele>89.0</ele><time>2026-04-11T11:31:02.996Z</time></trkpt><trkpt lat="40.006795862650144" lon="18.165843685023006"><ele>89.0</ele><time>2026-04-11T11:31:05.996Z</time></trkpt><trkpt lat="40.006870130171365" lon="18.165772533636783"><ele>89.0</ele><time>2026-04-11T11:31:07.996Z</time></trkpt><trkpt lat="40.006928719165096" lon="18.16573136340016"><ele>89.0</ele><time>2026-04-11T11:31:08.996Z</time></trkpt><trkpt lat="40.007017442285175" lon="18.16569211698622"><ele>89.80000000000001</ele><time>2026-04-11T11:31:10.996Z</time></trkpt><trkpt lat="40.007088968684435" lon="18.165653467014508"><ele>90.60000000000001</ele><time>2026-04-11T11:31:12.996Z</time></trkpt><trkpt lat="40.00714389725115" lon="18.16561322582815"><ele>91.4</ele><time>2026-04-11T11:31:13.996Z</time></trkpt><trkpt lat="40.007216944168306" lon="18.165567235282882"><ele>92.2</ele><time>2026-04-11T11:31:14.996Z</time></trkpt><trkpt lat="40.00730291365333" lon="18.165502770613703"><ele>93.0</ele><time>2026-04-11T11:31:15.996Z</time></trkpt><trkpt lat="40.007424802724955" lon="18.165414949985113"><ele>92.25</ele><time>2026-04-11T11:31:16.996Z</time></trkpt><trkpt lat="40.00754446896387" lon="18.16532801559071"><ele>91.5</ele><time>2026-04-11T11:31:17.996Z</time></trkpt><trkpt lat="40.00765645334817" lon="18.165223546937874"><ele>90.75</ele><time>2026-04-11T11:31:18.996Z</time></trkpt><trkpt lat="40.007774637749186" lon="18.165125872616656"><ele>90.0</ele><time>2026-04-11T11:31:19.996Z</time></trkpt><trkpt lat="40.00792383462463" lon="18.165034117195415"><ele>90.0</ele><time>2026-04-11T11:31:20.996Z</time></trkpt><trkpt lat="40.00809760403866" lon="18.16494753582663"><ele>90.0</ele><time>2026-04-11T11:31:21.996Z</time></trkpt><trkpt lat="40.00826013875232" lon="18.16486292126327"><ele>90.0</ele><time>2026-04-11T11:31:22.996Z</time></trkpt><trkpt lat="40.008376806193716" lon="18.164802527876788"><ele>90.2</ele><time>2026-04-11T11:31:23.996Z</time></trkpt><trkpt lat="40.008471238814735" lon="18.164767426713635"><ele>90.4</ele><time>2026-04-11T11:31:24.996Z</time></trkpt><trkpt lat="40.00854386422161" lon="18.16472889044125"><ele>90.6</ele><time>2026-04-11T11:31:26.996Z</time></trkpt><trkpt lat="40.00860474443009" lon="18.164796128495258"><ele>90.8</ele><time>2026-04-11T11:31:29.996Z</time></trkpt><trkpt lat="40.00863823512103" lon="18.16491467432728"><ele>91.0</ele><time>2026-04-11T11:31:30.996Z</time></trkpt><trkpt lat="40.008683530865525" lon="18.165072267187846"><ele>91.0</ele><time>2026-04-11T11:31:31.996Z</time></trkpt><trkpt lat="40.008738907424465" lon="18.16527217879054"><ele>91.0</ele><time>2026-04-11T11:31:32.996Z</time></trkpt><trkpt lat="40.00881702621055" lon="18.165486757188837"><ele>91.0</ele><time>2026-04-11T11:31:33.996Z</time></trkpt><trkpt lat="40.008885581007426" lon="18.165723630014508"><ele>92.0</ele><time>2026-04-11T11:31:34.996Z</time></trkpt><trkpt lat="40.00894656743339" lon="18.16593939152412"><ele>93.0</ele><time>2026-04-11T11:31:35.996Z</time></trkpt><trkpt lat="40.008992503585176" lon="18.166132977722725"><ele>94.0</ele><time>2026-04-11T11:31:36.996Z</time></trkpt><trkpt lat="40.00903142341225" lon="18.1662837399803"><ele>94.0</ele><time>2026-04-11T11:31:37.996Z</time></trkpt><trkpt lat="40.00906116753683" lon="18.166390115946367"><ele>94.0</ele><time>2026-04-11T11:31:38.996Z</time></trkpt><trkpt lat="40.00912271579291" lon="18.16645668579786"><ele>94.0</ele><time>2026-04-11T11:31:44.996Z</time></trkpt><trkpt lat="40.00920129061443" lon="18.166451409759784"><ele>94.0</ele><time>2026-04-11T11:31:45.996Z</time></trkpt><trkpt lat="40.00932905667889" lon="18.16641198163349"><ele>94.0</ele><time>2026-04-11T11:31:46.996Z</time></trkpt><trkpt lat="40.00947254346715" lon="18.16639870984561"><ele>94.0</ele><time>2026-04-11T11:31:47.996Z</time></trkpt><trkpt lat="40.00956542360107" lon="18.166403774654388"><ele>94.0</ele><time>2026-04-11T11:31:48.996Z</time></trkpt><trkpt lat="40.00965161025655" lon="18.166405930962885"><ele>94.0</ele><time>2026-04-11T11:31:50.996Z</time></trkpt><trkpt lat="40.00973162894446" lon="18.166395665024123"><ele>94.0</ele><time>2026-04-11T11:31:54.996Z</time></trkpt><trkpt lat="40.00980521312428" lon="18.16640479466415"><ele>94.0</ele><time>2026-04-11T11:31:56.996Z</time></trkpt><trkpt lat="40.009897104034685" lon="18.166396710356477"><ele>94.0</ele><time>2026-04-11T11:31:58.996Z</time></trkpt><trkpt lat="40.00996078919333" lon="18.166391878435398"><ele>94.75</ele><time>2026-04-11T11:31:59.996Z</time></trkpt><trkpt lat="40.01005761076997" lon="18.166387079792973"><ele>95.5</ele><time>2026-04-11T11:32:00.996Z</time></trkpt><trkpt lat="40.01016585404233" lon="18.166363102777108"><ele>96.25</ele><time>2026-04-11T11:32:01.996Z</time></trkpt><trkpt lat="40.01026680281369" lon="18.166322481375882"><ele>97.0</ele><time>2026-04-11T11:32:02.996Z</time></trkpt><trkpt lat="40.01038308219416" lon="18.166222513874462"><ele>97.0</ele><time>2026-04-11T11:32:03.996Z</time></trkpt><trkpt lat="40.01048052427537" lon="18.16611903369389"><ele>97.0</ele><time>2026-04-11T11:32:04.996Z</time></trkpt><trkpt lat="40.010567869414785" lon="18.165961518157836"><ele>97.0</ele><time>2026-04-11T11:32:05.996Z</time></trkpt><trkpt lat="40.01067634485236" lon="18.165785837716484"><ele>97.0</ele><time>2026-04-11T11:32:06.996Z</time></trkpt><trkpt lat="40.01079298629709" lon="18.16560396179967"><ele>99.33333333333334</ele><time>2026-04-11T11:32:07.996Z</time></trkpt><trkpt lat="40.01092291108988" lon="18.165402131617128"><ele>101.66666666666666</ele><time>2026-04-11T11:32:08.996Z</time></trkpt><trkpt lat="40.011057712606956" lon="18.165201517040902"><ele>104.0</ele><time>2026-04-11T11:32:09.996Z</time></trkpt><trkpt lat="40.01118295545604" lon="18.165014689542108"><ele>104.0</ele><time>2026-04-11T11:32:10.996Z</time></trkpt><trkpt lat="40.0112840385959" lon="18.164866898053543"><ele>104.0</ele><time>2026-04-11T11:32:11.996Z</time></trkpt><trkpt lat="40.01134798222295" lon="18.164764956576498"><ele>104.0</ele><time>2026-04-11T11:32:12.996Z</time></trkpt><trkpt lat="40.01142056506415" lon="18.164675379247402"><ele>104.0</ele><time>2026-04-11T11:32:13.996Z</time></trkpt><trkpt lat="40.011478755825706" lon="18.164618931587093"><ele>104.0</ele><time>2026-04-11T11:32:14.996Z</time></trkpt><trkpt lat="40.01156241747355" lon="18.164567712812328"><ele>104.49999999999999</ele><time>2026-04-11T11:32:16.996Z</time></trkpt><trkpt lat="40.011634829902036" lon="18.164546290577388"><ele>105.0</ele><time>2026-04-11T11:32:20.996Z</time></trkpt><trkpt lat="40.011718505148295" lon="18.16465511158773"><ele>105.5</ele><time>2026-04-11T11:32:22.996Z</time></trkpt><trkpt lat="40.01174799510523" lon="18.164764361828546"><ele>106.0</ele><time>2026-04-11T11:32:23.996Z</time></trkpt><trkpt lat="40.01176637902861" lon="18.164863227381705"><ele>106.49999999999999</ele><time>2026-04-11T11:32:24.996Z</time></trkpt><trkpt lat="40.01178761215738" lon="18.164974577410153"><ele>107.0</ele><time>2026-04-11T11:32:25.996Z</time></trkpt><trkpt lat="40.01180912547314" lon="18.165101493819403"><ele>107.33333333333333</ele><time>2026-04-11T11:32:26.996Z</time></trkpt><trkpt lat="40.01182023165082" lon="18.16520867271136"><ele>107.66666666666666</ele><time>2026-04-11T11:32:27.996Z</time></trkpt><trkpt lat="40.0118158568056" lon="18.165304015480427"><ele>108.0</ele><time>2026-04-11T11:32:28.996Z</time></trkpt><trkpt lat="40.01181770696924" lon="18.165404199801515"><ele>108.33333333333334</ele><time>2026-04-11T11:32:29.996Z</time></trkpt><trkpt lat="40.0118025315258" lon="18.165503115788127"><ele>108.66666666666667</ele><time>2026-04-11T11:32:30.996Z</time></trkpt><trkpt lat="40.011811620858076" lon="18.165599764809247"><ele>109.0</ele><time>2026-04-11T11:32:31.996Z</time></trkpt><trkpt lat="40.01181441408226" lon="18.165692193930827"><ele>108.66666666666667</ele><time>2026-04-11T11:32:32.996Z</time></trkpt><trkpt lat="40.01182655759344" lon="18.165782788845668"><ele>108.33333333333334</ele><time>2026-04-11T11:32:33.996Z</time></trkpt><trkpt lat="40.01183541698003" lon="18.16587975065683"><ele>108.0</ele><time>2026-04-11T11:32:34.996Z</time></trkpt><trkpt lat="40.011839578609944" lon="18.165981086476222"><ele>107.66666666666666</ele><time>2026-04-11T11:32:35.996Z</time></trkpt><trkpt lat="40.0118595523106" lon="18.16606433669442"><ele>107.33333333333333</ele><time>2026-04-11T11:32:36.996Z</time></trkpt><trkpt lat="40.011884069309346" lon="18.166250420594505"><ele>107.0</ele><time>2026-04-11T11:32:38.996Z</time></trkpt><trkpt lat="40.011901921434884" lon="18.166340515729786"><ele>106.99999999999999</ele><time>2026-04-11T11:32:39.996Z</time></trkpt><trkpt lat="40.01191468992795" lon="18.16644541491027"><ele>107.0</ele><time>2026-04-11T11:32:40.996Z</time></trkpt><trkpt lat="40.01192144864474" lon="18.166548980527217"><ele>107.0</ele><time>2026-04-11T11:32:41.996Z</time></trkpt><trkpt lat="40.0119367476857" lon="18.166654518949997"><ele>107.0</ele><time>2026-04-11T11:32:42.996Z</time></trkpt><trkpt lat="40.01194866211994" lon="18.16676389168879"><ele>106.99999999999999</ele><time>2026-04-11T11:32:43.996Z</time></trkpt><trkpt lat="40.01195527698612" lon="18.166878201986002"><ele>107.0</ele><time>2026-04-11T11:32:44.996Z</time></trkpt><trkpt lat="40.01196780174161" lon="18.166992110808476"><ele>106.83333333333333</ele><time>2026-04-11T11:32:45.996Z</time></trkpt><trkpt lat="40.01197190940852" lon="18.167105754890372"><ele>106.66666666666666</ele><time>2026-04-11T11:32:46.996Z</time></trkpt><trkpt lat="40.011971713259044" lon="18.167211789247613"><ele>106.5</ele><time>2026-04-11T11:32:47.996Z</time></trkpt><trkpt lat="40.011970388645445" lon="18.16731402465176"><ele>106.33333333333334</ele><time>2026-04-11T11:32:48.996Z</time></trkpt><trkpt lat="40.01197227932427" lon="18.16741509374746"><ele>106.16666666666667</ele><time>2026-04-11T11:32:49.996Z</time></trkpt><trkpt lat="40.01197328386946" lon="18.167519533145697"><ele>106.0</ele><time>2026-04-11T11:32:50.996Z</time></trkpt><trkpt lat="40.0119721229946" lon="18.167655376342662"><ele>107.0</ele><time>2026-04-11T11:32:52.996Z</time></trkpt><trkpt lat="40.011954111643945" lon="18.167765885581723"><ele>108.0</ele><time>2026-04-11T11:32:54.996Z</time></trkpt><trkpt lat="40.01193117782782" lon="18.167925462725414"><ele>109.0</ele><time>2026-04-11T11:32:56.996Z</time></trkpt><trkpt lat="40.01188746943158" lon="18.16805231627302"><ele>110.0</ele><time>2026-04-11T11:32:57.996Z</time></trkpt><trkpt lat="40.01183106508849" lon="18.16819778722846"><ele>111.0</ele><time>2026-04-11T11:32:58.996Z</time></trkpt><trkpt lat="40.01174616300201" lon="18.168356513648913"><ele>111.4</ele><time>2026-04-11T11:32:59.996Z</time></trkpt><trkpt lat="40.01165999402072" lon="18.168497383613715"><ele>111.8</ele><time>2026-04-11T11:33:00.996Z</time></trkpt><trkpt lat="40.011599123141686" lon="18.168619309822883"><ele>112.20000000000002</ele><time>2026-04-11T11:33:01.996Z</time></trkpt><trkpt lat="40.01154138787304" lon="18.168721965647244"><ele>112.60000000000001</ele><time>2026-04-11T11:33:02.996Z</time></trkpt><trkpt lat="40.01149256794204" lon="18.16883121456411"><ele>113.0</ele><time>2026-04-11T11:33:03.996Z</time></trkpt><trkpt lat="40.011443378731705" lon="18.168939131060945"><ele>113.16666666666666</ele><time>2026-04-11T11:33:04.996Z</time></trkpt><trkpt lat="40.01139366720301" lon="18.1690434723545"><ele>113.33333333333333</ele><time>2026-04-11T11:33:05.996Z</time></trkpt><trkpt lat="40.011349188392" lon="18.169133230151488"><ele>113.5</ele><time>2026-04-11T11:33:06.996Z</time></trkpt><trkpt lat="40.011312952942454" lon="18.1692059242119"><ele>113.66666666666666</ele><time>2026-04-11T11:33:07.996Z</time></trkpt><trkpt lat="40.01124906234401" lon="18.16932230373551"><ele>113.83333333333333</ele><time>2026-04-11T11:33:09.996Z</time></trkpt><trkpt lat="40.01121307581743" lon="18.16939817151584"><ele>114.0</ele><time>2026-04-11T11:33:12.995Z</time></trkpt><trkpt lat="40.01116076610433" lon="18.169447494913214"><ele>114.0</ele><time>2026-04-11T11:33:30.995Z</time></trkpt><trkpt lat="40.01106670467039" lon="18.169447004951756"><ele>114.0</ele><time>2026-04-11T11:33:34.995Z</time></trkpt><trkpt lat="40.010997906941036" lon="18.169390596122614"><ele>114.0</ele><time>2026-04-11T11:33:36.995Z</time></trkpt><trkpt lat="40.01089967500217" lon="18.169325207044146"><ele>114.0</ele><time>2026-04-11T11:33:38.995Z</time></trkpt><trkpt lat="40.01078562285728" lon="18.16927519057543"><ele>114.0</ele><time>2026-04-11T11:33:40.995Z</time></trkpt><trkpt lat="40.01071701522175" lon="18.1691989028969"><ele>113.66666666666667</ele><time>2026-04-11T11:33:42.995Z</time></trkpt><trkpt lat="40.010632039376354" lon="18.169150977788465"><ele>113.33333333333334</ele><time>2026-04-11T11:33:44.995Z</time></trkpt><trkpt lat="40.01054607192238" lon="18.169141781566147"><ele>113.0</ele><time>2026-04-11T11:33:46.995Z</time></trkpt><trkpt lat="40.010481344802706" lon="18.16915139019126"><ele>112.66666666666667</ele><time>2026-04-11T11:33:47.995Z</time></trkpt><trkpt lat="40.010400784575694" lon="18.169158217343977"><ele>112.33333333333334</ele><time>2026-04-11T11:33:48.995Z</time></trkpt><trkpt lat="40.01030501066919" lon="18.169130037810284"><ele>112.0</ele><time>2026-04-11T11:33:49.995Z</time></trkpt><trkpt lat="40.01022672427379" lon="18.169099627578813"><ele>112.00000000000001</ele><time>2026-04-11T11:33:50.995Z</time></trkpt><trkpt lat="40.01014364141414" lon="18.169072163714574"><ele>112.0</ele><time>2026-04-11T11:33:52.995Z</time></trkpt><trkpt lat="40.010092310388565" lon="18.16914827470818"><ele>112.0</ele><time>2026-04-11T11:33:54.995Z</time></trkpt><trkpt lat="40.01005544433959" lon="18.169254796872195"><ele>112.0</ele><time>2026-04-11T11:33:55.995Z</time></trkpt><trkpt lat="40.01000854947217" lon="18.16935687454597"><ele>112.00000000000001</ele><time>2026-04-11T11:33:56.995Z</time></trkpt><trkpt lat="40.009968137203096" lon="18.169433461993634"><ele>112.0</ele><time>2026-04-11T11:33:57.995Z</time></trkpt><trkpt lat="40.00998264083977" lon="18.16959600388909"><ele>112.0</ele><time>2026-04-11T11:33:59.995Z</time></trkpt><trkpt lat="40.0100497458203" lon="18.169683189313492"><ele>112.0</ele><time>2026-04-11T11:34:00.995Z</time></trkpt><trkpt lat="40.010150784062525" lon="18.169776046737255"><ele>112.0</ele><time>2026-04-11T11:34:01.995Z</time></trkpt><trkpt lat="40.010285862591445" lon="18.169880522588983"><ele>112.0</ele><time>2026-04-11T11:34:02.995Z</time></trkpt><trkpt lat="40.010413521779576" lon="18.170003933280377"><ele>112.19999999999999</ele><time>2026-04-11T11:34:03.995Z</time></trkpt><trkpt lat="40.010508815009175" lon="18.170136652328328"><ele>112.39999999999999</ele><time>2026-04-11T11:34:04.995Z</time></trkpt><trkpt lat="40.0105792134331" lon="18.170241162879677"><ele>112.60000000000001</ele><time>2026-04-11T11:34:05.995Z</time></trkpt><trkpt lat="40.010619765054415" lon="18.17031838921715"><ele>112.80000000000001</ele><time>2026-04-11T11:34:06.995Z</time></trkpt><trkpt lat="40.01071463075157" lon="18.170397299450467"><ele>113.0</ele><time>2026-04-11T11:34:08.995Z</time></trkpt><trkpt lat="40.01082174437377" lon="18.170308190294893"><ele>113.80000000000001</ele><time>2026-04-11T11:34:10.995Z</time></trkpt><trkpt lat="40.0108945115901" lon="18.17024785841393"><ele>114.60000000000001</ele><time>2026-04-11T11:34:11.995Z</time></trkpt><trkpt lat="40.01099313168765" lon="18.1702168482746"><ele>115.39999999999999</ele><time>2026-04-11T11:34:13.995Z</time></trkpt><trkpt lat="40.01105119690022" lon="18.170262652681195"><ele>116.19999999999999</ele><time>2026-04-11T11:34:15.995Z</time></trkpt><trkpt lat="40.01108897937656" lon="18.170364930116342"><ele>117.0</ele><time>2026-04-11T11:34:16.995Z</time></trkpt><trkpt lat="40.01112238933753" lon="18.170518400564546"><ele>117.66666666666666</ele><time>2026-04-11T11:34:17.995Z</time></trkpt><trkpt lat="40.011153966013204" lon="18.170693824625854"><ele>118.33333333333333</ele><time>2026-04-11T11:34:18.995Z</time></trkpt><trkpt lat="40.01119985250767" lon="18.170881978658223"><ele>119.0</ele><time>2026-04-11T11:34:19.995Z</time></trkpt><trkpt lat="40.01125574296846" lon="18.171098338831804"><ele>119.0</ele><time>2026-04-11T11:34:20.995Z</time></trkpt><trkpt lat="40.011303522613375" lon="18.171320205975313"><ele>119.0</ele><time>2026-04-11T11:34:21.995Z</time></trkpt><trkpt lat="40.01133765228425" lon="18.17149510329859"><ele>119.0</ele><time>2026-04-11T11:34:22.995Z</time></trkpt><trkpt lat="40.01137289943725" lon="18.17162010889579"><ele>119.0</ele><time>2026-04-11T11:34:23.995Z</time></trkpt><trkpt lat="40.011403470179744" lon="18.17173644651049"><ele>119.16666666666666</ele><time>2026-04-11T11:34:24.995Z</time></trkpt><trkpt lat="40.01141324178377" lon="18.171846742525066"><ele>119.33333333333333</ele><time>2026-04-11T11:34:25.995Z</time></trkpt><trkpt lat="40.01143939829189" lon="18.17194219073846"><ele>119.5</ele><time>2026-04-11T11:34:26.995Z</time></trkpt><trkpt lat="40.011465002611274" lon="18.17205086924714"><ele>119.66666666666666</ele><time>2026-04-11T11:34:27.995Z</time></trkpt><trkpt lat="40.011489662419784" lon="18.17215495361371"><ele>119.83333333333333</ele><time>2026-04-11T11:34:28.995Z</time></trkpt><trkpt lat="40.01151397269334" lon="18.172254100941057"><ele>120.0</ele><time>2026-04-11T11:34:29.995Z</time></trkpt><trkpt lat="40.01154052996426" lon="18.17235807026762"><ele>120.5</ele><time>2026-04-11T11:34:30.995Z</time></trkpt><trkpt lat="40.01156143816604" lon="18.1724736062713"><ele>121.0</ele><time>2026-04-11T11:34:31.995Z</time></trkpt><trkpt lat="40.01158673381214" lon="18.172584789072815"><ele>121.5</ele><time>2026-04-11T11:34:32.995Z</time></trkpt><trkpt lat="40.01161580099218" lon="18.172691420125105"><ele>122.0</ele><time>2026-04-11T11:34:33.995Z</time></trkpt><trkpt lat="40.011627339613995" lon="18.17281586172711"><ele>122.5</ele><time>2026-04-11T11:34:34.995Z</time></trkpt><trkpt lat="40.01164605298582" lon="18.17291717395745"><ele>123.0</ele><time>2026-04-11T11:34:35.995Z</time></trkpt><trkpt lat="40.01166789576788" lon="18.173019973155473"><ele>123.16666666666667</ele><time>2026-04-11T11:34:36.995Z</time></trkpt><trkpt lat="40.01169134525293" lon="18.173126790828352"><ele>123.33333333333334</ele><time>2026-04-11T11:34:37.995Z</time></trkpt><trkpt lat="40.01171494927731" lon="18.173238458805574"><ele>123.5</ele><time>2026-04-11T11:34:38.995Z</time></trkpt><trkpt lat="40.01173999417988" lon="18.17334589788579"><ele>123.66666666666667</ele><time>2026-04-11T11:34:39.995Z</time></trkpt><trkpt lat="40.01176385908477" lon="18.17346235274466"><ele>123.83333333333334</ele><time>2026-04-11T11:34:40.995Z</time></trkpt><trkpt lat="40.0117885718538" lon="18.17358239759338"><ele>124.0</ele><time>2026-04-11T11:34:41.995Z</time></trkpt><trkpt lat="40.01182522772452" lon="18.173704445389113"><ele>124.4</ele><time>2026-04-11T11:34:42.995Z</time></trkpt><trkpt lat="40.01184571621038" lon="18.17382190253344"><ele>124.80000000000001</ele><time>2026-04-11T11:34:43.995Z</time></trkpt><trkpt lat="40.01185007499695" lon="18.173941159107223"><ele>125.19999999999999</ele><time>2026-04-11T11:34:44.995Z</time></trkpt><trkpt lat="40.01185354022134" lon="18.17405371953932"><ele>125.6</ele><time>2026-04-11T11:34:45.995Z</time></trkpt><trkpt lat="40.01184350363226" lon="18.17417483735508"><ele>126.0</ele><time>2026-04-11T11:34:46.995Z</time></trkpt><trkpt lat="40.01183646357643" lon="18.174294239980863"><ele>127.16666666666667</ele><time>2026-04-11T11:34:47.995Z</time></trkpt><trkpt lat="40.01183088106552" lon="18.174414319994476"><ele>128.33333333333334</ele><time>2026-04-11T11:34:48.995Z</time></trkpt><trkpt lat="40.011826973602176" lon="18.174529204627348"><ele>129.5</ele><time>2026-04-11T11:34:49.995Z</time></trkpt><trkpt lat="40.011820550565574" lon="18.174643225455064"><ele>130.66666666666669</ele><time>2026-04-11T11:34:50.995Z</time></trkpt><trkpt lat="40.01181347738481" lon="18.174755870845768"><ele>131.83333333333334</ele><time>2026-04-11T11:34:51.995Z</time></trkpt><trkpt lat="40.01180855979077" lon="18.174865514750127"><ele>133.0</ele><time>2026-04-11T11:34:52.995Z</time></trkpt><trkpt lat="40.01180442155541" lon="18.17497366997054"><ele>133.4</ele><time>2026-04-11T11:34:53.995Z</time></trkpt><trkpt lat="40.01179969931674" lon="18.17508899648924"><ele>133.8</ele><time>2026-04-11T11:34:54.995Z</time></trkpt><trkpt lat="40.01179277464696" lon="18.175202387111494"><ele>134.2</ele><time>2026-04-11T11:34:55.995Z</time></trkpt><trkpt lat="40.01178262115714" lon="18.175324870086598"><ele>134.6</ele><time>2026-04-11T11:34:56.995Z</time></trkpt><trkpt lat="40.01176674202167" lon="18.1754558026099"><ele>135.0</ele><time>2026-04-11T11:34:57.995Z</time></trkpt><trkpt lat="40.01174427768898" lon="18.17559425832858"><ele>135.6</ele><time>2026-04-11T11:34:58.995Z</time></trkpt><trkpt lat="40.01171470045362" lon="18.17573392142927"><ele>136.2</ele><time>2026-04-11T11:34:59.995Z</time></trkpt><trkpt lat="40.01168684087539" lon="18.175879236714295"><ele>136.8</ele><time>2026-04-11T11:35:00.995Z</time></trkpt><trkpt lat="40.01166420880569" lon="18.17602041520724"><ele>137.4</ele><time>2026-04-11T11:35:01.995Z</time></trkpt><trkpt lat="40.01164798037646" lon="18.176146211457706"><ele>138.0</ele><time>2026-04-11T11:35:02.995Z</time></trkpt><trkpt lat="40.01162803619792" lon="18.17626748611852"><ele>139.0</ele><time>2026-04-11T11:35:03.995Z</time></trkpt><trkpt lat="40.01161027386955" lon="18.17637567497451"><ele>140.0</ele><time>2026-04-11T11:35:04.995Z</time></trkpt><trkpt lat="40.01158069739359" lon="18.176487546880864"><ele>141.0</ele><time>2026-04-11T11:35:05.995Z</time></trkpt><trkpt lat="40.01155661597802" lon="18.176609936820785"><ele>142.0</ele><time>2026-04-11T11:35:06.995Z</time></trkpt><trkpt lat="40.011522609807734" lon="18.176751051201542"><ele>143.0</ele><time>2026-04-11T11:35:07.995Z</time></trkpt><trkpt lat="40.01148439616617" lon="18.176900614335015"><ele>143.0</ele><time>2026-04-11T11:35:08.995Z</time></trkpt><trkpt lat="40.01144334058793" lon="18.177067455699667"><ele>143.0</ele><time>2026-04-11T11:35:09.995Z</time></trkpt><trkpt lat="40.01140839936542" lon="18.177261449081055"><ele>143.0</ele><time>2026-04-11T11:35:10.995Z</time></trkpt><trkpt lat="40.01136190056271" lon="18.17748046227704"><ele>143.0</ele><time>2026-04-11T11:35:11.995Z</time></trkpt><trkpt lat="40.01130832878421" lon="18.1777044054893"><ele>143.0</ele><time>2026-04-11T11:35:12.995Z</time></trkpt><trkpt lat="40.01126980819902" lon="18.177891537494244"><ele>143.0</ele><time>2026-04-11T11:35:13.995Z</time></trkpt><trkpt lat="40.01124528646352" lon="18.17802003233284"><ele>143.0</ele><time>2026-04-11T11:35:14.995Z</time></trkpt><trkpt lat="40.011223429643906" lon="18.178125721576198"><ele>142.83333333333331</ele><time>2026-04-11T11:35:15.995Z</time></trkpt><trkpt lat="40.01121077516975" lon="18.178213826321688"><ele>142.66666666666666</ele><time>2026-04-11T11:35:16.995Z</time></trkpt><trkpt lat="40.01120064120873" lon="18.178300125388322"><ele>142.5</ele><time>2026-04-11T11:35:17.995Z</time></trkpt><trkpt lat="40.01119553759988" lon="18.178402682659804"><ele>142.33333333333334</ele><time>2026-04-11T11:35:18.995Z</time></trkpt><trkpt lat="40.01119178138731" lon="18.178526679204374"><ele>142.16666666666669</ele><time>2026-04-11T11:35:19.995Z</time></trkpt><trkpt lat="40.01118147026102" lon="18.178683376576945"><ele>142.0</ele><time>2026-04-11T11:35:20.995Z</time></trkpt><trkpt lat="40.01117997752672" lon="18.17885411611617"><ele>142.0</ele><time>2026-04-11T11:35:21.995Z</time></trkpt><trkpt lat="40.01116678351449" lon="18.17906275564349"><ele>142.0</ele><time>2026-04-11T11:35:22.995Z</time></trkpt><trkpt lat="40.011152997874305" lon="18.179299722361467"><ele>142.0</ele><time>2026-04-11T11:35:23.995Z</time></trkpt><trkpt lat="40.01112171879752" lon="18.179549042232725"><ele>142.0</ele><time>2026-04-11T11:35:24.995Z</time></trkpt><trkpt lat="40.01108656683048" lon="18.17981421855668"><ele>142.0</ele><time>2026-04-11T11:35:25.995Z</time></trkpt><trkpt lat="40.01116587692708" lon="18.18004746983593"><ele>142.0</ele><time>2026-04-11T11:35:26.995Z</time></trkpt><trkpt lat="40.01116103567496" lon="18.18032762860438"><ele>142.0</ele><time>2026-04-11T11:35:27.995Z</time></trkpt><trkpt lat="40.01115676241132" lon="18.180613847808207"><ele>142.0</ele><time>2026-04-11T11:35:28.995Z</time></trkpt><trkpt lat="40.01115657880553" lon="18.180903568525586"><ele>142.0</ele><time>2026-04-11T11:35:29.995Z</time></trkpt><trkpt lat="40.011148422930155" lon="18.181198188551452"><ele>142.5</ele><time>2026-04-11T11:35:30.995Z</time></trkpt><trkpt lat="40.011137396493645" lon="18.181504993257445"><ele>143.0</ele><time>2026-04-11T11:35:31.995Z</time></trkpt><trkpt lat="40.01111607685369" lon="18.18183394874481"><ele>143.5</ele><time>2026-04-11T11:35:32.995Z</time></trkpt><trkpt lat="40.01109064048313" lon="18.18217582373942"><ele>144.0</ele><time>2026-04-11T11:35:33.995Z</time></trkpt><trkpt lat="40.01105813996209" lon="18.182513866354707"><ele>143.0</ele><time>2026-04-11T11:35:34.995Z</time></trkpt><trkpt lat="40.01102138894713" lon="18.18284837333029"><ele>142.0</ele><time>2026-04-11T11:35:35.995Z</time></trkpt><trkpt lat="40.01097290768565" lon="18.183198302466785"><ele>141.5</ele><time>2026-04-11T11:35:36.995Z</time></trkpt><trkpt lat="40.010916425676385" lon="18.183550703295648"><ele>141.0</ele><time>2026-04-11T11:35:37.995Z</time></trkpt><trkpt lat="40.01085415304597" lon="18.18389560535642"><ele>143.0</ele><time>2026-04-11T11:35:38.995Z</time></trkpt><trkpt lat="40.01078385578877" lon="18.18423220369062"><ele>145.0</ele><time>2026-04-11T11:35:39.995Z</time></trkpt><trkpt lat="40.01071005928987" lon="18.18457492874266"><ele>145.5</ele><time>2026-04-11T11:35:40.995Z</time></trkpt><trkpt lat="40.010622628880704" lon="18.18492212830682"><ele>146.0</ele><time>2026-04-11T11:35:41.995Z</time></trkpt><trkpt lat="40.010532275496224" lon="18.185258515999983"><ele>146.0</ele><time>2026-04-11T11:35:42.995Z</time></trkpt><trkpt lat="40.010433000794634" lon="18.185592762847257"><ele>146.0</ele><time>2026-04-11T11:35:43.995Z</time></trkpt><trkpt lat="40.01032792929986" lon="18.185921011526776"><ele>146.0</ele><time>2026-04-11T11:35:44.995Z</time></trkpt><trkpt lat="40.010219984457066" lon="18.186247519792143"><ele>146.0</ele><time>2026-04-11T11:35:45.995Z</time></trkpt><trkpt lat="40.01011045344174" lon="18.186575947802233"><ele>145.5</ele><time>2026-04-11T11:35:46.995Z</time></trkpt><trkpt lat="40.00999932268712" lon="18.186894449069282"><ele>145.0</ele><time>2026-04-11T11:35:47.995Z</time></trkpt><trkpt lat="40.00988005139927" lon="18.187205249961277"><ele>146.5</ele><time>2026-04-11T11:35:48.995Z</time></trkpt><trkpt lat="40.00972184557884" lon="18.187501449983998"><ele>148.0</ele><time>2026-04-11T11:35:49.995Z</time></trkpt><trkpt lat="40.009584109232975" lon="18.187787907830305"><ele>148.0</ele><time>2026-04-11T11:35:50.995Z</time></trkpt><trkpt lat="40.00945672663871" lon="18.188020840293735"><ele>148.0</ele><time>2026-04-11T11:35:51.995Z</time></trkpt><trkpt lat="40.00935233637418" lon="18.188245203262497"><ele>148.0</ele><time>2026-04-11T11:35:52.995Z</time></trkpt><trkpt lat="40.00925419366338" lon="18.188458076510074"><ele>149.0</ele><time>2026-04-11T11:35:53.995Z</time></trkpt><trkpt lat="40.009129463901296" lon="18.18864903706627"><ele>150.0</ele><time>2026-04-11T11:35:54.995Z</time></trkpt><trkpt lat="40.00900059415165" lon="18.188819107340926"><ele>151.0</ele><time>2026-04-11T11:35:55.995Z</time></trkpt><trkpt lat="40.00888346455788" lon="18.188972183310085"><ele>150.8</ele><time>2026-04-11T11:35:56.995Z</time></trkpt><trkpt lat="40.00877813859852" lon="18.189113781533006"><ele>150.6</ele><time>2026-04-11T11:35:57.994Z</time></trkpt><trkpt lat="40.00869429860491" lon="18.18924150882466"><ele>150.4</ele><time>2026-04-11T11:35:58.994Z</time></trkpt><trkpt lat="40.0086640205674" lon="18.18931638549623"><ele>150.2</ele><time>2026-04-11T11:35:59.994Z</time></trkpt><trkpt lat="40.00859333922285" lon="18.189310583046517"><ele>150.0</ele><time>2026-04-11T11:36:02.994Z</time></trkpt><trkpt lat="40.008480165018454" lon="18.189291404537403"><ele>150.0</ele><time>2026-04-11T11:36:04.994Z</time></trkpt><trkpt lat="40.00839906068624" lon="18.189276859805137"><ele>150.0</ele><time>2026-04-11T11:36:05.994Z</time></trkpt><trkpt lat="40.00830880884397" lon="18.189246877722123"><ele>150.0</ele><time>2026-04-11T11:36:06.994Z</time></trkpt><trkpt lat="40.00823019315149" lon="18.189211733032195"><ele>150.0</ele><time>2026-04-11T11:36:07.994Z</time></trkpt><trkpt lat="40.008159647018246" lon="18.189143811736635"><ele>150.0</ele><time>2026-04-11T11:36:09.994Z</time></trkpt><trkpt lat="40.008117439025284" lon="18.18900023136099"><ele>151.4</ele><time>2026-04-11T11:36:11.994Z</time></trkpt><trkpt lat="40.00811891889129" lon="18.188892457746878"><ele>152.8</ele><time>2026-04-11T11:36:12.994Z</time></trkpt><trkpt lat="40.008114638764205" lon="18.18876340709305"><ele>154.2</ele><time>2026-04-11T11:36:13.994Z</time></trkpt><trkpt lat="40.008110781512585" lon="18.188653076930628"><ele>155.6</ele><time>2026-04-11T11:36:14.994Z</time></trkpt><trkpt lat="40.0081029978301" lon="18.18852518503217"><ele>157.0</ele><time>2026-04-11T11:36:15.994Z</time></trkpt><trkpt lat="40.00809356611762" lon="18.18836638236252"><ele>157.0</ele><time>2026-04-11T11:36:16.994Z</time></trkpt><trkpt lat="40.00808928876171" lon="18.1882254216917"><ele>157.0</ele><time>2026-04-11T11:36:17.994Z</time></trkpt><trkpt lat="40.00810723346533" lon="18.18811672726283"><ele>157.0</ele><time>2026-04-11T11:36:18.994Z</time></trkpt><trkpt lat="40.00811975089525" lon="18.188001912131952"><ele>157.0</ele><time>2026-04-11T11:36:19.994Z</time></trkpt><trkpt lat="40.008115377415564" lon="18.18786762332903"><ele>157.0</ele><time>2026-04-11T11:36:20.994Z</time></trkpt><trkpt lat="40.00809946670509" lon="18.187717524511683"><ele>156.33333333333334</ele><time>2026-04-11T11:36:21.994Z</time></trkpt><trkpt lat="40.00807916025722" lon="18.18754414435433"><ele>155.66666666666666</ele><time>2026-04-11T11:36:22.994Z</time></trkpt><trkpt lat="40.00805446724641" lon="18.187340185615"><ele>155.0</ele><time>2026-04-11T11:36:23.994Z</time></trkpt><trkpt lat="40.008020120454354" lon="18.18709753163159"><ele>154.66666666666666</ele><time>2026-04-11T11:36:24.994Z</time></trkpt><trkpt lat="40.007987271984256" lon="18.186838403451812"><ele>154.33333333333334</ele><time>2026-04-11T11:36:25.994Z</time></trkpt><trkpt lat="40.007955034966955" lon="18.186567271338955"><ele>154.0</ele><time>2026-04-11T11:36:26.994Z</time></trkpt><trkpt lat="40.00792512206877" lon="18.18630036276181"><ele>154.0</ele><time>2026-04-11T11:36:27.994Z</time></trkpt><trkpt lat="40.00789296813981" lon="18.186052297503313"><ele>154.0</ele><time>2026-04-11T11:36:28.994Z</time></trkpt><trkpt lat="40.00786856833191" lon="18.18584453521576"><ele>154.0</ele><time>2026-04-11T11:36:29.994Z</time></trkpt><trkpt lat="40.007849207897955" lon="18.185657340218995"><ele>154.0</ele><time>2026-04-11T11:36:30.994Z</time></trkpt><trkpt lat="40.00782655548211" lon="18.18552882055151"><ele>154.0</ele><time>2026-04-11T11:36:31.994Z</time></trkpt><trkpt lat="40.00781727631614" lon="18.185433686071786"><ele>154.0</ele><time>2026-04-11T11:36:32.994Z</time></trkpt><trkpt lat="40.00778442919694" lon="18.18536196858795"><ele>154.0</ele><time>2026-04-11T11:36:35.994Z</time></trkpt><trkpt lat="40.007675709299164" lon="18.185377292673785"><ele>154.0</ele><time>2026-04-11T11:36:38.994Z</time></trkpt><trkpt lat="40.00760231876978" lon="18.185425351295336"><ele>154.0</ele><time>2026-04-11T11:36:39.994Z</time></trkpt><trkpt lat="40.007495605497205" lon="18.185472006621204"><ele>154.5</ele><time>2026-04-11T11:36:40.994Z</time></trkpt><trkpt lat="40.00737496387466" lon="18.185527930184683"><ele>155.0</ele><time>2026-04-11T11:36:41.994Z</time></trkpt><trkpt lat="40.0072496092069" lon="18.185590576591032"><ele>155.5</ele><time>2026-04-11T11:36:42.994Z</time></trkpt><trkpt lat="40.007131104059866" lon="18.185640118084553"><ele>156.0</ele><time>2026-04-11T11:36:43.994Z</time></trkpt><trkpt lat="40.00704259907487" lon="18.185680096105955"><ele>156.0</ele><time>2026-04-11T11:36:44.994Z</time></trkpt><trkpt lat="40.00696486008166" lon="18.185720088555627"><ele>156.0</ele><time>2026-04-11T11:36:45.994Z</time></trkpt><trkpt lat="40.00689822998848" lon="18.18574779387169"><ele>156.0</ele><time>2026-04-11T11:36:46.994Z</time></trkpt><trkpt lat="40.00683050601722" lon="18.18577779077192"><ele>156.0</ele><time>2026-04-11T11:36:47.994Z</time></trkpt><trkpt lat="40.006766187005496" lon="18.185806806130994"><ele>156.0</ele><time>2026-04-11T11:36:48.994Z</time></trkpt><trkpt lat="40.0067024497797" lon="18.185836747681247"><ele>156.0</ele><time>2026-04-11T11:36:49.994Z</time></trkpt><trkpt lat="40.006609774629155" lon="18.185881237696442"><ele>156.6</ele><time>2026-04-11T11:36:51.994Z</time></trkpt><trkpt lat="40.00652510483606" lon="18.185932033769575"><ele>157.2</ele><time>2026-04-11T11:36:53.994Z</time></trkpt><trkpt lat="40.006416540242995" lon="18.186010700240804"><ele>157.8</ele><time>2026-04-11T11:36:55.994Z</time></trkpt><trkpt lat="40.00633012196531" lon="18.18606637281632"><ele>158.4</ele><time>2026-04-11T11:36:57.994Z</time></trkpt><trkpt lat="40.006435779167816" lon="18.18599609243656"><ele>159.0</ele><time>2026-04-11T11:37:19.994Z</time></trkpt><trkpt lat="40.006506663824354" lon="18.185954158564815"><ele>159.0</ele><time>2026-04-11T11:37:20.994Z</time></trkpt><trkpt lat="40.006584691973906" lon="18.185905121603284"><ele>159.0</ele><time>2026-04-11T11:37:21.994Z</time></trkpt><trkpt lat="40.00668069177639" lon="18.18584834148864"><ele>159.0</ele><time>2026-04-11T11:37:22.994Z</time></trkpt><trkpt lat="40.006788875991745" lon="18.185800209367823"><ele>159.0</ele><time>2026-04-11T11:37:23.994Z</time></trkpt><trkpt lat="40.006918285784366" lon="18.18573866479699"><ele>159.0</ele><time>2026-04-11T11:37:24.994Z</time></trkpt><trkpt lat="40.00706804326397" lon="18.18566427905863"><ele>158.0</ele><time>2026-04-11T11:37:25.994Z</time></trkpt><trkpt lat="40.00724128819194" lon="18.18558141379275"><ele>157.0</ele><time>2026-04-11T11:37:26.994Z</time></trkpt><trkpt lat="40.00740967688786" lon="18.185504133556453"><ele>156.0</ele><time>2026-04-11T11:37:27.994Z</time></trkpt><trkpt lat="40.007562345599055" lon="18.18543522871803"><ele>155.5</ele><time>2026-04-11T11:37:28.994Z</time></trkpt><trkpt lat="40.00769082172416" lon="18.185378294338616"><ele>155.0</ele><time>2026-04-11T11:37:29.994Z</time></trkpt><trkpt lat="40.007800643221074" lon="18.185322428214143"><ele>154.5</ele><time>2026-04-11T11:37:30.994Z</time></trkpt><trkpt lat="40.007918576849434" lon="18.18526894864041"><ele>154.0</ele><time>2026-04-11T11:37:31.994Z</time></trkpt><trkpt lat="40.008042670428345" lon="18.185217131115373"><ele>154.0</ele><time>2026-04-11T11:37:32.994Z</time></trkpt><trkpt lat="40.00818770867879" lon="18.185156599045087"><ele>154.0</ele><time>2026-04-11T11:37:33.994Z</time></trkpt><trkpt lat="40.008324039614564" lon="18.185111048346492"><ele>154.0</ele><time>2026-04-11T11:37:34.994Z</time></trkpt><trkpt lat="40.0084467797625" lon="18.18507607812829"><ele>154.0</ele><time>2026-04-11T11:37:35.994Z</time></trkpt><trkpt lat="40.00854905368645" lon="18.18503694526308"><ele>153.5</ele><time>2026-04-11T11:37:36.994Z</time></trkpt><trkpt lat="40.00866506943259" lon="18.18500687513641"><ele>153.0</ele><time>2026-04-11T11:37:37.994Z</time></trkpt><trkpt lat="40.00880417119296" lon="18.184990209595036"><ele>152.5</ele><time>2026-04-11T11:37:38.994Z</time></trkpt><trkpt lat="40.00897175117502" lon="18.18497983762604"><ele>152.0</ele><time>2026-04-11T11:37:39.994Z</time></trkpt><trkpt lat="40.00915282581862" lon="18.184971943487948"><ele>151.0</ele><time>2026-04-11T11:37:40.994Z</time></trkpt><trkpt lat="40.00935852495087" lon="18.184962467928067"><ele>150.0</ele><time>2026-04-11T11:37:41.994Z</time></trkpt><trkpt lat="40.00954740852834" lon="18.184964204128523"><ele>149.0</ele><time>2026-04-11T11:37:42.994Z</time></trkpt><trkpt lat="40.00969828698374" lon="18.18496778996042"><ele>149.0</ele><time>2026-04-11T11:37:43.994Z</time></trkpt><trkpt lat="40.00981297923563" lon="18.18496044706755"><ele>149.0</ele><time>2026-04-11T11:37:44.994Z</time></trkpt><trkpt lat="40.009921316331166" lon="18.184958769350516"><ele>149.0</ele><time>2026-04-11T11:37:45.994Z</time></trkpt><trkpt lat="40.010039112818205" lon="18.18496364791402"><ele>149.0</ele><time>2026-04-11T11:37:46.994Z</time></trkpt><trkpt lat="40.0101755797969" lon="18.18498832482252"><ele>148.4</ele><time>2026-04-11T11:37:47.994Z</time></trkpt><trkpt lat="40.010308302103454" lon="18.185032052418652"><ele>147.8</ele><time>2026-04-11T11:37:48.994Z</time></trkpt><trkpt lat="40.01039903640779" lon="18.185062184154198"><ele>147.2</ele><time>2026-04-11T11:37:49.994Z</time></trkpt><trkpt lat="40.010491239072685" lon="18.185081533385812"><ele>146.6</ele><time>2026-04-11T11:37:51.994Z</time></trkpt><trkpt lat="40.010561449292666" lon="18.18507920724921"><ele>146.0</ele><time>2026-04-11T11:38:03.994Z</time></trkpt><trkpt lat="40.01063137805535" lon="18.184924703122025"><ele>145.75</ele><time>2026-04-11T11:38:05.994Z</time></trkpt><trkpt lat="40.01066363346934" lon="18.18480636540282"><ele>145.5</ele><time>2026-04-11T11:38:06.994Z</time></trkpt><trkpt lat="40.01069831359296" lon="18.18465496625588"><ele>145.25</ele><time>2026-04-11T11:38:07.994Z</time></trkpt><trkpt lat="40.01073806094496" lon="18.1844785872081"><ele>145.0</ele><time>2026-04-11T11:38:08.994Z</time></trkpt><trkpt lat="40.01078413194052" lon="18.184279587434816"><ele>144.0</ele><time>2026-04-11T11:38:09.994Z</time></trkpt><trkpt lat="40.01082946851995" lon="18.184061979562042"><ele>143.0</ele><time>2026-04-11T11:38:10.994Z</time></trkpt><trkpt lat="40.01088311477598" lon="18.18382858419908"><ele>142.0</ele><time>2026-04-11T11:38:11.994Z</time></trkpt><trkpt lat="40.010945842042354" lon="18.18356070832563"><ele>142.0</ele><time>2026-04-11T11:38:12.994Z</time></trkpt><trkpt lat="40.01099281847872" lon="18.183270259257966"><ele>142.0</ele><time>2026-04-11T11:38:13.994Z</time></trkpt><trkpt lat="40.011036795246696" lon="18.182949887099042"><ele>142.0</ele><time>2026-04-11T11:38:14.994Z</time></trkpt><trkpt lat="40.01107421118698" lon="18.182612908075658"><ele>142.0</ele><time>2026-04-11T11:38:15.994Z</time></trkpt><trkpt lat="40.011106821463635" lon="18.182286079610268"><ele>143.0</ele><time>2026-04-11T11:38:16.994Z</time></trkpt><trkpt lat="40.011143093304895" lon="18.18194001464321"><ele>144.0</ele><time>2026-04-11T11:38:17.994Z</time></trkpt><trkpt lat="40.01116633332172" lon="18.18156412485472"><ele>143.5</ele><time>2026-04-11T11:38:18.994Z</time></trkpt><trkpt lat="40.01117957992058" lon="18.18117209540183"><ele>143.0</ele><time>2026-04-11T11:38:19.994Z</time></trkpt><trkpt lat="40.0111799188173" lon="18.180805485983637"><ele>142.5</ele><time>2026-04-11T11:38:20.994Z</time></trkpt><trkpt lat="40.01117810308144" lon="18.180493086288983"><ele>142.0</ele><time>2026-04-11T11:38:21.994Z</time></trkpt><trkpt lat="40.01118179701015" lon="18.180209591758015"><ele>142.0</ele><time>2026-04-11T11:38:22.994Z</time></trkpt><trkpt lat="40.01118745817518" lon="18.179950139907803"><ele>142.0</ele><time>2026-04-11T11:38:23.994Z</time></trkpt><trkpt lat="40.01119800255067" lon="18.179705264399736"><ele>142.0</ele><time>2026-04-11T11:38:24.994Z</time></trkpt><trkpt lat="40.011218508539265" lon="18.179465221162893"><ele>142.0</ele><time>2026-04-11T11:38:25.994Z</time></trkpt><trkpt lat="40.01122134386032" lon="18.17925149368599"><ele>142.0</ele><time>2026-04-11T11:38:26.994Z</time></trkpt><trkpt lat="40.011223134479565" lon="18.179049673156936"><ele>142.0</ele><time>2026-04-11T11:38:27.994Z</time></trkpt><trkpt lat="40.01122178886457" lon="18.17885983236581"><ele>142.0</ele><time>2026-04-11T11:38:28.994Z</time></trkpt><trkpt lat="40.011225873033275" lon="18.178680903963784"><ele>142.0</ele><time>2026-04-11T11:38:29.994Z</time></trkpt><trkpt lat="40.01122519310209" lon="18.178523966543644"><ele>142.0</ele><time>2026-04-11T11:38:30.994Z</time></trkpt><trkpt lat="40.011227218610436" lon="18.17840928954203"><ele>142.0</ele><time>2026-04-11T11:38:31.994Z</time></trkpt><trkpt lat="40.01122780543637" lon="18.178316619803145"><ele>142.0</ele><time>2026-04-11T11:38:32.994Z</time></trkpt><trkpt lat="40.01123006083492" lon="18.178229888613284"><ele>142.2</ele><time>2026-04-11T11:38:33.994Z</time></trkpt><trkpt lat="40.01123277412442" lon="18.178127610185168"><ele>142.39999999999998</ele><time>2026-04-11T11:38:34.994Z</time></trkpt><trkpt lat="40.01123412413745" lon="18.178000633114966"><ele>142.60000000000002</ele><time>2026-04-11T11:38:35.994Z</time></trkpt><trkpt lat="40.01125943961456" lon="18.177846036039956"><ele>142.8</ele><time>2026-04-11T11:38:36.994Z</time></trkpt><trkpt lat="40.01129212566175" lon="18.177678375643463"><ele>143.0</ele><time>2026-04-11T11:38:37.994Z</time></trkpt><trkpt lat="40.011331064535725" lon="18.177531345344743"><ele>143.0</ele><time>2026-04-11T11:38:38.994Z</time></trkpt><trkpt lat="40.01135582199367" lon="18.177416225740988"><ele>143.0</ele><time>2026-04-11T11:38:39.994Z</time></trkpt><trkpt lat="40.01137559224844" lon="18.177325298868848"><ele>143.0</ele><time>2026-04-11T11:38:40.994Z</time></trkpt><trkpt lat="40.01141562661278" lon="18.177247674289628"><ele>143.0</ele><time>2026-04-11T11:38:42.993Z</time></trkpt><trkpt lat="40.011493881225086" lon="18.177248445658876"><ele>143.0</ele><time>2026-04-11T11:38:44.993Z</time></trkpt><trkpt lat="40.01160124077447" lon="18.177305147246287"><ele>143.0</ele><time>2026-04-11T11:38:46.993Z</time></trkpt><trkpt lat="40.01167799900101" lon="18.177340150585305"><ele>143.16666666666666</ele><time>2026-04-11T11:38:47.993Z</time></trkpt><trkpt lat="40.01176103422099" lon="18.17737328882131"><ele>143.33333333333331</ele><time>2026-04-11T11:38:48.993Z</time></trkpt><trkpt lat="40.01183073226271" lon="18.17740603994019"><ele>143.5</ele><time>2026-04-11T11:38:49.993Z</time></trkpt><trkpt lat="40.011893739980295" lon="18.177423017686802"><ele>143.66666666666666</ele><time>2026-04-11T11:38:50.993Z</time></trkpt><trkpt lat="40.01196233177578" lon="18.177432181969763"><ele>143.83333333333334</ele><time>2026-04-11T11:38:51.993Z</time></trkpt><trkpt lat="40.01204990947621" lon="18.177421447249916"><ele>144.0</ele><time>2026-04-11T11:38:52.993Z</time></trkpt><trkpt lat="40.012137260724636" lon="18.17738335122401"><ele>143.4</ele><time>2026-04-11T11:38:53.993Z</time></trkpt><trkpt lat="40.01222082157516" lon="18.17731752972932"><ele>142.8</ele><time>2026-04-11T11:38:54.993Z</time></trkpt><trkpt lat="40.01232064177687" lon="18.177267774888413"><ele>142.2</ele><time>2026-04-11T11:38:55.993Z</time></trkpt><trkpt lat="40.01240763854369" lon="18.177246036718675"><ele>141.6</ele><time>2026-04-11T11:38:56.993Z</time></trkpt><trkpt lat="40.012506507693736" lon="18.177220472716794"><ele>141.0</ele><time>2026-04-11T11:38:58.993Z</time></trkpt><trkpt lat="40.012564661781575" lon="18.17732370596812"><ele>141.5</ele><time>2026-04-11T11:39:02.993Z</time></trkpt><trkpt lat="40.01260030386813" lon="18.177424127699975"><ele>142.0</ele><time>2026-04-11T11:39:03.993Z</time></trkpt><trkpt lat="40.01264584098461" lon="18.177550292260687"><ele>142.5</ele><time>2026-04-11T11:39:04.993Z</time></trkpt><trkpt lat="40.01268503164052" lon="18.177726464931297"><ele>143.0</ele><time>2026-04-11T11:39:05.993Z</time></trkpt><trkpt lat="40.012726735945826" lon="18.177881089218566"><ele>143.0</ele><time>2026-04-11T11:39:06.993Z</time></trkpt><trkpt lat="40.01278116047992" lon="18.178055658719398"><ele>143.0</ele><time>2026-04-11T11:39:07.993Z</time></trkpt><trkpt lat="40.01283942610074" lon="18.178250526775663"><ele>143.0</ele><time>2026-04-11T11:39:08.993Z</time></trkpt><trkpt lat="40.01289970424345" lon="18.17845039821042"><ele>142.66666666666666</ele><time>2026-04-11T11:39:09.993Z</time></trkpt><trkpt lat="40.01296934548069" lon="18.178656175184752"><ele>142.33333333333334</ele><time>2026-04-11T11:39:10.993Z</time></trkpt><trkpt lat="40.013037721786056" lon="18.178879571144094"><ele>142.0</ele><time>2026-04-11T11:39:11.993Z</time></trkpt><trkpt lat="40.01310101107556" lon="18.179103428288105"><ele>141.75</ele><time>2026-04-11T11:39:12.993Z</time></trkpt><trkpt lat="40.01315696576923" lon="18.17930602355078"><ele>141.5</ele><time>2026-04-11T11:39:13.993Z</time></trkpt><trkpt lat="40.013206195912666" lon="18.179489009334116"><ele>141.25</ele><time>2026-04-11T11:39:14.993Z</time></trkpt><trkpt lat="40.01325906574048" lon="18.179648921217556"><ele>141.0</ele><time>2026-04-11T11:39:15.993Z</time></trkpt><trkpt lat="40.013301554002034" lon="18.17980351118301"><ele>141.0</ele><time>2026-04-11T11:39:16.993Z</time></trkpt><trkpt lat="40.01333920594637" lon="18.179911666317224"><ele>141.0</ele><time>2026-04-11T11:39:17.993Z</time></trkpt><trkpt lat="40.013391595317046" lon="18.179978629415373"><ele>141.0</ele><time>2026-04-11T11:39:19.993Z</time></trkpt><trkpt lat="40.013498674612975" lon="18.179932202889585"><ele>141.0</ele><time>2026-04-11T11:39:21.993Z</time></trkpt><trkpt lat="40.01357427800728" lon="18.17987601418709"><ele>141.0</ele><time>2026-04-11T11:39:22.993Z</time></trkpt><trkpt lat="40.013666232759874" lon="18.17977921101362"><ele>140.66666666666666</ele><time>2026-04-11T11:39:23.993Z</time></trkpt><trkpt lat="40.01379725053662" lon="18.179661364732013"><ele>140.33333333333331</ele><time>2026-04-11T11:39:24.993Z</time></trkpt><trkpt lat="40.01394656672124" lon="18.179541868392622"><ele>140.0</ele><time>2026-04-11T11:39:25.993Z</time></trkpt><trkpt lat="40.01411084841871" lon="18.179412724119096"><ele>139.66666666666666</ele><time>2026-04-11T11:39:26.993Z</time></trkpt><trkpt lat="40.014295904079205" lon="18.17927181983108"><ele>139.33333333333334</ele><time>2026-04-11T11:39:27.993Z</time></trkpt><trkpt lat="40.01449670558889" lon="18.179116437180955"><ele>139.0</ele><time>2026-04-11T11:39:28.993Z</time></trkpt><trkpt lat="40.01470445994318" lon="18.17895533832255"><ele>138.5</ele><time>2026-04-11T11:39:29.993Z</time></trkpt><trkpt lat="40.01490805092062" lon="18.178792984349233"><ele>138.0</ele><time>2026-04-11T11:39:30.993Z</time></trkpt><trkpt lat="40.015119805654265" lon="18.178630236496556"><ele>140.0</ele><time>2026-04-11T11:39:31.993Z</time></trkpt><trkpt lat="40.01533363513994" lon="18.178474233574185"><ele>142.0</ele><time>2026-04-11T11:39:32.993Z</time></trkpt><trkpt lat="40.01554895406553" lon="18.178320781742315"><ele>142.0</ele><time>2026-04-11T11:39:33.993Z</time></trkpt><trkpt lat="40.015766243931836" lon="18.17816491211142"><ele>142.0</ele><time>2026-04-11T11:39:34.993Z</time></trkpt><trkpt lat="40.0159765891821" lon="18.17801156000809"><ele>142.5</ele><time>2026-04-11T11:39:35.993Z</time></trkpt><trkpt lat="40.01618827277511" lon="18.177856652447723"><ele>143.0</ele><time>2026-04-11T11:39:36.993Z</time></trkpt><trkpt lat="40.0163974316627" lon="18.177704794765685"><ele>143.0</ele><time>2026-04-11T11:39:37.993Z</time></trkpt><trkpt lat="40.01660980582343" lon="18.177553234645814"><ele>143.0</ele><time>2026-04-11T11:39:38.993Z</time></trkpt><trkpt lat="40.0168167974278" lon="18.17740317966278"><ele>145.5</ele><time>2026-04-11T11:39:39.993Z</time></trkpt><trkpt lat="40.017021458814796" lon="18.177249030878464"><ele>148.0</ele><time>2026-04-11T11:39:40.993Z</time></trkpt><trkpt lat="40.017224668209856" lon="18.17709724048224"><ele>148.0</ele><time>2026-04-11T11:39:41.993Z</time></trkpt><trkpt lat="40.017423495798496" lon="18.17694524141948"><ele>148.0</ele><time>2026-04-11T11:39:42.993Z</time></trkpt><trkpt lat="40.01762318663811" lon="18.17679819135065"><ele>147.5</ele><time>2026-04-11T11:39:43.993Z</time></trkpt><trkpt lat="40.01782851584298" lon="18.176658119038496"><ele>147.0</ele><time>2026-04-11T11:39:44.993Z</time></trkpt><trkpt lat="40.01803198666267" lon="18.1765138734859"><ele>147.33333333333334</ele><time>2026-04-11T11:39:45.993Z</time></trkpt><trkpt lat="40.01820775158577" lon="18.17638036100869"><ele>147.66666666666669</ele><time>2026-04-11T11:39:46.993Z</time></trkpt><trkpt lat="40.01836065091723" lon="18.176272114051805"><ele>148.0</ele><time>2026-04-11T11:39:47.993Z</time></trkpt><trkpt lat="40.01849662511171" lon="18.176174978879196"><ele>148.0</ele><time>2026-04-11T11:39:48.993Z</time></trkpt><trkpt lat="40.018610709664735" lon="18.17608862664908"><ele>148.0</ele><time>2026-04-11T11:39:49.993Z</time></trkpt><trkpt lat="40.01870898357734" lon="18.176003752888626"><ele>148.0</ele><time>2026-04-11T11:39:50.993Z</time></trkpt><trkpt lat="40.018795118821444" lon="18.175946313641933"><ele>148.0</ele><time>2026-04-11T11:39:51.993Z</time></trkpt><trkpt lat="40.01887164288519" lon="18.175929753995845"><ele>148.0</ele><time>2026-04-11T11:39:52.993Z</time></trkpt><trkpt lat="40.0189811079808" lon="18.17596619316759"><ele>148.0</ele><time>2026-04-11T11:39:54.993Z</time></trkpt><trkpt lat="40.0190669779014" lon="18.176113184374113"><ele>148.0</ele><time>2026-04-11T11:39:56.993Z</time></trkpt><trkpt lat="40.01910474797344" lon="18.176259575066428"><ele>148.0</ele><time>2026-04-11T11:39:57.993Z</time></trkpt><trkpt lat="40.019157340900655" lon="18.176435662569794"><ele>148.0</ele><time>2026-04-11T11:39:58.993Z</time></trkpt><trkpt lat="40.01924148603066" lon="18.176615008790197"><ele>147.33333333333334</ele><time>2026-04-11T11:39:59.993Z</time></trkpt><trkpt lat="40.01935782663399" lon="18.176794473490872"><ele>146.66666666666666</ele><time>2026-04-11T11:40:00.993Z</time></trkpt><trkpt lat="40.01950425149921" lon="18.17698366364192"><ele>146.0</ele><time>2026-04-11T11:40:01.993Z</time></trkpt><trkpt lat="40.019669416931436" lon="18.177161089106846"><ele>146.0</ele><time>2026-04-11T11:40:02.993Z</time></trkpt><trkpt lat="40.01985176859428" lon="18.17733083822599"><ele>146.0</ele><time>2026-04-11T11:40:03.993Z</time></trkpt><trkpt lat="40.02004749581362" lon="18.177505482471062"><ele>147.5</ele><time>2026-04-11T11:40:04.993Z</time></trkpt><trkpt lat="40.02024712920029" lon="18.177686578785842"><ele>149.0</ele><time>2026-04-11T11:40:05.993Z</time></trkpt><trkpt lat="40.02045213606778" lon="18.177878269818017"><ele>149.0</ele><time>2026-04-11T11:40:06.993Z</time></trkpt><trkpt lat="40.02064149434515" lon="18.178059436000343"><ele>149.0</ele><time>2026-04-11T11:40:07.993Z</time></trkpt><trkpt lat="40.02080756444719" lon="18.17821945653363"><ele>149.0</ele><time>2026-04-11T11:40:08.993Z</time></trkpt><trkpt lat="40.020935188976416" lon="18.178373901243518"><ele>150.0</ele><time>2026-04-11T11:40:09.993Z</time></trkpt><trkpt lat="40.021029768207505" lon="18.17853019771733"><ele>151.0</ele><time>2026-04-11T11:40:10.993Z</time></trkpt><trkpt lat="40.02111037654867" lon="18.1787125221152"><ele>152.0</ele><time>2026-04-11T11:40:11.993Z</time></trkpt><trkpt lat="40.021181780047456" lon="18.178948841294222"><ele>152.0</ele><time>2026-04-11T11:40:12.993Z</time></trkpt><trkpt lat="40.02125815165354" lon="18.17918784578322"><ele>152.0</ele><time>2026-04-11T11:40:13.993Z</time></trkpt><trkpt lat="40.02133976999785" lon="18.17941939190817"><ele>152.0</ele><time>2026-04-11T11:40:14.993Z</time></trkpt><trkpt lat="40.02142044482859" lon="18.179647556155082"><ele>152.33333333333331</ele><time>2026-04-11T11:40:15.993Z</time></trkpt><trkpt lat="40.02151345530802" lon="18.179869151495"><ele>152.66666666666666</ele><time>2026-04-11T11:40:16.993Z</time></trkpt><trkpt lat="40.02162117124574" lon="18.18008939433438"><ele>153.0</ele><time>2026-04-11T11:40:17.993Z</time></trkpt><trkpt lat="40.02174761732189" lon="18.180308213713644"><ele>153.5</ele><time>2026-04-11T11:40:18.993Z</time></trkpt><trkpt lat="40.021893575102546" lon="18.180530204613106"><ele>154.0</ele><time>2026-04-11T11:40:19.993Z</time></trkpt><trkpt lat="40.02203066591899" lon="18.180764574866323"><ele>155.5</ele><time>2026-04-11T11:40:20.993Z</time></trkpt><trkpt lat="40.022170327803174" lon="18.18100569066587"><ele>157.0</ele><time>2026-04-11T11:40:21.993Z</time></trkpt><trkpt lat="40.02231826715939" lon="18.181239321748954"><ele>157.0</ele><time>2026-04-11T11:40:22.993Z</time></trkpt><trkpt lat="40.022480458242924" lon="18.181466754532178"><ele>157.0</ele><time>2026-04-11T11:40:23.993Z</time></trkpt><trkpt lat="40.02263868033845" lon="18.181676408470135"><ele>157.33333333333334</ele><time>2026-04-11T11:40:24.993Z</time></trkpt><trkpt lat="40.02278491842587" lon="18.181858851249938"><ele>157.66666666666666</ele><time>2026-04-11T11:40:25.993Z</time></trkpt><trkpt lat="40.02290682788534" lon="18.182026793947017"><ele>158.0</ele><time>2026-04-11T11:40:26.993Z</time></trkpt><trkpt lat="40.02301018713965" lon="18.182169468201007"><ele>158.0</ele><time>2026-04-11T11:40:27.993Z</time></trkpt><trkpt lat="40.02310554584829" lon="18.182297364278085"><ele>158.0</ele><time>2026-04-11T11:40:28.993Z</time></trkpt><trkpt lat="40.023197090891344" lon="18.18242805357203"><ele>158.0</ele><time>2026-04-11T11:40:29.993Z</time></trkpt><trkpt lat="40.02329775672133" lon="18.18258594627376"><ele>158.0</ele><time>2026-04-11T11:40:30.993Z</time></trkpt><trkpt lat="40.023415487834285" lon="18.182773286700407"><ele>158.0</ele><time>2026-04-11T11:40:31.993Z</time></trkpt><trkpt lat="40.023540849347135" lon="18.182964830308812"><ele>158.0</ele><time>2026-04-11T11:40:32.993Z</time></trkpt><trkpt lat="40.02369039225183" lon="18.183166241532632"><ele>158.0</ele><time>2026-04-11T11:40:33.993Z</time></trkpt><trkpt lat="40.023855141067536" lon="18.183366871419977"><ele>159.0</ele><time>2026-04-11T11:40:34.993Z</time></trkpt><trkpt lat="40.0240253040175" lon="18.18356176135449"><ele>160.0</ele><time>2026-04-11T11:40:35.993Z</time></trkpt><trkpt lat="40.02420921590542" lon="18.183745753711516"><ele>160.0</ele><time>2026-04-11T11:40:36.993Z</time></trkpt><trkpt lat="40.02438337337729" lon="18.183912533802296"><ele>160.0</ele><time>2026-04-11T11:40:37.993Z</time></trkpt><trkpt lat="40.02453717083002" lon="18.184051108562635"><ele>160.0</ele><time>2026-04-11T11:40:38.993Z</time></trkpt><trkpt lat="40.02467458145495" lon="18.184195162737566"><ele>160.0</ele><time>2026-04-11T11:40:39.993Z</time></trkpt><trkpt lat="40.02478986608119" lon="18.184326075950953"><ele>160.0</ele><time>2026-04-11T11:40:40.993Z</time></trkpt><trkpt lat="40.024888214389776" lon="18.184448240552584"><ele>160.0</ele><time>2026-04-11T11:40:41.993Z</time></trkpt><trkpt lat="40.024982367121034" lon="18.184586396019892"><ele>160.0</ele><time>2026-04-11T11:40:42.993Z</time></trkpt><trkpt lat="40.02508397116941" lon="18.184740137341134"><ele>159.33333333333334</ele><time>2026-04-11T11:40:43.993Z</time></trkpt><trkpt lat="40.02518519385978" lon="18.184905804078166"><ele>158.66666666666666</ele><time>2026-04-11T11:40:44.993Z</time></trkpt><trkpt lat="40.02527431507684" lon="18.18508434418934"><ele>158.0</ele><time>2026-04-11T11:40:45.993Z</time></trkpt><trkpt lat="40.025346340281196" lon="18.185285267760136"><ele>158.0</ele><time>2026-04-11T11:40:46.993Z</time></trkpt><trkpt lat="40.02539966756394" lon="18.185508042837156"><ele>158.0</ele><time>2026-04-11T11:40:47.993Z</time></trkpt><trkpt lat="40.02543653817518" lon="18.185744513378985"><ele>158.0</ele><time>2026-04-11T11:40:48.993Z</time></trkpt><trkpt lat="40.02546112538661" lon="18.185983377191175"><ele>158.0</ele><time>2026-04-11T11:40:49.993Z</time></trkpt><trkpt lat="40.02547358190028" lon="18.186226158592383"><ele>158.0</ele><time>2026-04-11T11:40:50.993Z</time></trkpt><trkpt lat="40.025487539711584" lon="18.18648302053313"><ele>158.0</ele><time>2026-04-11T11:40:51.993Z</time></trkpt><trkpt lat="40.025491768817524" lon="18.186748218370703"><ele>158.0</ele><time>2026-04-11T11:40:52.993Z</time></trkpt><trkpt lat="40.025487211848166" lon="18.187014435814774"><ele>158.0</ele><time>2026-04-11T11:40:53.993Z</time></trkpt><trkpt lat="40.025482962928635" lon="18.187272658037045"><ele>158.0</ele><time>2026-04-11T11:40:54.993Z</time></trkpt><trkpt lat="40.02548246232504" lon="18.18753384131031"><ele>158.0</ele><time>2026-04-11T11:40:55.993Z</time></trkpt><trkpt lat="40.025483926228326" lon="18.187786719499886"><ele>158.0</ele><time>2026-04-11T11:40:56.993Z</time></trkpt><trkpt lat="40.025492033974395" lon="18.188001816986805"><ele>158.0</ele><time>2026-04-11T11:40:57.993Z</time></trkpt><trkpt lat="40.02550243551555" lon="18.1881864558367"><ele>158.0</ele><time>2026-04-11T11:40:58.993Z</time></trkpt><trkpt lat="40.02552144639394" lon="18.188341435744167"><ele>158.0</ele><time>2026-04-11T11:40:59.993Z</time></trkpt><trkpt lat="40.025537748124094" lon="18.18848357983012"><ele>158.0</ele><time>2026-04-11T11:41:00.993Z</time></trkpt><trkpt lat="40.02556176343815" lon="18.188597025010516"><ele>158.0</ele><time>2026-04-11T11:41:01.993Z</time></trkpt><trkpt lat="40.025609546039384" lon="18.18869922562699"><ele>158.0</ele><time>2026-04-11T11:41:02.993Z</time></trkpt><trkpt lat="40.025685758540924" lon="18.188805410525983"><ele>158.0</ele><time>2026-04-11T11:41:03.993Z</time></trkpt><trkpt lat="40.02580181579402" lon="18.188931237945177"><ele>158.0</ele><time>2026-04-11T11:41:04.993Z</time></trkpt><trkpt lat="40.025917188321245" lon="18.18905817650333"><ele>158.0</ele><time>2026-04-11T11:41:05.993Z</time></trkpt><trkpt lat="40.02602582299273" lon="18.189183865638658"><ele>158.0</ele><time>2026-04-11T11:41:06.993Z</time></trkpt><trkpt lat="40.026124232443074" lon="18.189294713030776"><ele>157.5</ele><time>2026-04-11T11:41:07.993Z</time></trkpt><trkpt lat="40.02621794697028" lon="18.189408299528235"><ele>157.0</ele><time>2026-04-11T11:41:08.993Z</time></trkpt><trkpt lat="40.026321060301555" lon="18.189517680359184"><ele>156.5</ele><time>2026-04-11T11:41:09.993Z</time></trkpt><trkpt lat="40.02644361815531" lon="18.18961993977714"><ele>156.0</ele><time>2026-04-11T11:41:10.993Z</time></trkpt><trkpt lat="40.026571825662934" lon="18.189709877713636"><ele>156.0</ele><time>2026-04-11T11:41:11.993Z</time></trkpt><trkpt lat="40.02669647000774" lon="18.18980286932335"><ele>156.0</ele><time>2026-04-11T11:41:12.993Z</time></trkpt><trkpt lat="40.02682110067943" lon="18.18993578166443"><ele>156.0</ele><time>2026-04-11T11:41:13.993Z</time></trkpt><trkpt lat="40.02696049181709" lon="18.190095320637763"><ele>156.33333333333334</ele><time>2026-04-11T11:41:14.993Z</time></trkpt><trkpt lat="40.02710939999585" lon="18.190268400705385"><ele>156.66666666666669</ele><time>2026-04-11T11:41:15.993Z</time></trkpt><trkpt lat="40.027240551192165" lon="18.19042094151328"><ele>157.0</ele><time>2026-04-11T11:41:16.993Z</time></trkpt><trkpt lat="40.02735969771241" lon="18.190553123484076"><ele>157.0</ele><time>2026-04-11T11:41:17.993Z</time></trkpt><trkpt lat="40.02746595223181" lon="18.190672850614405"><ele>157.0</ele><time>2026-04-11T11:41:18.993Z</time></trkpt><trkpt lat="40.02755741338674" lon="18.190779614463356"><ele>157.0</ele><time>2026-04-11T11:41:19.993Z</time></trkpt><trkpt lat="40.02763482319551" lon="18.190862858231988"><ele>157.0</ele><time>2026-04-11T11:41:20.993Z</time></trkpt><trkpt lat="40.027698918548374" lon="18.190932072384474"><ele>157.0</ele><time>2026-04-11T11:41:21.993Z</time></trkpt><trkpt lat="40.027784671798905" lon="18.19098475227761"><ele>156.79999999999998</ele><time>2026-04-11T11:41:22.993Z</time></trkpt><trkpt lat="40.02788158423802" lon="18.191031025147076"><ele>156.6</ele><time>2026-04-11T11:41:23.993Z</time></trkpt><trkpt lat="40.027983070803714" lon="18.191048383159146"><ele>156.39999999999998</ele><time>2026-04-11T11:41:24.993Z</time></trkpt><trkpt lat="40.02808452823499" lon="18.191064255805166"><ele>156.2</ele><time>2026-04-11T11:41:25.993Z</time></trkpt><trkpt lat="40.028173527750745" lon="18.191104790185733"><ele>156.0</ele><time>2026-04-11T11:41:26.993Z</time></trkpt><trkpt lat="40.028268952036065" lon="18.191194465797505"><ele>154.33333333333334</ele><time>2026-04-11T11:41:27.993Z</time></trkpt><trkpt lat="40.028369557171295" lon="18.19130459240336"><ele>152.66666666666669</ele><time>2026-04-11T11:41:28.992Z</time></trkpt><trkpt lat="40.028488754197056" lon="18.191430859307083"><ele>151.0</ele><time>2026-04-11T11:41:29.992Z</time></trkpt><trkpt lat="40.02862663445991" lon="18.191591850557884"><ele>150.66666666666669</ele><time>2026-04-11T11:41:30.992Z</time></trkpt><trkpt lat="40.028776941765194" lon="18.191757597102495"><ele>150.33333333333334</ele><time>2026-04-11T11:41:31.992Z</time></trkpt><trkpt lat="40.028931879366766" lon="18.191909206887807"><ele>150.0</ele><time>2026-04-11T11:41:32.992Z</time></trkpt><trkpt lat="40.02909686779614" lon="18.19206894602914"><ele>149.0</ele><time>2026-04-11T11:41:33.992Z</time></trkpt><trkpt lat="40.02925792162404" lon="18.192203326653665"><ele>148.0</ele><time>2026-04-11T11:41:34.992Z</time></trkpt><trkpt lat="40.0293961854267" lon="18.192305360359477"><ele>147.0</ele><time>2026-04-11T11:41:35.992Z</time></trkpt><trkpt lat="40.0295270733102" lon="18.192378763705953"><ele>146.79999999999998</ele><time>2026-04-11T11:41:36.992Z</time></trkpt><trkpt lat="40.02965675815488" lon="18.192433050178856"><ele>146.6</ele><time>2026-04-11T11:41:37.992Z</time></trkpt><trkpt lat="40.02976255053369" lon="18.192503483193196"><ele>146.39999999999998</ele><time>2026-04-11T11:41:38.992Z</time></trkpt><trkpt lat="40.02983666593169" lon="18.19261479010456"><ele>146.2</ele><time>2026-04-11T11:41:39.992Z</time></trkpt><trkpt lat="40.029870496363095" lon="18.192699038782997"><ele>146.0</ele><time>2026-04-11T11:41:40.992Z</time></trkpt><trkpt lat="40.0298963107038" lon="18.192799272385006"><ele>146.0</ele><time>2026-04-11T11:41:42.992Z</time></trkpt><trkpt lat="40.03021524394556" lon="18.19280677718991"><ele>146.0</ele><time>2026-04-11T11:41:45.992Z</time></trkpt><trkpt lat="40.030336056565595" lon="18.192699004504263"><ele>146.0</ele><time>2026-04-11T11:41:47.992Z</time></trkpt><trkpt lat="40.03042587103217" lon="18.192590382742925"><ele>146.0</ele><time>2026-04-11T11:41:48.992Z</time></trkpt><trkpt lat="40.030548608480686" lon="18.19246192386169"><ele>146.0</ele><time>2026-04-11T11:41:49.992Z</time></trkpt><trkpt lat="40.0306940376525" lon="18.192327757950533"><ele>146.0</ele><time>2026-04-11T11:41:50.992Z</time></trkpt><trkpt lat="40.0308586489725" lon="18.192175695447723"><ele>146.0</ele><time>2026-04-11T11:41:51.992Z</time></trkpt><trkpt lat="40.03102942049597" lon="18.192010454669877"><ele>146.0</ele><time>2026-04-11T11:41:52.992Z</time></trkpt><trkpt lat="40.03120833633221" lon="18.191833597390197"><ele>146.0</ele><time>2026-04-11T11:41:53.992Z</time></trkpt><trkpt lat="40.031397976722" lon="18.191654978945785"><ele>146.0</ele><time>2026-04-11T11:41:54.992Z</time></trkpt><trkpt lat="40.031574492493704" lon="18.19148958370054"><ele>146.33333333333331</ele><time>2026-04-11T11:41:55.992Z</time></trkpt><trkpt lat="40.031734683159215" lon="18.191334301182785"><ele>146.66666666666666</ele><time>2026-04-11T11:41:56.992Z</time></trkpt><trkpt lat="40.03189447399451" lon="18.191184757830158"><ele>147.0</ele><time>2026-04-11T11:41:57.992Z</time></trkpt><trkpt lat="40.032049283634514" lon="18.191035205100324"><ele>147.0</ele><time>2026-04-11T11:41:58.992Z</time></trkpt><trkpt lat="40.03217330296211" lon="18.19090618352298"><ele>147.0</ele><time>2026-04-11T11:41:59.992Z</time></trkpt><trkpt lat="40.03227563886099" lon="18.19080435052832"><ele>147.0</ele><time>2026-04-11T11:42:00.992Z</time></trkpt><trkpt lat="40.03237203146396" lon="18.190719522393252"><ele>147.0</ele><time>2026-04-11T11:42:01.992Z</time></trkpt><trkpt lat="40.03247660434266" lon="18.19066349333925"><ele>147.0</ele><time>2026-04-11T11:42:02.992Z</time></trkpt><trkpt lat="40.03259709136175" lon="18.190624052787424"><ele>147.0</ele><time>2026-04-11T11:42:03.992Z</time></trkpt><trkpt lat="40.03274242039641" lon="18.190594786404894"><ele>147.0</ele><time>2026-04-11T11:42:04.992Z</time></trkpt><trkpt lat="40.03289261788271" lon="18.190544972602737"><ele>147.0</ele><time>2026-04-11T11:42:05.992Z</time></trkpt><trkpt lat="40.033018324752184" lon="18.19049141724044"><ele>147.0</ele><time>2026-04-11T11:42:06.992Z</time></trkpt><trkpt lat="40.033119033679455" lon="18.190427438139604"><ele>147.0</ele><time>2026-04-11T11:42:07.992Z</time></trkpt><trkpt lat="40.03319814360418" lon="18.190355912298564"><ele>147.0</ele><time>2026-04-11T11:42:08.992Z</time></trkpt><trkpt lat="40.03328049723069" lon="18.19026430988129"><ele>147.0</ele><time>2026-04-11T11:42:09.992Z</time></trkpt><trkpt lat="40.033354938577894" lon="18.19019894945831"><ele>147.0</ele><time>2026-04-11T11:42:10.992Z</time></trkpt><trkpt lat="40.033423164577265" lon="18.190165646590795"><ele>146.79999999999998</ele><time>2026-04-11T11:42:11.992Z</time></trkpt><trkpt lat="40.03350294319839" lon="18.190189787381147"><ele>146.6</ele><time>2026-04-11T11:42:13.992Z</time></trkpt><trkpt lat="40.03356397767627" lon="18.190254257109995"><ele>146.39999999999998</ele><time>2026-04-11T11:42:23.992Z</time></trkpt><trkpt lat="40.033619009797924" lon="18.190348638912262"><ele>146.2</ele><time>2026-04-11T11:42:24.992Z</time></trkpt><trkpt lat="40.03367079332909" lon="18.19045476055401"><ele>146.0</ele><time>2026-04-11T11:42:25.992Z</time></trkpt><trkpt lat="40.0337323066179" lon="18.190587361689033"><ele>145.33333333333331</ele><time>2026-04-11T11:42:26.992Z</time></trkpt><trkpt lat="40.033806884884235" lon="18.19074515132308"><ele>144.66666666666666</ele><time>2026-04-11T11:42:27.992Z</time></trkpt><trkpt lat="40.033896488182585" lon="18.190925491747116"><ele>144.0</ele><time>2026-04-11T11:42:28.992Z</time></trkpt><trkpt lat="40.03399923597581" lon="18.191119827874832"><ele>144.0</ele><time>2026-04-11T11:42:29.992Z</time></trkpt><trkpt lat="40.03411862454042" lon="18.191325501769768"><ele>144.0</ele><time>2026-04-11T11:42:30.992Z</time></trkpt><trkpt lat="40.03424934903323" lon="18.191520756259276"><ele>144.0</ele><time>2026-04-11T11:42:31.992Z</time></trkpt><trkpt lat="40.03440199628517" lon="18.19170557961923"><ele>144.33333333333334</ele><time>2026-04-11T11:42:32.992Z</time></trkpt><trkpt lat="40.034568949358274" lon="18.191892199583357"><ele>144.66666666666669</ele><time>2026-04-11T11:42:33.992Z</time></trkpt><trkpt lat="40.03474842636142" lon="18.192068877256368"><ele>145.0</ele><time>2026-04-11T11:42:34.992Z</time></trkpt><trkpt lat="40.03493547405074" lon="18.192238880954395"><ele>146.0</ele><time>2026-04-11T11:42:35.992Z</time></trkpt><trkpt lat="40.03513735104375" lon="18.192399992951554"><ele>147.0</ele><time>2026-04-11T11:42:36.992Z</time></trkpt><trkpt lat="40.035344718440896" lon="18.192553160681506"><ele>147.0</ele><time>2026-04-11T11:42:37.992Z</time></trkpt><trkpt lat="40.03556113841281" lon="18.192688114036862"><ele>147.0</ele><time>2026-04-11T11:42:38.992Z</time></trkpt><trkpt lat="40.035782758272425" lon="18.1928009400271"><ele>147.5</ele><time>2026-04-11T11:42:39.985Z</time></trkpt><trkpt lat="40.0360091819801" lon="18.19289688037869"><ele>148.0</ele><time>2026-04-11T11:42:40.985Z</time></trkpt><trkpt lat="40.03624313444624" lon="18.192972509594956"><ele>148.0</ele><time>2026-04-11T11:42:41.985Z</time></trkpt><trkpt lat="40.03647835419226" lon="18.193031762730506"><ele>148.0</ele><time>2026-04-11T11:42:42.985Z</time></trkpt><trkpt lat="40.03672561030567" lon="18.193065110088178"><ele>147.5</ele><time>2026-04-11T11:42:43.985Z</time></trkpt><trkpt lat="40.03697000900394" lon="18.19308898238996"><ele>147.0</ele><time>2026-04-11T11:42:44.985Z</time></trkpt><trkpt lat="40.03721824118179" lon="18.19309641480395"><ele>147.5</ele><time>2026-04-11T11:42:45.985Z</time></trkpt><trkpt lat="40.03747863067125" lon="18.19307210693807"><ele>148.0</ele><time>2026-04-11T11:42:46.985Z</time></trkpt><trkpt lat="40.037735300320485" lon="18.1930280647166"><ele>148.0</ele><time>2026-04-11T11:42:47.985Z</time></trkpt><trkpt lat="40.03799072178938" lon="18.1929561822214"><ele>148.0</ele><time>2026-04-11T11:42:48.985Z</time></trkpt><trkpt lat="40.03824224072153" lon="18.192866190003592"><ele>147.5</ele><time>2026-04-11T11:42:49.985Z</time></trkpt><trkpt lat="40.03849209601139" lon="18.192765998305124"><ele>147.0</ele><time>2026-04-11T11:42:50.985Z</time></trkpt><trkpt lat="40.038735751291945" lon="18.192665321320888"><ele>147.0</ele><time>2026-04-11T11:42:51.985Z</time></trkpt><trkpt lat="40.03898417428675" lon="18.192575011496423"><ele>147.0</ele><time>2026-04-11T11:42:52.985Z</time></trkpt><trkpt lat="40.03922571477761" lon="18.192478362049524"><ele>147.0</ele><time>2026-04-11T11:42:53.985Z</time></trkpt><trkpt lat="40.039466206413536" lon="18.192384718831764"><ele>147.0</ele><time>2026-04-11T11:42:54.985Z</time></trkpt><trkpt lat="40.039711956998765" lon="18.192296157401966"><ele>147.0</ele><time>2026-04-11T11:42:55.985Z</time></trkpt><trkpt lat="40.03994972239644" lon="18.19220950300032"><ele>147.0</ele><time>2026-04-11T11:42:56.985Z</time></trkpt><trkpt lat="40.04018939967157" lon="18.19211905660709"><ele>147.0</ele><time>2026-04-11T11:42:57.985Z</time></trkpt><trkpt lat="40.04042980224489" lon="18.192025916269912"><ele>147.0</ele><time>2026-04-11T11:42:58.985Z</time></trkpt><trkpt lat="40.04067364977831" lon="18.191938496319786"><ele>146.5</ele><time>2026-04-11T11:42:59.985Z</time></trkpt><trkpt lat="40.040914203566174" lon="18.191849330657693"><ele>146.0</ele><time>2026-04-11T11:43:00.985Z</time></trkpt><trkpt lat="40.0411391650633" lon="18.19175979610505"><ele>146.0</ele><time>2026-04-11T11:43:01.985Z</time></trkpt><trkpt lat="40.04135225290491" lon="18.191682229112836"><ele>146.0</ele><time>2026-04-11T11:43:02.985Z</time></trkpt><trkpt lat="40.04155999455344" lon="18.191604647892714"><ele>146.0</ele><time>2026-04-11T11:43:03.985Z</time></trkpt><trkpt lat="40.04177028300972" lon="18.191530945597403"><ele>146.0</ele><time>2026-04-11T11:43:04.985Z</time></trkpt><trkpt lat="40.04198346980317" lon="18.191449038959554"><ele>146.0</ele><time>2026-04-11T11:43:05.985Z</time></trkpt><trkpt lat="40.04220308083626" lon="18.191364098751652"><ele>146.0</ele><time>2026-04-11T11:43:06.985Z</time></trkpt><trkpt lat="40.04242563590274" lon="18.191278974064517"><ele>146.0</ele><time>2026-04-11T11:43:07.985Z</time></trkpt><trkpt lat="40.04264542679921" lon="18.191192602710803"><ele>146.0</ele><time>2026-04-11T11:43:08.985Z</time></trkpt><trkpt lat="40.042876996773835" lon="18.191113164277738"><ele>146.0</ele><time>2026-04-11T11:43:09.985Z</time></trkpt><trkpt lat="40.04310823772367" lon="18.191031047872972"><ele>145.5</ele><time>2026-04-11T11:43:10.985Z</time></trkpt><trkpt lat="40.04333966957934" lon="18.190942174533284"><ele>145.0</ele><time>2026-04-11T11:43:11.985Z</time></trkpt><trkpt lat="40.04357069737918" lon="18.190853816269563"><ele>145.0</ele><time>2026-04-11T11:43:12.985Z</time></trkpt><trkpt lat="40.04380243027444" lon="18.19076500894019"><ele>145.0</ele><time>2026-04-11T11:43:13.985Z</time></trkpt><trkpt lat="40.04403328164451" lon="18.190676809004923"><ele>144.0</ele><time>2026-04-11T11:43:14.985Z</time></trkpt><trkpt lat="40.04426337019439" lon="18.190590324055126"><ele>143.0</ele><time>2026-04-11T11:43:15.985Z</time></trkpt><trkpt lat="40.044494479990554" lon="18.190504581733684"><ele>143.0</ele><time>2026-04-11T11:43:16.985Z</time></trkpt><trkpt lat="40.04472455239817" lon="18.190422378807785"><ele>143.0</ele><time>2026-04-11T11:43:17.985Z</time></trkpt><trkpt lat="40.04495793281753" lon="18.190333180467512"><ele>143.0</ele><time>2026-04-11T11:43:18.985Z</time></trkpt><trkpt lat="40.045184846894365" lon="18.190245585351384"><ele>143.0</ele><time>2026-04-11T11:43:19.985Z</time></trkpt><trkpt lat="40.045403632126565" lon="18.19016795069629"><ele>143.0</ele><time>2026-04-11T11:43:20.985Z</time></trkpt><trkpt lat="40.04561080633009" lon="18.190087513344025"><ele>143.0</ele><time>2026-04-11T11:43:21.985Z</time></trkpt><trkpt lat="40.045820058147974" lon="18.190006711847495"><ele>143.0</ele><time>2026-04-11T11:43:22.985Z</time></trkpt><trkpt lat="40.04603013447072" lon="18.18992647101553"><ele>142.33333333333331</ele><time>2026-04-11T11:43:23.985Z</time></trkpt><trkpt lat="40.0462381359612" lon="18.189847151815087"><ele>141.66666666666666</ele><time>2026-04-11T11:43:24.985Z</time></trkpt><trkpt lat="40.046446051205976" lon="18.18977121652347"><ele>141.0</ele><time>2026-04-11T11:43:25.984Z</time></trkpt><trkpt lat="40.046655864006475" lon="18.189694676479366"><ele>141.0</ele><time>2026-04-11T11:43:26.983Z</time></trkpt><trkpt lat="40.04686806523565" lon="18.189614058564672"><ele>141.0</ele><time>2026-04-11T11:43:27.983Z</time></trkpt><trkpt lat="40.04707468439346" lon="18.18953472928695"><ele>141.0</ele><time>2026-04-11T11:43:28.984Z</time></trkpt><trkpt lat="40.047279913653206" lon="18.189457248747438"><ele>141.33333333333334</ele><time>2026-04-11T11:43:29.984Z</time></trkpt><trkpt lat="40.047488337084864" lon="18.189378756531273"><ele>141.66666666666669</ele><time>2026-04-11T11:43:30.984Z</time></trkpt><trkpt lat="40.04769701163345" lon="18.189300983828854"><ele>142.0</ele><time>2026-04-11T11:43:31.983Z</time></trkpt><trkpt lat="40.047897657830084" lon="18.189233234382627"><ele>142.0</ele><time>2026-04-11T11:43:32.983Z</time></trkpt><trkpt lat="40.048102088227516" lon="18.189164475034072"><ele>142.0</ele><time>2026-04-11T11:43:33.983Z</time></trkpt><trkpt lat="40.048299937283055" lon="18.189089409103307"><ele>142.0</ele><time>2026-04-11T11:43:34.983Z</time></trkpt><trkpt lat="40.048493856602896" lon="18.189011721441606"><ele>141.66666666666669</ele><time>2026-04-11T11:43:35.983Z</time></trkpt><trkpt lat="40.04868762796914" lon="18.18893830282628"><ele>141.33333333333334</ele><time>2026-04-11T11:43:36.983Z</time></trkpt><trkpt lat="40.04888365894412" lon="18.188860999626687"><ele>141.0</ele><time>2026-04-11T11:43:37.983Z</time></trkpt><trkpt lat="40.049085867823706" lon="18.18878837933411"><ele>140.66666666666666</ele><time>2026-04-11T11:43:38.983Z</time></trkpt><trkpt lat="40.04929307124335" lon="18.1887155170336"><ele>140.33333333333331</ele><time>2026-04-11T11:43:39.983Z</time></trkpt><trkpt lat="40.0494957853163" lon="18.188651996973626"><ele>140.0</ele><time>2026-04-11T11:43:40.983Z</time></trkpt><trkpt lat="40.0497085269433" lon="18.188564003656435"><ele>140.0</ele><time>2026-04-11T11:43:41.983Z</time></trkpt><trkpt lat="40.04992434717696" lon="18.188470230490037"><ele>140.0</ele><time>2026-04-11T11:43:42.983Z</time></trkpt><trkpt lat="40.05014424238658" lon="18.18838437231897"><ele>138.5</ele><time>2026-04-11T11:43:43.983Z</time></trkpt><trkpt lat="40.05036984974928" lon="18.188297666165752"><ele>137.0</ele><time>2026-04-11T11:43:44.983Z</time></trkpt><trkpt lat="40.0505922950141" lon="18.188220411123606"><ele>138.0</ele><time>2026-04-11T11:43:45.983Z</time></trkpt><trkpt lat="40.050816417708695" lon="18.188142713333104"><ele>139.0</ele><time>2026-04-11T11:43:46.983Z</time></trkpt><trkpt lat="40.051046806618906" lon="18.188056575967057"><ele>139.0</ele><time>2026-04-11T11:43:47.983Z</time></trkpt><trkpt lat="40.05128027271635" lon="18.187965092955086"><ele>139.0</ele><time>2026-04-11T11:43:48.983Z</time></trkpt><trkpt lat="40.05150929726616" lon="18.187872309755527"><ele>139.0</ele><time>2026-04-11T11:43:49.983Z</time></trkpt><trkpt lat="40.05175098070573" lon="18.187776808760987"><ele>139.0</ele><time>2026-04-11T11:43:50.983Z</time></trkpt><trkpt lat="40.051996407182344" lon="18.187689005554535"><ele>139.0</ele><time>2026-04-11T11:43:51.983Z</time></trkpt><trkpt lat="40.05224288229737" lon="18.18759449599825"><ele>139.0</ele><time>2026-04-11T11:43:52.983Z</time></trkpt><trkpt lat="40.05250100775703" lon="18.18751349529565"><ele>138.0</ele><time>2026-04-11T11:43:53.983Z</time></trkpt><trkpt lat="40.05276474352843" lon="18.187443136531023"><ele>137.0</ele><time>2026-04-11T11:43:54.983Z</time></trkpt><trkpt lat="40.053031936214474" lon="18.18738862905278"><ele>136.5</ele><time>2026-04-11T11:43:55.983Z</time></trkpt><trkpt lat="40.05330075187738" lon="18.187347640191156"><ele>136.0</ele><time>2026-04-11T11:43:56.983Z</time></trkpt><trkpt lat="40.05356994323314" lon="18.18732091236186"><ele>136.0</ele><time>2026-04-11T11:43:57.983Z</time></trkpt><trkpt lat="40.05384394475346" lon="18.18730883571478"><ele>136.0</ele><time>2026-04-11T11:43:58.983Z</time></trkpt><trkpt lat="40.054119948393186" lon="18.18731030820328"><ele>134.5</ele><time>2026-04-11T11:43:59.983Z</time></trkpt><trkpt lat="40.054390777155234" lon="18.187326652249947"><ele>133.0</ele><time>2026-04-11T11:44:00.983Z</time></trkpt><trkpt lat="40.054664285366364" lon="18.187362137830814"><ele>132.5</ele><time>2026-04-11T11:44:01.983Z</time></trkpt><trkpt lat="40.05493618810359" lon="18.187410676037786"><ele>132.0</ele><time>2026-04-11T11:44:02.983Z</time></trkpt><trkpt lat="40.05520417397342" lon="18.18747330044086"><ele>131.5</ele><time>2026-04-11T11:44:03.983Z</time></trkpt><trkpt lat="40.05546784949375" lon="18.187558540609455"><ele>131.0</ele><time>2026-04-11T11:44:04.983Z</time></trkpt><trkpt lat="40.05573741232542" lon="18.187652594536072"><ele>132.5</ele><time>2026-04-11T11:44:05.983Z</time></trkpt><trkpt lat="40.05600037668325" lon="18.18774314152124"><ele>134.0</ele><time>2026-04-11T11:44:06.983Z</time></trkpt><trkpt lat="40.05626188686506" lon="18.18782672907299"><ele>134.0</ele><time>2026-04-11T11:44:07.983Z</time></trkpt><trkpt lat="40.05652150447821" lon="18.187909678347108"><ele>134.0</ele><time>2026-04-11T11:44:08.983Z</time></trkpt><trkpt lat="40.05678201450233" lon="18.18799399584308"><ele>133.5</ele><time>2026-04-11T11:44:09.983Z</time></trkpt><trkpt lat="40.05704179350822" lon="18.18807955034202"><ele>133.0</ele><time>2026-04-11T11:44:10.983Z</time></trkpt><trkpt lat="40.057279425801404" lon="18.188157516205507"><ele>133.0</ele><time>2026-04-11T11:44:11.983Z</time></trkpt><trkpt lat="40.05750695390698" lon="18.188227148040507"><ele>133.0</ele><time>2026-04-11T11:44:12.983Z</time></trkpt><trkpt lat="40.057715533127094" lon="18.18829770936613"><ele>133.0</ele><time>2026-04-11T11:44:13.983Z</time></trkpt><trkpt lat="40.05792220742314" lon="18.188366432337137"><ele>133.0</ele><time>2026-04-11T11:44:14.983Z</time></trkpt><trkpt lat="40.05812710307054" lon="18.188434101025575"><ele>133.0</ele><time>2026-04-11T11:44:15.983Z</time></trkpt><trkpt lat="40.05833387740082" lon="18.18849956514469"><ele>133.0</ele><time>2026-04-11T11:44:16.983Z</time></trkpt><trkpt lat="40.058542187765205" lon="18.188567771586914"><ele>132.66666666666669</ele><time>2026-04-11T11:44:17.983Z</time></trkpt><trkpt lat="40.058751433992214" lon="18.188635453386567"><ele>132.33333333333334</ele><time>2026-04-11T11:44:18.983Z</time></trkpt><trkpt lat="40.058962555521695" lon="18.188703738524353"><ele>132.0</ele><time>2026-04-11T11:44:19.983Z</time></trkpt><trkpt lat="40.0591725616257" lon="18.188771149069336"><ele>131.66666666666666</ele><time>2026-04-11T11:44:20.983Z</time></trkpt><trkpt lat="40.05938621114883" lon="18.18884006099524"><ele>131.33333333333331</ele><time>2026-04-11T11:44:21.983Z</time></trkpt><trkpt lat="40.05959774523747" lon="18.188911574345543"><ele>131.0</ele><time>2026-04-11T11:44:22.983Z</time></trkpt><trkpt lat="40.059806542303484" lon="18.188980562401245"><ele>130.0</ele><time>2026-04-11T11:44:23.983Z</time></trkpt><trkpt lat="40.06001741502767" lon="18.189048104212578"><ele>129.0</ele><time>2026-04-11T11:44:24.983Z</time></trkpt><trkpt lat="40.06022585474712" lon="18.189116200051807"><ele>128.0</ele><time>2026-04-11T11:44:25.983Z</time></trkpt><trkpt lat="40.06042955265058" lon="18.189185988931488"><ele>128.0</ele><time>2026-04-11T11:44:26.983Z</time></trkpt><trkpt lat="40.06063535992781" lon="18.189245630606553"><ele>128.0</ele><time>2026-04-11T11:44:27.983Z</time></trkpt><trkpt lat="40.06085431357882" lon="18.189304994429925"><ele>128.0</ele><time>2026-04-11T11:44:28.983Z</time></trkpt><trkpt lat="40.061075500881714" lon="18.189366669398453"><ele>128.0</ele><time>2026-04-11T11:44:29.983Z</time></trkpt><trkpt lat="40.06130026432406" lon="18.189440457015138"><ele>128.0</ele><time>2026-04-11T11:44:30.983Z</time></trkpt><trkpt lat="40.06154058624098" lon="18.189531556568205"><ele>127.0</ele><time>2026-04-11T11:44:31.983Z</time></trkpt><trkpt lat="40.061779005323366" lon="18.189625058816656"><ele>126.0</ele><time>2026-04-11T11:44:32.983Z</time></trkpt><trkpt lat="40.062021550602594" lon="18.189710149871736"><ele>126.0</ele><time>2026-04-11T11:44:33.983Z</time></trkpt><trkpt lat="40.06226557833822" lon="18.189789820591255"><ele>126.0</ele><time>2026-04-11T11:44:34.983Z</time></trkpt><trkpt lat="40.06250791295024" lon="18.189868473461548"><ele>125.5</ele><time>2026-04-11T11:44:35.983Z</time></trkpt><trkpt lat="40.06274315295157" lon="18.189947748585087"><ele>125.0</ele><time>2026-04-11T11:44:36.983Z</time></trkpt><trkpt lat="40.06298292554703" lon="18.190031332039442"><ele>125.0</ele><time>2026-04-11T11:44:37.983Z</time></trkpt><trkpt lat="40.06322224134864" lon="18.1901124539572"><ele>125.0</ele><time>2026-04-11T11:44:38.983Z</time></trkpt><trkpt lat="40.06346393742219" lon="18.190190992716104"><ele>125.0</ele><time>2026-04-11T11:44:39.983Z</time></trkpt><trkpt lat="40.06370808481016" lon="18.19026946918333"><ele>125.0</ele><time>2026-04-11T11:44:40.983Z</time></trkpt><trkpt lat="40.06395188182616" lon="18.19034819654172"><ele>123.5</ele><time>2026-04-11T11:44:41.983Z</time></trkpt><trkpt lat="40.064196655214346" lon="18.19042755376305"><ele>122.0</ele><time>2026-04-11T11:44:42.983Z</time></trkpt><trkpt lat="40.06443973887895" lon="18.190503305048395"><ele>122.0</ele><time>2026-04-11T11:44:43.983Z</time></trkpt><trkpt lat="40.06468069793645" lon="18.190576603566218"><ele>122.0</ele><time>2026-04-11T11:44:44.983Z</time></trkpt><trkpt lat="40.064921981611135" lon="18.190654079285057"><ele>121.0</ele><time>2026-04-11T11:44:45.983Z</time></trkpt><trkpt lat="40.06516688495956" lon="18.19073410071587"><ele>120.0</ele><time>2026-04-11T11:44:46.983Z</time></trkpt><trkpt lat="40.06540886680654" lon="18.19081247729321"><ele>120.0</ele><time>2026-04-11T11:44:47.983Z</time></trkpt><trkpt lat="40.065660557295146" lon="18.190894871994125"><ele>120.0</ele><time>2026-04-11T11:44:48.983Z</time></trkpt><trkpt lat="40.06591534753749" lon="18.19097838893542"><ele>120.5</ele><time>2026-04-11T11:44:49.983Z</time></trkpt><trkpt lat="40.066174266417335" lon="18.191064425782184"><ele>121.0</ele><time>2026-04-11T11:44:50.983Z</time></trkpt><trkpt lat="40.06643080116123" lon="18.191146535727864"><ele>120.0</ele><time>2026-04-11T11:44:51.983Z</time></trkpt><trkpt lat="40.066675580263336" lon="18.19123087210303"><ele>119.0</ele><time>2026-04-11T11:44:52.983Z</time></trkpt><trkpt lat="40.06690512405025" lon="18.1913016606409"><ele>119.0</ele><time>2026-04-11T11:44:53.983Z</time></trkpt><trkpt lat="40.067127830850225" lon="18.19136156221454"><ele>119.0</ele><time>2026-04-11T11:44:54.983Z</time></trkpt><trkpt lat="40.06733626776729" lon="18.19140692833444"><ele>119.0</ele><time>2026-04-11T11:44:55.983Z</time></trkpt><trkpt lat="40.06752658933302" lon="18.191440700264938"><ele>118.66666666666666</ele><time>2026-04-11T11:44:56.983Z</time></trkpt><trkpt lat="40.06770156113071" lon="18.19145955824561"><ele>118.33333333333334</ele><time>2026-04-11T11:44:57.983Z</time></trkpt><trkpt lat="40.06785885901287" lon="18.191471464622417"><ele>118.0</ele><time>2026-04-11T11:44:58.983Z</time></trkpt><trkpt lat="40.06799716288075" lon="18.191486224076446"><ele>118.0</ele><time>2026-04-11T11:44:59.983Z</time></trkpt><trkpt lat="40.068109345481574" lon="18.191503720825278"><ele>118.00000000000001</ele><time>2026-04-11T11:45:00.983Z</time></trkpt><trkpt lat="40.06819610211975" lon="18.191527396756943"><ele>118.00000000000001</ele><time>2026-04-11T11:45:01.983Z</time></trkpt><trkpt lat="40.06828199840449" lon="18.191588643833278"><ele>118.0</ele><time>2026-04-11T11:45:02.983Z</time></trkpt><trkpt lat="40.0683545514039" lon="18.19165265317899"><ele>118.0</ele><time>2026-04-11T11:45:03.983Z</time></trkpt><trkpt lat="40.06841928676404" lon="18.191730040054576"><ele>117.4</ele><time>2026-04-11T11:45:04.983Z</time></trkpt><trkpt lat="40.06847284998847" lon="18.19182017745497"><ele>116.80000000000001</ele><time>2026-04-11T11:45:05.983Z</time></trkpt><trkpt lat="40.06850448294881" lon="18.191926354615976"><ele>116.2</ele><time>2026-04-11T11:45:06.983Z</time></trkpt><trkpt lat="40.068529567523875" lon="18.192056730530503"><ele>115.6</ele><time>2026-04-11T11:45:07.983Z</time></trkpt><trkpt lat="40.06856322232009" lon="18.19220118132934"><ele>115.0</ele><time>2026-04-11T11:45:08.983Z</time></trkpt><trkpt lat="40.06859985723076" lon="18.192331323577413"><ele>114.4</ele><time>2026-04-11T11:45:09.983Z</time></trkpt><trkpt lat="40.06865780482832" lon="18.192443127243127"><ele>113.8</ele><time>2026-04-11T11:45:10.983Z</time></trkpt><trkpt lat="40.068707896467664" lon="18.192526201853266"><ele>113.19999999999999</ele><time>2026-04-11T11:45:11.983Z</time></trkpt><trkpt lat="40.06873648183263" lon="18.19261933165582"><ele>112.6</ele><time>2026-04-11T11:45:13.982Z</time></trkpt><trkpt lat="40.06863227103269" lon="18.192705363538153"><ele>112.0</ele><time>2026-04-11T11:45:17.982Z</time></trkpt><trkpt lat="40.06857687079162" lon="18.19277363426103"><ele>112.0</ele><time>2026-04-11T11:45:18.982Z</time></trkpt><trkpt lat="40.06845350470465" lon="18.19285390524495"><ele>112.0</ele><time>2026-04-11T11:45:19.982Z</time></trkpt><trkpt lat="40.068343769829916" lon="18.192954909221015"><ele>112.0</ele><time>2026-04-11T11:45:20.982Z</time></trkpt><trkpt lat="40.06823004663529" lon="18.193078583469465"><ele>112.0</ele><time>2026-04-11T11:45:21.982Z</time></trkpt><trkpt lat="40.06814617004817" lon="18.193154426404462"><ele>112.28571428571428</ele><time>2026-04-11T11:45:22.982Z</time></trkpt><trkpt lat="40.06808308323852" lon="18.193214090230676"><ele>112.57142857142857</ele><time>2026-04-11T11:45:23.982Z</time></trkpt><trkpt lat="40.06802834192978" lon="18.193267321853487"><ele>112.85714285714286</ele><time>2026-04-11T11:45:24.982Z</time></trkpt><trkpt lat="40.06797263165907" lon="18.193316097254023"><ele>113.14285714285714</ele><time>2026-04-11T11:45:25.982Z</time></trkpt><trkpt lat="40.0679136862004" lon="18.19336930636961"><ele>113.42857142857142</ele><time>2026-04-11T11:45:26.982Z</time></trkpt><trkpt lat="40.067854164438074" lon="18.1934228499963"><ele>113.71428571428571</ele><time>2026-04-11T11:45:27.982Z</time></trkpt><trkpt lat="40.067791415029305" lon="18.193475155774298"><ele>114.0</ele><time>2026-04-11T11:45:28.982Z</time></trkpt><trkpt lat="40.06773047850541" lon="18.1935314864666"><ele>114.0</ele><time>2026-04-11T11:45:29.982Z</time></trkpt><trkpt lat="40.06766527333616" lon="18.193593840637607"><ele>114.0</ele><time>2026-04-11T11:45:30.982Z</time></trkpt><trkpt lat="40.067595398371736" lon="18.193660565209733"><ele>114.0</ele><time>2026-04-11T11:45:31.982Z</time></trkpt><trkpt lat="40.06752492513696" lon="18.19372522796261"><ele>114.0</ele><time>2026-04-11T11:45:32.982Z</time></trkpt><trkpt lat="40.067449759154975" lon="18.19378640158146"><ele>114.0</ele><time>2026-04-11T11:45:33.982Z</time></trkpt><trkpt lat="40.06738215274334" lon="18.193844843160246"><ele>114.0</ele><time>2026-04-11T11:45:34.982Z</time></trkpt><trkpt lat="40.067313916167706" lon="18.193905644903584"><ele>114.33333333333333</ele><time>2026-04-11T11:45:35.981Z</time></trkpt><trkpt lat="40.067244075339794" lon="18.193966852533297"><ele>114.66666666666666</ele><time>2026-04-11T11:45:36.981Z</time></trkpt><trkpt lat="40.067178515251925" lon="18.194033778665055"><ele>115.0</ele><time>2026-04-11T11:45:37.982Z</time></trkpt><trkpt lat="40.06710525561749" lon="18.1941033928792"><ele>115.33333333333333</ele><time>2026-04-11T11:45:38.982Z</time></trkpt><trkpt lat="40.06702609527175" lon="18.194175109065874"><ele>115.66666666666666</ele><time>2026-04-11T11:45:39.982Z</time></trkpt><trkpt lat="40.06695038472534" lon="18.19424591601978"><ele>116.0</ele><time>2026-04-11T11:45:40.982Z</time></trkpt><trkpt lat="40.066874437970704" lon="18.1943201058201"><ele>116.0</ele><time>2026-04-11T11:45:41.982Z</time></trkpt><trkpt lat="40.066792486979466" lon="18.19439570949143"><ele>116.0</ele><time>2026-04-11T11:45:42.982Z</time></trkpt><trkpt lat="40.066701963079936" lon="18.194481515208352"><ele>116.0</ele><time>2026-04-11T11:45:43.982Z</time></trkpt><trkpt lat="40.06659024086015" lon="18.194565970785252"><ele>116.0</ele><time>2026-04-11T11:45:44.981Z</time></trkpt><trkpt lat="40.06648127185174" lon="18.19465070997274"><ele>116.0</ele><time>2026-04-11T11:45:45.981Z</time></trkpt><trkpt lat="40.06637156680877" lon="18.194746425847935"><ele>116.0</ele><time>2026-04-11T11:45:46.981Z</time></trkpt><trkpt lat="40.066251400965676" lon="18.194842596417363"><ele>116.0</ele><time>2026-04-11T11:45:47.981Z</time></trkpt><trkpt lat="40.06612574454839" lon="18.194939337321525"><ele>116.0</ele><time>2026-04-11T11:45:48.981Z</time></trkpt><trkpt lat="40.066012992370005" lon="18.19504375160723"><ele>115.25</ele><time>2026-04-11T11:45:49.981Z</time></trkpt><trkpt lat="40.06591622654794" lon="18.19514770988438"><ele>114.5</ele><time>2026-04-11T11:45:50.981Z</time></trkpt><trkpt lat="40.06582016176826" lon="18.195248100465868"><ele>113.75</ele><time>2026-04-11T11:45:51.981Z</time></trkpt><trkpt lat="40.065732942937586" lon="18.195350318513434"><ele>113.0</ele><time>2026-04-11T11:45:52.981Z</time></trkpt><trkpt lat="40.065658761062366" lon="18.1954388950109"><ele>113.0</ele><time>2026-04-11T11:45:53.981Z</time></trkpt><trkpt lat="40.065578870648146" lon="18.19551853972726"><ele>113.00000000000001</ele><time>2026-04-11T11:45:54.981Z</time></trkpt><trkpt lat="40.06550958374723" lon="18.195599905396953"><ele>113.00000000000001</ele><time>2026-04-11T11:45:55.981Z</time></trkpt><trkpt lat="40.06544092807748" lon="18.19567498909423"><ele>113.0</ele><time>2026-04-11T11:45:56.981Z</time></trkpt><trkpt lat="40.06536776092012" lon="18.19575424512566"><ele>113.0</ele><time>2026-04-11T11:45:57.981Z</time></trkpt><trkpt lat="40.06529112488519" lon="18.195835635992644"><ele>113.0</ele><time>2026-04-11T11:45:58.981Z</time></trkpt><trkpt lat="40.06520659735151" lon="18.195924532297308"><ele>113.00000000000001</ele><time>2026-04-11T11:45:59.981Z</time></trkpt><trkpt lat="40.06511815963755" lon="18.19600961422287"><ele>113.00000000000001</ele><time>2026-04-11T11:46:00.981Z</time></trkpt><trkpt lat="40.06503235792763" lon="18.196082223000616"><ele>113.0</ele><time>2026-04-11T11:46:01.981Z</time></trkpt><trkpt lat="40.064950358068295" lon="18.19615123312661"><ele>113.0</ele><time>2026-04-11T11:46:02.981Z</time></trkpt><trkpt lat="40.06487381162995" lon="18.196211365715055"><ele>112.99999999999999</ele><time>2026-04-11T11:46:03.981Z</time></trkpt><trkpt lat="40.0648072651065" lon="18.196266938508494"><ele>113.0</ele><time>2026-04-11T11:46:04.981Z</time></trkpt><trkpt lat="40.064749486255764" lon="18.196314727282417"><ele>113.0</ele><time>2026-04-11T11:46:05.981Z</time></trkpt><trkpt lat="40.06469675541035" lon="18.196360071468494"><ele>113.0</ele><time>2026-04-11T11:46:06.981Z</time></trkpt><trkpt lat="40.06460965000739" lon="18.196464202895772"><ele>112.99999999999999</ele><time>2026-04-11T11:46:08.981Z</time></trkpt><trkpt lat="40.064565457011874" lon="18.196529517490923"><ele>113.0</ele><time>2026-04-11T11:46:09.981Z</time></trkpt><trkpt lat="40.064513300954715" lon="18.196614645329415"><ele>111.80000000000001</ele><time>2026-04-11T11:46:10.981Z</time></trkpt><trkpt lat="40.06446517296206" lon="18.196711855420894"><ele>110.60000000000001</ele><time>2026-04-11T11:46:11.981Z</time></trkpt><trkpt lat="40.06441002353213" lon="18.196826931196096"><ele>109.39999999999999</ele><time>2026-04-11T11:46:12.981Z</time></trkpt><trkpt lat="40.06433284816847" lon="18.19695197407388"><ele>108.19999999999999</ele><time>2026-04-11T11:46:13.981Z</time></trkpt><trkpt lat="40.06424845863003" lon="18.19705300690778"><ele>107.0</ele><time>2026-04-11T11:46:14.981Z</time></trkpt><trkpt lat="40.06416986307477" lon="18.19714314231125"><ele>106.83333333333333</ele><time>2026-04-11T11:46:15.981Z</time></trkpt><trkpt lat="40.06409868106871" lon="18.197224129475636"><ele>106.66666666666666</ele><time>2026-04-11T11:46:16.981Z</time></trkpt><trkpt lat="40.06403130823113" lon="18.197298215154685"><ele>106.5</ele><time>2026-04-11T11:46:17.981Z</time></trkpt><trkpt lat="40.06396970411727" lon="18.197359737141895"><ele>106.33333333333334</ele><time>2026-04-11T11:46:18.981Z</time></trkpt><trkpt lat="40.06391342728434" lon="18.197423105250625"><ele>106.16666666666667</ele><time>2026-04-11T11:46:19.981Z</time></trkpt><trkpt lat="40.06385598035368" lon="18.197487626726502"><ele>106.0</ele><time>2026-04-11T11:46:20.981Z</time></trkpt><trkpt lat="40.06378606824326" lon="18.19754865287442"><ele>106.00000000000001</ele><time>2026-04-11T11:46:21.981Z</time></trkpt><trkpt lat="40.0637104684077" lon="18.197608839875898"><ele>106.0</ele><time>2026-04-11T11:46:22.981Z</time></trkpt><trkpt lat="40.063638595177984" lon="18.197665823279227"><ele>106.0</ele><time>2026-04-11T11:46:23.981Z</time></trkpt><trkpt lat="40.063565192099844" lon="18.19772786003178"><ele>106.0</ele><time>2026-04-11T11:46:24.981Z</time></trkpt><trkpt lat="40.063502631975105" lon="18.19778902322268"><ele>106.00000000000001</ele><time>2026-04-11T11:46:25.981Z</time></trkpt><trkpt lat="40.06343422339874" lon="18.197858799483647"><ele>106.0</ele><time>2026-04-11T11:46:26.981Z</time></trkpt><trkpt lat="40.063367394621565" lon="18.19792677662779"><ele>106.00000000000001</ele><time>2026-04-11T11:46:27.981Z</time></trkpt><trkpt lat="40.063307549231155" lon="18.197996295221884"><ele>106.0</ele><time>2026-04-11T11:46:28.981Z</time></trkpt><trkpt lat="40.06323073519145" lon="18.19807779837849"><ele>106.0</ele><time>2026-04-11T11:46:29.981Z</time></trkpt><trkpt lat="40.06317627201528" lon="18.198145978157832"><ele>106.0</ele><time>2026-04-11T11:46:30.981Z</time></trkpt><trkpt lat="40.06312155012529" lon="18.198218135863765"><ele>106.00000000000001</ele><time>2026-04-11T11:46:31.981Z</time></trkpt><trkpt lat="40.06305575239574" lon="18.198282752604875"><ele>106.0</ele><time>2026-04-11T11:46:32.981Z</time></trkpt><trkpt lat="40.06298380114831" lon="18.198345471477552"><ele>106.16666666666667</ele><time>2026-04-11T11:46:33.981Z</time></trkpt><trkpt lat="40.062916111663036" lon="18.198419600894024"><ele>106.33333333333334</ele><time>2026-04-11T11:46:34.981Z</time></trkpt><trkpt lat="40.0628395502297" lon="18.198489681421112"><ele>106.5</ele><time>2026-04-11T11:46:35.981Z</time></trkpt><trkpt lat="40.062767519072324" lon="18.198552658906472"><ele>106.66666666666666</ele><time>2026-04-11T11:46:36.981Z</time></trkpt><trkpt lat="40.0626941561395" lon="18.198606277397225"><ele>106.83333333333333</ele><time>2026-04-11T11:46:37.981Z</time></trkpt><trkpt lat="40.06262041770473" lon="18.19865782592062"><ele>107.0</ele><time>2026-04-11T11:46:38.981Z</time></trkpt><trkpt lat="40.062549120525304" lon="18.19869674228907"><ele>106.99999999999999</ele><time>2026-04-11T11:46:39.981Z</time></trkpt><trkpt lat="40.0624627788515" lon="18.198744109841467"><ele>107.0</ele><time>2026-04-11T11:46:41.981Z</time></trkpt><trkpt lat="40.06238742870722" lon="18.198784241100554"><ele>107.0</ele><time>2026-04-11T11:46:44.981Z</time></trkpt><trkpt lat="40.0623041327285" lon="18.198828324683415"><ele>107.0</ele><time>2026-04-11T11:46:47.981Z</time></trkpt><trkpt lat="40.06223381601341" lon="18.198873226046043"><ele>106.99999999999999</ele><time>2026-04-11T11:46:49.981Z</time></trkpt><trkpt lat="40.06216279257086" lon="18.198905981178772"><ele>107.0</ele><time>2026-04-11T11:46:51.981Z</time></trkpt><trkpt lat="40.0620993322346" lon="18.198943296352134"><ele>106.99999999999999</ele><time>2026-04-11T11:46:54.981Z</time></trkpt><trkpt lat="40.06218627433299" lon="18.198882581022886"><ele>107.0</ele><time>2026-04-11T11:48:06.98Z</time></trkpt><trkpt lat="40.06224654598582" lon="18.19884374157505"><ele>107.0</ele><time>2026-04-11T11:48:08.98Z</time></trkpt><trkpt lat="40.06233042305145" lon="18.198810462187772"><ele>107.0</ele><time>2026-04-11T11:48:11.98Z</time></trkpt><trkpt lat="40.06238892176672" lon="18.198779321563645"><ele>106.99999999999999</ele><time>2026-04-11T11:48:13.98Z</time></trkpt><trkpt lat="40.06249663894323" lon="18.198717768973438"><ele>107.0</ele><time>2026-04-11T11:48:15.98Z</time></trkpt><trkpt lat="40.0625587385264" lon="18.198684227245156"><ele>106.99999999999999</ele><time>2026-04-11T11:48:16.98Z</time></trkpt><trkpt lat="40.06262453856898" lon="18.19863953439372"><ele>107.0</ele><time>2026-04-11T11:48:17.98Z</time></trkpt><trkpt lat="40.06270437137968" lon="18.198590588661915"><ele>107.0</ele><time>2026-04-11T11:48:18.98Z</time></trkpt><trkpt lat="40.06279206066271" lon="18.198513046777315"><ele>107.0</ele><time>2026-04-11T11:48:19.98Z</time></trkpt><trkpt lat="40.06286596045983" lon="18.198455062593496"><ele>106.99999999999999</ele><time>2026-04-11T11:48:20.98Z</time></trkpt><trkpt lat="40.06292624204154" lon="18.198409035818983"><ele>107.0</ele><time>2026-04-11T11:48:21.98Z</time></trkpt><trkpt lat="40.0630128711557" lon="18.19831452736027"><ele>106.99999999999999</ele><time>2026-04-11T11:48:23.98Z</time></trkpt><trkpt lat="40.06307863079563" lon="18.19827611793213"><ele>107.0</ele><time>2026-04-11T11:48:26.98Z</time></trkpt><trkpt lat="40.0631241795507" lon="18.198340289769092"><ele>107.0</ele><time>2026-04-11T11:48:29.98Z</time></trkpt><trkpt lat="40.06316374153137" lon="18.198443111039257"><ele>107.0</ele><time>2026-04-11T11:48:31.98Z</time></trkpt><trkpt lat="40.063238853926514" lon="18.19857887371079"><ele>106.99999999999999</ele><time>2026-04-11T11:48:33.98Z</time></trkpt><trkpt lat="40.06328138294249" lon="18.198660963001068"><ele>107.0</ele><time>2026-04-11T11:48:34.98Z</time></trkpt><trkpt lat="40.0633258089081" lon="18.198752765708598"><ele>106.19999999999999</ele><time>2026-04-11T11:48:35.98Z</time></trkpt><trkpt lat="40.06337773181323" lon="18.198854299184173"><ele>105.39999999999999</ele><time>2026-04-11T11:48:36.98Z</time></trkpt><trkpt lat="40.063429553765666" lon="18.198959959534736"><ele>104.6</ele><time>2026-04-11T11:48:37.98Z</time></trkpt><trkpt lat="40.06348234147854" lon="18.199074324137108"><ele>103.80000000000001</ele><time>2026-04-11T11:48:38.98Z</time></trkpt><trkpt lat="40.06354130839094" lon="18.199188436429647"><ele>103.0</ele><time>2026-04-11T11:48:39.98Z</time></trkpt><trkpt lat="40.06359517698197" lon="18.199297879288235"><ele>102.4</ele><time>2026-04-11T11:48:40.98Z</time></trkpt><trkpt lat="40.06364773416892" lon="18.199407334635907"><ele>101.80000000000001</ele><time>2026-04-11T11:48:41.98Z</time></trkpt><trkpt lat="40.06370048596093" lon="18.199514644054194"><ele>101.2</ele><time>2026-04-11T11:48:42.98Z</time></trkpt><trkpt lat="40.06374968129574" lon="18.199608485840947"><ele>100.6</ele><time>2026-04-11T11:48:43.98Z</time></trkpt><trkpt lat="40.063795106542244" lon="18.199693556562497"><ele>100.0</ele><time>2026-04-11T11:48:44.98Z</time></trkpt><trkpt lat="40.063848868860994" lon="18.19979688251995"><ele>99.83333333333334</ele><time>2026-04-11T11:48:45.98Z</time></trkpt><trkpt lat="40.063895073365295" lon="18.199888487338082"><ele>99.66666666666667</ele><time>2026-04-11T11:48:46.98Z</time></trkpt><trkpt lat="40.063947786996465" lon="18.19998100920966"><ele>99.5</ele><time>2026-04-11T11:48:47.98Z</time></trkpt><trkpt lat="40.063987527628036" lon="18.200065867633786"><ele>99.33333333333334</ele><time>2026-04-11T11:48:48.98Z</time></trkpt><trkpt lat="40.064032225449154" lon="18.200146230700163"><ele>99.16666666666667</ele><time>2026-04-11T11:48:49.98Z</time></trkpt><trkpt lat="40.06407193641208" lon="18.200222904487255"><ele>99.0</ele><time>2026-04-11T11:48:50.98Z</time></trkpt><trkpt lat="40.06414216518901" lon="18.20033828320595"><ele>99.0</ele><time>2026-04-11T11:48:52.98Z</time></trkpt><trkpt lat="40.0641900755438" lon="18.200426863802413"><ele>99.0</ele><time>2026-04-11T11:48:53.979Z</time></trkpt><trkpt lat="40.06424018838363" lon="18.20052261235653"><ele>99.0</ele><time>2026-04-11T11:48:54.979Z</time></trkpt><trkpt lat="40.06429358892803" lon="18.20062751334742"><ele>99.0</ele><time>2026-04-11T11:48:55.979Z</time></trkpt><trkpt lat="40.06434306111234" lon="18.200723549059887"><ele>99.0</ele><time>2026-04-11T11:48:56.979Z</time></trkpt><trkpt lat="40.06438838625555" lon="18.20081345358984"><ele>99.0</ele><time>2026-04-11T11:48:57.979Z</time></trkpt><trkpt lat="40.06442977376047" lon="18.20089649399979"><ele>99.16666666666667</ele><time>2026-04-11T11:48:58.979Z</time></trkpt><trkpt lat="40.06447207515541" lon="18.20097874743742"><ele>99.33333333333334</ele><time>2026-04-11T11:48:59.979Z</time></trkpt><trkpt lat="40.064514587789084" lon="18.201059128112224"><ele>99.5</ele><time>2026-04-11T11:49:00.979Z</time></trkpt><trkpt lat="40.06456020207221" lon="18.20115092529056"><ele>99.66666666666667</ele><time>2026-04-11T11:49:01.979Z</time></trkpt><trkpt lat="40.06460390627222" lon="18.201245220545314"><ele>99.83333333333334</ele><time>2026-04-11T11:49:02.979Z</time></trkpt><trkpt lat="40.06464467795641" lon="18.2013318705522"><ele>100.0</ele><time>2026-04-11T11:49:03.979Z</time></trkpt><trkpt lat="40.064689553403866" lon="18.20141980472339"><ele>100.00000000000001</ele><time>2026-04-11T11:49:04.979Z</time></trkpt><trkpt lat="40.06473745944513" lon="18.201503974760307"><ele>100.0</ele><time>2026-04-11T11:49:05.979Z</time></trkpt><trkpt lat="40.06478098057209" lon="18.201586250520734"><ele>100.0</ele><time>2026-04-11T11:49:06.979Z</time></trkpt><trkpt lat="40.064818121114776" lon="18.2016604764042"><ele>100.0</ele><time>2026-04-11T11:49:07.979Z</time></trkpt><trkpt lat="40.06485536014463" lon="18.201732915136294"><ele>100.0</ele><time>2026-04-11T11:49:08.979Z</time></trkpt><trkpt lat="40.06488979632366" lon="18.201803574008494"><ele>100.00000000000001</ele><time>2026-04-11T11:49:09.979Z</time></trkpt><trkpt lat="40.064924269395604" lon="18.201872472472036"><ele>100.0</ele><time>2026-04-11T11:49:10.979Z</time></trkpt><trkpt lat="40.06498795231494" lon="18.20198671343431"><ele>100.0</ele><time>2026-04-11T11:49:12.979Z</time></trkpt><trkpt lat="40.06503043718557" lon="18.20207411348517"><ele>100.0</ele><time>2026-04-11T11:49:14.979Z</time></trkpt></trkseg><trkseg><trkpt lat="40.065076172514665" lon="18.202212154946903"><ele>100.0</ele><time>2026-04-11T12:07:49.966Z</time></trkpt><trkpt lat="40.065124859714146" lon="18.202304086253186"><ele>100.0</ele><time>2026-04-11T12:07:51.966Z</time></trkpt><trkpt lat="40.06519251128138" lon="18.2024260593095"><ele>100.0</ele><time>2026-04-11T12:07:53.966Z</time></trkpt><trkpt lat="40.065254610086484" lon="18.202532505430753"><ele>100.0</ele><time>2026-04-11T12:07:55.966Z</time></trkpt><trkpt lat="40.06530253707374" lon="18.202623368508434"><ele>100.0</ele><time>2026-04-11T12:07:57.966Z</time></trkpt><trkpt lat="40.06534715611512" lon="18.202712666330683"><ele>100.0</ele><time>2026-04-11T12:07:59.966Z</time></trkpt><trkpt lat="40.06540850318404" lon="18.202826135051264"><ele>100.0</ele><time>2026-04-11T12:08:01.966Z</time></trkpt><trkpt lat="40.06546188423545" lon="18.202937480815418"><ele>100.0</ele><time>2026-04-11T12:08:03.966Z</time></trkpt><trkpt lat="40.06551853586626" lon="18.203053822907595"><ele>100.0</ele><time>2026-04-11T12:08:05.966Z</time></trkpt><trkpt lat="40.06558644504009" lon="18.203178933838878"><ele>100.0</ele><time>2026-04-11T12:08:07.966Z</time></trkpt><trkpt lat="40.06563870706819" lon="18.20327004934877"><ele>100.0</ele><time>2026-04-11T12:08:09.966Z</time></trkpt><trkpt lat="40.06567570033062" lon="18.203360106558215"><ele>100.0</ele><time>2026-04-11T12:08:11.966Z</time></trkpt><trkpt lat="40.065731954914654" lon="18.20346732447215"><ele>100.0</ele><time>2026-04-11T12:08:13.966Z</time></trkpt><trkpt lat="40.06578688686269" lon="18.203575852934414"><ele>100.0</ele><time>2026-04-11T12:08:15.966Z</time></trkpt><trkpt lat="40.06583966073295" lon="18.203676144275278"><ele>100.0</ele><time>2026-04-11T12:08:17.966Z</time></trkpt><trkpt lat="40.06588733799918" lon="18.203771107867922"><ele>100.2</ele><time>2026-04-11T12:08:19.966Z</time></trkpt><trkpt lat="40.06593127309901" lon="18.203861584716396"><ele>100.4</ele><time>2026-04-11T12:08:21.966Z</time></trkpt><trkpt lat="40.06598297376831" lon="18.20396975808573"><ele>100.6</ele><time>2026-04-11T12:08:23.966Z</time></trkpt><trkpt lat="40.06603855636573" lon="18.204076359724727"><ele>100.8</ele><time>2026-04-11T12:08:25.966Z</time></trkpt><trkpt lat="40.066096975207" lon="18.204188474219496"><ele>101.0</ele><time>2026-04-11T12:08:27.966Z</time></trkpt><trkpt lat="40.06615263505348" lon="18.204292462293946"><ele>101.16666666666666</ele><time>2026-04-11T12:08:29.966Z</time></trkpt><trkpt lat="40.06621443724555" lon="18.20441395138332"><ele>101.33333333333333</ele><time>2026-04-11T12:08:31.966Z</time></trkpt><trkpt lat="40.0662683719774" lon="18.204523747701415"><ele>101.5</ele><time>2026-04-11T12:08:33.966Z</time></trkpt><trkpt lat="40.06631914256006" lon="18.20462510472262"><ele>101.66666666666666</ele><time>2026-04-11T12:08:35.966Z</time></trkpt><trkpt lat="40.06635597231236" lon="18.204695732395017"><ele>101.83333333333333</ele><time>2026-04-11T12:08:37.966Z</time></trkpt><trkpt lat="40.06639221183032" lon="18.20477668281574"><ele>102.0</ele><time>2026-04-11T12:08:39.965Z</time></trkpt><trkpt lat="40.0664380093844" lon="18.204855222351735"><ele>102.16666666666667</ele><time>2026-04-11T12:08:41.965Z</time></trkpt><trkpt lat="40.066469593926286" lon="18.204929220612367"><ele>102.33333333333334</ele><time>2026-04-11T12:08:43.966Z</time></trkpt><trkpt lat="40.06651019234483" lon="18.205008643318283"><ele>102.5</ele><time>2026-04-11T12:08:45.965Z</time></trkpt><trkpt lat="40.066554411449935" lon="18.20508481298409"><ele>102.66666666666667</ele><time>2026-04-11T12:08:47.965Z</time></trkpt><trkpt lat="40.066592932899084" lon="18.20519087251021"><ele>102.83333333333334</ele><time>2026-04-11T12:08:50.965Z</time></trkpt><trkpt lat="40.06662770445404" lon="18.205287615459444"><ele>103.0</ele><time>2026-04-11T12:08:53.965Z</time></trkpt><trkpt lat="40.06660577846546" lon="18.205201007939863"><ele>103.0</ele><time>2026-04-11T12:09:21.965Z</time></trkpt><trkpt lat="40.066559360198035" lon="18.205136603079225"><ele>103.0</ele><time>2026-04-11T12:09:24.965Z</time></trkpt><trkpt lat="40.06649901339405" lon="18.205024112793154"><ele>103.0</ele><time>2026-04-11T12:09:26.965Z</time></trkpt><trkpt lat="40.06644972362333" lon="18.204939804437483"><ele>103.0</ele><time>2026-04-11T12:09:28.965Z</time></trkpt><trkpt lat="40.066392989749474" lon="18.20482402298373"><ele>103.0</ele><time>2026-04-11T12:09:30.965Z</time></trkpt><trkpt lat="40.066342244834516" lon="18.204716323778342"><ele>102.80000000000001</ele><time>2026-04-11T12:09:32.965Z</time></trkpt><trkpt lat="40.066290471009104" lon="18.204612442524944"><ele>102.6</ele><time>2026-04-11T12:09:34.965Z</time></trkpt><trkpt lat="40.066225750149606" lon="18.204485342936703"><ele>102.4</ele><time>2026-04-11T12:09:36.965Z</time></trkpt><trkpt lat="40.06616072306603" lon="18.20435325996397"><ele>102.19999999999999</ele><time>2026-04-11T12:09:38.965Z</time></trkpt><trkpt lat="40.066102184867866" lon="18.204236153636675"><ele>102.0</ele><time>2026-04-11T12:09:40.965Z</time></trkpt><trkpt lat="40.06604076318822" lon="18.204124988711182"><ele>102.0</ele><time>2026-04-11T12:09:42.965Z</time></trkpt><trkpt lat="40.06599478268811" lon="18.20402832065064"><ele>102.0</ele><time>2026-04-11T12:09:44.965Z</time></trkpt><trkpt lat="40.06593465780018" lon="18.203920319983325"><ele>102.0</ele><time>2026-04-11T12:09:46.965Z</time></trkpt><trkpt lat="40.065875433040446" lon="18.203802099475418"><ele>102.0</ele><time>2026-04-11T12:09:48.965Z</time></trkpt><trkpt lat="40.06583611758151" lon="18.203723177625022"><ele>102.0</ele><time>2026-04-11T12:09:49.965Z</time></trkpt><trkpt lat="40.06579377445706" lon="18.203639657499007"><ele>102.0</ele><time>2026-04-11T12:09:50.965Z</time></trkpt><trkpt lat="40.065732456228965" lon="18.20351172731001"><ele>101.6</ele><time>2026-04-11T12:09:52.965Z</time></trkpt><trkpt lat="40.06567439650908" lon="18.20339606698693"><ele>101.19999999999999</ele><time>2026-04-11T12:09:54.965Z</time></trkpt><trkpt lat="40.065612387309564" lon="18.203267746878325"><ele>100.8</ele><time>2026-04-11T12:09:56.965Z</time></trkpt><trkpt lat="40.06555167225924" lon="18.20313963432844"><ele>100.4</ele><time>2026-04-11T12:09:58.965Z</time></trkpt><trkpt lat="40.06548755474085" lon="18.203020437341312"><ele>100.0</ele><time>2026-04-11T12:10:00.965Z</time></trkpt><trkpt lat="40.06543218618" lon="18.20290112677868"><ele>100.00000000000001</ele><time>2026-04-11T12:10:02.965Z</time></trkpt><trkpt lat="40.06538538689485" lon="18.202802753173383"><ele>100.0</ele><time>2026-04-11T12:10:04.965Z</time></trkpt><trkpt lat="40.065337249897155" lon="18.202704444637604"><ele>100.0</ele><time>2026-04-11T12:10:06.965Z</time></trkpt><trkpt lat="40.06529086537328" lon="18.202634533196914"><ele>100.0</ele><time>2026-04-11T12:10:08.965Z</time></trkpt><trkpt lat="40.06523400030094" lon="18.20252013685939"><ele>100.00000000000001</ele><time>2026-04-11T12:10:10.965Z</time></trkpt><trkpt lat="40.06519828141486" lon="18.20244953022097"><ele>100.0</ele><time>2026-04-11T12:10:11.965Z</time></trkpt><trkpt lat="40.065136517513984" lon="18.202330776102375"><ele>100.00000000000001</ele><time>2026-04-11T12:10:13.965Z</time></trkpt><trkpt lat="40.0650925605334" lon="18.20223963308685"><ele>100.0</ele><time>2026-04-11T12:10:15.965Z</time></trkpt><trkpt lat="40.06510680584928" lon="18.202155961531407"><ele>100.0</ele><time>2026-04-11T12:10:18.965Z</time></trkpt><trkpt lat="40.065182151036026" lon="18.20210560811778"><ele>100.0</ele><time>2026-04-11T12:10:20.965Z</time></trkpt><trkpt lat="40.06524379267776" lon="18.202071435724378"><ele>100.0</ele><time>2026-04-11T12:10:21.965Z</time></trkpt><trkpt lat="40.06531194902292" lon="18.202037729564985"><ele>100.00000000000001</ele><time>2026-04-11T12:10:22.965Z</time></trkpt><trkpt lat="40.065380328566285" lon="18.202001051939988"><ele>100.0</ele><time>2026-04-11T12:10:23.965Z</time></trkpt><trkpt lat="40.065450289894265" lon="18.201957689203518"><ele>100.00000000000001</ele><time>2026-04-11T12:10:24.965Z</time></trkpt><trkpt lat="40.065516165720375" lon="18.20190971718091"><ele>100.0</ele><time>2026-04-11T12:10:25.965Z</time></trkpt><trkpt lat="40.06557777945726" lon="18.20186996551607"><ele>100.0</ele><time>2026-04-11T12:10:26.965Z</time></trkpt><trkpt lat="40.06564320216041" lon="18.20183252504161"><ele>100.0</ele><time>2026-04-11T12:10:27.965Z</time></trkpt><trkpt lat="40.06571738915632" lon="18.201794618029872"><ele>100.00000000000001</ele><time>2026-04-11T12:10:28.965Z</time></trkpt><trkpt lat="40.065782644428985" lon="18.201756739101917"><ele>100.0</ele><time>2026-04-11T12:10:29.965Z</time></trkpt><trkpt lat="40.065877556826806" lon="18.20168676436523"><ele>100.0</ele><time>2026-04-11T12:10:31.965Z</time></trkpt><trkpt lat="40.06598956025229" lon="18.201631388424484"><ele>100.0</ele><time>2026-04-11T12:10:33.965Z</time></trkpt><trkpt lat="40.06605403781716" lon="18.2016034950382"><ele>100.0</ele><time>2026-04-11T12:10:34.965Z</time></trkpt><trkpt lat="40.066159221769084" lon="18.20154280630405"><ele>100.0</ele><time>2026-04-11T12:10:36.965Z</time></trkpt><trkpt lat="40.06624930808324" lon="18.201485361396053"><ele>100.0</ele><time>2026-04-11T12:10:38.965Z</time></trkpt><trkpt lat="40.066311708814354" lon="18.20144676129753"><ele>100.16666666666667</ele><time>2026-04-11T12:10:40.965Z</time></trkpt><trkpt lat="40.066389876912" lon="18.20140967934975"><ele>100.33333333333334</ele><time>2026-04-11T12:10:42.965Z</time></trkpt><trkpt lat="40.06650468037495" lon="18.201341635725353"><ele>100.5</ele><time>2026-04-11T12:10:44.962Z</time></trkpt><trkpt lat="40.066578379996436" lon="18.20129353324698"><ele>100.66666666666666</ele><time>2026-04-11T12:10:45.962Z</time></trkpt><trkpt lat="40.06665256183762" lon="18.201250148260737"><ele>100.83333333333333</ele><time>2026-04-11T12:10:46.962Z</time></trkpt><trkpt lat="40.06671507061535" lon="18.20120792329805"><ele>101.0</ele><time>2026-04-11T12:10:47.962Z</time></trkpt><trkpt lat="40.06677827232532" lon="18.201170784232573"><ele>101.16666666666666</ele><time>2026-04-11T12:10:48.962Z</time></trkpt><trkpt lat="40.06684049733351" lon="18.201138827245284"><ele>101.33333333333333</ele><time>2026-04-11T12:10:49.962Z</time></trkpt><trkpt lat="40.06693524911827" lon="18.201066073421444"><ele>101.5</ele><time>2026-04-11T12:10:51.962Z</time></trkpt><trkpt lat="40.06703577468713" lon="18.2009702742631"><ele>101.66666666666666</ele><time>2026-04-11T12:10:53.961Z</time></trkpt><trkpt lat="40.06709486743998" lon="18.200918067063387"><ele>101.83333333333333</ele><time>2026-04-11T12:10:54.961Z</time></trkpt><trkpt lat="40.067157294710725" lon="18.20086927348727"><ele>102.0</ele><time>2026-04-11T12:10:55.962Z</time></trkpt><trkpt lat="40.067214673985006" lon="18.200831080224912"><ele>102.0</ele><time>2026-04-11T12:10:56.961Z</time></trkpt><trkpt lat="40.06728196314953" lon="18.20078411014704"><ele>102.0</ele><time>2026-04-11T12:10:57.961Z</time></trkpt><trkpt lat="40.06734171721352" lon="18.200737197544882"><ele>102.0</ele><time>2026-04-11T12:10:58.961Z</time></trkpt><trkpt lat="40.06740481598942" lon="18.20069072396732"><ele>102.0</ele><time>2026-04-11T12:10:59.961Z</time></trkpt><trkpt lat="40.06746942158921" lon="18.200645657617116"><ele>102.0</ele><time>2026-04-11T12:11:00.961Z</time></trkpt><trkpt lat="40.0675311193941" lon="18.200602472987704"><ele>102.0</ele><time>2026-04-11T12:11:01.961Z</time></trkpt><trkpt lat="40.06759123521533" lon="18.200562178694742"><ele>102.0</ele><time>2026-04-11T12:11:02.961Z</time></trkpt><trkpt lat="40.067653349594316" lon="18.200521501824355"><ele>102.16666666666667</ele><time>2026-04-11T12:11:03.961Z</time></trkpt><trkpt lat="40.067716178466355" lon="18.200481030621276"><ele>102.33333333333334</ele><time>2026-04-11T12:11:04.961Z</time></trkpt><trkpt lat="40.0677761960119" lon="18.200447569517703"><ele>102.5</ele><time>2026-04-11T12:11:05.961Z</time></trkpt><trkpt lat="40.06789501206269" lon="18.200386059148556"><ele>102.66666666666667</ele><time>2026-04-11T12:11:07.961Z</time></trkpt><trkpt lat="40.067954991689675" lon="18.20035178869199"><ele>102.83333333333334</ele><time>2026-04-11T12:11:08.961Z</time></trkpt><trkpt lat="40.068018119835294" lon="18.200321374683625"><ele>103.0</ele><time>2026-04-11T12:11:09.961Z</time></trkpt><trkpt lat="40.06808124049753" lon="18.200286961101376"><ele>103.00000000000001</ele><time>2026-04-11T12:11:10.961Z</time></trkpt><trkpt lat="40.068199295628105" lon="18.200222817466972"><ele>103.0</ele><time>2026-04-11T12:11:12.961Z</time></trkpt><trkpt lat="40.068261456989354" lon="18.200186469935737"><ele>103.0</ele><time>2026-04-11T12:11:13.961Z</time></trkpt><trkpt lat="40.0683277549129" lon="18.200151495669978"><ele>103.0</ele><time>2026-04-11T12:11:14.961Z</time></trkpt><trkpt lat="40.06839517749606" lon="18.200110481763467"><ele>103.00000000000001</ele><time>2026-04-11T12:11:15.961Z</time></trkpt><trkpt lat="40.06846399480803" lon="18.2000669003097"><ele>103.0</ele><time>2026-04-11T12:11:16.961Z</time></trkpt><trkpt lat="40.068535939722175" lon="18.200023092657386"><ele>102.99999999999999</ele><time>2026-04-11T12:11:17.961Z</time></trkpt><trkpt lat="40.06859667959602" lon="18.199981069232244"><ele>103.0</ele><time>2026-04-11T12:11:18.961Z</time></trkpt><trkpt lat="40.068658607769386" lon="18.199949060355404"><ele>103.0</ele><time>2026-04-11T12:11:19.961Z</time></trkpt><trkpt lat="40.068720881260354" lon="18.199914671983745"><ele>103.0</ele><time>2026-04-11T12:11:20.961Z</time></trkpt><trkpt lat="40.06878750907032" lon="18.19988028154504"><ele>103.0</ele><time>2026-04-11T12:11:21.961Z</time></trkpt><trkpt lat="40.068857710434514" lon="18.199840730118872"><ele>102.99999999999999</ele><time>2026-04-11T12:11:22.961Z</time></trkpt><trkpt lat="40.068928014953656" lon="18.199806548115085"><ele>103.0</ele><time>2026-04-11T12:11:23.961Z</time></trkpt><trkpt lat="40.068997017880875" lon="18.199769821318956"><ele>103.00000000000001</ele><time>2026-04-11T12:11:24.961Z</time></trkpt><trkpt lat="40.069059493918104" lon="18.199733415995034"><ele>103.0</ele><time>2026-04-11T12:11:25.961Z</time></trkpt><trkpt lat="40.06917375979797" lon="18.199676328144257"><ele>103.0</ele><time>2026-04-11T12:11:27.961Z</time></trkpt><trkpt lat="40.0692370530763" lon="18.199645894253816"><ele>103.0</ele><time>2026-04-11T12:11:28.961Z</time></trkpt><trkpt lat="40.069302747210806" lon="18.199617040212747"><ele>103.00000000000001</ele><time>2026-04-11T12:11:29.961Z</time></trkpt><trkpt lat="40.069408119548115" lon="18.199558253992844"><ele>103.0</ele><time>2026-04-11T12:11:31.961Z</time></trkpt><trkpt lat="40.06949455984415" lon="18.1994944289525"><ele>103.28571428571428</ele><time>2026-04-11T12:11:33.961Z</time></trkpt><trkpt lat="40.06954905004125" lon="18.19943983349674"><ele>103.57142857142857</ele><time>2026-04-11T12:11:35.961Z</time></trkpt><trkpt lat="40.069566128630406" lon="18.1993588529622"><ele>103.85714285714286</ele><time>2026-04-11T12:11:37.961Z</time></trkpt><trkpt lat="40.069563664687" lon="18.199268330873643"><ele>104.14285714285714</ele><time>2026-04-11T12:11:39.961Z</time></trkpt><trkpt lat="40.06954601539543" lon="18.199169503845177"><ele>104.42857142857143</ele><time>2026-04-11T12:11:41.961Z</time></trkpt><trkpt lat="40.069534243160206" lon="18.199083439334352"><ele>104.71428571428571</ele><time>2026-04-11T12:11:43.961Z</time></trkpt><trkpt lat="40.06955970534061" lon="18.19900645113264"><ele>105.0</ele><time>2026-04-11T12:11:47.961Z</time></trkpt><trkpt lat="40.069586044571714" lon="18.19891763704659"><ele>105.0</ele><time>2026-04-11T12:11:51.961Z</time></trkpt><trkpt lat="40.06958801591947" lon="18.198818363674903"><ele>105.0</ele><time>2026-04-11T12:11:52.961Z</time></trkpt><trkpt lat="40.06958227245493" lon="18.198693904115004"><ele>105.0</ele><time>2026-04-11T12:11:53.961Z</time></trkpt><trkpt lat="40.0695595596329" lon="18.1985573410183"><ele>105.0</ele><time>2026-04-11T12:11:54.961Z</time></trkpt><trkpt lat="40.06953178012789" lon="18.198402059481108"><ele>105.0</ele><time>2026-04-11T12:11:55.961Z</time></trkpt><trkpt lat="40.06950457428365" lon="18.198228201763495"><ele>105.25</ele><time>2026-04-11T12:11:56.961Z</time></trkpt><trkpt lat="40.06948178287451" lon="18.1980497296233"><ele>105.5</ele><time>2026-04-11T12:11:57.961Z</time></trkpt><trkpt lat="40.06944207209595" lon="18.19786477490825"><ele>105.75</ele><time>2026-04-11T12:11:58.961Z</time></trkpt><trkpt lat="40.06941876826428" lon="18.197676387427475"><ele>106.0</ele><time>2026-04-11T12:11:59.961Z</time></trkpt><trkpt lat="40.069397279966466" lon="18.19745914301663"><ele>106.0</ele><time>2026-04-11T12:12:00.961Z</time></trkpt><trkpt lat="40.06936524313813" lon="18.19723146037492"><ele>106.0</ele><time>2026-04-11T12:12:01.961Z</time></trkpt><trkpt lat="40.06933497871119" lon="18.19698969774814"><ele>106.0</ele><time>2026-04-11T12:12:02.961Z</time></trkpt><trkpt lat="40.06929677001985" lon="18.19675014229107"><ele>105.66666666666667</ele><time>2026-04-11T12:12:03.961Z</time></trkpt><trkpt lat="40.06925716349186" lon="18.196491463352153"><ele>105.33333333333334</ele><time>2026-04-11T12:12:04.961Z</time></trkpt><trkpt lat="40.06922082554297" lon="18.196217298616133"><ele>105.0</ele><time>2026-04-11T12:12:05.961Z</time></trkpt><trkpt lat="40.06918018781243" lon="18.195942257030413"><ele>105.33333333333334</ele><time>2026-04-11T12:12:06.961Z</time></trkpt><trkpt lat="40.06914289398594" lon="18.19565861065383"><ele>105.66666666666667</ele><time>2026-04-11T12:12:07.961Z</time></trkpt><trkpt lat="40.06910028234803" lon="18.19538044437998"><ele>106.0</ele><time>2026-04-11T12:12:08.961Z</time></trkpt><trkpt lat="40.0690570002021" lon="18.195099281231112"><ele>106.0</ele><time>2026-04-11T12:12:09.961Z</time></trkpt><trkpt lat="40.069015854777604" lon="18.194818883327283"><ele>106.0</ele><time>2026-04-11T12:12:10.961Z</time></trkpt><trkpt lat="40.06897157905557" lon="18.194526966612305"><ele>106.0</ele><time>2026-04-11T12:12:11.961Z</time></trkpt><trkpt lat="40.0689328357901" lon="18.19424507526266"><ele>106.66666666666667</ele><time>2026-04-11T12:12:12.961Z</time></trkpt><trkpt lat="40.06889334040534" lon="18.193976774601648"><ele>107.33333333333334</ele><time>2026-04-11T12:12:13.961Z</time></trkpt><trkpt lat="40.06885844174064" lon="18.193711061967154"><ele>108.0</ele><time>2026-04-11T12:12:14.961Z</time></trkpt><trkpt lat="40.06882146721482" lon="18.193453600148885"><ele>108.0</ele><time>2026-04-11T12:12:15.961Z</time></trkpt><trkpt lat="40.06878718016103" lon="18.19319907299492"><ele>108.0</ele><time>2026-04-11T12:12:16.961Z</time></trkpt><trkpt lat="40.06874388751119" lon="18.192946862660868"><ele>108.0</ele><time>2026-04-11T12:12:17.961Z</time></trkpt><trkpt lat="40.06869791999833" lon="18.192688567773743"><ele>109.33333333333334</ele><time>2026-04-11T12:12:18.961Z</time></trkpt><trkpt lat="40.06865014979661" lon="18.19243788164267"><ele>110.66666666666667</ele><time>2026-04-11T12:12:19.961Z</time></trkpt><trkpt lat="40.068594914049605" lon="18.192216215640624"><ele>112.0</ele><time>2026-04-11T12:12:20.961Z</time></trkpt><trkpt lat="40.06856616913137" lon="18.19202944671877"><ele>112.6</ele><time>2026-04-11T12:12:21.961Z</time></trkpt><trkpt lat="40.068547297904786" lon="18.191870629757595"><ele>113.19999999999999</ele><time>2026-04-11T12:12:22.961Z</time></trkpt><trkpt lat="40.06854353503566" lon="18.191745134276697"><ele>113.8</ele><time>2026-04-11T12:12:23.961Z</time></trkpt><trkpt lat="40.06856065741895" lon="18.19162941784391"><ele>114.4</ele><time>2026-04-11T12:12:24.961Z</time></trkpt><trkpt lat="40.068588341228114" lon="18.191487908690416"><ele>115.0</ele><time>2026-04-11T12:12:25.961Z</time></trkpt><trkpt lat="40.06859577498982" lon="18.191332006709843"><ele>115.5</ele><time>2026-04-11T12:12:26.961Z</time></trkpt><trkpt lat="40.06859539083673" lon="18.19116997931218"><ele>116.0</ele><time>2026-04-11T12:12:27.961Z</time></trkpt><trkpt lat="40.0686083957911" lon="18.191014901960024"><ele>116.5</ele><time>2026-04-11T12:12:28.961Z</time></trkpt><trkpt lat="40.06863146947167" lon="18.19086991259078"><ele>117.0</ele><time>2026-04-11T12:12:29.961Z</time></trkpt><trkpt lat="40.068685890859186" lon="18.190698266746562"><ele>117.0</ele><time>2026-04-11T12:12:30.961Z</time></trkpt><trkpt lat="40.06873662615955" lon="18.19051175558833"><ele>117.0</ele><time>2026-04-11T12:12:31.961Z</time></trkpt><trkpt lat="40.06878800009934" lon="18.190302200328844"><ele>117.0</ele><time>2026-04-11T12:12:32.961Z</time></trkpt><trkpt lat="40.06884220318294" lon="18.19008932995077"><ele>117.0</ele><time>2026-04-11T12:12:33.961Z</time></trkpt><trkpt lat="40.068889809414806" lon="18.18985225222528"><ele>117.0</ele><time>2026-04-11T12:12:34.961Z</time></trkpt><trkpt lat="40.06893583448795" lon="18.18960741710244"><ele>117.0</ele><time>2026-04-11T12:12:35.961Z</time></trkpt><trkpt lat="40.06897950398635" lon="18.189354146783025"><ele>117.0</ele><time>2026-04-11T12:12:36.961Z</time></trkpt><trkpt lat="40.069018402266316" lon="18.189089278462905"><ele>117.0</ele><time>2026-04-11T12:12:37.961Z</time></trkpt><trkpt lat="40.06906206786276" lon="18.188822202095896"><ele>117.0</ele><time>2026-04-11T12:12:38.961Z</time></trkpt><trkpt lat="40.06909818611743" lon="18.188555520201398"><ele>117.0</ele><time>2026-04-11T12:12:39.961Z</time></trkpt><trkpt lat="40.06913619052496" lon="18.188286333185612"><ele>117.0</ele><time>2026-04-11T12:12:40.961Z</time></trkpt><trkpt lat="40.069176249794666" lon="18.18801731153983"><ele>117.0</ele><time>2026-04-11T12:12:41.961Z</time></trkpt><trkpt lat="40.06921597805605" lon="18.18773749948708"><ele>117.33333333333334</ele><time>2026-04-11T12:12:42.961Z</time></trkpt><trkpt lat="40.069264777315084" lon="18.187455844342654"><ele>117.66666666666667</ele><time>2026-04-11T12:12:43.961Z</time></trkpt><trkpt lat="40.0693182252616" lon="18.187174237439983"><ele>118.0</ele><time>2026-04-11T12:12:44.961Z</time></trkpt><trkpt lat="40.06936197181135" lon="18.186882493272428"><ele>118.0</ele><time>2026-04-11T12:12:45.961Z</time></trkpt><trkpt lat="40.069408342433356" lon="18.186599221443938"><ele>118.0</ele><time>2026-04-11T12:12:46.961Z</time></trkpt><trkpt lat="40.06944436543433" lon="18.18631091551072"><ele>118.0</ele><time>2026-04-11T12:12:47.961Z</time></trkpt><trkpt lat="40.069495957594754" lon="18.18602947872551"><ele>117.66666666666667</ele><time>2026-04-11T12:12:48.961Z</time></trkpt><trkpt lat="40.06955290263935" lon="18.185754432949878"><ele>117.33333333333334</ele><time>2026-04-11T12:12:49.958Z</time></trkpt><trkpt lat="40.069600625178126" lon="18.18547747305647"><ele>117.0</ele><time>2026-04-11T12:12:50.958Z</time></trkpt><trkpt lat="40.069652147978715" lon="18.185198398648613"><ele>117.0</ele><time>2026-04-11T12:12:51.958Z</time></trkpt><trkpt lat="40.06969780564303" lon="18.184920769408606"><ele>117.0</ele><time>2026-04-11T12:12:52.958Z</time></trkpt><trkpt lat="40.06974009253528" lon="18.184648726764372"><ele>117.0</ele><time>2026-04-11T12:12:53.958Z</time></trkpt><trkpt lat="40.0697853974353" lon="18.18437499182383"><ele>117.0</ele><time>2026-04-11T12:12:54.958Z</time></trkpt><trkpt lat="40.06982961259142" lon="18.18409991327529"><ele>117.0</ele><time>2026-04-11T12:12:55.959Z</time></trkpt><trkpt lat="40.06986994615735" lon="18.183824041258703"><ele>117.0</ele><time>2026-04-11T12:12:56.958Z</time></trkpt><trkpt lat="40.06992610825021" lon="18.18354908395169"><ele>117.33333333333334</ele><time>2026-04-11T12:12:57.958Z</time></trkpt><trkpt lat="40.06996790716003" lon="18.183276562582233"><ele>117.66666666666667</ele><time>2026-04-11T12:12:58.959Z</time></trkpt><trkpt lat="40.070015755087645" lon="18.182996228758643"><ele>118.0</ele><time>2026-04-11T12:12:59.958Z</time></trkpt><trkpt lat="40.0700591406213" lon="18.182720596071263"><ele>118.33333333333334</ele><time>2026-04-11T12:13:00.958Z</time></trkpt><trkpt lat="40.07010608490965" lon="18.18243702925588"><ele>118.66666666666666</ele><time>2026-04-11T12:13:01.958Z</time></trkpt><trkpt lat="40.07015618847664" lon="18.1821595945456"><ele>119.0</ele><time>2026-04-11T12:13:02.958Z</time></trkpt><trkpt lat="40.07020552632633" lon="18.181876569113555"><ele>119.0</ele><time>2026-04-11T12:13:03.958Z</time></trkpt><trkpt lat="40.07025375929132" lon="18.181591126887323"><ele>119.0</ele><time>2026-04-11T12:13:04.958Z</time></trkpt><trkpt lat="40.07029652358673" lon="18.181307142916395"><ele>119.0</ele><time>2026-04-11T12:13:05.958Z</time></trkpt><trkpt lat="40.07033867482811" lon="18.181025596340216"><ele>119.5</ele><time>2026-04-11T12:13:06.958Z</time></trkpt><trkpt lat="40.070386634647065" lon="18.18074038476946"><ele>120.0</ele><time>2026-04-11T12:13:07.958Z</time></trkpt><trkpt lat="40.07043946279886" lon="18.180448536548035"><ele>120.5</ele><time>2026-04-11T12:13:08.958Z</time></trkpt><trkpt lat="40.07048828514418" lon="18.180157806985267"><ele>121.0</ele><time>2026-04-11T12:13:09.958Z</time></trkpt><trkpt lat="40.07053726953225" lon="18.179872176472138"><ele>120.5</ele><time>2026-04-11T12:13:10.958Z</time></trkpt><trkpt lat="40.070583905177315" lon="18.17958444603155"><ele>120.0</ele><time>2026-04-11T12:13:11.958Z</time></trkpt><trkpt lat="40.07063542585198" lon="18.179294378491168"><ele>119.66666666666666</ele><time>2026-04-11T12:13:12.958Z</time></trkpt><trkpt lat="40.0706797356369" lon="18.17900796654573"><ele>119.33333333333333</ele><time>2026-04-11T12:13:13.958Z</time></trkpt><trkpt lat="40.07072707622811" lon="18.17872049665873"><ele>119.0</ele><time>2026-04-11T12:13:14.958Z</time></trkpt><trkpt lat="40.070775079728215" lon="18.17843217801215"><ele>120.0</ele><time>2026-04-11T12:13:15.958Z</time></trkpt><trkpt lat="40.070823425199194" lon="18.178144793340877"><ele>121.0</ele><time>2026-04-11T12:13:16.958Z</time></trkpt><trkpt lat="40.070872593514586" lon="18.177855827856803"><ele>121.0</ele><time>2026-04-11T12:13:17.958Z</time></trkpt><trkpt lat="40.07092139061543" lon="18.177566105012232"><ele>121.0</ele><time>2026-04-11T12:13:18.958Z</time></trkpt><trkpt lat="40.07096979915643" lon="18.177279827975493"><ele>120.5</ele><time>2026-04-11T12:13:19.958Z</time></trkpt><trkpt lat="40.071022499341126" lon="18.176988086065524"><ele>120.0</ele><time>2026-04-11T12:13:20.958Z</time></trkpt><trkpt lat="40.07106991279306" lon="18.176694765533785"><ele>119.0</ele><time>2026-04-11T12:13:21.958Z</time></trkpt><trkpt lat="40.07111792880078" lon="18.176403571485494"><ele>118.0</ele><time>2026-04-11T12:13:22.958Z</time></trkpt><trkpt lat="40.071167055618396" lon="18.176112342446967"><ele>118.0</ele><time>2026-04-11T12:13:23.958Z</time></trkpt><trkpt lat="40.07121424420832" lon="18.175818532136695"><ele>118.0</ele><time>2026-04-11T12:13:24.958Z</time></trkpt><trkpt lat="40.07125409443634" lon="18.175538767622804"><ele>118.0</ele><time>2026-04-11T12:13:25.958Z</time></trkpt><trkpt lat="40.07129030101424" lon="18.175283840793835"><ele>118.33333333333334</ele><time>2026-04-11T12:13:26.958Z</time></trkpt><trkpt lat="40.071325502951815" lon="18.175041865371597"><ele>118.66666666666666</ele><time>2026-04-11T12:13:27.958Z</time></trkpt><trkpt lat="40.071362637830426" lon="18.17481030168382"><ele>119.0</ele><time>2026-04-11T12:13:28.958Z</time></trkpt><trkpt lat="40.071405523532654" lon="18.174603510641855"><ele>119.0</ele><time>2026-04-11T12:13:29.958Z</time></trkpt><trkpt lat="40.0714448600746" lon="18.17440234462425"><ele>119.0</ele><time>2026-04-11T12:13:30.958Z</time></trkpt><trkpt lat="40.07147258974088" lon="18.1742085247804"><ele>119.0</ele><time>2026-04-11T12:13:31.958Z</time></trkpt><trkpt lat="40.0714957404937" lon="18.174011434029484"><ele>119.25</ele><time>2026-04-11T12:13:32.958Z</time></trkpt><trkpt lat="40.07152446421412" lon="18.173823457955276"><ele>119.5</ele><time>2026-04-11T12:13:33.958Z</time></trkpt><trkpt lat="40.071551946846846" lon="18.17364432672177"><ele>119.75</ele><time>2026-04-11T12:13:34.958Z</time></trkpt><trkpt lat="40.071585567467295" lon="18.173457856273927"><ele>120.0</ele><time>2026-04-11T12:13:35.958Z</time></trkpt><trkpt lat="40.07162100845289" lon="18.17328544223042"><ele>120.25</ele><time>2026-04-11T12:13:36.958Z</time></trkpt><trkpt lat="40.0716513025666" lon="18.17313484275379"><ele>120.5</ele><time>2026-04-11T12:13:37.958Z</time></trkpt><trkpt lat="40.07167836392152" lon="18.17299213788981"><ele>120.75</ele><time>2026-04-11T12:13:38.957Z</time></trkpt><trkpt lat="40.071703184452296" lon="18.17283670536768"><ele>121.0</ele><time>2026-04-11T12:13:39.957Z</time></trkpt><trkpt lat="40.07172221094688" lon="18.1726580533844"><ele>121.0</ele><time>2026-04-11T12:13:40.957Z</time></trkpt><trkpt lat="40.071743321410736" lon="18.172469459895176"><ele>121.0</ele><time>2026-04-11T12:13:41.957Z</time></trkpt><trkpt lat="40.07178039500242" lon="18.172264593162467"><ele>121.0</ele><time>2026-04-11T12:13:42.957Z</time></trkpt><trkpt lat="40.07182109154304" lon="18.172067570460896"><ele>121.0</ele><time>2026-04-11T12:13:43.957Z</time></trkpt><trkpt lat="40.071853676826265" lon="18.171896896652413"><ele>121.0</ele><time>2026-04-11T12:13:44.957Z</time></trkpt><trkpt lat="40.07187418072969" lon="18.171746906591295"><ele>121.0</ele><time>2026-04-11T12:13:45.957Z</time></trkpt><trkpt lat="40.07189512269747" lon="18.17160863544053"><ele>121.0</ele><time>2026-04-11T12:13:46.957Z</time></trkpt><trkpt lat="40.0719168348877" lon="18.17147901105494"><ele>121.00000000000001</ele><time>2026-04-11T12:13:47.957Z</time></trkpt><trkpt lat="40.07193426893529" lon="18.171363436818233"><ele>121.0</ele><time>2026-04-11T12:13:48.957Z</time></trkpt><trkpt lat="40.07196027278946" lon="18.171255852378437"><ele>121.0</ele><time>2026-04-11T12:13:49.957Z</time></trkpt><trkpt lat="40.07196212720213" lon="18.17117341634557"><ele>121.0</ele><time>2026-04-11T12:13:50.957Z</time></trkpt><trkpt lat="40.07197551048706" lon="18.171081825655552"><ele>121.00000000000001</ele><time>2026-04-11T12:13:51.957Z</time></trkpt><trkpt lat="40.07199341850481" lon="18.170960352647477"><ele>121.0</ele><time>2026-04-11T12:13:52.957Z</time></trkpt><trkpt lat="40.072013908186506" lon="18.17079967263059"><ele>121.0</ele><time>2026-04-11T12:13:53.957Z</time></trkpt><trkpt lat="40.07204620799175" lon="18.170607567435297"><ele>121.0</ele><time>2026-04-11T12:13:54.957Z</time></trkpt><trkpt lat="40.07208036545113" lon="18.17039979039403"><ele>121.0</ele><time>2026-04-11T12:13:55.957Z</time></trkpt><trkpt lat="40.072119617258195" lon="18.17019806893025"><ele>121.0</ele><time>2026-04-11T12:13:56.957Z</time></trkpt><trkpt lat="40.07214593421398" lon="18.170027629466283"><ele>121.0</ele><time>2026-04-11T12:13:57.957Z</time></trkpt><trkpt lat="40.07217854571613" lon="18.16985243505721"><ele>121.0</ele><time>2026-04-11T12:13:58.957Z</time></trkpt><trkpt lat="40.072204355517364" lon="18.169674932328693"><ele>121.0</ele><time>2026-04-11T12:13:59.957Z</time></trkpt><trkpt lat="40.07224091545216" lon="18.169487970307305"><ele>120.66666666666667</ele><time>2026-04-11T12:14:00.957Z</time></trkpt><trkpt lat="40.07226986633388" lon="18.169307427176065"><ele>120.33333333333334</ele><time>2026-04-11T12:14:01.957Z</time></trkpt><trkpt lat="40.07229515238684" lon="18.16910382641406"><ele>120.0</ele><time>2026-04-11T12:14:02.957Z</time></trkpt><trkpt lat="40.07233130319381" lon="18.168887483343074"><ele>120.0</ele><time>2026-04-11T12:14:03.957Z</time></trkpt><trkpt lat="40.07237478987752" lon="18.168668083290317"><ele>120.0</ele><time>2026-04-11T12:14:04.957Z</time></trkpt><trkpt lat="40.072405906711836" lon="18.16845973555915"><ele>120.0</ele><time>2026-04-11T12:14:05.957Z</time></trkpt><trkpt lat="40.072426318476275" lon="18.168270202355792"><ele>120.0</ele><time>2026-04-11T12:14:06.957Z</time></trkpt><trkpt lat="40.07245396076131" lon="18.168085384369164"><ele>120.0</ele><time>2026-04-11T12:14:07.957Z</time></trkpt><trkpt lat="40.07248447097794" lon="18.167893567703647"><ele>120.0</ele><time>2026-04-11T12:14:08.957Z</time></trkpt><trkpt lat="40.07251914033333" lon="18.16769916400507"><ele>120.0</ele><time>2026-04-11T12:14:09.957Z</time></trkpt><trkpt lat="40.07255871324421" lon="18.167502670963202"><ele>119.5</ele><time>2026-04-11T12:14:10.957Z</time></trkpt><trkpt lat="40.072591864969425" lon="18.167315600606976"><ele>119.0</ele><time>2026-04-11T12:14:11.957Z</time></trkpt><trkpt lat="40.07262720803129" lon="18.16714244389469"><ele>118.5</ele><time>2026-04-11T12:14:12.957Z</time></trkpt><trkpt lat="40.072657149651604" lon="18.166981519675524"><ele>118.0</ele><time>2026-04-11T12:14:13.957Z</time></trkpt><trkpt lat="40.07268185649491" lon="18.166827464413576"><ele>118.0</ele><time>2026-04-11T12:14:14.957Z</time></trkpt><trkpt lat="40.07271009516837" lon="18.166674596892985"><ele>118.00000000000001</ele><time>2026-04-11T12:14:15.957Z</time></trkpt><trkpt lat="40.072726468522546" lon="18.166541070910597"><ele>118.00000000000001</ele><time>2026-04-11T12:14:16.957Z</time></trkpt><trkpt lat="40.07273838743809" lon="18.166425427032372"><ele>118.0</ele><time>2026-04-11T12:14:17.957Z</time></trkpt><trkpt lat="40.07274419269902" lon="18.166340011473746"><ele>118.0</ele><time>2026-04-11T12:14:18.957Z</time></trkpt><trkpt lat="40.07275066021554" lon="18.166237997257475"><ele>118.0</ele><time>2026-04-11T12:14:20.957Z</time></trkpt><trkpt lat="40.07275687469181" lon="18.166149349105705"><ele>118.00000000000001</ele><time>2026-04-11T12:14:22.957Z</time></trkpt><trkpt lat="40.07275695006226" lon="18.16603777475322"><ele>118.00000000000001</ele><time>2026-04-11T12:14:24.957Z</time></trkpt><trkpt lat="40.0727290193423" lon="18.165891326775878"><ele>118.0</ele><time>2026-04-11T12:14:26.957Z</time></trkpt><trkpt lat="40.07267513772593" lon="18.16579201235346"><ele>118.0</ele><time>2026-04-11T12:14:27.957Z</time></trkpt><trkpt lat="40.07262039889291" lon="18.165702037565946"><ele>118.4</ele><time>2026-04-11T12:14:28.957Z</time></trkpt><trkpt lat="40.072565571248205" lon="18.16558828824677"><ele>118.80000000000001</ele><time>2026-04-11T12:14:29.957Z</time></trkpt><trkpt lat="40.072491466878674" lon="18.165485759683435"><ele>119.2</ele><time>2026-04-11T12:14:30.957Z</time></trkpt><trkpt lat="40.072422786802534" lon="18.16537083586463"><ele>119.6</ele><time>2026-04-11T12:14:31.957Z</time></trkpt><trkpt lat="40.07234822202894" lon="18.16524904326556"><ele>120.0</ele><time>2026-04-11T12:14:32.957Z</time></trkpt><trkpt lat="40.07228588726792" lon="18.16513472104993"><ele>120.0</ele><time>2026-04-11T12:14:33.957Z</time></trkpt><trkpt lat="40.07222240634515" lon="18.165016745672233"><ele>120.0</ele><time>2026-04-11T12:14:34.957Z</time></trkpt><trkpt lat="40.0721539848816" lon="18.164906213333616"><ele>120.0</ele><time>2026-04-11T12:14:35.957Z</time></trkpt><trkpt lat="40.07208121024616" lon="18.164787393852844"><ele>120.0</ele><time>2026-04-11T12:14:36.957Z</time></trkpt><trkpt lat="40.07200158843395" lon="18.164658387180555"><ele>120.25</ele><time>2026-04-11T12:14:37.957Z</time></trkpt><trkpt lat="40.07193302826166" lon="18.164534466503028"><ele>120.5</ele><time>2026-04-11T12:14:38.957Z</time></trkpt><trkpt lat="40.07185995617807" lon="18.164417722176246"><ele>120.75</ele><time>2026-04-11T12:14:39.957Z</time></trkpt><trkpt lat="40.07179102210318" lon="18.164304023807773"><ele>121.0</ele><time>2026-04-11T12:14:40.957Z</time></trkpt><trkpt lat="40.071719466428014" lon="18.16418869077833"><ele>121.0</ele><time>2026-04-11T12:14:41.957Z</time></trkpt><trkpt lat="40.07165768378487" lon="18.164083280571894"><ele>121.0</ele><time>2026-04-11T12:14:42.957Z</time></trkpt><trkpt lat="40.07159760264701" lon="18.163986474771992"><ele>121.0</ele><time>2026-04-11T12:14:43.957Z</time></trkpt><trkpt lat="40.07153813305454" lon="18.16389186468639"><ele>121.0</ele><time>2026-04-11T12:14:44.957Z</time></trkpt><trkpt lat="40.071476325050455" lon="18.16380438378523"><ele>121.0</ele><time>2026-04-11T12:14:45.957Z</time></trkpt><trkpt lat="40.07140439318624" lon="18.16370319403635"><ele>121.25</ele><time>2026-04-11T12:14:46.957Z</time></trkpt><trkpt lat="40.07133097375353" lon="18.163583557290004"><ele>121.5</ele><time>2026-04-11T12:14:47.957Z</time></trkpt><trkpt lat="40.07125606196075" lon="18.163457899089686"><ele>121.75</ele><time>2026-04-11T12:14:48.957Z</time></trkpt><trkpt lat="40.07117991647601" lon="18.16333031945349"><ele>122.0</ele><time>2026-04-11T12:14:49.957Z</time></trkpt><trkpt lat="40.07110944676442" lon="18.163197530944498"><ele>121.83333333333333</ele><time>2026-04-11T12:14:50.957Z</time></trkpt><trkpt lat="40.071057145222234" lon="18.16309923253362"><ele>121.66666666666666</ele><time>2026-04-11T12:14:51.957Z</time></trkpt><trkpt lat="40.071005703742735" lon="18.16300183445346"><ele>121.5</ele><time>2026-04-11T12:14:53.957Z</time></trkpt><trkpt lat="40.070949049212615" lon="18.16292356721994"><ele>121.33333333333334</ele><time>2026-04-11T12:14:56.956Z</time></trkpt><trkpt lat="40.07089485880018" lon="18.16283672397113"><ele>121.16666666666667</ele><time>2026-04-11T12:14:57.956Z</time></trkpt><trkpt lat="40.07083201652513" lon="18.162743830975675"><ele>121.0</ele><time>2026-04-11T12:14:58.955Z</time></trkpt><trkpt lat="40.07075314668346" lon="18.162637266328144"><ele>121.0</ele><time>2026-04-11T12:14:59.956Z</time></trkpt><trkpt lat="40.07066121771822" lon="18.162503516413853"><ele>121.0</ele><time>2026-04-11T12:15:00.956Z</time></trkpt><trkpt lat="40.07056584817163" lon="18.162348895980756"><ele>121.0</ele><time>2026-04-11T12:15:01.955Z</time></trkpt><trkpt lat="40.070461855726464" lon="18.16217379124122"><ele>121.0</ele><time>2026-04-11T12:15:02.955Z</time></trkpt><trkpt lat="40.07035349281214" lon="18.161996211563846"><ele>121.0</ele><time>2026-04-11T12:15:03.955Z</time></trkpt><trkpt lat="40.0702410079246" lon="18.161818945769586"><ele>121.0</ele><time>2026-04-11T12:15:04.956Z</time></trkpt><trkpt lat="40.070129556985684" lon="18.16162659387887"><ele>121.66666666666667</ele><time>2026-04-11T12:15:05.955Z</time></trkpt><trkpt lat="40.070024394505616" lon="18.161436385765857"><ele>122.33333333333334</ele><time>2026-04-11T12:15:06.955Z</time></trkpt><trkpt lat="40.069937265361915" lon="18.161265593209084"><ele>123.0</ele><time>2026-04-11T12:15:07.955Z</time></trkpt><trkpt lat="40.069860280996686" lon="18.161140732291"><ele>123.25</ele><time>2026-04-11T12:15:08.955Z</time></trkpt><trkpt lat="40.0697894380171" lon="18.16103197052173"><ele>123.5</ele><time>2026-04-11T12:15:09.955Z</time></trkpt><trkpt lat="40.0697183339729" lon="18.160912032182146"><ele>123.75</ele><time>2026-04-11T12:15:10.955Z</time></trkpt><trkpt lat="40.06963815819325" lon="18.160788638989374"><ele>124.0</ele><time>2026-04-11T12:15:11.955Z</time></trkpt><trkpt lat="40.06955617321761" lon="18.160666757079785"><ele>124.25</ele><time>2026-04-11T12:15:12.955Z</time></trkpt><trkpt lat="40.06947259211921" lon="18.16053645584738"><ele>124.5</ele><time>2026-04-11T12:15:13.955Z</time></trkpt><trkpt lat="40.06938701739202" lon="18.160409413890328"><ele>124.75</ele><time>2026-04-11T12:15:14.955Z</time></trkpt><trkpt lat="40.06929445317952" lon="18.160271847877745"><ele>125.0</ele><time>2026-04-11T12:15:15.955Z</time></trkpt><trkpt lat="40.06920069085488" lon="18.160125823938724"><ele>125.0</ele><time>2026-04-11T12:15:16.955Z</time></trkpt><trkpt lat="40.06910855400292" lon="18.15997083207011"><ele>125.0</ele><time>2026-04-11T12:15:17.955Z</time></trkpt><trkpt lat="40.06901359447869" lon="18.159811097133648"><ele>125.0</ele><time>2026-04-11T12:15:18.955Z</time></trkpt><trkpt lat="40.068915787391326" lon="18.15965436750584"><ele>125.66666666666666</ele><time>2026-04-11T12:15:19.955Z</time></trkpt><trkpt lat="40.06881733915346" lon="18.159502775539497"><ele>126.33333333333334</ele><time>2026-04-11T12:15:20.955Z</time></trkpt><trkpt lat="40.06872281677116" lon="18.159348506352533"><ele>127.0</ele><time>2026-04-11T12:15:21.955Z</time></trkpt><trkpt lat="40.068630031365565" lon="18.159195622839448"><ele>127.0</ele><time>2026-04-11T12:15:22.955Z</time></trkpt><trkpt lat="40.06853847699061" lon="18.15903658327174"><ele>127.0</ele><time>2026-04-11T12:15:23.955Z</time></trkpt><trkpt lat="40.06844305284287" lon="18.158884225739303"><ele>127.0</ele><time>2026-04-11T12:15:24.955Z</time></trkpt><trkpt lat="40.06834252067763" lon="18.158719954519402"><ele>127.0</ele><time>2026-04-11T12:15:25.955Z</time></trkpt><trkpt lat="40.068244211646714" lon="18.15855678667903"><ele>127.0</ele><time>2026-04-11T12:15:26.955Z</time></trkpt><trkpt lat="40.06814314531969" lon="18.1584015928424"><ele>127.0</ele><time>2026-04-11T12:15:27.955Z</time></trkpt><trkpt lat="40.068042533597996" lon="18.158241825244325"><ele>127.5</ele><time>2026-04-11T12:15:28.955Z</time></trkpt><trkpt lat="40.06794866982915" lon="18.158094745484934"><ele>128.0</ele><time>2026-04-11T12:15:29.955Z</time></trkpt><trkpt lat="40.067857264302546" lon="18.157948150165527"><ele>128.5</ele><time>2026-04-11T12:15:30.955Z</time></trkpt><trkpt lat="40.067767733956366" lon="18.157797979483984"><ele>129.0</ele><time>2026-04-11T12:15:31.955Z</time></trkpt><trkpt lat="40.06768333419437" lon="18.157648468716506"><ele>129.0</ele><time>2026-04-11T12:15:32.955Z</time></trkpt><trkpt lat="40.06760526426971" lon="18.157514516292466"><ele>129.0</ele><time>2026-04-11T12:15:33.955Z</time></trkpt><trkpt lat="40.06752577796001" lon="18.157387744389823"><ele>129.0</ele><time>2026-04-11T12:15:34.955Z</time></trkpt><trkpt lat="40.067449215418684" lon="18.15726014552575"><ele>129.0</ele><time>2026-04-11T12:15:35.955Z</time></trkpt><trkpt lat="40.06736192538846" lon="18.157118788488443"><ele>131.0</ele><time>2026-04-11T12:15:36.955Z</time></trkpt><trkpt lat="40.06726541799765" lon="18.156990634450583"><ele>133.0</ele><time>2026-04-11T12:15:37.955Z</time></trkpt><trkpt lat="40.06716697455724" lon="18.156836473872676"><ele>135.0</ele><time>2026-04-11T12:15:38.955Z</time></trkpt><trkpt lat="40.06706400683542" lon="18.15666529064169"><ele>135.66666666666666</ele><time>2026-04-11T12:15:39.955Z</time></trkpt><trkpt lat="40.06695291651024" lon="18.15648350191843"><ele>136.33333333333331</ele><time>2026-04-11T12:15:40.955Z</time></trkpt><trkpt lat="40.06683574124925" lon="18.156285582055116"><ele>137.0</ele><time>2026-04-11T12:15:41.955Z</time></trkpt><trkpt lat="40.066714049823304" lon="18.156070882271514"><ele>138.0</ele><time>2026-04-11T12:15:42.955Z</time></trkpt><trkpt lat="40.066583441689204" lon="18.15585572571105"><ele>139.0</ele><time>2026-04-11T12:15:43.955Z</time></trkpt><trkpt lat="40.06645670778703" lon="18.155664516693417"><ele>140.0</ele><time>2026-04-11T12:15:44.955Z</time></trkpt><trkpt lat="40.0663546195489" lon="18.15546991764345"><ele>140.66666666666666</ele><time>2026-04-11T12:15:45.955Z</time></trkpt><trkpt lat="40.06626118747158" lon="18.155290476842634"><ele>141.33333333333334</ele><time>2026-04-11T12:15:46.955Z</time></trkpt><trkpt lat="40.066167665620696" lon="18.15511065354885"><ele>142.0</ele><time>2026-04-11T12:15:47.955Z</time></trkpt><trkpt lat="40.06610453744555" lon="18.154914350118336"><ele>142.5</ele><time>2026-04-11T12:15:48.955Z</time></trkpt><trkpt lat="40.066060609277706" lon="18.154718016680054"><ele>143.0</ele><time>2026-04-11T12:15:49.955Z</time></trkpt><trkpt lat="40.06602580895018" lon="18.15454094959895"><ele>143.5</ele><time>2026-04-11T12:15:50.955Z</time></trkpt><trkpt lat="40.065981429301175" lon="18.154393120896692"><ele>144.0</ele><time>2026-04-11T12:15:51.955Z</time></trkpt><trkpt lat="40.06592243566998" lon="18.154233208483312"><ele>144.25</ele><time>2026-04-11T12:15:52.955Z</time></trkpt><trkpt lat="40.06577580692078" lon="18.154113196310398"><ele>144.5</ele><time>2026-04-11T12:15:53.955Z</time></trkpt><trkpt lat="40.06573121534353" lon="18.153956165340976"><ele>144.75</ele><time>2026-04-11T12:15:54.955Z</time></trkpt><trkpt lat="40.06567965170278" lon="18.15379075063477"><ele>145.0</ele><time>2026-04-11T12:15:55.955Z</time></trkpt><trkpt lat="40.06562176128896" lon="18.153600587087354"><ele>145.33333333333334</ele><time>2026-04-11T12:15:56.955Z</time></trkpt><trkpt lat="40.06555671734222" lon="18.153397675047486"><ele>145.66666666666666</ele><time>2026-04-11T12:15:57.955Z</time></trkpt><trkpt lat="40.06548323343775" lon="18.153171846154837"><ele>146.0</ele><time>2026-04-11T12:15:58.955Z</time></trkpt><trkpt lat="40.06541526626433" lon="18.152929433677638"><ele>146.0</ele><time>2026-04-11T12:15:59.955Z</time></trkpt><trkpt lat="40.06533932876494" lon="18.1526787771629"><ele>146.0</ele><time>2026-04-11T12:16:00.955Z</time></trkpt><trkpt lat="40.06525269419579" lon="18.152412337495758"><ele>146.0</ele><time>2026-04-11T12:16:01.955Z</time></trkpt><trkpt lat="40.06516069735297" lon="18.152134442292212"><ele>146.5</ele><time>2026-04-11T12:16:02.955Z</time></trkpt><trkpt lat="40.06506693752579" lon="18.151846390530523"><ele>147.0</ele><time>2026-04-11T12:16:03.955Z</time></trkpt><trkpt lat="40.06497306034411" lon="18.151550063691648"><ele>149.0</ele><time>2026-04-11T12:16:04.955Z</time></trkpt><trkpt lat="40.06489141481274" lon="18.15124126061583"><ele>151.0</ele><time>2026-04-11T12:16:05.955Z</time></trkpt><trkpt lat="40.06480022380377" lon="18.150927570192067"><ele>152.5</ele><time>2026-04-11T12:16:06.955Z</time></trkpt><trkpt lat="40.06469851355634" lon="18.150612528860954"><ele>154.0</ele><time>2026-04-11T12:16:07.955Z</time></trkpt><trkpt lat="40.0645754739248" lon="18.150317054959963"><ele>154.0</ele><time>2026-04-11T12:16:08.955Z</time></trkpt><trkpt lat="40.064437603671635" lon="18.150030448340626"><ele>154.0</ele><time>2026-04-11T12:16:09.955Z</time></trkpt><trkpt lat="40.0642861705684" lon="18.149760638800434"><ele>155.0</ele><time>2026-04-11T12:16:10.955Z</time></trkpt><trkpt lat="40.06411888805496" lon="18.149513735364394"><ele>156.0</ele><time>2026-04-11T12:16:11.955Z</time></trkpt><trkpt lat="40.063940844845696" lon="18.149284649964738"><ele>158.5</ele><time>2026-04-11T12:16:12.955Z</time></trkpt><trkpt lat="40.06375067318711" lon="18.149068820434007"><ele>161.0</ele><time>2026-04-11T12:16:13.955Z</time></trkpt><trkpt lat="40.06354715159953" lon="18.14887990575117"><ele>162.0</ele><time>2026-04-11T12:16:14.955Z</time></trkpt><trkpt lat="40.06334037901485" lon="18.1487102608363"><ele>163.0</ele><time>2026-04-11T12:16:15.955Z</time></trkpt><trkpt lat="40.063121876815856" lon="18.14859797370628"><ele>164.33333333333334</ele><time>2026-04-11T12:16:16.955Z</time></trkpt><trkpt lat="40.06293392689163" lon="18.14846865691203"><ele>165.66666666666666</ele><time>2026-04-11T12:16:17.955Z</time></trkpt><trkpt lat="40.06272475476072" lon="18.148365762961948"><ele>167.0</ele><time>2026-04-11T12:16:18.955Z</time></trkpt><trkpt lat="40.06250743223506" lon="18.148273668209885"><ele>171.0</ele><time>2026-04-11T12:16:19.955Z</time></trkpt><trkpt lat="40.06228541819042" lon="18.14819486210085"><ele>175.0</ele><time>2026-04-11T12:16:20.955Z</time></trkpt><trkpt lat="40.06205919416099" lon="18.14813997663106"><ele>175.0</ele><time>2026-04-11T12:16:21.955Z</time></trkpt><trkpt lat="40.061828721338905" lon="18.148119389035564"><ele>175.0</ele><time>2026-04-11T12:16:22.955Z</time></trkpt><trkpt lat="40.06159429787757" lon="18.148125455642568"><ele>175.5</ele><time>2026-04-11T12:16:23.955Z</time></trkpt><trkpt lat="40.061357699522645" lon="18.14813249205015"><ele>176.0</ele><time>2026-04-11T12:16:24.955Z</time></trkpt><trkpt lat="40.06112020242772" lon="18.148146771728257"><ele>176.0</ele><time>2026-04-11T12:16:25.955Z</time></trkpt><trkpt lat="40.060877906569736" lon="18.148177402869102"><ele>176.0</ele><time>2026-04-11T12:16:26.955Z</time></trkpt><trkpt lat="40.06063755945327" lon="18.148221932222583"><ele>175.5</ele><time>2026-04-11T12:16:27.955Z</time></trkpt><trkpt lat="40.06039858360021" lon="18.14824759716814"><ele>175.0</ele><time>2026-04-11T12:16:28.955Z</time></trkpt><trkpt lat="40.060158927774836" lon="18.1482714650514"><ele>176.5</ele><time>2026-04-11T12:16:29.955Z</time></trkpt><trkpt lat="40.0599199372148" lon="18.14830289226163"><ele>178.0</ele><time>2026-04-11T12:16:30.955Z</time></trkpt><trkpt lat="40.05968637708553" lon="18.148340508366438"><ele>178.0</ele><time>2026-04-11T12:16:31.955Z</time></trkpt><trkpt lat="40.05945055148221" lon="18.14837081923337"><ele>178.0</ele><time>2026-04-11T12:16:32.955Z</time></trkpt><trkpt lat="40.05921271190403" lon="18.148389050887324"><ele>178.5</ele><time>2026-04-11T12:16:33.955Z</time></trkpt><trkpt lat="40.05897006312185" lon="18.148390998910802"><ele>179.0</ele><time>2026-04-11T12:16:34.955Z</time></trkpt><trkpt lat="40.05872848598689" lon="18.148381459865163"><ele>179.0</ele><time>2026-04-11T12:16:35.955Z</time></trkpt><trkpt lat="40.05848223341101" lon="18.1483506257537"><ele>179.0</ele><time>2026-04-11T12:16:36.955Z</time></trkpt><trkpt lat="40.0582349913719" lon="18.14829390502447"><ele>179.5</ele><time>2026-04-11T12:16:37.955Z</time></trkpt><trkpt lat="40.0579979597088" lon="18.148216444991643"><ele>180.0</ele><time>2026-04-11T12:16:38.955Z</time></trkpt><trkpt lat="40.05775425851374" lon="18.14811859713462"><ele>180.0</ele><time>2026-04-11T12:16:39.955Z</time></trkpt><trkpt lat="40.05751413322945" lon="18.147994265494702"><ele>180.0</ele><time>2026-04-11T12:16:40.955Z</time></trkpt><trkpt lat="40.05728452519406" lon="18.147859901842466"><ele>180.5</ele><time>2026-04-11T12:16:41.955Z</time></trkpt><trkpt lat="40.05705927527087" lon="18.14771137259632"><ele>181.0</ele><time>2026-04-11T12:16:42.955Z</time></trkpt><trkpt lat="40.05683962353522" lon="18.14754326477819"><ele>180.0</ele><time>2026-04-11T12:16:43.955Z</time></trkpt><trkpt lat="40.0566270726675" lon="18.147367278966044"><ele>179.0</ele><time>2026-04-11T12:16:44.954Z</time></trkpt><trkpt lat="40.056420791474636" lon="18.147174833707037"><ele>178.5</ele><time>2026-04-11T12:16:45.954Z</time></trkpt><trkpt lat="40.0562207404851" lon="18.146963108648162"><ele>178.0</ele><time>2026-04-11T12:16:46.954Z</time></trkpt><trkpt lat="40.05602871359239" lon="18.146744490266503"><ele>176.5</ele><time>2026-04-11T12:16:47.954Z</time></trkpt><trkpt lat="40.055848885766345" lon="18.146519302241806"><ele>175.0</ele><time>2026-04-11T12:16:48.954Z</time></trkpt><trkpt lat="40.05568143116379" lon="18.146268546027873"><ele>173.5</ele><time>2026-04-11T12:16:49.954Z</time></trkpt><trkpt lat="40.05551930877549" lon="18.14601284046258"><ele>172.0</ele><time>2026-04-11T12:16:50.954Z</time></trkpt><trkpt lat="40.05537233921903" lon="18.145746552148413"><ele>171.5</ele><time>2026-04-11T12:16:51.954Z</time></trkpt><trkpt lat="40.05524826041072" lon="18.145445515443402"><ele>171.0</ele><time>2026-04-11T12:16:52.954Z</time></trkpt><trkpt lat="40.055135837736174" lon="18.14513878033903"><ele>171.0</ele><time>2026-04-11T12:16:53.954Z</time></trkpt><trkpt lat="40.05503402604338" lon="18.144822225019844"><ele>171.0</ele><time>2026-04-11T12:16:54.954Z</time></trkpt><trkpt lat="40.05493808575366" lon="18.144492166630414"><ele>168.5</ele><time>2026-04-11T12:16:55.954Z</time></trkpt><trkpt lat="40.05485685384832" lon="18.14415577304694"><ele>166.0</ele><time>2026-04-11T12:16:56.954Z</time></trkpt><trkpt lat="40.0547892490774" lon="18.143800669922904"><ele>166.0</ele><time>2026-04-11T12:16:57.954Z</time></trkpt><trkpt lat="40.05474129435148" lon="18.14344138343311"><ele>166.0</ele><time>2026-04-11T12:16:58.954Z</time></trkpt><trkpt lat="40.054712160449384" lon="18.14307276726139"><ele>164.0</ele><time>2026-04-11T12:16:59.954Z</time></trkpt><trkpt lat="40.05469693876069" lon="18.142706211860325"><ele>162.0</ele><time>2026-04-11T12:17:00.954Z</time></trkpt><trkpt lat="40.0546926697778" lon="18.142345274869196"><ele>160.5</ele><time>2026-04-11T12:17:01.953Z</time></trkpt><trkpt lat="40.05471034016937" lon="18.141973493873113"><ele>159.0</ele><time>2026-04-11T12:17:02.953Z</time></trkpt><trkpt lat="40.054745646438164" lon="18.14160339486206"><ele>157.5</ele><time>2026-04-11T12:17:03.953Z</time></trkpt><trkpt lat="40.05478809784051" lon="18.141234348044392"><ele>156.0</ele><time>2026-04-11T12:17:04.953Z</time></trkpt><trkpt lat="40.05485580725605" lon="18.14085553410493"><ele>157.0</ele><time>2026-04-11T12:17:05.953Z</time></trkpt><trkpt lat="40.054956465490186" lon="18.140471954049055"><ele>158.0</ele><time>2026-04-11T12:17:06.953Z</time></trkpt><trkpt lat="40.05504446119905" lon="18.140092420374316"><ele>154.5</ele><time>2026-04-11T12:17:07.953Z</time></trkpt><trkpt lat="40.055125770753854" lon="18.139714798114458"><ele>151.0</ele><time>2026-04-11T12:17:08.953Z</time></trkpt><trkpt lat="40.05520468282022" lon="18.139340953282836"><ele>148.5</ele><time>2026-04-11T12:17:09.953Z</time></trkpt><trkpt lat="40.05528374126514" lon="18.138951000467923"><ele>146.0</ele><time>2026-04-11T12:17:10.953Z</time></trkpt><trkpt lat="40.055360491203764" lon="18.138569178891167"><ele>145.0</ele><time>2026-04-11T12:17:11.953Z</time></trkpt><trkpt lat="40.05544020557404" lon="18.138208395539174"><ele>144.0</ele><time>2026-04-11T12:17:12.953Z</time></trkpt><trkpt lat="40.05551333943242" lon="18.13786510114198"><ele>144.0</ele><time>2026-04-11T12:17:13.953Z</time></trkpt><trkpt lat="40.05558105206739" lon="18.13755162094523"><ele>144.0</ele><time>2026-04-11T12:17:14.954Z</time></trkpt><trkpt lat="40.05563877002282" lon="18.137274360202976"><ele>143.66666666666666</ele><time>2026-04-11T12:17:15.954Z</time></trkpt><trkpt lat="40.05569236665338" lon="18.137003858238547"><ele>143.33333333333331</ele><time>2026-04-11T12:17:16.954Z</time></trkpt><trkpt lat="40.0557412911434" lon="18.136741778890556"><ele>143.0</ele><time>2026-04-11T12:17:17.954Z</time></trkpt><trkpt lat="40.05578753160002" lon="18.136489359030442"><ele>141.0</ele><time>2026-04-11T12:17:18.954Z</time></trkpt><trkpt lat="40.05583751783531" lon="18.13624728220836"><ele>139.0</ele><time>2026-04-11T12:17:19.954Z</time></trkpt><trkpt lat="40.05588663474123" lon="18.13601764554427"><ele>137.0</ele><time>2026-04-11T12:17:20.954Z</time></trkpt><trkpt lat="40.05593560444514" lon="18.135800009665946"><ele>136.25</ele><time>2026-04-11T12:17:21.954Z</time></trkpt><trkpt lat="40.055982465375756" lon="18.13559741531512"><ele>135.5</ele><time>2026-04-11T12:17:22.954Z</time></trkpt><trkpt lat="40.05602111257573" lon="18.135438329639463"><ele>134.75</ele><time>2026-04-11T12:17:23.954Z</time></trkpt><trkpt lat="40.05605189262291" lon="18.135312090159672"><ele>134.0</ele><time>2026-04-11T12:17:24.954Z</time></trkpt><trkpt lat="40.056095489333515" lon="18.135202064060216"><ele>134.0</ele><time>2026-04-11T12:17:25.954Z</time></trkpt><trkpt lat="40.0561518614421" lon="18.135118889001202"><ele>134.0</ele><time>2026-04-11T12:17:26.954Z</time></trkpt><trkpt lat="40.05622883229458" lon="18.13504948807288"><ele>134.0</ele><time>2026-04-11T12:17:27.954Z</time></trkpt><trkpt lat="40.056326423653715" lon="18.134986314147373"><ele>134.0</ele><time>2026-04-11T12:17:28.954Z</time></trkpt><trkpt lat="40.05644247198464" lon="18.134968560946568"><ele>134.0</ele><time>2026-04-11T12:17:29.954Z</time></trkpt><trkpt lat="40.05655001060025" lon="18.13497936915075"><ele>134.6</ele><time>2026-04-11T12:17:30.954Z</time></trkpt><trkpt lat="40.05664975098537" lon="18.13502573310427"><ele>135.2</ele><time>2026-04-11T12:17:31.954Z</time></trkpt><trkpt lat="40.05674462448993" lon="18.135101293270136"><ele>135.79999999999998</ele><time>2026-04-11T12:17:32.954Z</time></trkpt><trkpt lat="40.05682073830145" lon="18.13519159110575"><ele>136.4</ele><time>2026-04-11T12:17:33.954Z</time></trkpt><trkpt lat="40.05687264883772" lon="18.13531015633975"><ele>137.0</ele><time>2026-04-11T12:17:34.954Z</time></trkpt><trkpt lat="40.05691061771628" lon="18.13543105431189"><ele>137.0</ele><time>2026-04-11T12:17:35.953Z</time></trkpt><trkpt lat="40.056921664186724" lon="18.13556625140252"><ele>137.0</ele><time>2026-04-11T12:17:36.953Z</time></trkpt><trkpt lat="40.05691511934618" lon="18.135704105966283"><ele>137.0</ele><time>2026-04-11T12:17:37.953Z</time></trkpt><trkpt lat="40.056863681776726" lon="18.13584633982391"><ele>137.0</ele><time>2026-04-11T12:17:38.953Z</time></trkpt><trkpt lat="40.056770782678946" lon="18.13595727724522"><ele>137.0</ele><time>2026-04-11T12:17:39.953Z</time></trkpt><trkpt lat="40.05668310800967" lon="18.13604636754531"><ele>137.0</ele><time>2026-04-11T12:17:40.953Z</time></trkpt><trkpt lat="40.056580536861944" lon="18.13612264616974"><ele>137.0</ele><time>2026-04-11T12:17:41.953Z</time></trkpt><trkpt lat="40.0564636412408" lon="18.136159353945878"><ele>137.0</ele><time>2026-04-11T12:17:42.953Z</time></trkpt><trkpt lat="40.05633439161838" lon="18.13612582670621"><ele>137.0</ele><time>2026-04-11T12:17:43.953Z</time></trkpt><trkpt lat="40.05620243032764" lon="18.136086356459824"><ele>137.0</ele><time>2026-04-11T12:17:44.953Z</time></trkpt><trkpt lat="40.056062272822686" lon="18.136032379172317"><ele>137.0</ele><time>2026-04-11T12:17:45.953Z</time></trkpt><trkpt lat="40.0559050223249" lon="18.13596989224658"><ele>137.0</ele><time>2026-04-11T12:17:46.953Z</time></trkpt><trkpt lat="40.05575421984621" lon="18.135922447402905"><ele>138.0</ele><time>2026-04-11T12:17:47.953Z</time></trkpt><trkpt lat="40.05554630049076" lon="18.135858029594992"><ele>139.0</ele><time>2026-04-11T12:17:48.953Z</time></trkpt><trkpt lat="40.055286700258506" lon="18.135766783166495"><ele>137.0</ele><time>2026-04-11T12:17:49.953Z</time></trkpt><trkpt lat="40.05503258808163" lon="18.135690386427637"><ele>135.0</ele><time>2026-04-11T12:17:50.953Z</time></trkpt><trkpt lat="40.05479137594209" lon="18.135614164721673"><ele>133.5</ele><time>2026-04-11T12:17:51.953Z</time></trkpt><trkpt lat="40.054547073283466" lon="18.135536047787873"><ele>132.0</ele><time>2026-04-11T12:17:52.953Z</time></trkpt><trkpt lat="40.05433256415631" lon="18.13545553389308"><ele>132.0</ele><time>2026-04-11T12:17:53.953Z</time></trkpt><trkpt lat="40.054133041401236" lon="18.135384310466094"><ele>132.0</ele><time>2026-04-11T12:17:54.953Z</time></trkpt><trkpt lat="40.05395390003332" lon="18.135318044086773"><ele>132.0</ele><time>2026-04-11T12:17:55.953Z</time></trkpt><trkpt lat="40.05379336149767" lon="18.13524773673995"><ele>131.75</ele><time>2026-04-11T12:17:56.953Z</time></trkpt><trkpt lat="40.05365102342221" lon="18.135156318809237"><ele>131.5</ele><time>2026-04-11T12:17:57.953Z</time></trkpt><trkpt lat="40.053526732407576" lon="18.1350532682061"><ele>131.25</ele><time>2026-04-11T12:17:58.953Z</time></trkpt><trkpt lat="40.05341408592508" lon="18.134950583720347"><ele>131.0</ele><time>2026-04-11T12:17:59.953Z</time></trkpt><trkpt lat="40.05330703639869" lon="18.13484916154599"><ele>129.66666666666666</ele><time>2026-04-11T12:18:00.953Z</time></trkpt><trkpt lat="40.05321219205264" lon="18.134730260314072"><ele>128.33333333333334</ele><time>2026-04-11T12:18:01.953Z</time></trkpt><trkpt lat="40.05312843395527" lon="18.13454747647544"><ele>127.0</ele><time>2026-04-11T12:18:02.953Z</time></trkpt><trkpt lat="40.05303376288087" lon="18.134345222165255"><ele>127.0</ele><time>2026-04-11T12:18:03.953Z</time></trkpt><trkpt lat="40.052958772294964" lon="18.134177846532594"><ele>127.0</ele><time>2026-04-11T12:18:04.953Z</time></trkpt><trkpt lat="40.05289082284298" lon="18.134029196965837"><ele>127.0</ele><time>2026-04-11T12:18:05.953Z</time></trkpt><trkpt lat="40.05282590833853" lon="18.133890490248472"><ele>127.0</ele><time>2026-04-11T12:18:06.953Z</time></trkpt><trkpt lat="40.05276602914061" lon="18.133778103621943"><ele>127.00000000000001</ele><time>2026-04-11T12:18:07.953Z</time></trkpt><trkpt lat="40.05271452654018" lon="18.1336798913061"><ele>127.0</ele><time>2026-04-11T12:18:08.953Z</time></trkpt><trkpt lat="40.05268138481769" lon="18.133608077628978"><ele>127.0</ele><time>2026-04-11T12:18:09.953Z</time></trkpt><trkpt lat="40.052636813212246" lon="18.13352482501597"><ele>127.0</ele><time>2026-04-11T12:18:11.953Z</time></trkpt><trkpt lat="40.052588706740984" lon="18.133448698256505"><ele>127.00000000000001</ele><time>2026-04-11T12:18:13.953Z</time></trkpt><trkpt lat="40.052532875900106" lon="18.133348958849044"><ele>127.0</ele><time>2026-04-11T12:18:14.953Z</time></trkpt><trkpt lat="40.052460344818506" lon="18.133208241714822"><ele>127.33333333333334</ele><time>2026-04-11T12:18:15.953Z</time></trkpt><trkpt lat="40.05237856071568" lon="18.13304977595763"><ele>127.66666666666666</ele><time>2026-04-11T12:18:16.953Z</time></trkpt><trkpt lat="40.05226849915377" lon="18.132850974720736"><ele>128.0</ele><time>2026-04-11T12:18:17.953Z</time></trkpt><trkpt lat="40.0521611740684" lon="18.13264879713234"><ele>128.0</ele><time>2026-04-11T12:18:18.953Z</time></trkpt><trkpt lat="40.05204396091167" lon="18.132419367133764"><ele>128.0</ele><time>2026-04-11T12:18:19.953Z</time></trkpt><trkpt lat="40.05193558882685" lon="18.13221248019093"><ele>128.0</ele><time>2026-04-11T12:18:20.953Z</time></trkpt><trkpt lat="40.05184346158293" lon="18.132048043803135"><ele>127.60000000000001</ele><time>2026-04-11T12:18:21.953Z</time></trkpt><trkpt lat="40.05178209868511" lon="18.13189290512627"><ele>127.20000000000002</ele><time>2026-04-11T12:18:22.953Z</time></trkpt><trkpt lat="40.05172274136079" lon="18.131764484100717"><ele>126.8</ele><time>2026-04-11T12:18:23.953Z</time></trkpt><trkpt lat="40.051661492284495" lon="18.131659912096726"><ele>126.4</ele><time>2026-04-11T12:18:24.953Z</time></trkpt><trkpt lat="40.051587681270185" lon="18.13158456961587"><ele>126.0</ele><time>2026-04-11T12:18:25.953Z</time></trkpt><trkpt lat="40.05148465405785" lon="18.131574497375265"><ele>125.5</ele><time>2026-04-11T12:18:26.953Z</time></trkpt><trkpt lat="40.0513770153622" lon="18.1315775669107"><ele>125.0</ele><time>2026-04-11T12:18:27.953Z</time></trkpt><trkpt lat="40.05126061692495" lon="18.13161768543034"><ele>124.5</ele><time>2026-04-11T12:18:28.953Z</time></trkpt><trkpt lat="40.05114324883384" lon="18.13166716846182"><ele>124.0</ele><time>2026-04-11T12:18:29.953Z</time></trkpt><trkpt lat="40.05103091893542" lon="18.13169735359533"><ele>124.0</ele><time>2026-04-11T12:18:30.953Z</time></trkpt><trkpt lat="40.05092830008218" lon="18.131729977445474"><ele>124.0</ele><time>2026-04-11T12:18:31.953Z</time></trkpt><trkpt lat="40.05083434626111" lon="18.13174818484544"><ele>124.0</ele><time>2026-04-11T12:18:32.953Z</time></trkpt><trkpt lat="40.05075428446899" lon="18.131774494439536"><ele>124.0</ele><time>2026-04-11T12:18:33.953Z</time></trkpt><trkpt lat="40.050666189271034" lon="18.131797816010376"><ele>124.0</ele><time>2026-04-11T12:18:34.953Z</time></trkpt><trkpt lat="40.05058009854293" lon="18.131819228669084"><ele>123.16666666666667</ele><time>2026-04-11T12:18:35.953Z</time></trkpt><trkpt lat="40.050493164709536" lon="18.13181940153096"><ele>122.33333333333334</ele><time>2026-04-11T12:18:36.953Z</time></trkpt><trkpt lat="40.05040422160293" lon="18.131779857707688"><ele>121.5</ele><time>2026-04-11T12:18:37.953Z</time></trkpt><trkpt lat="40.05032368591807" lon="18.131743695433013"><ele>120.66666666666666</ele><time>2026-04-11T12:18:38.953Z</time></trkpt><trkpt lat="40.05025787399168" lon="18.131698038173333"><ele>119.83333333333333</ele><time>2026-04-11T12:18:39.953Z</time></trkpt><trkpt lat="40.050191242323216" lon="18.131645344726973"><ele>119.0</ele><time>2026-04-11T12:18:40.953Z</time></trkpt><trkpt lat="40.050134457066655" lon="18.131573506491172"><ele>117.80000000000001</ele><time>2026-04-11T12:18:41.953Z</time></trkpt><trkpt lat="40.05008011278502" lon="18.131482738087815"><ele>116.60000000000001</ele><time>2026-04-11T12:18:42.953Z</time></trkpt><trkpt lat="40.05004549451334" lon="18.131367332797595"><ele>115.4</ele><time>2026-04-11T12:18:43.953Z</time></trkpt><trkpt lat="40.050021747461905" lon="18.131249661614277"><ele>114.2</ele><time>2026-04-11T12:18:44.953Z</time></trkpt><trkpt lat="40.05001479208588" lon="18.131138843796105"><ele>113.0</ele><time>2026-04-11T12:18:45.953Z</time></trkpt><trkpt lat="40.05002557648918" lon="18.13102404587879"><ele>113.0</ele><time>2026-04-11T12:18:46.953Z</time></trkpt><trkpt lat="40.05005821505948" lon="18.130913222377536"><ele>113.00000000000001</ele><time>2026-04-11T12:18:47.953Z</time></trkpt><trkpt lat="40.05010348756737" lon="18.130818194299284"><ele>113.00000000000001</ele><time>2026-04-11T12:18:48.953Z</time></trkpt><trkpt lat="40.05015089863376" lon="18.130737963157355"><ele>113.0</ele><time>2026-04-11T12:18:49.953Z</time></trkpt><trkpt lat="40.0502287938982" lon="18.130656449610274"><ele>113.0</ele><time>2026-04-11T12:18:50.953Z</time></trkpt><trkpt lat="40.050327841644375" lon="18.130585238934767"><ele>111.5</ele><time>2026-04-11T12:18:51.953Z</time></trkpt><trkpt lat="40.050437498799575" lon="18.130526845948328"><ele>110.0</ele><time>2026-04-11T12:18:52.953Z</time></trkpt><trkpt lat="40.05054586764647" lon="18.1304650639982"><ele>108.5</ele><time>2026-04-11T12:18:53.953Z</time></trkpt><trkpt lat="40.050650489979134" lon="18.130407554404808"><ele>107.0</ele><time>2026-04-11T12:18:54.953Z</time></trkpt><trkpt lat="40.05074612806802" lon="18.130369615331073"><ele>107.66666666666666</ele><time>2026-04-11T12:18:55.953Z</time></trkpt><trkpt lat="40.05082835588726" lon="18.13032660310363"><ele>108.33333333333333</ele><time>2026-04-11T12:18:56.953Z</time></trkpt><trkpt lat="40.05090090678625" lon="18.130281105230594"><ele>109.0</ele><time>2026-04-11T12:18:57.953Z</time></trkpt><trkpt lat="40.050980171461944" lon="18.130246230027897"><ele>109.66666666666666</ele><time>2026-04-11T12:18:58.953Z</time></trkpt><trkpt lat="40.05106166374225" lon="18.130219981401176"><ele>110.33333333333333</ele><time>2026-04-11T12:18:59.953Z</time></trkpt><trkpt lat="40.05113238202399" lon="18.1301730876225"><ele>111.0</ele><time>2026-04-11T12:19:00.953Z</time></trkpt><trkpt lat="40.05119056170688" lon="18.130121747703484"><ele>111.0</ele><time>2026-04-11T12:19:01.953Z</time></trkpt><trkpt lat="40.05124326713778" lon="18.130060250687475"><ele>111.0</ele><time>2026-04-11T12:19:02.953Z</time></trkpt><trkpt lat="40.05128822941686" lon="18.129988357105688"><ele>111.0</ele><time>2026-04-11T12:19:03.953Z</time></trkpt><trkpt lat="40.0513229462735" lon="18.129909161751502"><ele>111.0</ele><time>2026-04-11T12:19:04.953Z</time></trkpt><trkpt lat="40.051339466250056" lon="18.12982420176421"><ele>111.0</ele><time>2026-04-11T12:19:05.953Z</time></trkpt><trkpt lat="40.05133246255238" lon="18.12965825276376"><ele>111.0</ele><time>2026-04-11T12:19:07.952Z</time></trkpt><trkpt lat="40.05129798704406" lon="18.129581351185923"><ele>109.85714285714285</ele><time>2026-04-11T12:19:08.951Z</time></trkpt><trkpt lat="40.05127001589144" lon="18.12949442112386"><ele>108.71428571428572</ele><time>2026-04-11T12:19:09.951Z</time></trkpt><trkpt lat="40.05123739746022" lon="18.129416597462843"><ele>107.57142857142857</ele><time>2026-04-11T12:19:10.952Z</time></trkpt><trkpt lat="40.05118650919968" lon="18.12935253546568"><ele>106.42857142857142</ele><time>2026-04-11T12:19:11.951Z</time></trkpt><trkpt lat="40.05113641997054" lon="18.129300499105682"><ele>105.28571428571428</ele><time>2026-04-11T12:19:12.951Z</time></trkpt><trkpt lat="40.05107323868611" lon="18.129276018958553"><ele>104.14285714285714</ele><time>2026-04-11T12:19:13.951Z</time></trkpt><trkpt lat="40.0510085517617" lon="18.1292595243468"><ele>103.0</ele><time>2026-04-11T12:19:14.951Z</time></trkpt><trkpt lat="40.05091922260502" lon="18.129269587820264"><ele>103.00000000000001</ele><time>2026-04-11T12:19:15.951Z</time></trkpt><trkpt lat="40.05082587969098" lon="18.129291180252007"><ele>103.0</ele><time>2026-04-11T12:19:16.951Z</time></trkpt><trkpt lat="40.050731858960354" lon="18.129305244116562"><ele>103.0</ele><time>2026-04-11T12:19:17.951Z</time></trkpt><trkpt lat="40.05064844413283" lon="18.129302304582225"><ele>103.0</ele><time>2026-04-11T12:19:18.951Z</time></trkpt><trkpt lat="40.050572843106" lon="18.129296231071862"><ele>103.00000000000001</ele><time>2026-04-11T12:19:19.951Z</time></trkpt><trkpt lat="40.05050555771788" lon="18.12929066266016"><ele>103.0</ele><time>2026-04-11T12:19:20.952Z</time></trkpt><trkpt lat="40.05038987064455" lon="18.12926937876318"><ele>101.80000000000001</ele><time>2026-04-11T12:19:22.952Z</time></trkpt><trkpt lat="40.05029230906049" lon="18.129196152563757"><ele>100.6</ele><time>2026-04-11T12:19:24.952Z</time></trkpt><trkpt lat="40.050259177971256" lon="18.129054238524226"><ele>99.4</ele><time>2026-04-11T12:19:26.952Z</time></trkpt><trkpt lat="40.05029797595749" lon="18.128968754833164"><ele>98.19999999999999</ele><time>2026-04-11T12:19:27.952Z</time></trkpt><trkpt lat="40.050367740718706" lon="18.128900747150272"><ele>97.0</ele><time>2026-04-11T12:19:28.952Z</time></trkpt><trkpt lat="40.05046889682237" lon="18.12882975134531"><ele>97.0</ele><time>2026-04-11T12:19:29.952Z</time></trkpt><trkpt lat="40.05059071222878" lon="18.128751074271964"><ele>97.0</ele><time>2026-04-11T12:19:30.952Z</time></trkpt><trkpt lat="40.050720987422224" lon="18.12868600930681"><ele>97.0</ele><time>2026-04-11T12:19:31.952Z</time></trkpt><trkpt lat="40.0508323976913" lon="18.12863021488045"><ele>97.0</ele><time>2026-04-11T12:19:32.952Z</time></trkpt><trkpt lat="40.050933395112345" lon="18.12860121243574"><ele>97.0</ele><time>2026-04-11T12:19:33.952Z</time></trkpt><trkpt lat="40.05099932214208" lon="18.12857131095417"><ele>97.0</ele><time>2026-04-11T12:19:34.952Z</time></trkpt><trkpt lat="40.05107598964794" lon="18.12847365053262"><ele>97.0</ele><time>2026-04-11T12:19:36.952Z</time></trkpt><trkpt lat="40.05107588038122" lon="18.128371890625633"><ele>97.0</ele><time>2026-04-11T12:19:37.952Z</time></trkpt><trkpt lat="40.051051997287864" lon="18.128193853344335"><ele>97.0</ele><time>2026-04-11T12:19:38.952Z</time></trkpt><trkpt lat="40.05105528232638" lon="18.128017036333926"><ele>96.19999999999999</ele><time>2026-04-11T12:19:39.952Z</time></trkpt><trkpt lat="40.05105313950926" lon="18.127859961359913"><ele>95.4</ele><time>2026-04-11T12:19:40.952Z</time></trkpt><trkpt lat="40.051052917735845" lon="18.127737158265194"><ele>94.6</ele><time>2026-04-11T12:19:41.952Z</time></trkpt><trkpt lat="40.05106207092812" lon="18.1276163452561"><ele>93.80000000000001</ele><time>2026-04-11T12:19:42.952Z</time></trkpt><trkpt lat="40.051071467295706" lon="18.1275022444419"><ele>93.0</ele><time>2026-04-11T12:19:43.952Z</time></trkpt><trkpt lat="40.05110311613174" lon="18.12736132248537"><ele>91.0</ele><time>2026-04-11T12:19:44.952Z</time></trkpt><trkpt lat="40.05112969218104" lon="18.127198844338498"><ele>89.0</ele><time>2026-04-11T12:19:45.952Z</time></trkpt><trkpt lat="40.051147684962295" lon="18.127025045559712"><ele>87.0</ele><time>2026-04-11T12:19:46.952Z</time></trkpt><trkpt lat="40.05115193109111" lon="18.126867891372914"><ele>85.0</ele><time>2026-04-11T12:19:47.952Z</time></trkpt><trkpt lat="40.05114454420365" lon="18.126713864627106"><ele>85.0</ele><time>2026-04-11T12:19:48.952Z</time></trkpt><trkpt lat="40.05112842198351" lon="18.12657212933408"><ele>85.0</ele><time>2026-04-11T12:19:49.952Z</time></trkpt><trkpt lat="40.05107008417836" lon="18.126435641396117"><ele>85.0</ele><time>2026-04-11T12:19:50.952Z</time></trkpt><trkpt lat="40.05098546208186" lon="18.126287371908607"><ele>85.0</ele><time>2026-04-11T12:19:51.952Z</time></trkpt><trkpt lat="40.05089685258437" lon="18.12608545438545"><ele>84.0</ele><time>2026-04-11T12:19:52.952Z</time></trkpt><trkpt lat="40.05081926904805" lon="18.125897125753905"><ele>83.0</ele><time>2026-04-11T12:19:53.952Z</time></trkpt><trkpt lat="40.05076841049973" lon="18.12577251301517"><ele>82.0</ele><time>2026-04-11T12:19:54.952Z</time></trkpt><trkpt lat="40.05075957962679" lon="18.125623637768253"><ele>81.0</ele><time>2026-04-11T12:19:55.952Z</time></trkpt><trkpt lat="40.0508107455958" lon="18.125484227213523"><ele>79.75</ele><time>2026-04-11T12:19:57.952Z</time></trkpt><trkpt lat="40.050814392857575" lon="18.125382112834547"><ele>78.5</ele><time>2026-04-11T12:19:58.952Z</time></trkpt><trkpt lat="40.05080265667813" lon="18.125245037277413"><ele>77.25</ele><time>2026-04-11T12:19:59.952Z</time></trkpt><trkpt lat="40.05072792577477" lon="18.125065752373487"><ele>76.0</ele><time>2026-04-11T12:20:00.952Z</time></trkpt><trkpt lat="40.050659561099316" lon="18.124861384851236"><ele>74.5</ele><time>2026-04-11T12:20:01.952Z</time></trkpt><trkpt lat="40.05059829739898" lon="18.124632050658295"><ele>73.0</ele><time>2026-04-11T12:20:02.952Z</time></trkpt><trkpt lat="40.05055393003067" lon="18.12447809588634"><ele>71.5</ele><time>2026-04-11T12:20:03.952Z</time></trkpt><trkpt lat="40.05053179015205" lon="18.12435018837564"><ele>70.0</ele><time>2026-04-11T12:20:04.951Z</time></trkpt><trkpt lat="40.05050482154806" lon="18.124223001409852"><ele>70.0</ele><time>2026-04-11T12:20:05.951Z</time></trkpt><trkpt lat="40.05049065742942" lon="18.124081871876303"><ele>70.0</ele><time>2026-04-11T12:20:06.951Z</time></trkpt><trkpt lat="40.050483775192575" lon="18.12393516902243"><ele>70.0</ele><time>2026-04-11T12:20:07.951Z</time></trkpt><trkpt lat="40.05046082398243" lon="18.12383005252449"><ele>70.0</ele><time>2026-04-11T12:20:08.951Z</time></trkpt><trkpt lat="40.05042672158897" lon="18.123751199615178"><ele>70.0</ele><time>2026-04-11T12:20:09.951Z</time></trkpt><trkpt lat="40.05041161795388" lon="18.1236708301467"><ele>70.0</ele><time>2026-04-11T12:20:10.951Z</time></trkpt><trkpt lat="40.05038029725116" lon="18.123586611899604"><ele>70.0</ele><time>2026-04-11T12:20:12.951Z</time></trkpt><trkpt lat="40.05035549317751" lon="18.12348260269966"><ele>70.0</ele><time>2026-04-11T12:20:14.951Z</time></trkpt><trkpt lat="40.0503201668682" lon="18.12340539220161"><ele>70.0</ele><time>2026-04-11T12:20:15.951Z</time></trkpt><trkpt lat="40.05026858233272" lon="18.12332201719824"><ele>70.0</ele><time>2026-04-11T12:20:16.951Z</time></trkpt><trkpt lat="40.05022282342853" lon="18.123213278501265"><ele>70.0</ele><time>2026-04-11T12:20:17.951Z</time></trkpt><trkpt lat="40.05017698731129" lon="18.123086270847054"><ele>70.0</ele><time>2026-04-11T12:20:18.951Z</time></trkpt><trkpt lat="40.050126945179095" lon="18.12298239720196"><ele>70.0</ele><time>2026-04-11T12:20:19.951Z</time></trkpt><trkpt lat="40.05008200076374" lon="18.122882503340985"><ele>70.0</ele><time>2026-04-11T12:20:20.951Z</time></trkpt><trkpt lat="40.050068082947355" lon="18.122763333522975"><ele>70.0</ele><time>2026-04-11T12:20:21.951Z</time></trkpt><trkpt lat="40.05004698120365" lon="18.122658656872417"><ele>70.0</ele><time>2026-04-11T12:20:22.951Z</time></trkpt><trkpt lat="40.05002926835791" lon="18.122573689675825"><ele>70.0</ele><time>2026-04-11T12:20:23.951Z</time></trkpt><trkpt lat="40.0499981159671" lon="18.12248819430754"><ele>70.0</ele><time>2026-04-11T12:20:25.951Z</time></trkpt><trkpt lat="40.049949407297916" lon="18.122377445235244"><ele>69.0</ele><time>2026-04-11T12:20:29.951Z</time></trkpt><trkpt lat="40.0499204871361" lon="18.122224271858286"><ele>68.0</ele><time>2026-04-11T12:20:31.951Z</time></trkpt><trkpt lat="40.049897783743695" lon="18.12212986704063"><ele>67.0</ele><time>2026-04-11T12:20:32.951Z</time></trkpt><trkpt lat="40.04987526282322" lon="18.12202127890378"><ele>66.0</ele><time>2026-04-11T12:20:33.951Z</time></trkpt><trkpt lat="40.04985570678346" lon="18.121902740034812"><ele>65.0</ele><time>2026-04-11T12:20:34.951Z</time></trkpt><trkpt lat="40.04984177880026" lon="18.121791549689046"><ele>65.0</ele><time>2026-04-11T12:20:35.951Z</time></trkpt><trkpt lat="40.049823926108765" lon="18.12169013503391"><ele>65.0</ele><time>2026-04-11T12:20:36.951Z</time></trkpt><trkpt lat="40.04978528307791" lon="18.121625207317337"><ele>65.0</ele><time>2026-04-11T12:20:37.951Z</time></trkpt><trkpt lat="40.04975682476329" lon="18.121520967262153"><ele>65.0</ele><time>2026-04-11T12:20:39.951Z</time></trkpt><trkpt lat="40.04968142729838" lon="18.121481667387577"><ele>65.0</ele><time>2026-04-11T12:20:43.951Z</time></trkpt><trkpt lat="40.04958576602589" lon="18.12153319819522"><ele>65.0</ele><time>2026-04-11T12:20:45.951Z</time></trkpt><trkpt lat="40.049528800853736" lon="18.121589890712407"><ele>65.0</ele><time>2026-04-11T12:20:46.951Z</time></trkpt><trkpt lat="40.049474747135584" lon="18.121648980575017"><ele>65.0</ele><time>2026-04-11T12:20:47.951Z</time></trkpt><trkpt lat="40.04941917763805" lon="18.121709819159108"><ele>65.0</ele><time>2026-04-11T12:20:48.951Z</time></trkpt><trkpt lat="40.04935342801835" lon="18.121776284883197"><ele>65.0</ele><time>2026-04-11T12:20:49.951Z</time></trkpt><trkpt lat="40.04929119670493" lon="18.12184991160157"><ele>65.0</ele><time>2026-04-11T12:20:50.951Z</time></trkpt><trkpt lat="40.04923200564621" lon="18.12192263148703"><ele>65.0</ele><time>2026-04-11T12:20:51.951Z</time></trkpt><trkpt lat="40.049177466313374" lon="18.12199343969857"><ele>65.0</ele><time>2026-04-11T12:20:52.951Z</time></trkpt><trkpt lat="40.04912661883371" lon="18.12205135037373"><ele>65.0</ele><time>2026-04-11T12:20:53.951Z</time></trkpt><trkpt lat="40.04904729096225" lon="18.12211660060239"><ele>65.0</ele><time>2026-04-11T12:20:55.951Z</time></trkpt><trkpt lat="40.048986009665484" lon="18.12207958973521"><ele>65.0</ele><time>2026-04-11T12:20:57.951Z</time></trkpt><trkpt lat="40.04895844907106" lon="18.12194479247148"><ele>65.0</ele><time>2026-04-11T12:20:59.951Z</time></trkpt><trkpt lat="40.048968190181746" lon="18.121856241914358"><ele>65.0</ele><time>2026-04-11T12:21:00.951Z</time></trkpt><trkpt lat="40.04898363674891" lon="18.121773702034663"><ele>65.16666666666667</ele><time>2026-04-11T12:21:01.951Z</time></trkpt><trkpt lat="40.04899738534721" lon="18.121646594775854"><ele>65.33333333333334</ele><time>2026-04-11T12:21:03.951Z</time></trkpt><trkpt lat="40.04894619806814" lon="18.121571455911518"><ele>65.5</ele><time>2026-04-11T12:21:05.951Z</time></trkpt><trkpt lat="40.04883932174776" lon="18.121585887515057"><ele>65.66666666666667</ele><time>2026-04-11T12:21:07.951Z</time></trkpt><trkpt lat="40.04877036195348" lon="18.1216253950129"><ele>65.83333333333333</ele><time>2026-04-11T12:21:08.951Z</time></trkpt><trkpt lat="40.04868838176075" lon="18.121659579114514"><ele>66.0</ele><time>2026-04-11T12:21:09.951Z</time></trkpt><trkpt lat="40.0485973487137" lon="18.121687142593416"><ele>66.0</ele><time>2026-04-11T12:21:10.951Z</time></trkpt><trkpt lat="40.04850541085113" lon="18.121716422088195"><ele>66.0</ele><time>2026-04-11T12:21:11.951Z</time></trkpt><trkpt lat="40.04842111487417" lon="18.12174150421774"><ele>66.0</ele><time>2026-04-11T12:21:12.951Z</time></trkpt><trkpt lat="40.04833637552628" lon="18.121767784751572"><ele>66.0</ele><time>2026-04-11T12:21:13.95Z</time></trkpt><trkpt lat="40.0482444560286" lon="18.12179345075022"><ele>66.0</ele><time>2026-04-11T12:21:14.95Z</time></trkpt><trkpt lat="40.048156376541144" lon="18.121818024384844"><ele>65.83333333333333</ele><time>2026-04-11T12:21:15.95Z</time></trkpt><trkpt lat="40.048069688236794" lon="18.121850129037416"><ele>65.66666666666667</ele><time>2026-04-11T12:21:16.95Z</time></trkpt><trkpt lat="40.047989639304454" lon="18.121882966682048"><ele>65.5</ele><time>2026-04-11T12:21:17.95Z</time></trkpt><trkpt lat="40.04791593341666" lon="18.121905807896013"><ele>65.33333333333334</ele><time>2026-04-11T12:21:18.95Z</time></trkpt><trkpt lat="40.04784569693763" lon="18.12192855463449"><ele>65.16666666666667</ele><time>2026-04-11T12:21:19.949Z</time></trkpt><trkpt lat="40.047777710925935" lon="18.121958355726814"><ele>65.0</ele><time>2026-04-11T12:21:20.95Z</time></trkpt><trkpt lat="40.04771313396372" lon="18.121988040396868"><ele>65.00000000000001</ele><time>2026-04-11T12:21:21.95Z</time></trkpt><trkpt lat="40.047648042440734" lon="18.122018278634556"><ele>65.0</ele><time>2026-04-11T12:21:22.95Z</time></trkpt><trkpt lat="40.04757805633043" lon="18.12205128206563"><ele>65.0</ele><time>2026-04-11T12:21:23.949Z</time></trkpt><trkpt lat="40.047501294612616" lon="18.122071772696565"><ele>65.0</ele><time>2026-04-11T12:21:24.949Z</time></trkpt><trkpt lat="40.04743048135633" lon="18.122092927416762"><ele>65.0</ele><time>2026-04-11T12:21:25.95Z</time></trkpt><trkpt lat="40.04735777674246" lon="18.122101678279154"><ele>65.00000000000001</ele><time>2026-04-11T12:21:26.95Z</time></trkpt><trkpt lat="40.04728952744448" lon="18.122104576674523"><ele>65.0</ele><time>2026-04-11T12:21:27.95Z</time></trkpt><trkpt lat="40.04718181615602" lon="18.1221220168474"><ele>64.6</ele><time>2026-04-11T12:21:29.95Z</time></trkpt><trkpt lat="40.04707431038675" lon="18.122168333536926"><ele>64.2</ele><time>2026-04-11T12:21:31.95Z</time></trkpt><trkpt lat="40.04700342113252" lon="18.122278431493772"><ele>63.8</ele><time>2026-04-11T12:21:33.95Z</time></trkpt><trkpt lat="40.046977418753336" lon="18.12235914845638"><ele>63.4</ele><time>2026-04-11T12:21:34.95Z</time></trkpt><trkpt lat="40.046973841041144" lon="18.12246849145268"><ele>63.0</ele><time>2026-04-11T12:21:35.95Z</time></trkpt><trkpt lat="40.04696957097451" lon="18.122597134602177"><ele>64.5</ele><time>2026-04-11T12:21:36.95Z</time></trkpt><trkpt lat="40.04697908945484" lon="18.122737717926544"><ele>66.0</ele><time>2026-04-11T12:21:37.95Z</time></trkpt><trkpt lat="40.04701197620948" lon="18.122881705284996"><ele>67.5</ele><time>2026-04-11T12:21:38.95Z</time></trkpt><trkpt lat="40.04708469083886" lon="18.12302178581884"><ele>69.0</ele><time>2026-04-11T12:21:39.95Z</time></trkpt><trkpt lat="40.04718683492707" lon="18.12316031137486"><ele>68.66666666666667</ele><time>2026-04-11T12:21:40.95Z</time></trkpt><trkpt lat="40.047323691104005" lon="18.123356240893298"><ele>68.33333333333334</ele><time>2026-04-11T12:21:41.95Z</time></trkpt><trkpt lat="40.047446884937635" lon="18.123506168393867"><ele>68.0</ele><time>2026-04-11T12:21:42.95Z</time></trkpt><trkpt lat="40.04753405604266" lon="18.123627939980075"><ele>68.0</ele><time>2026-04-11T12:21:43.95Z</time></trkpt><trkpt lat="40.04761241454246" lon="18.12373236635496"><ele>68.0</ele><time>2026-04-11T12:21:44.95Z</time></trkpt><trkpt lat="40.04768316895358" lon="18.123797127866403"><ele>68.0</ele><time>2026-04-11T12:21:45.95Z</time></trkpt><trkpt lat="40.047654190463696" lon="18.123890272331053"><ele>68.0</ele><time>2026-04-11T12:21:49.949Z</time></trkpt><trkpt lat="40.0477177015637" lon="18.123808779571817"><ele>68.0</ele><time>2026-04-11T12:21:53.949Z</time></trkpt><trkpt lat="40.047793422308594" lon="18.123762763661976"><ele>68.0</ele><time>2026-04-11T12:21:54.949Z</time></trkpt><trkpt lat="40.04787270521145" lon="18.123723252643806"><ele>68.0</ele><time>2026-04-11T12:21:55.949Z</time></trkpt><trkpt lat="40.04794108972669" lon="18.123682974635912"><ele>68.0</ele><time>2026-04-11T12:21:56.949Z</time></trkpt><trkpt lat="40.048007854666025" lon="18.123660171769494"><ele>68.0</ele><time>2026-04-11T12:21:57.949Z</time></trkpt><trkpt lat="40.048091815125154" lon="18.12363015022631"><ele>68.0</ele><time>2026-04-11T12:21:59.949Z</time></trkpt><trkpt lat="40.04806367183493" lon="18.123537278503413"><ele>68.0</ele><time>2026-04-11T12:22:01.949Z</time></trkpt><trkpt lat="40.04803263602876" lon="18.123437315597076"><ele>68.0</ele><time>2026-04-11T12:22:03.949Z</time></trkpt><trkpt lat="40.048006593941594" lon="18.123358131115452"><ele>68.0</ele><time>2026-04-11T12:22:05.949Z</time></trkpt><trkpt lat="40.047969405601194" lon="18.123286028407623"><ele>68.0</ele><time>2026-04-11T12:22:07.949Z</time></trkpt><trkpt lat="40.04793842059759" lon="18.12321185171811"><ele>66.0</ele><time>2026-04-11T12:22:09.949Z</time></trkpt><trkpt lat="40.047890236736166" lon="18.123154649312216"><ele>66.0</ele><time>2026-04-11T12:22:11.949Z</time></trkpt><trkpt lat="40.04782628723524" lon="18.12314191110287"><ele>66.0</ele><time>2026-04-11T12:22:13.949Z</time></trkpt><trkpt lat="40.04776168405891" lon="18.123200879471117"><ele>66.0</ele><time>2026-04-11T12:22:16.949Z</time></trkpt></trkseg><trkseg><trkpt lat="40.04781240077007" lon="18.123273981507342"><ele>68.0</ele><time>2026-04-11T12:33:25.945Z</time></trkpt><trkpt lat="40.047907500090425" lon="18.123339574826158"><ele>68.0</ele><time>2026-04-11T12:33:27.945Z</time></trkpt><trkpt lat="40.04798508846816" lon="18.123433828498804"><ele>68.0</ele><time>2026-04-11T12:33:29.945Z</time></trkpt><trkpt lat="40.04801766302356" lon="18.12351381609887"><ele>68.0</ele><time>2026-04-11T12:33:32.945Z</time></trkpt><trkpt lat="40.04796379004131" lon="18.123581886698513"><ele>68.0</ele><time>2026-04-11T12:33:43.945Z</time></trkpt><trkpt lat="40.047847338006804" lon="18.12365070484872"><ele>68.0</ele><time>2026-04-11T12:33:45.945Z</time></trkpt><trkpt lat="40.04773253104021" lon="18.123725108756503"><ele>68.0</ele><time>2026-04-11T12:33:47.945Z</time></trkpt><trkpt lat="40.0476776227635" lon="18.12376804171918"><ele>68.0</ele><time>2026-04-11T12:33:48.945Z</time></trkpt><trkpt lat="40.047581465539636" lon="18.123843088766836"><ele>68.0</ele><time>2026-04-11T12:33:50.943Z</time></trkpt><trkpt lat="40.04750467982865" lon="18.123886611594667"><ele>68.0</ele><time>2026-04-11T12:33:52.944Z</time></trkpt><trkpt lat="40.04744785842708" lon="18.12384582429141"><ele>68.8</ele><time>2026-04-11T12:33:54.943Z</time></trkpt><trkpt lat="40.047409600481075" lon="18.12371522513343"><ele>69.6</ele><time>2026-04-11T12:33:56.943Z</time></trkpt><trkpt lat="40.04738082884686" lon="18.123616751295266"><ele>70.4</ele><time>2026-04-11T12:33:57.943Z</time></trkpt><trkpt lat="40.04733974611071" lon="18.12351787936151"><ele>71.2</ele><time>2026-04-11T12:33:58.944Z</time></trkpt><trkpt lat="40.04728891003965" lon="18.12340619111703"><ele>72.0</ele><time>2026-04-11T12:33:59.944Z</time></trkpt><trkpt lat="40.04722372707801" lon="18.123290076484846"><ele>71.4</ele><time>2026-04-11T12:34:00.944Z</time></trkpt><trkpt lat="40.04715507323423" lon="18.123168812421785"><ele>70.80000000000001</ele><time>2026-04-11T12:34:01.943Z</time></trkpt><trkpt lat="40.04710138865798" lon="18.12304675369842"><ele>70.2</ele><time>2026-04-11T12:34:02.943Z</time></trkpt><trkpt lat="40.04704927852283" lon="18.122917995880808"><ele>69.60000000000001</ele><time>2026-04-11T12:34:03.943Z</time></trkpt><trkpt lat="40.047008763412" lon="18.12278969341367"><ele>69.0</ele><time>2026-04-11T12:34:04.943Z</time></trkpt><trkpt lat="40.046985779047716" lon="18.122672633955677"><ele>69.0</ele><time>2026-04-11T12:34:05.943Z</time></trkpt><trkpt lat="40.04698154625276" lon="18.12254819547533"><ele>69.0</ele><time>2026-04-11T12:34:06.943Z</time></trkpt><trkpt lat="40.04699471013035" lon="18.12244172965498"><ele>69.0</ele><time>2026-04-11T12:34:07.943Z</time></trkpt><trkpt lat="40.047004538646135" lon="18.12235295531446"><ele>69.0</ele><time>2026-04-11T12:34:08.943Z</time></trkpt><trkpt lat="40.047044131921275" lon="18.1222636981998"><ele>69.0</ele><time>2026-04-11T12:34:09.943Z</time></trkpt><trkpt lat="40.047096271649394" lon="18.122206163088794"><ele>69.0</ele><time>2026-04-11T12:34:10.943Z</time></trkpt><trkpt lat="40.047177336680434" lon="18.122171168900806"><ele>68.2</ele><time>2026-04-11T12:34:11.943Z</time></trkpt><trkpt lat="40.047269486658024" lon="18.12214905875599"><ele>67.4</ele><time>2026-04-11T12:34:12.943Z</time></trkpt><trkpt lat="40.0473705823624" lon="18.1221265277735"><ele>66.6</ele><time>2026-04-11T12:34:13.943Z</time></trkpt><trkpt lat="40.04748612590076" lon="18.122112394252948"><ele>65.8</ele><time>2026-04-11T12:34:14.943Z</time></trkpt><trkpt lat="40.04760746350372" lon="18.12208204513386"><ele>65.0</ele><time>2026-04-11T12:34:15.943Z</time></trkpt><trkpt lat="40.04774030019795" lon="18.122036513969718"><ele>65.0</ele><time>2026-04-11T12:34:16.943Z</time></trkpt><trkpt lat="40.04788444980055" lon="18.12198419149416"><ele>65.0</ele><time>2026-04-11T12:34:17.943Z</time></trkpt><trkpt lat="40.048035334917316" lon="18.121931403183112"><ele>65.0</ele><time>2026-04-11T12:34:18.943Z</time></trkpt><trkpt lat="40.048208141666" lon="18.12186043827023"><ele>65.33333333333334</ele><time>2026-04-11T12:34:19.943Z</time></trkpt><trkpt lat="40.048393975782595" lon="18.121793753569957"><ele>65.66666666666667</ele><time>2026-04-11T12:34:20.943Z</time></trkpt><trkpt lat="40.04855359791021" lon="18.121736668776972"><ele>66.0</ele><time>2026-04-11T12:34:21.943Z</time></trkpt><trkpt lat="40.04868492756174" lon="18.121677761110544"><ele>66.0</ele><time>2026-04-11T12:34:22.943Z</time></trkpt><trkpt lat="40.04877787503718" lon="18.121637421514734"><ele>66.0</ele><time>2026-04-11T12:34:23.943Z</time></trkpt><trkpt lat="40.04885697083411" lon="18.12161552735273"><ele>66.0</ele><time>2026-04-11T12:34:24.943Z</time></trkpt><trkpt lat="40.04893869700047" lon="18.12159597464868"><ele>66.0</ele><time>2026-04-11T12:34:26.943Z</time></trkpt><trkpt lat="40.04900870767312" lon="18.121510801222914"><ele>66.0</ele><time>2026-04-11T12:34:35.943Z</time></trkpt><trkpt lat="40.04902768907929" lon="18.121430910436807"><ele>66.0</ele><time>2026-04-11T12:34:36.943Z</time></trkpt><trkpt lat="40.049055348459525" lon="18.121335015270184"><ele>65.25</ele><time>2026-04-11T12:34:37.943Z</time></trkpt><trkpt lat="40.04908019106163" lon="18.121220367516052"><ele>64.5</ele><time>2026-04-11T12:34:38.943Z</time></trkpt><trkpt lat="40.049112632648175" lon="18.12108232396584"><ele>63.75</ele><time>2026-04-11T12:34:39.943Z</time></trkpt><trkpt lat="40.04915506021619" lon="18.120920002759114"><ele>63.0</ele><time>2026-04-11T12:34:40.943Z</time></trkpt><trkpt lat="40.04918867800781" lon="18.120754808998452"><ele>62.75</ele><time>2026-04-11T12:34:41.943Z</time></trkpt><trkpt lat="40.04922591551363" lon="18.120588676119542"><ele>62.5</ele><time>2026-04-11T12:34:42.943Z</time></trkpt><trkpt lat="40.04925238532655" lon="18.120421311166435"><ele>62.25</ele><time>2026-04-11T12:34:43.943Z</time></trkpt><trkpt lat="40.0492749717029" lon="18.120247635453712"><ele>62.0</ele><time>2026-04-11T12:34:44.943Z</time></trkpt><trkpt lat="40.04930475426559" lon="18.12006861205599"><ele>61.75</ele><time>2026-04-11T12:34:45.943Z</time></trkpt><trkpt lat="40.04933422666559" lon="18.119882207997332"><ele>61.5</ele><time>2026-04-11T12:34:46.943Z</time></trkpt><trkpt lat="40.04936469295474" lon="18.119695330421433"><ele>61.25</ele><time>2026-04-11T12:34:47.943Z</time></trkpt><trkpt lat="40.04940491835756" lon="18.1195082982505"><ele>61.0</ele><time>2026-04-11T12:34:48.943Z</time></trkpt><trkpt lat="40.04944045249691" lon="18.119332231917625"><ele>61.0</ele><time>2026-04-11T12:34:49.943Z</time></trkpt><trkpt lat="40.049481539662374" lon="18.119159129116976"><ele>61.0</ele><time>2026-04-11T12:34:50.943Z</time></trkpt><trkpt lat="40.04951680994674" lon="18.11898771177905"><ele>61.0</ele><time>2026-04-11T12:34:51.943Z</time></trkpt><trkpt lat="40.04955386846239" lon="18.1188099305829"><ele>61.0</ele><time>2026-04-11T12:34:52.943Z</time></trkpt><trkpt lat="40.04958804447174" lon="18.118627523412137"><ele>61.0</ele><time>2026-04-11T12:34:53.943Z</time></trkpt><trkpt lat="40.04961891236791" lon="18.11843982591221"><ele>61.0</ele><time>2026-04-11T12:34:54.943Z</time></trkpt><trkpt lat="40.049647063678776" lon="18.118246633061872"><ele>61.0</ele><time>2026-04-11T12:34:55.943Z</time></trkpt><trkpt lat="40.04967433710845" lon="18.118039609410015"><ele>60.33333333333333</ele><time>2026-04-11T12:34:56.943Z</time></trkpt><trkpt lat="40.049693854589314" lon="18.117833190911067"><ele>59.66666666666667</ele><time>2026-04-11T12:34:57.943Z</time></trkpt><trkpt lat="40.04972384599037" lon="18.117619052221453"><ele>59.0</ele><time>2026-04-11T12:34:58.943Z</time></trkpt><trkpt lat="40.04976569884127" lon="18.117402322850502"><ele>58.333333333333336</ele><time>2026-04-11T12:34:59.943Z</time></trkpt><trkpt lat="40.04981035882064" lon="18.117184426138973"><ele>57.66666666666667</ele><time>2026-04-11T12:35:00.943Z</time></trkpt><trkpt lat="40.04985084156554" lon="18.116953280953695"><ele>57.0</ele><time>2026-04-11T12:35:01.943Z</time></trkpt><trkpt lat="40.04989485807977" lon="18.11672436255355"><ele>56.66666666666667</ele><time>2026-04-11T12:35:02.943Z</time></trkpt><trkpt lat="40.049940080409165" lon="18.11648974437752"><ele>56.333333333333336</ele><time>2026-04-11T12:35:03.943Z</time></trkpt><trkpt lat="40.049991013638994" lon="18.116251317420744"><ele>56.0</ele><time>2026-04-11T12:35:04.943Z</time></trkpt><trkpt lat="40.05003701521877" lon="18.11600996200991"><ele>56.0</ele><time>2026-04-11T12:35:05.943Z</time></trkpt><trkpt lat="40.05007860087479" lon="18.11576978176531"><ele>56.0</ele><time>2026-04-11T12:35:06.943Z</time></trkpt><trkpt lat="40.05012541335062" lon="18.11552680897308"><ele>56.0</ele><time>2026-04-11T12:35:07.943Z</time></trkpt><trkpt lat="40.05017847671054" lon="18.115269108168356"><ele>56.0</ele><time>2026-04-11T12:35:08.943Z</time></trkpt><trkpt lat="40.050222844262564" lon="18.11500527030047"><ele>56.0</ele><time>2026-04-11T12:35:09.943Z</time></trkpt><trkpt lat="40.05026647484099" lon="18.114730344596442"><ele>56.0</ele><time>2026-04-11T12:35:10.943Z</time></trkpt><trkpt lat="40.05033951181696" lon="18.11445494632326"><ele>56.0</ele><time>2026-04-11T12:35:11.943Z</time></trkpt><trkpt lat="40.05044323335327" lon="18.114188910051304"><ele>56.0</ele><time>2026-04-11T12:35:12.943Z</time></trkpt><trkpt lat="40.0505301055998" lon="18.11392022313188"><ele>56.25</ele><time>2026-04-11T12:35:13.943Z</time></trkpt><trkpt lat="40.05040567602531" lon="18.113918455716128"><ele>56.5</ele><time>2026-04-11T12:35:14.943Z</time></trkpt><trkpt lat="40.05044738313614" lon="18.113706346744312"><ele>56.75</ele><time>2026-04-11T12:35:15.943Z</time></trkpt><trkpt lat="40.0504771182822" lon="18.11350872057587"><ele>57.0</ele><time>2026-04-11T12:35:16.943Z</time></trkpt><trkpt lat="40.05051418799395" lon="18.11330931035027"><ele>57.0</ele><time>2026-04-11T12:35:17.943Z</time></trkpt><trkpt lat="40.05055030095329" lon="18.11309658941563"><ele>57.0</ele><time>2026-04-11T12:35:18.943Z</time></trkpt><trkpt lat="40.050584551466606" lon="18.112882205752843"><ele>57.0</ele><time>2026-04-11T12:35:19.943Z</time></trkpt><trkpt lat="40.05061512153693" lon="18.11266050668554"><ele>57.0</ele><time>2026-04-11T12:35:20.943Z</time></trkpt><trkpt lat="40.05064974230627" lon="18.112438393825673"><ele>57.0</ele><time>2026-04-11T12:35:21.943Z</time></trkpt><trkpt lat="40.0506913201961" lon="18.11221071762436"><ele>57.0</ele><time>2026-04-11T12:35:22.943Z</time></trkpt><trkpt lat="40.05073922538058" lon="18.111980587756122"><ele>56.66666666666667</ele><time>2026-04-11T12:35:23.943Z</time></trkpt><trkpt lat="40.050788645953155" lon="18.111753104215886"><ele>56.333333333333336</ele><time>2026-04-11T12:35:24.943Z</time></trkpt><trkpt lat="40.05082946738884" lon="18.111538652674056"><ele>56.0</ele><time>2026-04-11T12:35:25.943Z</time></trkpt><trkpt lat="40.050868284212385" lon="18.11133982097431"><ele>56.0</ele><time>2026-04-11T12:35:26.943Z</time></trkpt><trkpt lat="40.050901705502646" lon="18.111148044949527"><ele>56.0</ele><time>2026-04-11T12:35:27.943Z</time></trkpt><trkpt lat="40.05093564178418" lon="18.110970818315078"><ele>56.0</ele><time>2026-04-11T12:35:28.943Z</time></trkpt><trkpt lat="40.050970146474945" lon="18.11081238331842"><ele>56.0</ele><time>2026-04-11T12:35:29.943Z</time></trkpt><trkpt lat="40.051002231554484" lon="18.11065486247086"><ele>55.75</ele><time>2026-04-11T12:35:30.943Z</time></trkpt><trkpt lat="40.051033968695016" lon="18.110494802473"><ele>55.5</ele><time>2026-04-11T12:35:31.943Z</time></trkpt><trkpt lat="40.0510714308983" lon="18.110323451615365"><ele>55.25</ele><time>2026-04-11T12:35:32.943Z</time></trkpt><trkpt lat="40.05109979518964" lon="18.110142596752283"><ele>55.0</ele><time>2026-04-11T12:35:33.943Z</time></trkpt><trkpt lat="40.05113220167901" lon="18.109951544683124"><ele>55.33333333333333</ele><time>2026-04-11T12:35:34.943Z</time></trkpt><trkpt lat="40.051161551890566" lon="18.109746766443173"><ele>55.66666666666667</ele><time>2026-04-11T12:35:35.943Z</time></trkpt><trkpt lat="40.05119628082348" lon="18.10953962898617"><ele>56.0</ele><time>2026-04-11T12:35:36.943Z</time></trkpt><trkpt lat="40.05123592888077" lon="18.10932312616585"><ele>56.0</ele><time>2026-04-11T12:35:37.943Z</time></trkpt><trkpt lat="40.05128639222282" lon="18.10910516755225"><ele>56.0</ele><time>2026-04-11T12:35:38.943Z</time></trkpt><trkpt lat="40.051320247581515" lon="18.10891874163695"><ele>56.0</ele><time>2026-04-11T12:35:39.943Z</time></trkpt><trkpt lat="40.05133993451311" lon="18.108754517501463"><ele>56.0</ele><time>2026-04-11T12:35:40.943Z</time></trkpt><trkpt lat="40.051356081835" lon="18.10861644401094"><ele>56.0</ele><time>2026-04-11T12:35:41.943Z</time></trkpt><trkpt lat="40.05137861276708" lon="18.108494981571535"><ele>55.99999999999999</ele><time>2026-04-11T12:35:42.943Z</time></trkpt><trkpt lat="40.05140353488276" lon="18.108399206361387"><ele>55.99999999999999</ele><time>2026-04-11T12:35:43.943Z</time></trkpt><trkpt lat="40.05145148298539" lon="18.108265613408186"><ele>56.0</ele><time>2026-04-11T12:35:45.943Z</time></trkpt><trkpt lat="40.051548437569" lon="18.108215986131093"><ele>56.0</ele><time>2026-04-11T12:35:47.943Z</time></trkpt><trkpt lat="40.051612616583824" lon="18.108214901838682"><ele>56.0</ele><time>2026-04-11T12:35:48.943Z</time></trkpt><trkpt lat="40.051678245540444" lon="18.108222273067746"><ele>55.99999999999999</ele><time>2026-04-11T12:35:49.943Z</time></trkpt><trkpt lat="40.05176415519406" lon="18.10832490995139"><ele>55.99999999999999</ele><time>2026-04-11T12:35:51.943Z</time></trkpt><trkpt lat="40.05179972610198" lon="18.108430454557787"><ele>56.0</ele><time>2026-04-11T12:35:52.943Z</time></trkpt><trkpt lat="40.051833755515084" lon="18.108571400046696"><ele>56.0</ele><time>2026-04-11T12:35:53.943Z</time></trkpt><trkpt lat="40.051849161681965" lon="18.10873615650409"><ele>56.0</ele><time>2026-04-11T12:35:54.943Z</time></trkpt><trkpt lat="40.05186008700216" lon="18.108916797349977"><ele>56.0</ele><time>2026-04-11T12:35:55.94Z</time></trkpt><trkpt lat="40.051873436199436" lon="18.10911962395145"><ele>56.0</ele><time>2026-04-11T12:35:56.94Z</time></trkpt><trkpt lat="40.051919594251984" lon="18.109330878867286"><ele>55.66666666666667</ele><time>2026-04-11T12:35:57.94Z</time></trkpt><trkpt lat="40.05196336889653" lon="18.109540990357836"><ele>55.33333333333333</ele><time>2026-04-11T12:35:58.94Z</time></trkpt><trkpt lat="40.052010277506604" lon="18.10976279216302"><ele>55.0</ele><time>2026-04-11T12:35:59.941Z</time></trkpt><trkpt lat="40.052056547769446" lon="18.109994390039866"><ele>55.0</ele><time>2026-04-11T12:36:00.941Z</time></trkpt><trkpt lat="40.05211240704402" lon="18.11024514037331"><ele>55.0</ele><time>2026-04-11T12:36:01.94Z</time></trkpt><trkpt lat="40.052170404445654" lon="18.11049121834357"><ele>55.0</ele><time>2026-04-11T12:36:02.941Z</time></trkpt><trkpt lat="40.052246280435504" lon="18.11072947489953"><ele>55.0</ele><time>2026-04-11T12:36:03.941Z</time></trkpt><trkpt lat="40.05232500900039" lon="18.1109563871311"><ele>55.0</ele><time>2026-04-11T12:36:04.94Z</time></trkpt><trkpt lat="40.05241066871051" lon="18.11118372389199"><ele>55.0</ele><time>2026-04-11T12:36:05.941Z</time></trkpt><trkpt lat="40.05249268489457" lon="18.111409793913513"><ele>55.666666666666664</ele><time>2026-04-11T12:36:06.941Z</time></trkpt><trkpt lat="40.052578228935246" lon="18.111639019358808"><ele>56.33333333333333</ele><time>2026-04-11T12:36:07.94Z</time></trkpt><trkpt lat="40.052668392905424" lon="18.11187040751615"><ele>57.0</ele><time>2026-04-11T12:36:08.94Z</time></trkpt><trkpt lat="40.05276446466764" lon="18.112095077575344"><ele>57.0</ele><time>2026-04-11T12:36:09.94Z</time></trkpt><trkpt lat="40.0528721303525" lon="18.112322771782235"><ele>57.0</ele><time>2026-04-11T12:36:10.94Z</time></trkpt><trkpt lat="40.052997708222456" lon="18.112547701943825"><ele>57.0</ele><time>2026-04-11T12:36:11.94Z</time></trkpt><trkpt lat="40.05313110775062" lon="18.112776592297628"><ele>57.0</ele><time>2026-04-11T12:36:12.94Z</time></trkpt><trkpt lat="40.053267194398146" lon="18.113006467762336"><ele>57.0</ele><time>2026-04-11T12:36:13.94Z</time></trkpt><trkpt lat="40.053410627445416" lon="18.113231269392845"><ele>57.0</ele><time>2026-04-11T12:36:14.94Z</time></trkpt><trkpt lat="40.053559827967895" lon="18.11344645705904"><ele>57.0</ele><time>2026-04-11T12:36:15.94Z</time></trkpt><trkpt lat="40.05371207810725" lon="18.113667298481566"><ele>57.0</ele><time>2026-04-11T12:36:16.94Z</time></trkpt><trkpt lat="40.05387378609968" lon="18.11388611141818"><ele>56.5</ele><time>2026-04-11T12:36:17.94Z</time></trkpt><trkpt lat="40.0540559342709" lon="18.114093471451838"><ele>56.0</ele><time>2026-04-11T12:36:18.94Z</time></trkpt><trkpt lat="40.054255537644515" lon="18.114300908350412"><ele>57.0</ele><time>2026-04-11T12:36:19.94Z</time></trkpt><trkpt lat="40.0544655567355" lon="18.114506915323865"><ele>58.0</ele><time>2026-04-11T12:36:20.94Z</time></trkpt><trkpt lat="40.054668779159016" lon="18.11471710485065"><ele>58.0</ele><time>2026-04-11T12:36:21.94Z</time></trkpt><trkpt lat="40.05488160395888" lon="18.11492935270976"><ele>58.0</ele><time>2026-04-11T12:36:22.94Z</time></trkpt><trkpt lat="40.05509638122199" lon="18.115138876261707"><ele>59.0</ele><time>2026-04-11T12:36:23.94Z</time></trkpt><trkpt lat="40.055312854318025" lon="18.115341839261895"><ele>60.0</ele><time>2026-04-11T12:36:24.94Z</time></trkpt><trkpt lat="40.05552726444017" lon="18.115555356294635"><ele>61.5</ele><time>2026-04-11T12:36:25.94Z</time></trkpt><trkpt lat="40.055745377320335" lon="18.11575988229296"><ele>63.0</ele><time>2026-04-11T12:36:26.94Z</time></trkpt><trkpt lat="40.05595371705805" lon="18.11596853016421"><ele>63.5</ele><time>2026-04-11T12:36:27.94Z</time></trkpt><trkpt lat="40.0561692298677" lon="18.116163132491923"><ele>64.0</ele><time>2026-04-11T12:36:28.94Z</time></trkpt><trkpt lat="40.0563809803158" lon="18.116362273238448"><ele>64.0</ele><time>2026-04-11T12:36:29.94Z</time></trkpt><trkpt lat="40.056594235410785" lon="18.11656452772948"><ele>64.0</ele><time>2026-04-11T12:36:30.94Z</time></trkpt><trkpt lat="40.05679806055594" lon="18.116768105472403"><ele>65.0</ele><time>2026-04-11T12:36:31.94Z</time></trkpt><trkpt lat="40.05698494568432" lon="18.11696094602224"><ele>66.0</ele><time>2026-04-11T12:36:32.94Z</time></trkpt><trkpt lat="40.0571614753079" lon="18.117163702667362"><ele>66.0</ele><time>2026-04-11T12:36:33.94Z</time></trkpt><trkpt lat="40.057338937371746" lon="18.11737405910234"><ele>66.0</ele><time>2026-04-11T12:36:34.94Z</time></trkpt><trkpt lat="40.05750067972506" lon="18.11759961884917"><ele>67.66666666666667</ele><time>2026-04-11T12:36:35.94Z</time></trkpt><trkpt lat="40.05763054986898" lon="18.11782456831209"><ele>69.33333333333334</ele><time>2026-04-11T12:36:36.94Z</time></trkpt><trkpt lat="40.05773438279545" lon="18.118045251581208"><ele>71.0</ele><time>2026-04-11T12:36:37.94Z</time></trkpt><trkpt lat="40.05781575046349" lon="18.118236925072264"><ele>71.25</ele><time>2026-04-11T12:36:38.94Z</time></trkpt><trkpt lat="40.05787157939801" lon="18.11838869436515"><ele>71.5</ele><time>2026-04-11T12:36:39.94Z</time></trkpt><trkpt lat="40.05793675825651" lon="18.11852496938653"><ele>71.75</ele><time>2026-04-11T12:36:40.94Z</time></trkpt><trkpt lat="40.057993094296656" lon="18.11866872110714"><ele>72.0</ele><time>2026-04-11T12:36:41.94Z</time></trkpt><trkpt lat="40.05805150022087" lon="18.11880707152719"><ele>72.0</ele><time>2026-04-11T12:36:42.94Z</time></trkpt><trkpt lat="40.05810913346536" lon="18.11894822336905"><ele>72.0</ele><time>2026-04-11T12:36:43.94Z</time></trkpt><trkpt lat="40.05816478626203" lon="18.119095701114947"><ele>72.0</ele><time>2026-04-11T12:36:44.94Z</time></trkpt><trkpt lat="40.05821721063285" lon="18.119255899131854"><ele>72.0</ele><time>2026-04-11T12:36:45.94Z</time></trkpt><trkpt lat="40.058260946779626" lon="18.11940634469069"><ele>73.75</ele><time>2026-04-11T12:36:46.94Z</time></trkpt><trkpt lat="40.058300804599824" lon="18.11957034775063"><ele>75.5</ele><time>2026-04-11T12:36:47.94Z</time></trkpt><trkpt lat="40.05834181359605" lon="18.11973273121082"><ele>77.25</ele><time>2026-04-11T12:36:48.94Z</time></trkpt><trkpt lat="40.058380770041154" lon="18.11989194739105"><ele>79.0</ele><time>2026-04-11T12:36:49.94Z</time></trkpt><trkpt lat="40.058418117905525" lon="18.120064433834266"><ele>80.75</ele><time>2026-04-11T12:36:50.94Z</time></trkpt><trkpt lat="40.05845289739424" lon="18.120229350057606"><ele>82.5</ele><time>2026-04-11T12:36:51.94Z</time></trkpt><trkpt lat="40.058478857736866" lon="18.120391272622044"><ele>84.25</ele><time>2026-04-11T12:36:52.94Z</time></trkpt><trkpt lat="40.05849826140636" lon="18.120557126308157"><ele>86.0</ele><time>2026-04-11T12:36:53.94Z</time></trkpt><trkpt lat="40.058523739863986" lon="18.12071521016081"><ele>87.5</ele><time>2026-04-11T12:36:54.94Z</time></trkpt><trkpt lat="40.05854006344099" lon="18.12087929031516"><ele>89.0</ele><time>2026-04-11T12:36:55.94Z</time></trkpt><trkpt lat="40.05855468487415" lon="18.121042896763356"><ele>90.5</ele><time>2026-04-11T12:36:56.94Z</time></trkpt><trkpt lat="40.05856712523202" lon="18.12120784390406"><ele>92.0</ele><time>2026-04-11T12:36:57.94Z</time></trkpt><trkpt lat="40.058578229073326" lon="18.12137675286346"><ele>92.0</ele><time>2026-04-11T12:36:58.94Z</time></trkpt><trkpt lat="40.05857965931846" lon="18.121554142106696"><ele>92.0</ele><time>2026-04-11T12:36:59.94Z</time></trkpt><trkpt lat="40.058580208683324" lon="18.12173213636634"><ele>92.0</ele><time>2026-04-11T12:37:00.94Z</time></trkpt><trkpt lat="40.05857847261576" lon="18.121908299450187"><ele>92.0</ele><time>2026-04-11T12:37:01.94Z</time></trkpt><trkpt lat="40.058570523899874" lon="18.122082483348763"><ele>93.5</ele><time>2026-04-11T12:37:02.94Z</time></trkpt><trkpt lat="40.05855824245315" lon="18.122253171229595"><ele>95.0</ele><time>2026-04-11T12:37:03.94Z</time></trkpt><trkpt lat="40.058535962639255" lon="18.122419433583325"><ele>96.5</ele><time>2026-04-11T12:37:04.94Z</time></trkpt><trkpt lat="40.05851804873595" lon="18.1225959585628"><ele>98.0</ele><time>2026-04-11T12:37:05.94Z</time></trkpt><trkpt lat="40.0585025029321" lon="18.12276790331851"><ele>100.0</ele><time>2026-04-11T12:37:06.94Z</time></trkpt><trkpt lat="40.058484052138894" lon="18.12292965916329"><ele>102.0</ele><time>2026-04-11T12:37:07.94Z</time></trkpt><trkpt lat="40.05845887056055" lon="18.123098343677285"><ele>104.0</ele><time>2026-04-11T12:37:08.94Z</time></trkpt><trkpt lat="40.05842345997179" lon="18.123267259759256"><ele>106.0</ele><time>2026-04-11T12:37:09.94Z</time></trkpt><trkpt lat="40.05838658015844" lon="18.123434531128808"><ele>106.75</ele><time>2026-04-11T12:37:10.94Z</time></trkpt><trkpt lat="40.058352250229504" lon="18.123592035760804"><ele>107.5</ele><time>2026-04-11T12:37:11.94Z</time></trkpt><trkpt lat="40.05831839462419" lon="18.123754242141157"><ele>108.25</ele><time>2026-04-11T12:37:12.94Z</time></trkpt><trkpt lat="40.05828792209659" lon="18.123916117190156"><ele>109.0</ele><time>2026-04-11T12:37:13.94Z</time></trkpt><trkpt lat="40.05825325016643" lon="18.124081521980244"><ele>109.25</ele><time>2026-04-11T12:37:14.94Z</time></trkpt><trkpt lat="40.05821978176088" lon="18.124249544820152"><ele>109.5</ele><time>2026-04-11T12:37:15.94Z</time></trkpt><trkpt lat="40.058187575639515" lon="18.124416690386862"><ele>109.75</ele><time>2026-04-11T12:37:16.94Z</time></trkpt><trkpt lat="40.05815610129067" lon="18.12458642752911"><ele>110.0</ele><time>2026-04-11T12:37:17.94Z</time></trkpt><trkpt lat="40.05812654005048" lon="18.12475345721874"><ele>110.5</ele><time>2026-04-11T12:37:18.94Z</time></trkpt><trkpt lat="40.05809321911977" lon="18.124927007572584"><ele>111.0</ele><time>2026-04-11T12:37:19.94Z</time></trkpt><trkpt lat="40.05805800090153" lon="18.12510999951815"><ele>111.5</ele><time>2026-04-11T12:37:20.94Z</time></trkpt><trkpt lat="40.05801694411102" lon="18.12529544849348"><ele>112.0</ele><time>2026-04-11T12:37:21.94Z</time></trkpt><trkpt lat="40.057978687429326" lon="18.12547388409402"><ele>112.0</ele><time>2026-04-11T12:37:22.94Z</time></trkpt><trkpt lat="40.05793957890913" lon="18.125655347466694"><ele>112.0</ele><time>2026-04-11T12:37:23.94Z</time></trkpt><trkpt lat="40.05789994590746" lon="18.125832507693158"><ele>112.0</ele><time>2026-04-11T12:37:24.94Z</time></trkpt><trkpt lat="40.057859278414384" lon="18.126006879761913"><ele>112.0</ele><time>2026-04-11T12:37:25.94Z</time></trkpt><trkpt lat="40.05782169840931" lon="18.126178236945545"><ele>113.0</ele><time>2026-04-11T12:37:26.94Z</time></trkpt><trkpt lat="40.05778546196475" lon="18.126350400681538"><ele>114.0</ele><time>2026-04-11T12:37:27.94Z</time></trkpt><trkpt lat="40.05775049647133" lon="18.12652758449617"><ele>115.0</ele><time>2026-04-11T12:37:28.94Z</time></trkpt><trkpt lat="40.057715898953454" lon="18.126706418589894"><ele>116.0</ele><time>2026-04-11T12:37:29.94Z</time></trkpt><trkpt lat="40.05768447091367" lon="18.12689076080691"><ele>117.33333333333333</ele><time>2026-04-11T12:37:30.939Z</time></trkpt><trkpt lat="40.057648131796796" lon="18.127079902756883"><ele>118.66666666666666</ele><time>2026-04-11T12:37:31.939Z</time></trkpt><trkpt lat="40.057619336385805" lon="18.12727970157342"><ele>120.0</ele><time>2026-04-11T12:37:32.939Z</time></trkpt><trkpt lat="40.057581900521875" lon="18.12748963706708"><ele>121.0</ele><time>2026-04-11T12:37:33.939Z</time></trkpt><trkpt lat="40.05753568988064" lon="18.127725954877754"><ele>122.0</ele><time>2026-04-11T12:37:34.939Z</time></trkpt><trkpt lat="40.0574846782924" lon="18.127974160756924"><ele>123.0</ele><time>2026-04-11T12:37:35.939Z</time></trkpt><trkpt lat="40.057430480442434" lon="18.128228460117793"><ele>123.66666666666666</ele><time>2026-04-11T12:37:36.939Z</time></trkpt><trkpt lat="40.057374166927495" lon="18.12850207551909"><ele>124.33333333333333</ele><time>2026-04-11T12:37:37.939Z</time></trkpt><trkpt lat="40.05731880820267" lon="18.128783570770903"><ele>125.0</ele><time>2026-04-11T12:37:38.939Z</time></trkpt><trkpt lat="40.05726048801395" lon="18.129068405892948"><ele>125.0</ele><time>2026-04-11T12:37:39.939Z</time></trkpt><trkpt lat="40.057200933365614" lon="18.129358809195327"><ele>125.0</ele><time>2026-04-11T12:37:40.939Z</time></trkpt><trkpt lat="40.05714190938097" lon="18.129657391630918"><ele>125.5</ele><time>2026-04-11T12:37:41.939Z</time></trkpt><trkpt lat="40.057075059402116" lon="18.129954916631405"><ele>126.0</ele><time>2026-04-11T12:37:42.939Z</time></trkpt><trkpt lat="40.05701187782336" lon="18.13025538611303"><ele>126.0</ele><time>2026-04-11T12:37:43.939Z</time></trkpt><trkpt lat="40.056943344171934" lon="18.130553913061746"><ele>126.0</ele><time>2026-04-11T12:37:44.939Z</time></trkpt><trkpt lat="40.05687800954564" lon="18.130856132433767"><ele>126.5</ele><time>2026-04-11T12:37:45.939Z</time></trkpt><trkpt lat="40.05681299588121" lon="18.131158648067963"><ele>127.0</ele><time>2026-04-11T12:37:46.939Z</time></trkpt><trkpt lat="40.05675258243781" lon="18.131467479366496"><ele>128.5</ele><time>2026-04-11T12:37:47.939Z</time></trkpt><trkpt lat="40.0566857889627" lon="18.131780636765733"><ele>130.0</ele><time>2026-04-11T12:37:48.939Z</time></trkpt><trkpt lat="40.056633137209964" lon="18.132088141596828"><ele>129.5</ele><time>2026-04-11T12:37:49.939Z</time></trkpt><trkpt lat="40.056566852482725" lon="18.132407522277486"><ele>129.0</ele><time>2026-04-11T12:37:50.939Z</time></trkpt><trkpt lat="40.056504260591524" lon="18.13270596392543"><ele>129.0</ele><time>2026-04-11T12:37:51.939Z</time></trkpt><trkpt lat="40.056451942576544" lon="18.132977937906066"><ele>129.0</ele><time>2026-04-11T12:37:52.939Z</time></trkpt><trkpt lat="40.05640669990248" lon="18.133221007414516"><ele>129.0</ele><time>2026-04-11T12:37:53.939Z</time></trkpt><trkpt lat="40.05636339474943" lon="18.133443831509126"><ele>129.66666666666666</ele><time>2026-04-11T12:37:54.939Z</time></trkpt><trkpt lat="40.05632370297081" lon="18.133649341289612"><ele>130.33333333333331</ele><time>2026-04-11T12:37:55.939Z</time></trkpt><trkpt lat="40.05627640908333" lon="18.13385206806483"><ele>131.0</ele><time>2026-04-11T12:37:56.939Z</time></trkpt><trkpt lat="40.05622582448616" lon="18.134032837876628"><ele>131.5</ele><time>2026-04-11T12:37:57.939Z</time></trkpt><trkpt lat="40.05618286341637" lon="18.13419825348482"><ele>132.0</ele><time>2026-04-11T12:37:58.939Z</time></trkpt><trkpt lat="40.05614080433822" lon="18.134351565255727"><ele>132.5</ele><time>2026-04-11T12:37:59.939Z</time></trkpt><trkpt lat="40.05607690909633" lon="18.13448599813374"><ele>133.0</ele><time>2026-04-11T12:38:00.939Z</time></trkpt><trkpt lat="40.05599883667247" lon="18.134593907235345"><ele>133.0</ele><time>2026-04-11T12:38:01.937Z</time></trkpt><trkpt lat="40.05591562565067" lon="18.134664538112485"><ele>133.0</ele><time>2026-04-11T12:38:02.937Z</time></trkpt><trkpt lat="40.05581793085428" lon="18.13472726343773"><ele>133.0</ele><time>2026-04-11T12:38:03.937Z</time></trkpt><trkpt lat="40.055707417871524" lon="18.134786966227608"><ele>133.0</ele><time>2026-04-11T12:38:04.936Z</time></trkpt><trkpt lat="40.05558267085449" lon="18.134856047656477"><ele>133.66666666666669</ele><time>2026-04-11T12:38:05.937Z</time></trkpt><trkpt lat="40.05545300813849" lon="18.13493527958745"><ele>134.33333333333334</ele><time>2026-04-11T12:38:06.937Z</time></trkpt><trkpt lat="40.05531264598695" lon="18.135018833039002"><ele>135.0</ele><time>2026-04-11T12:38:07.937Z</time></trkpt><trkpt lat="40.05517465492133" lon="18.135105273967923"><ele>135.0</ele><time>2026-04-11T12:38:08.937Z</time></trkpt><trkpt lat="40.0550426094904" lon="18.135201654656704"><ele>135.0</ele><time>2026-04-11T12:38:09.937Z</time></trkpt><trkpt lat="40.05491765488743" lon="18.13527747656956"><ele>135.0</ele><time>2026-04-11T12:38:10.937Z</time></trkpt><trkpt lat="40.054800691374496" lon="18.135348603655462"><ele>135.0</ele><time>2026-04-11T12:38:11.937Z</time></trkpt><trkpt lat="40.05469706298761" lon="18.13539922111084"><ele>134.4</ele><time>2026-04-11T12:38:12.937Z</time></trkpt><trkpt lat="40.054600512792554" lon="18.135429464310082"><ele>133.8</ele><time>2026-04-11T12:38:13.937Z</time></trkpt><trkpt lat="40.05449889825173" lon="18.135437715252618"><ele>133.2</ele><time>2026-04-11T12:38:14.937Z</time></trkpt><trkpt lat="40.05439058358888" lon="18.135422588401727"><ele>132.6</ele><time>2026-04-11T12:38:15.937Z</time></trkpt><trkpt lat="40.05427794810749" lon="18.135390947851263"><ele>132.0</ele><time>2026-04-11T12:38:16.937Z</time></trkpt><trkpt lat="40.05415302921544" lon="18.1353486226693"><ele>131.75</ele><time>2026-04-11T12:38:17.937Z</time></trkpt><trkpt lat="40.05402371979656" lon="18.13529814041616"><ele>131.5</ele><time>2026-04-11T12:38:18.937Z</time></trkpt><trkpt lat="40.053894424720106" lon="18.13524491596348"><ele>131.25</ele><time>2026-04-11T12:38:19.937Z</time></trkpt><trkpt lat="40.05376570648783" lon="18.135182808282927"><ele>131.0</ele><time>2026-04-11T12:38:20.937Z</time></trkpt><trkpt lat="40.053649305995236" lon="18.135112888926848"><ele>131.0</ele><time>2026-04-11T12:38:21.937Z</time></trkpt><trkpt lat="40.05354168367222" lon="18.135030986122544"><ele>131.0</ele><time>2026-04-11T12:38:22.937Z</time></trkpt><trkpt lat="40.05344291160442" lon="18.134950410801366"><ele>131.0</ele><time>2026-04-11T12:38:23.937Z</time></trkpt><trkpt lat="40.05335205124158" lon="18.13485710525293"><ele>131.0</ele><time>2026-04-11T12:38:24.937Z</time></trkpt><trkpt lat="40.05327592865462" lon="18.134748674405955"><ele>130.0</ele><time>2026-04-11T12:38:25.937Z</time></trkpt><trkpt lat="40.05319994979758" lon="18.13461642337549"><ele>129.0</ele><time>2026-04-11T12:38:26.937Z</time></trkpt><trkpt lat="40.05312589946719" lon="18.134450190052508"><ele>128.0</ele><time>2026-04-11T12:38:27.936Z</time></trkpt><trkpt lat="40.0530512514633" lon="18.134266895743508"><ele>127.0</ele><time>2026-04-11T12:38:28.936Z</time></trkpt><trkpt lat="40.052975484153926" lon="18.134083512068077"><ele>127.5</ele><time>2026-04-11T12:38:29.936Z</time></trkpt><trkpt lat="40.05289639501174" lon="18.133910242702896"><ele>128.0</ele><time>2026-04-11T12:38:30.936Z</time></trkpt><trkpt lat="40.05281635908858" lon="18.13375845945186"><ele>128.5</ele><time>2026-04-11T12:38:31.936Z</time></trkpt><trkpt lat="40.052746354830326" lon="18.13365759657002"><ele>129.0</ele><time>2026-04-11T12:38:32.936Z</time></trkpt><trkpt lat="40.052679436973165" lon="18.13355484381686"><ele>129.0</ele><time>2026-04-11T12:38:34.936Z</time></trkpt><trkpt lat="40.05263687664038" lon="18.133453625936678"><ele>129.0</ele><time>2026-04-11T12:38:36.936Z</time></trkpt><trkpt lat="40.05259955477933" lon="18.13336486789651"><ele>129.0</ele><time>2026-04-11T12:38:37.936Z</time></trkpt><trkpt lat="40.052556498326354" lon="18.133235546470573"><ele>129.0</ele><time>2026-04-11T12:38:38.936Z</time></trkpt><trkpt lat="40.05247780544942" lon="18.1330979516603"><ele>129.0</ele><time>2026-04-11T12:38:39.936Z</time></trkpt><trkpt lat="40.052396872404124" lon="18.132940726722673"><ele>128.66666666666666</ele><time>2026-04-11T12:38:40.936Z</time></trkpt><trkpt lat="40.05231079403111" lon="18.13275039780457"><ele>128.33333333333331</ele><time>2026-04-11T12:38:41.936Z</time></trkpt><trkpt lat="40.052208859000956" lon="18.132560853781396"><ele>128.0</ele><time>2026-04-11T12:38:42.936Z</time></trkpt><trkpt lat="40.052102415827704" lon="18.132378477107483"><ele>127.5</ele><time>2026-04-11T12:38:43.936Z</time></trkpt><trkpt lat="40.052003386139056" lon="18.132216836273866"><ele>127.0</ele><time>2026-04-11T12:38:44.936Z</time></trkpt><trkpt lat="40.051914328969914" lon="18.13208017679365"><ele>126.5</ele><time>2026-04-11T12:38:45.936Z</time></trkpt><trkpt lat="40.05183424323668" lon="18.131941650086915"><ele>126.0</ele><time>2026-04-11T12:38:46.936Z</time></trkpt><trkpt lat="40.05176606842192" lon="18.13181354428954"><ele>126.0</ele><time>2026-04-11T12:38:47.936Z</time></trkpt><trkpt lat="40.051696852680365" lon="18.13170101063095"><ele>126.0</ele><time>2026-04-11T12:38:48.936Z</time></trkpt><trkpt lat="40.05160043789234" lon="18.13161976750885"><ele>126.0</ele><time>2026-04-11T12:38:49.936Z</time></trkpt><trkpt lat="40.05150939614723" lon="18.131581172840963"><ele>126.0</ele><time>2026-04-11T12:38:50.936Z</time></trkpt><trkpt lat="40.05140351772202" lon="18.131561145924934"><ele>126.0</ele><time>2026-04-11T12:38:51.936Z</time></trkpt><trkpt lat="40.05127695095676" lon="18.131578560533487"><ele>125.5</ele><time>2026-04-11T12:38:52.936Z</time></trkpt><trkpt lat="40.05115007043016" lon="18.131607385883832"><ele>125.0</ele><time>2026-04-11T12:38:53.936Z</time></trkpt><trkpt lat="40.051014660946414" lon="18.131626044379423"><ele>124.5</ele><time>2026-04-11T12:38:54.936Z</time></trkpt><trkpt lat="40.05088955756332" lon="18.131620143360493"><ele>124.0</ele><time>2026-04-11T12:38:55.936Z</time></trkpt><trkpt lat="40.050764687882" lon="18.131614915510262"><ele>123.0</ele><time>2026-04-11T12:38:56.936Z</time></trkpt><trkpt lat="40.050648992947764" lon="18.13159120169947"><ele>122.0</ele><time>2026-04-11T12:38:57.936Z</time></trkpt><trkpt lat="40.05054098780831" lon="18.131576012211326"><ele>121.0</ele><time>2026-04-11T12:38:58.936Z</time></trkpt><trkpt lat="40.050445820470635" lon="18.1315997119347"><ele>120.0</ele><time>2026-04-11T12:38:59.936Z</time></trkpt><trkpt lat="40.05035344604839" lon="18.131556929013524"><ele>119.0</ele><time>2026-04-11T12:39:00.936Z</time></trkpt><trkpt lat="40.05027430537992" lon="18.131495727655068"><ele>117.80000000000001</ele><time>2026-04-11T12:39:01.936Z</time></trkpt><trkpt lat="40.05018809215378" lon="18.131443881105625"><ele>116.60000000000001</ele><time>2026-04-11T12:39:02.936Z</time></trkpt><trkpt lat="40.05011570781446" lon="18.13136667845318"><ele>115.4</ele><time>2026-04-11T12:39:03.936Z</time></trkpt><trkpt lat="40.05006970087265" lon="18.131262041530107"><ele>114.2</ele><time>2026-04-11T12:39:04.936Z</time></trkpt><trkpt lat="40.05004951619654" lon="18.131145759534363"><ele>113.0</ele><time>2026-04-11T12:39:05.936Z</time></trkpt><trkpt lat="40.05004838812791" lon="18.131019119281127"><ele>113.0</ele><time>2026-04-11T12:39:06.936Z</time></trkpt><trkpt lat="40.050070671818304" lon="18.130894423365238"><ele>113.00000000000001</ele><time>2026-04-11T12:39:07.936Z</time></trkpt><trkpt lat="40.05011167868141" lon="18.130782318848823"><ele>113.00000000000001</ele><time>2026-04-11T12:39:08.936Z</time></trkpt><trkpt lat="40.05016646052025" lon="18.13068379038582"><ele>113.0</ele><time>2026-04-11T12:39:09.936Z</time></trkpt><trkpt lat="40.05023967056721" lon="18.130592955773174"><ele>113.0</ele><time>2026-04-11T12:39:10.936Z</time></trkpt><trkpt lat="40.050338518764505" lon="18.13050146505124"><ele>111.0</ele><time>2026-04-11T12:39:11.936Z</time></trkpt><trkpt lat="40.050483513727436" lon="18.130433847010625"><ele>109.0</ele><time>2026-04-11T12:39:12.936Z</time></trkpt><trkpt lat="40.050637467084975" lon="18.130349923451895"><ele>107.0</ele><time>2026-04-11T12:39:13.936Z</time></trkpt><trkpt lat="40.05079106207868" lon="18.1302622720607"><ele>108.0</ele><time>2026-04-11T12:39:14.936Z</time></trkpt><trkpt lat="40.050933762684224" lon="18.130191552113597"><ele>109.0</ele><time>2026-04-11T12:39:15.936Z</time></trkpt><trkpt lat="40.051051756817174" lon="18.130139363433965"><ele>110.0</ele><time>2026-04-11T12:39:16.936Z</time></trkpt><trkpt lat="40.051148768395436" lon="18.130092006826448"><ele>111.0</ele><time>2026-04-11T12:39:17.936Z</time></trkpt><trkpt lat="40.05122976768836" lon="18.130039283099403"><ele>111.0</ele><time>2026-04-11T12:39:18.936Z</time></trkpt><trkpt lat="40.05129661654519" lon="18.12999747148416"><ele>111.0</ele><time>2026-04-11T12:39:19.936Z</time></trkpt><trkpt lat="40.05136360165298" lon="18.12983766328615"><ele>111.0</ele><time>2026-04-11T12:39:21.936Z</time></trkpt><trkpt lat="40.051377430428545" lon="18.129741659224457"><ele>111.0</ele><time>2026-04-11T12:39:22.936Z</time></trkpt><trkpt lat="40.05136833795515" lon="18.129653294867953"><ele>111.0</ele><time>2026-04-11T12:39:23.936Z</time></trkpt><trkpt lat="40.05133966183994" lon="18.129496578234573"><ele>109.66666666666667</ele><time>2026-04-11T12:39:25.936Z</time></trkpt><trkpt lat="40.051304723160584" lon="18.129417399678253"><ele>108.33333333333334</ele><time>2026-04-11T12:39:26.936Z</time></trkpt><trkpt lat="40.05123996165342" lon="18.129333484790664"><ele>107.0</ele><time>2026-04-11T12:39:27.936Z</time></trkpt><trkpt lat="40.05118230994388" lon="18.129287124195812"><ele>105.66666666666667</ele><time>2026-04-11T12:39:28.936Z</time></trkpt><trkpt lat="40.05112178913044" lon="18.129251841135144"><ele>104.33333333333334</ele><time>2026-04-11T12:39:29.936Z</time></trkpt><trkpt lat="40.05102294956109" lon="18.12925004764625"><ele>103.0</ele><time>2026-04-11T12:39:30.936Z</time></trkpt><trkpt lat="40.05092957898061" lon="18.12927601333187"><ele>103.0</ele><time>2026-04-11T12:39:31.936Z</time></trkpt><trkpt lat="40.05081601936893" lon="18.12929493683071"><ele>103.0</ele><time>2026-04-11T12:39:32.936Z</time></trkpt><trkpt lat="40.0507082905537" lon="18.129306989865423"><ele>103.0</ele><time>2026-04-11T12:39:33.936Z</time></trkpt><trkpt lat="40.05061761494282" lon="18.129313736708255"><ele>103.0</ele><time>2026-04-11T12:39:34.936Z</time></trkpt><trkpt lat="40.05053557644766" lon="18.12930718799406"><ele>103.0</ele><time>2026-04-11T12:39:35.936Z</time></trkpt><trkpt lat="40.05046704515082" lon="18.129294555693225"><ele>101.80000000000001</ele><time>2026-04-11T12:39:36.936Z</time></trkpt><trkpt lat="40.05038186904954" lon="18.12926771356144"><ele>100.6</ele><time>2026-04-11T12:39:38.936Z</time></trkpt><trkpt lat="40.05031431278462" lon="18.12924074639023"><ele>99.4</ele><time>2026-04-11T12:39:39.936Z</time></trkpt><trkpt lat="40.05023720170653" lon="18.12917536350625"><ele>98.19999999999999</ele><time>2026-04-11T12:39:41.936Z</time></trkpt><trkpt lat="40.050153507884005" lon="18.12917262479465"><ele>97.0</ele><time>2026-04-11T12:39:43.936Z</time></trkpt><trkpt lat="40.050027758741095" lon="18.129240729060694"><ele>96.16666666666667</ele><time>2026-04-11T12:39:45.936Z</time></trkpt><trkpt lat="40.04994650468885" lon="18.1292846883513"><ele>95.33333333333334</ele><time>2026-04-11T12:39:46.936Z</time></trkpt><trkpt lat="40.049864317585744" lon="18.129319232687244"><ele>94.5</ele><time>2026-04-11T12:39:47.936Z</time></trkpt><trkpt lat="40.049785735735725" lon="18.129355383476536"><ele>93.66666666666667</ele><time>2026-04-11T12:39:48.936Z</time></trkpt><trkpt lat="40.04972379463914" lon="18.129393258771596"><ele>92.83333333333334</ele><time>2026-04-11T12:39:49.936Z</time></trkpt><trkpt lat="40.0496235112147" lon="18.12942459172052"><ele>92.0</ele><time>2026-04-11T12:39:51.936Z</time></trkpt><trkpt lat="40.04955131559778" lon="18.129334838431593"><ele>92.0</ele><time>2026-04-11T12:39:53.936Z</time></trkpt><trkpt lat="40.049491862290964" lon="18.12921638571756"><ele>92.0</ele><time>2026-04-11T12:39:55.936Z</time></trkpt><trkpt lat="40.04944633679293" lon="18.129158584623564"><ele>92.0</ele><time>2026-04-11T12:39:56.936Z</time></trkpt><trkpt lat="40.04940208888749" lon="18.12908879213136"><ele>92.0</ele><time>2026-04-11T12:39:57.936Z</time></trkpt><trkpt lat="40.04936605052203" lon="18.12899155416115"><ele>92.0</ele><time>2026-04-11T12:39:58.936Z</time></trkpt><trkpt lat="40.04931430239423" lon="18.128906017409886"><ele>92.0</ele><time>2026-04-11T12:39:59.936Z</time></trkpt><trkpt lat="40.04926938499431" lon="18.128808384962728"><ele>91.0</ele><time>2026-04-11T12:40:00.936Z</time></trkpt><trkpt lat="40.04922726455388" lon="18.128702550995904"><ele>90.0</ele><time>2026-04-11T12:40:01.936Z</time></trkpt><trkpt lat="40.049175436487694" lon="18.12860434892276"><ele>89.0</ele><time>2026-04-11T12:40:02.936Z</time></trkpt><trkpt lat="40.04912616845635" lon="18.128498169303832"><ele>88.0</ele><time>2026-04-11T12:40:03.936Z</time></trkpt><trkpt lat="40.0490787202958" lon="18.128377637906826"><ele>87.0</ele><time>2026-04-11T12:40:04.936Z</time></trkpt><trkpt lat="40.049022038253234" lon="18.128262757964375"><ele>85.39999999999999</ele><time>2026-04-11T12:40:05.936Z</time></trkpt><trkpt lat="40.0489608759949" lon="18.128140881084704"><ele>83.8</ele><time>2026-04-11T12:40:06.936Z</time></trkpt><trkpt lat="40.04890039991432" lon="18.128018561775416"><ele>82.2</ele><time>2026-04-11T12:40:07.935Z</time></trkpt><trkpt lat="40.048846448914475" lon="18.127893892857884"><ele>80.6</ele><time>2026-04-11T12:40:08.934Z</time></trkpt><trkpt lat="40.04879036287288" lon="18.12776307672834"><ele>79.0</ele><time>2026-04-11T12:40:09.934Z</time></trkpt><trkpt lat="40.0487383203486" lon="18.127629968838747"><ele>79.0</ele><time>2026-04-11T12:40:10.934Z</time></trkpt><trkpt lat="40.04869284759875" lon="18.127493023426272"><ele>79.0</ele><time>2026-04-11T12:40:11.934Z</time></trkpt><trkpt lat="40.04864447539647" lon="18.127356748844687"><ele>79.0</ele><time>2026-04-11T12:40:12.934Z</time></trkpt><trkpt lat="40.04860055937673" lon="18.12722077923641"><ele>79.0</ele><time>2026-04-11T12:40:13.934Z</time></trkpt><trkpt lat="40.048556670977966" lon="18.127088257044235"><ele>78.60000000000001</ele><time>2026-04-11T12:40:14.934Z</time></trkpt><trkpt lat="40.04851760613692" lon="18.126960562819356"><ele>78.2</ele><time>2026-04-11T12:40:15.934Z</time></trkpt><trkpt lat="40.048471552955085" lon="18.12685119019748"><ele>77.80000000000001</ele><time>2026-04-11T12:40:16.934Z</time></trkpt><trkpt lat="40.04843025975207" lon="18.126762529501804"><ele>77.4</ele><time>2026-04-11T12:40:17.934Z</time></trkpt><trkpt lat="40.04837562513676" lon="18.12665143292286"><ele>77.0</ele><time>2026-04-11T12:40:19.934Z</time></trkpt><trkpt lat="40.04829482914075" lon="18.12648517626568"><ele>75.75</ele><time>2026-04-11T12:40:21.934Z</time></trkpt><trkpt lat="40.04824002533282" lon="18.12635284881141"><ele>74.5</ele><time>2026-04-11T12:40:22.934Z</time></trkpt><trkpt lat="40.04818254416254" lon="18.12617689884293"><ele>73.25</ele><time>2026-04-11T12:40:23.934Z</time></trkpt><trkpt lat="40.04812031760407" lon="18.12601045533833"><ele>72.0</ele><time>2026-04-11T12:40:24.934Z</time></trkpt><trkpt lat="40.04805105243252" lon="18.125877779570036"><ele>72.0</ele><time>2026-04-11T12:40:25.934Z</time></trkpt><trkpt lat="40.047986277528416" lon="18.125784431226386"><ele>72.0</ele><time>2026-04-11T12:40:26.934Z</time></trkpt><trkpt lat="40.04794430475324" lon="18.125691927725573"><ele>72.0</ele><time>2026-04-11T12:40:27.934Z</time></trkpt><trkpt lat="40.04789829399049" lon="18.125529923486408"><ele>72.0</ele><time>2026-04-11T12:40:29.934Z</time></trkpt><trkpt lat="40.047861939640015" lon="18.125441593643824"><ele>72.0</ele><time>2026-04-11T12:40:30.934Z</time></trkpt><trkpt lat="40.04782433757002" lon="18.125363646167546"><ele>71.83333333333333</ele><time>2026-04-11T12:40:31.934Z</time></trkpt><trkpt lat="40.0477922039279" lon="18.125277991323465"><ele>71.66666666666667</ele><time>2026-04-11T12:40:32.934Z</time></trkpt><trkpt lat="40.047752216434155" lon="18.12519696891794"><ele>71.5</ele><time>2026-04-11T12:40:33.934Z</time></trkpt><trkpt lat="40.04771038571092" lon="18.125123220753693"><ele>71.33333333333334</ele><time>2026-04-11T12:40:34.934Z</time></trkpt><trkpt lat="40.047688105433636" lon="18.12495595959841"><ele>71.16666666666667</ele><time>2026-04-11T12:40:36.934Z</time></trkpt><trkpt lat="40.047647668309665" lon="18.12487255409176"><ele>71.0</ele><time>2026-04-11T12:40:37.934Z</time></trkpt><trkpt lat="40.047608183137115" lon="18.124780461510163"><ele>71.0</ele><time>2026-04-11T12:40:38.934Z</time></trkpt><trkpt lat="40.0475722824247" lon="18.124683208229104"><ele>71.0</ele><time>2026-04-11T12:40:39.934Z</time></trkpt><trkpt lat="40.04753624495243" lon="18.12458894563662"><ele>71.0</ele><time>2026-04-11T12:40:40.934Z</time></trkpt><trkpt lat="40.047499536456954" lon="18.124500911179382"><ele>71.0</ele><time>2026-04-11T12:40:41.934Z</time></trkpt><trkpt lat="40.04746894618743" lon="18.124410371921773"><ele>71.0</ele><time>2026-04-11T12:40:42.934Z</time></trkpt><trkpt lat="40.04743085464571" lon="18.124327468436345"><ele>71.0</ele><time>2026-04-11T12:40:43.934Z</time></trkpt><trkpt lat="40.0473945302976" lon="18.124253703749705"><ele>71.0</ele><time>2026-04-11T12:40:44.934Z</time></trkpt><trkpt lat="40.04736615119005" lon="18.124159088326422"><ele>71.0</ele><time>2026-04-11T12:40:46.934Z</time></trkpt><trkpt lat="40.047336113820776" lon="18.124082911017222"><ele>71.0</ele><time>2026-04-11T12:41:05.934Z</time></trkpt><trkpt lat="40.04724255657078" lon="18.124125792682474"><ele>71.0</ele><time>2026-04-11T12:41:07.934Z</time></trkpt><trkpt lat="40.047169033967975" lon="18.124190964462134"><ele>71.0</ele><time>2026-04-11T12:41:08.934Z</time></trkpt><trkpt lat="40.047090615448305" lon="18.124248044296667"><ele>71.0</ele><time>2026-04-11T12:41:09.934Z</time></trkpt><trkpt lat="40.047001230757694" lon="18.12431194315913"><ele>71.0</ele><time>2026-04-11T12:41:10.934Z</time></trkpt><trkpt lat="40.046900463769" lon="18.12437483478383"><ele>71.0</ele><time>2026-04-11T12:41:11.934Z</time></trkpt><trkpt lat="40.04678143493191" lon="18.124431666632304"><ele>71.0</ele><time>2026-04-11T12:41:12.934Z</time></trkpt><trkpt lat="40.046668530199575" lon="18.124499703129608"><ele>71.0</ele><time>2026-04-11T12:41:13.934Z</time></trkpt><trkpt lat="40.0465495055268" lon="18.12457444663574"><ele>71.75</ele><time>2026-04-11T12:41:14.934Z</time></trkpt><trkpt lat="40.04644130589294" lon="18.124637445233244"><ele>72.5</ele><time>2026-04-11T12:41:15.934Z</time></trkpt><trkpt lat="40.04634103366842" lon="18.12470611702874"><ele>73.25</ele><time>2026-04-11T12:41:16.934Z</time></trkpt><trkpt lat="40.0462339049897" lon="18.124776367361626"><ele>74.0</ele><time>2026-04-11T12:41:17.934Z</time></trkpt><trkpt lat="40.04612923009583" lon="18.124857153914167"><ele>73.75</ele><time>2026-04-11T12:41:18.934Z</time></trkpt><trkpt lat="40.04602087866699" lon="18.12493458489815"><ele>73.5</ele><time>2026-04-11T12:41:19.934Z</time></trkpt><trkpt lat="40.0459068785997" lon="18.125014543867767"><ele>73.25</ele><time>2026-04-11T12:41:20.934Z</time></trkpt><trkpt lat="40.04580413759975" lon="18.12507298286007"><ele>73.0</ele><time>2026-04-11T12:41:21.934Z</time></trkpt><trkpt lat="40.04570637765782" lon="18.12513384473267"><ele>72.6</ele><time>2026-04-11T12:41:22.934Z</time></trkpt><trkpt lat="40.045619212944096" lon="18.125197764874333"><ele>72.19999999999999</ele><time>2026-04-11T12:41:23.934Z</time></trkpt><trkpt lat="40.04552966749127" lon="18.125263072099102"><ele>71.8</ele><time>2026-04-11T12:41:24.934Z</time></trkpt><trkpt lat="40.04543857762057" lon="18.12532973472116"><ele>71.39999999999999</ele><time>2026-04-11T12:41:25.934Z</time></trkpt><trkpt lat="40.04533890855854" lon="18.12539028427422"><ele>71.0</ele><time>2026-04-11T12:41:26.934Z</time></trkpt><trkpt lat="40.04524142919151" lon="18.125452942116013"><ele>71.0</ele><time>2026-04-11T12:41:27.934Z</time></trkpt><trkpt lat="40.045151476536496" lon="18.125512985057938"><ele>71.0</ele><time>2026-04-11T12:41:28.934Z</time></trkpt><trkpt lat="40.045057591689435" lon="18.125570150189013"><ele>71.0</ele><time>2026-04-11T12:41:29.934Z</time></trkpt><trkpt lat="40.04495872915878" lon="18.12563351332532"><ele>71.0</ele><time>2026-04-11T12:41:30.934Z</time></trkpt><trkpt lat="40.044857072941824" lon="18.12569576278199"><ele>71.0</ele><time>2026-04-11T12:41:31.934Z</time></trkpt><trkpt lat="40.04476909911447" lon="18.12575762518046"><ele>70.8</ele><time>2026-04-11T12:41:32.934Z</time></trkpt><trkpt lat="40.04467539527542" lon="18.125819968607644"><ele>70.6</ele><time>2026-04-11T12:41:33.934Z</time></trkpt><trkpt lat="40.044583090635655" lon="18.12588633694533"><ele>70.4</ele><time>2026-04-11T12:41:34.934Z</time></trkpt><trkpt lat="40.04449249641749" lon="18.125951513535178"><ele>70.2</ele><time>2026-04-11T12:41:35.934Z</time></trkpt><trkpt lat="40.044400417474236" lon="18.126013023485484"><ele>70.0</ele><time>2026-04-11T12:41:36.934Z</time></trkpt><trkpt lat="40.04431644292805" lon="18.126069950569214"><ele>70.0</ele><time>2026-04-11T12:41:37.934Z</time></trkpt><trkpt lat="40.04423492185902" lon="18.12612587216255"><ele>70.0</ele><time>2026-04-11T12:41:38.934Z</time></trkpt><trkpt lat="40.04414913127091" lon="18.126183866125018"><ele>70.0</ele><time>2026-04-11T12:41:39.934Z</time></trkpt><trkpt lat="40.04406608149447" lon="18.12623955660579"><ele>70.0</ele><time>2026-04-11T12:41:40.934Z</time></trkpt><trkpt lat="40.04397936659284" lon="18.126296035726334"><ele>70.0</ele><time>2026-04-11T12:41:41.934Z</time></trkpt><trkpt lat="40.043896030579404" lon="18.12635438797436"><ele>70.0</ele><time>2026-04-11T12:41:42.934Z</time></trkpt><trkpt lat="40.043818310157654" lon="18.12640966801596"><ele>70.0</ele><time>2026-04-11T12:41:43.934Z</time></trkpt><trkpt lat="40.04374307274558" lon="18.126462555609375"><ele>70.0</ele><time>2026-04-11T12:41:44.934Z</time></trkpt><trkpt lat="40.04366238747155" lon="18.126520359925383"><ele>70.0</ele><time>2026-04-11T12:41:45.934Z</time></trkpt><trkpt lat="40.0435772635832" lon="18.12658284139026"><ele>70.0</ele><time>2026-04-11T12:41:46.934Z</time></trkpt><trkpt lat="40.04348786719191" lon="18.12664520426644"><ele>70.0</ele><time>2026-04-11T12:41:47.934Z</time></trkpt><trkpt lat="40.04339281229269" lon="18.126711676748894"><ele>70.0</ele><time>2026-04-11T12:41:48.934Z</time></trkpt><trkpt lat="40.043286882114394" lon="18.126782239009607"><ele>70.0</ele><time>2026-04-11T12:41:49.934Z</time></trkpt><trkpt lat="40.04317357960774" lon="18.12685079576362"><ele>70.0</ele><time>2026-04-11T12:41:50.934Z</time></trkpt><trkpt lat="40.043062380197725" lon="18.126924819063913"><ele>70.0</ele><time>2026-04-11T12:41:51.934Z</time></trkpt><trkpt lat="40.042964560070736" lon="18.12699824304307"><ele>70.0</ele><time>2026-04-11T12:41:52.934Z</time></trkpt><trkpt lat="40.0428741890738" lon="18.127067195023645"><ele>70.0</ele><time>2026-04-11T12:41:53.934Z</time></trkpt><trkpt lat="40.04277741341815" lon="18.127132926477977"><ele>70.0</ele><time>2026-04-11T12:41:54.934Z</time></trkpt><trkpt lat="40.04267872599939" lon="18.12719903189714"><ele>70.0</ele><time>2026-04-11T12:41:55.934Z</time></trkpt><trkpt lat="40.04258081915853" lon="18.12726777524319"><ele>70.0</ele><time>2026-04-11T12:41:56.933Z</time></trkpt><trkpt lat="40.04248068127576" lon="18.12733958449526"><ele>70.0</ele><time>2026-04-11T12:41:57.933Z</time></trkpt><trkpt lat="40.042373209953254" lon="18.127415387678013"><ele>70.0</ele><time>2026-04-11T12:41:58.933Z</time></trkpt><trkpt lat="40.042260468436076" lon="18.127492926592293"><ele>70.0</ele><time>2026-04-11T12:41:59.933Z</time></trkpt><trkpt lat="40.04215802719046" lon="18.127564125475384"><ele>70.4</ele><time>2026-04-11T12:42:00.933Z</time></trkpt><trkpt lat="40.042057820032355" lon="18.127622389140683"><ele>70.8</ele><time>2026-04-11T12:42:01.933Z</time></trkpt><trkpt lat="40.04195875012964" lon="18.127680957452082"><ele>71.2</ele><time>2026-04-11T12:42:02.933Z</time></trkpt><trkpt lat="40.041861297077396" lon="18.127743771167733"><ele>71.6</ele><time>2026-04-11T12:42:03.933Z</time></trkpt><trkpt lat="40.04176751860476" lon="18.127814265434335"><ele>72.0</ele><time>2026-04-11T12:42:04.933Z</time></trkpt><trkpt lat="40.04166904358255" lon="18.127878004079683"><ele>71.83333333333333</ele><time>2026-04-11T12:42:05.933Z</time></trkpt><trkpt lat="40.04158339226295" lon="18.12793805438925"><ele>71.66666666666667</ele><time>2026-04-11T12:42:06.933Z</time></trkpt><trkpt lat="40.041503592896156" lon="18.127994030952735"><ele>71.5</ele><time>2026-04-11T12:42:07.933Z</time></trkpt><trkpt lat="40.04144108355366" lon="18.128046840295244"><ele>71.33333333333334</ele><time>2026-04-11T12:42:08.933Z</time></trkpt><trkpt lat="40.04138399228887" lon="18.128088804256624"><ele>71.16666666666667</ele><time>2026-04-11T12:42:09.933Z</time></trkpt><trkpt lat="40.041301850208015" lon="18.1281637251698"><ele>71.0</ele><time>2026-04-11T12:42:11.933Z</time></trkpt><trkpt lat="40.04129365416001" lon="18.12828640884812"><ele>71.0</ele><time>2026-04-11T12:42:13.932Z</time></trkpt><trkpt lat="40.041351134845996" lon="18.128394308028895"><ele>71.0</ele><time>2026-04-11T12:42:15.931Z</time></trkpt><trkpt lat="40.0414044706556" lon="18.128487493855594"><ele>71.0</ele><time>2026-04-11T12:42:17.932Z</time></trkpt><trkpt lat="40.041461088906956" lon="18.128653189244453"><ele>71.0</ele><time>2026-04-11T12:42:19.931Z</time></trkpt><trkpt lat="40.04147576909947" lon="18.12878840835015"><ele>71.0</ele><time>2026-04-11T12:42:20.932Z</time></trkpt><trkpt lat="40.04148727348383" lon="18.12896254950817"><ele>73.33333333333334</ele><time>2026-04-11T12:42:21.932Z</time></trkpt><trkpt lat="40.04149638462903" lon="18.129173722239106"><ele>75.66666666666667</ele><time>2026-04-11T12:42:22.931Z</time></trkpt><trkpt lat="40.041507860288746" lon="18.129398588732325"><ele>78.0</ele><time>2026-04-11T12:42:23.932Z</time></trkpt><trkpt lat="40.04151691986719" lon="18.129592020373483"><ele>78.0</ele><time>2026-04-11T12:42:24.932Z</time></trkpt><trkpt lat="40.04152075911579" lon="18.1298087667232"><ele>78.0</ele><time>2026-04-11T12:42:25.931Z</time></trkpt><trkpt lat="40.04152980031434" lon="18.13002623309108"><ele>78.0</ele><time>2026-04-11T12:42:26.931Z</time></trkpt><trkpt lat="40.04155159193451" lon="18.130236657823946"><ele>79.6</ele><time>2026-04-11T12:42:27.931Z</time></trkpt><trkpt lat="40.04156569781783" lon="18.130403251059445"><ele>81.19999999999999</ele><time>2026-04-11T12:42:28.931Z</time></trkpt><trkpt lat="40.0415883011837" lon="18.130528608870478"><ele>82.8</ele><time>2026-04-11T12:42:29.931Z</time></trkpt><trkpt lat="40.04159925711187" lon="18.130640598663387"><ele>84.39999999999999</ele><time>2026-04-11T12:42:30.931Z</time></trkpt><trkpt lat="40.0416160399188" lon="18.13072461321996"><ele>86.0</ele><time>2026-04-11T12:42:31.931Z</time></trkpt><trkpt lat="40.041649755459" lon="18.13084050549449"><ele>87.8</ele><time>2026-04-11T12:42:33.931Z</time></trkpt><trkpt lat="40.04166204658514" lon="18.13092472194722"><ele>89.6</ele><time>2026-04-11T12:42:34.931Z</time></trkpt><trkpt lat="40.04167290192136" lon="18.131047524630542"><ele>91.4</ele><time>2026-04-11T12:42:35.931Z</time></trkpt><trkpt lat="40.04169924089344" lon="18.131198992275433"><ele>93.2</ele><time>2026-04-11T12:42:36.931Z</time></trkpt><trkpt lat="40.041731713480274" lon="18.13137276531264"><ele>95.0</ele><time>2026-04-11T12:42:37.931Z</time></trkpt><trkpt lat="40.04175133450555" lon="18.131551856821094"><ele>96.2</ele><time>2026-04-11T12:42:38.931Z</time></trkpt><trkpt lat="40.041750117829864" lon="18.131706797580716"><ele>97.4</ele><time>2026-04-11T12:42:39.931Z</time></trkpt><trkpt lat="40.04174015670957" lon="18.131846972403025"><ele>98.6</ele><time>2026-04-11T12:42:40.931Z</time></trkpt><trkpt lat="40.041738334687246" lon="18.13196025100296"><ele>99.8</ele><time>2026-04-11T12:42:41.931Z</time></trkpt><trkpt lat="40.04174046714211" lon="18.132065559870245"><ele>101.0</ele><time>2026-04-11T12:42:42.931Z</time></trkpt><trkpt lat="40.04177174703368" lon="18.132162332721762"><ele>101.0</ele><time>2026-04-11T12:42:43.931Z</time></trkpt><trkpt lat="40.04177625794247" lon="18.132273725948657"><ele>101.0</ele><time>2026-04-11T12:42:44.931Z</time></trkpt><trkpt lat="40.041770982845854" lon="18.132368224183654"><ele>101.0</ele><time>2026-04-11T12:42:45.931Z</time></trkpt><trkpt lat="40.04175778551713" lon="18.13250565053184"><ele>101.0</ele><time>2026-04-11T12:42:47.931Z</time></trkpt><trkpt lat="40.041734654361704" lon="18.132616583926215"><ele>101.0</ele><time>2026-04-11T12:42:50.931Z</time></trkpt><trkpt lat="40.04178297593047" lon="18.132768893126038"><ele>102.19999999999999</ele><time>2026-04-11T12:42:52.931Z</time></trkpt><trkpt lat="40.0417996566204" lon="18.132885660462314"><ele>103.39999999999999</ele><time>2026-04-11T12:42:53.931Z</time></trkpt><trkpt lat="40.04180807099587" lon="18.133003407715506"><ele>104.6</ele><time>2026-04-11T12:42:54.931Z</time></trkpt><trkpt lat="40.041821149592614" lon="18.133131832546667"><ele>105.8</ele><time>2026-04-11T12:42:55.931Z</time></trkpt><trkpt lat="40.04183237062643" lon="18.13328150239304"><ele>107.0</ele><time>2026-04-11T12:42:56.931Z</time></trkpt><trkpt lat="40.041835698913474" lon="18.133454753543283"><ele>107.5</ele><time>2026-04-11T12:42:57.931Z</time></trkpt><trkpt lat="40.041845721207316" lon="18.133651932364035"><ele>108.0</ele><time>2026-04-11T12:42:58.931Z</time></trkpt><trkpt lat="40.041863848880745" lon="18.133829516106694"><ele>108.5</ele><time>2026-04-11T12:42:59.931Z</time></trkpt><trkpt lat="40.04189368829965" lon="18.133965302874692"><ele>109.0</ele><time>2026-04-11T12:43:00.931Z</time></trkpt><trkpt lat="40.0419289458201" lon="18.13408918277393"><ele>109.5</ele><time>2026-04-11T12:43:01.931Z</time></trkpt><trkpt lat="40.04199992965201" lon="18.13421060738613"><ele>110.0</ele><time>2026-04-11T12:43:02.931Z</time></trkpt><trkpt lat="40.042090346498476" lon="18.134323526969798"><ele>110.5</ele><time>2026-04-11T12:43:03.931Z</time></trkpt><trkpt lat="40.04220581811025" lon="18.134428989430607"><ele>111.0</ele><time>2026-04-11T12:43:04.931Z</time></trkpt><trkpt lat="40.0423434913402" lon="18.134530302618575"><ele>110.0</ele><time>2026-04-11T12:43:05.931Z</time></trkpt><trkpt lat="40.04249275349218" lon="18.13462636181531"><ele>109.0</ele><time>2026-04-11T12:43:06.931Z</time></trkpt><trkpt lat="40.042666070677875" lon="18.134729534152015"><ele>108.0</ele><time>2026-04-11T12:43:07.931Z</time></trkpt><trkpt lat="40.04285433298254" lon="18.134847689305786"><ele>110.0</ele><time>2026-04-11T12:43:08.931Z</time></trkpt><trkpt lat="40.04306972533417" lon="18.134965908086013"><ele>112.0</ele><time>2026-04-11T12:43:09.931Z</time></trkpt><trkpt lat="40.04328767409984" lon="18.135082003052553"><ele>111.66666666666667</ele><time>2026-04-11T12:43:10.931Z</time></trkpt><trkpt lat="40.04351213039542" lon="18.13513595185593"><ele>111.33333333333334</ele><time>2026-04-11T12:43:11.931Z</time></trkpt><trkpt lat="40.04372324021229" lon="18.135180453855472"><ele>111.0</ele><time>2026-04-11T12:43:12.931Z</time></trkpt><trkpt lat="40.04391249162172" lon="18.13526635746844"><ele>111.0</ele><time>2026-04-11T12:43:13.931Z</time></trkpt><trkpt lat="40.04406309738432" lon="18.135380949829063"><ele>111.0</ele><time>2026-04-11T12:43:14.931Z</time></trkpt><trkpt lat="40.04418328839412" lon="18.13554600658262"><ele>111.0</ele><time>2026-04-11T12:43:15.931Z</time></trkpt><trkpt lat="40.044272208245125" lon="18.135729045767704"><ele>113.33333333333334</ele><time>2026-04-11T12:43:16.931Z</time></trkpt><trkpt lat="40.04435798613786" lon="18.135934216274094"><ele>115.66666666666667</ele><time>2026-04-11T12:43:17.931Z</time></trkpt><trkpt lat="40.04442602190935" lon="18.136160552811184"><ele>118.0</ele><time>2026-04-11T12:43:18.931Z</time></trkpt><trkpt lat="40.044474768621846" lon="18.136383740431693"><ele>119.33333333333334</ele><time>2026-04-11T12:43:19.931Z</time></trkpt><trkpt lat="40.04452266156353" lon="18.136606192618675"><ele>120.66666666666666</ele><time>2026-04-11T12:43:20.931Z</time></trkpt><trkpt lat="40.04458004956523" lon="18.136793665028534"><ele>122.0</ele><time>2026-04-11T12:43:21.931Z</time></trkpt><trkpt lat="40.044641751896194" lon="18.13693053810014"><ele>122.0</ele><time>2026-04-11T12:43:22.931Z</time></trkpt><trkpt lat="40.04469605366769" lon="18.137037283226736"><ele>122.0</ele><time>2026-04-11T12:43:23.931Z</time></trkpt><trkpt lat="40.044768314153444" lon="18.13715922343711"><ele>122.0</ele><time>2026-04-11T12:43:24.931Z</time></trkpt><trkpt lat="40.04486165241211" lon="18.137290452960556"><ele>122.0</ele><time>2026-04-11T12:43:25.931Z</time></trkpt><trkpt lat="40.044950387047656" lon="18.137458103918064"><ele>123.33333333333333</ele><time>2026-04-11T12:43:26.931Z</time></trkpt><trkpt lat="40.04502598122681" lon="18.137669201411345"><ele>124.66666666666666</ele><time>2026-04-11T12:43:27.931Z</time></trkpt><trkpt lat="40.045085124248565" lon="18.137905620854177"><ele>126.0</ele><time>2026-04-11T12:43:28.931Z</time></trkpt><trkpt lat="40.04514527278221" lon="18.13813975141461"><ele>127.0</ele><time>2026-04-11T12:43:29.931Z</time></trkpt><trkpt lat="40.04521548402368" lon="18.138371992670567"><ele>128.0</ele><time>2026-04-11T12:43:30.931Z</time></trkpt><trkpt lat="40.04529169103841" lon="18.138610205545344"><ele>129.0</ele><time>2026-04-11T12:43:31.931Z</time></trkpt><trkpt lat="40.04537917276787" lon="18.138855129279026"><ele>130.33333333333334</ele><time>2026-04-11T12:43:32.931Z</time></trkpt><trkpt lat="40.04547209874962" lon="18.139106107986805"><ele>131.66666666666669</ele><time>2026-04-11T12:43:33.931Z</time></trkpt><trkpt lat="40.04557188515899" lon="18.139366231620944"><ele>133.0</ele><time>2026-04-11T12:43:34.931Z</time></trkpt><trkpt lat="40.04567049721655" lon="18.139636677694412"><ele>133.5</ele><time>2026-04-11T12:43:35.931Z</time></trkpt><trkpt lat="40.04577064242717" lon="18.13992157997578"><ele>134.0</ele><time>2026-04-11T12:43:36.931Z</time></trkpt><trkpt lat="40.045877487498295" lon="18.14020335737312"><ele>134.0</ele><time>2026-04-11T12:43:37.931Z</time></trkpt><trkpt lat="40.04598989855264" lon="18.1404930719497"><ele>134.0</ele><time>2026-04-11T12:43:38.931Z</time></trkpt><trkpt lat="40.046104879618476" lon="18.140780036839683"><ele>134.5</ele><time>2026-04-11T12:43:39.931Z</time></trkpt><trkpt lat="40.04621961475026" lon="18.1410753237139"><ele>135.0</ele><time>2026-04-11T12:43:40.931Z</time></trkpt><trkpt lat="40.04634005648673" lon="18.14136333008832"><ele>135.66666666666666</ele><time>2026-04-11T12:43:41.931Z</time></trkpt><trkpt lat="40.04644391519213" lon="18.141629106746883"><ele>136.33333333333331</ele><time>2026-04-11T12:43:42.931Z</time></trkpt><trkpt lat="40.046546431025156" lon="18.141871587479763"><ele>137.0</ele><time>2026-04-11T12:43:43.931Z</time></trkpt><trkpt lat="40.04665798778271" lon="18.142095589893334"><ele>137.33333333333331</ele><time>2026-04-11T12:43:44.931Z</time></trkpt><trkpt lat="40.04677063830051" lon="18.142321729909046"><ele>137.66666666666666</ele><time>2026-04-11T12:43:45.931Z</time></trkpt><trkpt lat="40.04689580047037" lon="18.14253073765539"><ele>138.0</ele><time>2026-04-11T12:43:46.931Z</time></trkpt><trkpt lat="40.04703181446611" lon="18.14272335689929"><ele>138.33333333333334</ele><time>2026-04-11T12:43:47.931Z</time></trkpt><trkpt lat="40.04717199519917" lon="18.14291770097872"><ele>138.66666666666669</ele><time>2026-04-11T12:43:48.93Z</time></trkpt><trkpt lat="40.04728605931113" lon="18.14314612334692"><ele>139.0</ele><time>2026-04-11T12:43:49.93Z</time></trkpt><trkpt lat="40.04738540237334" lon="18.143382032503407"><ele>140.33333333333334</ele><time>2026-04-11T12:43:50.93Z</time></trkpt><trkpt lat="40.04746812495918" lon="18.14361277568706"><ele>141.66666666666666</ele><time>2026-04-11T12:43:51.93Z</time></trkpt><trkpt lat="40.047531996352234" lon="18.14382506655306"><ele>143.0</ele><time>2026-04-11T12:43:52.93Z</time></trkpt><trkpt lat="40.047589551697364" lon="18.14401235172954"><ele>144.0</ele><time>2026-04-11T12:43:53.93Z</time></trkpt><trkpt lat="40.047676701211095" lon="18.144151815430085"><ele>145.0</ele><time>2026-04-11T12:43:54.93Z</time></trkpt><trkpt lat="40.04778102624298" lon="18.144267620676008"><ele>146.0</ele><time>2026-04-11T12:43:55.93Z</time></trkpt><trkpt lat="40.047926734110504" lon="18.144345560177285"><ele>147.0</ele><time>2026-04-11T12:43:56.93Z</time></trkpt><trkpt lat="40.04800764118091" lon="18.14444148846054"><ele>147.0</ele><time>2026-04-11T12:43:57.93Z</time></trkpt><trkpt lat="40.04804986675146" lon="18.14454824097099"><ele>147.0</ele><time>2026-04-11T12:43:58.93Z</time></trkpt><trkpt lat="40.04807591398073" lon="18.144666655898277"><ele>147.0</ele><time>2026-04-11T12:43:59.93Z</time></trkpt><trkpt lat="40.04808306081278" lon="18.14479234393759"><ele>147.0</ele><time>2026-04-11T12:44:00.93Z</time></trkpt><trkpt lat="40.04806804474921" lon="18.14491603084034"><ele>147.0</ele><time>2026-04-11T12:44:01.93Z</time></trkpt><trkpt lat="40.048036736610776" lon="18.145036885213933"><ele>147.5</ele><time>2026-04-11T12:44:02.93Z</time></trkpt><trkpt lat="40.04798833141999" lon="18.145151944367687"><ele>148.0</ele><time>2026-04-11T12:44:03.93Z</time></trkpt><trkpt lat="40.0479152801477" lon="18.145274279515114"><ele>148.5</ele><time>2026-04-11T12:44:04.93Z</time></trkpt><trkpt lat="40.04780684573867" lon="18.145413636361262"><ele>149.0</ele><time>2026-04-11T12:44:05.93Z</time></trkpt><trkpt lat="40.04770527228929" lon="18.14554783108053"><ele>148.66666666666666</ele><time>2026-04-11T12:44:06.93Z</time></trkpt><trkpt lat="40.047573923332514" lon="18.14571951426271"><ele>148.33333333333334</ele><time>2026-04-11T12:44:07.93Z</time></trkpt><trkpt lat="40.04745105930789" lon="18.14589110246485"><ele>148.0</ele><time>2026-04-11T12:44:08.93Z</time></trkpt><trkpt lat="40.04731498259669" lon="18.146061342202756"><ele>148.0</ele><time>2026-04-11T12:44:09.93Z</time></trkpt><trkpt lat="40.0471509727006" lon="18.14623305254446"><ele>148.0</ele><time>2026-04-11T12:44:10.93Z</time></trkpt><trkpt lat="40.046977738157054" lon="18.14639219391659"><ele>148.0</ele><time>2026-04-11T12:44:11.93Z</time></trkpt><trkpt lat="40.046819772084405" lon="18.146550334115275"><ele>149.33333333333334</ele><time>2026-04-11T12:44:12.93Z</time></trkpt><trkpt lat="40.046665924765705" lon="18.14670601772226"><ele>150.66666666666666</ele><time>2026-04-11T12:44:13.93Z</time></trkpt><trkpt lat="40.04651343870295" lon="18.14686771310761"><ele>152.0</ele><time>2026-04-11T12:44:14.93Z</time></trkpt><trkpt lat="40.04636088004141" lon="18.147036738537754"><ele>152.0</ele><time>2026-04-11T12:44:15.93Z</time></trkpt><trkpt lat="40.046208727853454" lon="18.147206243408448"><ele>152.0</ele><time>2026-04-11T12:44:16.93Z</time></trkpt><trkpt lat="40.046047394226605" lon="18.147388552883676"><ele>152.0</ele><time>2026-04-11T12:44:17.93Z</time></trkpt><trkpt lat="40.045882293945475" lon="18.147581392888014"><ele>153.0</ele><time>2026-04-11T12:44:18.93Z</time></trkpt><trkpt lat="40.04570087263422" lon="18.1477838574977"><ele>154.0</ele><time>2026-04-11T12:44:19.93Z</time></trkpt><trkpt lat="40.045511142573226" lon="18.14798701625672"><ele>154.0</ele><time>2026-04-11T12:44:20.929Z</time></trkpt><trkpt lat="40.04529732687393" lon="18.14819951414709"><ele>154.0</ele><time>2026-04-11T12:44:21.929Z</time></trkpt><trkpt lat="40.04507220030604" lon="18.14841831572323"><ele>155.0</ele><time>2026-04-11T12:44:22.929Z</time></trkpt><trkpt lat="40.04483848145064" lon="18.148655098320997"><ele>156.0</ele><time>2026-04-11T12:44:23.928Z</time></trkpt><trkpt lat="40.04459303768446" lon="18.148907123174"><ele>157.0</ele><time>2026-04-11T12:44:24.928Z</time></trkpt><trkpt lat="40.04433004747363" lon="18.1491757166682"><ele>158.0</ele><time>2026-04-11T12:44:25.93Z</time></trkpt><trkpt lat="40.044063870102974" lon="18.149448203175893"><ele>158.0</ele><time>2026-04-11T12:44:26.929Z</time></trkpt><trkpt lat="40.043798686374856" lon="18.14971380827102"><ele>158.0</ele><time>2026-04-11T12:44:27.929Z</time></trkpt><trkpt lat="40.043534557210045" lon="18.149972854252766"><ele>157.5</ele><time>2026-04-11T12:44:28.929Z</time></trkpt><trkpt lat="40.043290514869895" lon="18.15021936619981"><ele>157.0</ele><time>2026-04-11T12:44:29.929Z</time></trkpt><trkpt lat="40.04303706132386" lon="18.150460709607174"><ele>157.0</ele><time>2026-04-11T12:44:30.929Z</time></trkpt><trkpt lat="40.04281557493845" lon="18.150688763429503"><ele>157.0</ele><time>2026-04-11T12:44:31.929Z</time></trkpt><trkpt lat="40.04265627220938" lon="18.150909122964073"><ele>157.0</ele><time>2026-04-11T12:44:32.929Z</time></trkpt><trkpt lat="40.042516699164175" lon="18.151105170252997"><ele>157.0</ele><time>2026-04-11T12:44:33.929Z</time></trkpt><trkpt lat="40.042416424710524" lon="18.151286487219306"><ele>157.0</ele><time>2026-04-11T12:44:34.929Z</time></trkpt><trkpt lat="40.042282748065396" lon="18.151456282260856"><ele>157.33333333333334</ele><time>2026-04-11T12:44:35.929Z</time></trkpt><trkpt lat="40.04216009106829" lon="18.15163382795287"><ele>157.66666666666666</ele><time>2026-04-11T12:44:36.929Z</time></trkpt><trkpt lat="40.042066561897286" lon="18.151833910056023"><ele>158.0</ele><time>2026-04-11T12:44:37.929Z</time></trkpt><trkpt lat="40.04200117585493" lon="18.15203570449377"><ele>158.0</ele><time>2026-04-11T12:44:38.929Z</time></trkpt><trkpt lat="40.041946837457616" lon="18.152245393973494"><ele>158.0</ele><time>2026-04-11T12:44:39.929Z</time></trkpt><trkpt lat="40.04189619390082" lon="18.152456436975086"><ele>158.0</ele><time>2026-04-11T12:44:40.929Z</time></trkpt><trkpt lat="40.04128883392957" lon="18.152215443966217"><ele>157.0</ele><time>2026-04-11T12:44:41.929Z</time></trkpt><trkpt lat="40.041131567241536" lon="18.152379533095836"><ele>156.0</ele><time>2026-04-11T12:44:42.929Z</time></trkpt><trkpt lat="40.04097314391549" lon="18.15254368445259"><ele>155.0</ele><time>2026-04-11T12:44:43.929Z</time></trkpt><trkpt lat="40.04080952211664" lon="18.15270291538247"><ele>155.0</ele><time>2026-04-11T12:44:44.929Z</time></trkpt><trkpt lat="40.04065172664381" lon="18.152853988513705"><ele>155.0</ele><time>2026-04-11T12:44:45.929Z</time></trkpt><trkpt lat="40.04050520999363" lon="18.152995437607768"><ele>155.0</ele><time>2026-04-11T12:44:46.929Z</time></trkpt><trkpt lat="40.040366707265655" lon="18.153132189332506"><ele>154.66666666666666</ele><time>2026-04-11T12:44:47.929Z</time></trkpt><trkpt lat="40.04023561189279" lon="18.15325897998733"><ele>154.33333333333334</ele><time>2026-04-11T12:44:48.929Z</time></trkpt><trkpt lat="40.04010770766278" lon="18.153381849472865"><ele>154.0</ele><time>2026-04-11T12:44:49.929Z</time></trkpt><trkpt lat="40.039992614621916" lon="18.153486388447256"><ele>153.6</ele><time>2026-04-11T12:44:50.929Z</time></trkpt><trkpt lat="40.0398886606416" lon="18.153573414746607"><ele>153.2</ele><time>2026-04-11T12:44:51.929Z</time></trkpt><trkpt lat="40.03979230870806" lon="18.15363816754362"><ele>152.79999999999998</ele><time>2026-04-11T12:44:52.929Z</time></trkpt><trkpt lat="40.03970453006157" lon="18.15368289229362"><ele>152.4</ele><time>2026-04-11T12:44:53.929Z</time></trkpt><trkpt lat="40.03961763629481" lon="18.153707555156842"><ele>152.0</ele><time>2026-04-11T12:44:54.929Z</time></trkpt><trkpt lat="40.03953907347726" lon="18.153718039784994"><ele>152.0</ele><time>2026-04-11T12:44:55.929Z</time></trkpt><trkpt lat="40.039472392008705" lon="18.153710764194283"><ele>152.0</ele><time>2026-04-11T12:44:56.929Z</time></trkpt><trkpt lat="40.03940738154221" lon="18.15371334224517"><ele>152.0</ele><time>2026-04-11T12:44:57.929Z</time></trkpt><trkpt lat="40.039308671289625" lon="18.153825488589295"><ele>152.0</ele><time>2026-04-11T12:44:59.929Z</time></trkpt><trkpt lat="40.03928257667111" lon="18.153937373906988"><ele>152.0</ele><time>2026-04-11T12:45:00.929Z</time></trkpt><trkpt lat="40.03925200295543" lon="18.15406908246588"><ele>152.33333333333331</ele><time>2026-04-11T12:45:01.929Z</time></trkpt><trkpt lat="40.03919543507849" lon="18.154210308812594"><ele>152.66666666666666</ele><time>2026-04-11T12:45:02.929Z</time></trkpt><trkpt lat="40.03909429580931" lon="18.154354098921658"><ele>153.0</ele><time>2026-04-11T12:45:03.929Z</time></trkpt><trkpt lat="40.03895826178272" lon="18.15450813425054"><ele>153.0</ele><time>2026-04-11T12:45:04.929Z</time></trkpt><trkpt lat="40.03880671043449" lon="18.154652709111456"><ele>153.0</ele><time>2026-04-11T12:45:05.929Z</time></trkpt><trkpt lat="40.038648837367234" lon="18.154797289424415"><ele>153.0</ele><time>2026-04-11T12:45:06.929Z</time></trkpt><trkpt lat="40.03849255005776" lon="18.15494182359996"><ele>152.66666666666666</ele><time>2026-04-11T12:45:07.929Z</time></trkpt><trkpt lat="40.03833441102437" lon="18.155084564058317"><ele>152.33333333333331</ele><time>2026-04-11T12:45:08.929Z</time></trkpt><trkpt lat="40.03818431983" lon="18.15523276717068"><ele>152.0</ele><time>2026-04-11T12:45:09.929Z</time></trkpt><trkpt lat="40.038033471161526" lon="18.155386990158547"><ele>151.66666666666666</ele><time>2026-04-11T12:45:10.929Z</time></trkpt><trkpt lat="40.03788712044088" lon="18.155531544949564"><ele>151.33333333333334</ele><time>2026-04-11T12:45:11.929Z</time></trkpt><trkpt lat="40.03775551271865" lon="18.155657188484767"><ele>151.0</ele><time>2026-04-11T12:45:12.929Z</time></trkpt><trkpt lat="40.03763208441154" lon="18.15578396599253"><ele>150.0</ele><time>2026-04-11T12:45:13.929Z</time></trkpt><trkpt lat="40.03749986378898" lon="18.155905424821526"><ele>149.0</ele><time>2026-04-11T12:45:14.929Z</time></trkpt><trkpt lat="40.03737770946169" lon="18.156036851073225"><ele>148.0</ele><time>2026-04-11T12:45:15.929Z</time></trkpt><trkpt lat="40.03724529753117" lon="18.156165213219083"><ele>147.0</ele><time>2026-04-11T12:45:16.929Z</time></trkpt><trkpt lat="40.03710401313708" lon="18.156293849851945"><ele>146.0</ele><time>2026-04-11T12:45:17.929Z</time></trkpt><trkpt lat="40.03695369433908" lon="18.156425876296293"><ele>145.0</ele><time>2026-04-11T12:45:18.929Z</time></trkpt><trkpt lat="40.0368053850585" lon="18.15656122200308"><ele>144.66666666666669</ele><time>2026-04-11T12:45:19.929Z</time></trkpt><trkpt lat="40.03665454657005" lon="18.156694878635715"><ele>144.33333333333334</ele><time>2026-04-11T12:45:20.929Z</time></trkpt><trkpt lat="40.03650866483652" lon="18.156839260324354"><ele>144.0</ele><time>2026-04-11T12:45:21.929Z</time></trkpt><trkpt lat="40.03636533685583" lon="18.156980515264678"><ele>144.0</ele><time>2026-04-11T12:45:22.929Z</time></trkpt><trkpt lat="40.036222733405616" lon="18.15712733709825"><ele>144.0</ele><time>2026-04-11T12:45:23.929Z</time></trkpt><trkpt lat="40.03607763775875" lon="18.15727870879185"><ele>144.0</ele><time>2026-04-11T12:45:24.929Z</time></trkpt><trkpt lat="40.03592636850122" lon="18.157424387424026"><ele>143.0</ele><time>2026-04-11T12:45:25.928Z</time></trkpt><trkpt lat="40.035773239459395" lon="18.157575647673475"><ele>142.0</ele><time>2026-04-11T12:45:26.928Z</time></trkpt><trkpt lat="40.03560842585604" lon="18.157722258355495"><ele>141.0</ele><time>2026-04-11T12:45:27.928Z</time></trkpt><trkpt lat="40.03545235399184" lon="18.157876791636415"><ele>141.0</ele><time>2026-04-11T12:45:28.928Z</time></trkpt><trkpt lat="40.03530232270809" lon="18.15802749321131"><ele>141.0</ele><time>2026-04-11T12:45:29.928Z</time></trkpt><trkpt lat="40.03515869709142" lon="18.158171195015125"><ele>141.0</ele><time>2026-04-11T12:45:30.928Z</time></trkpt><trkpt lat="40.03502463800908" lon="18.15830324055712"><ele>141.33333333333334</ele><time>2026-04-11T12:45:31.928Z</time></trkpt><trkpt lat="40.034892812292114" lon="18.15842612376087"><ele>141.66666666666669</ele><time>2026-04-11T12:45:32.928Z</time></trkpt><trkpt lat="40.03475521735999" lon="18.158554805628516"><ele>142.0</ele><time>2026-04-11T12:45:33.928Z</time></trkpt><trkpt lat="40.03461637018433" lon="18.15868508199603"><ele>142.0</ele><time>2026-04-11T12:45:34.928Z</time></trkpt><trkpt lat="40.03448866631529" lon="18.158804386306933"><ele>142.0</ele><time>2026-04-11T12:45:35.928Z</time></trkpt><trkpt lat="40.034365072847905" lon="18.158919919703788"><ele>142.0</ele><time>2026-04-11T12:45:36.928Z</time></trkpt><trkpt lat="40.03424694095613" lon="18.159033349806258"><ele>142.0</ele><time>2026-04-11T12:45:37.928Z</time></trkpt><trkpt lat="40.03412289112114" lon="18.159148522373616"><ele>142.0</ele><time>2026-04-11T12:45:38.928Z</time></trkpt><trkpt lat="40.0339998413626" lon="18.1592743647163"><ele>142.0</ele><time>2026-04-11T12:45:39.928Z</time></trkpt><trkpt lat="40.03387061141108" lon="18.159401676256678"><ele>142.0</ele><time>2026-04-11T12:45:40.928Z</time></trkpt><trkpt lat="40.033737726979616" lon="18.159534528783993"><ele>142.0</ele><time>2026-04-11T12:45:41.928Z</time></trkpt><trkpt lat="40.0336013873762" lon="18.15967749345694"><ele>142.0</ele><time>2026-04-11T12:45:42.928Z</time></trkpt><trkpt lat="40.03346225636632" lon="18.159821877803086"><ele>143.0</ele><time>2026-04-11T12:45:43.928Z</time></trkpt><trkpt lat="40.03331838162273" lon="18.159968343538722"><ele>144.0</ele><time>2026-04-11T12:45:44.928Z</time></trkpt><trkpt lat="40.03316982919093" lon="18.16011467784063"><ele>145.0</ele><time>2026-04-11T12:45:45.928Z</time></trkpt><trkpt lat="40.03301852685476" lon="18.160273901967514"><ele>145.0</ele><time>2026-04-11T12:45:46.928Z</time></trkpt><trkpt lat="40.03286260452027" lon="18.16043261982102"><ele>145.0</ele><time>2026-04-11T12:45:47.928Z</time></trkpt><trkpt lat="40.0327036607205" lon="18.160602249266493"><ele>145.0</ele><time>2026-04-11T12:45:48.928Z</time></trkpt><trkpt lat="40.03254798676023" lon="18.160784368689065"><ele>144.5</ele><time>2026-04-11T12:45:49.928Z</time></trkpt><trkpt lat="40.03238419156389" lon="18.160977122048102"><ele>144.0</ele><time>2026-04-11T12:45:50.928Z</time></trkpt><trkpt lat="40.032210203503936" lon="18.161181385824467"><ele>144.0</ele><time>2026-04-11T12:45:51.928Z</time></trkpt><trkpt lat="40.03202976980161" lon="18.161395007758525"><ele>144.0</ele><time>2026-04-11T12:45:52.928Z</time></trkpt><trkpt lat="40.03184260761476" lon="18.161629435140195"><ele>144.0</ele><time>2026-04-11T12:45:53.928Z</time></trkpt><trkpt lat="40.031650332262984" lon="18.16186281635977"><ele>144.0</ele><time>2026-04-11T12:45:54.928Z</time></trkpt><trkpt lat="40.03144641117985" lon="18.16208655100861"><ele>144.0</ele><time>2026-04-11T12:45:55.928Z</time></trkpt><trkpt lat="40.031251959877075" lon="18.16229111525989"><ele>144.0</ele><time>2026-04-11T12:45:56.928Z</time></trkpt><trkpt lat="40.03108029154385" lon="18.162469673658773"><ele>144.0</ele><time>2026-04-11T12:45:57.928Z</time></trkpt><trkpt lat="40.03093210188273" lon="18.16262544793471"><ele>144.0</ele><time>2026-04-11T12:45:58.928Z</time></trkpt><trkpt lat="40.030810985244614" lon="18.16276687963809"><ele>144.0</ele><time>2026-04-11T12:45:59.928Z</time></trkpt><trkpt lat="40.03071196667168" lon="18.162877859147386"><ele>144.0</ele><time>2026-04-11T12:46:00.928Z</time></trkpt><trkpt lat="40.030619817512616" lon="18.16296507371756"><ele>144.0</ele><time>2026-04-11T12:46:01.928Z</time></trkpt><trkpt lat="40.03052728933354" lon="18.163019006659333"><ele>144.0</ele><time>2026-04-11T12:46:02.928Z</time></trkpt><trkpt lat="40.030427213091116" lon="18.163045544051602"><ele>144.0</ele><time>2026-04-11T12:46:03.928Z</time></trkpt><trkpt lat="40.03032856796578" lon="18.16306096649655"><ele>144.0</ele><time>2026-04-11T12:46:04.928Z</time></trkpt><trkpt lat="40.03024889640202" lon="18.163130249161103"><ele>144.25</ele><time>2026-04-11T12:46:05.928Z</time></trkpt><trkpt lat="40.03020110518931" lon="18.163243442269646"><ele>144.5</ele><time>2026-04-11T12:46:06.928Z</time></trkpt><trkpt lat="40.030162192282546" lon="18.163408694795624"><ele>144.75</ele><time>2026-04-11T12:46:07.928Z</time></trkpt><trkpt lat="40.03010584251702" lon="18.163566104959607"><ele>145.0</ele><time>2026-04-11T12:46:08.928Z</time></trkpt><trkpt lat="40.029999863067346" lon="18.163723475416074"><ele>145.0</ele><time>2026-04-11T12:46:09.928Z</time></trkpt><trkpt lat="40.029848477676225" lon="18.163894068476104"><ele>145.0</ele><time>2026-04-11T12:46:10.928Z</time></trkpt><trkpt lat="40.029677471614505" lon="18.16406888264752"><ele>145.0</ele><time>2026-04-11T12:46:11.928Z</time></trkpt><trkpt lat="40.029496510745716" lon="18.16425937165801"><ele>145.0</ele><time>2026-04-11T12:46:12.928Z</time></trkpt><trkpt lat="40.02930816922573" lon="18.164472740278782"><ele>145.0</ele><time>2026-04-11T12:46:13.928Z</time></trkpt><trkpt lat="40.029114924770944" lon="18.164691325627448"><ele>145.5</ele><time>2026-04-11T12:46:14.928Z</time></trkpt><trkpt lat="40.0289151165462" lon="18.164923300117096"><ele>146.0</ele><time>2026-04-11T12:46:15.928Z</time></trkpt><trkpt lat="40.02869912858174" lon="18.165168398119036"><ele>146.0</ele><time>2026-04-11T12:46:16.928Z</time></trkpt><trkpt lat="40.02848070047405" lon="18.165418341043445"><ele>146.0</ele><time>2026-04-11T12:46:17.928Z</time></trkpt><trkpt lat="40.02827071142221" lon="18.16565652163964"><ele>145.5</ele><time>2026-04-11T12:46:18.928Z</time></trkpt><trkpt lat="40.02808403863157" lon="18.165872320327487"><ele>145.0</ele><time>2026-04-11T12:46:19.928Z</time></trkpt><trkpt lat="40.02792204440485" lon="18.166062681697806"><ele>145.0</ele><time>2026-04-11T12:46:20.928Z</time></trkpt><trkpt lat="40.02777727805391" lon="18.1662196351813"><ele>145.0</ele><time>2026-04-11T12:46:21.928Z</time></trkpt><trkpt lat="40.0276588669575" lon="18.166354722664735"><ele>145.0</ele><time>2026-04-11T12:46:22.928Z</time></trkpt><trkpt lat="40.02756118116471" lon="18.166457867120567"><ele>145.16666666666669</ele><time>2026-04-11T12:46:23.928Z</time></trkpt><trkpt lat="40.02747066777239" lon="18.166541206871454"><ele>145.33333333333334</ele><time>2026-04-11T12:46:24.928Z</time></trkpt><trkpt lat="40.027380347203525" lon="18.166609996791177"><ele>145.5</ele><time>2026-04-11T12:46:25.927Z</time></trkpt><trkpt lat="40.02730815091825" lon="18.166649604090953"><ele>145.66666666666666</ele><time>2026-04-11T12:46:26.926Z</time></trkpt><trkpt lat="40.027243118357966" lon="18.16668038656386"><ele>145.83333333333331</ele><time>2026-04-11T12:46:27.926Z</time></trkpt><trkpt lat="40.02719001186231" lon="18.16673073998895"><ele>146.0</ele><time>2026-04-11T12:46:28.926Z</time></trkpt><trkpt lat="40.02714435015693" lon="18.16681806077495"><ele>146.0</ele><time>2026-04-11T12:46:29.926Z</time></trkpt><trkpt lat="40.027093044901335" lon="18.166930718582854"><ele>146.0</ele><time>2026-04-11T12:46:30.926Z</time></trkpt><trkpt lat="40.02703714093157" lon="18.167037473959844"><ele>146.0</ele><time>2026-04-11T12:46:31.927Z</time></trkpt><trkpt lat="40.026971247150534" lon="18.16712846476796"><ele>146.0</ele><time>2026-04-11T12:46:32.926Z</time></trkpt><trkpt lat="40.02689360332117" lon="18.167223561370083"><ele>146.0</ele><time>2026-04-11T12:46:33.926Z</time></trkpt><trkpt lat="40.02680221524627" lon="18.1673311280354"><ele>146.0</ele><time>2026-04-11T12:46:34.927Z</time></trkpt><trkpt lat="40.02670028637345" lon="18.16746221656959"><ele>146.0</ele><time>2026-04-11T12:46:35.926Z</time></trkpt><trkpt lat="40.02656991682976" lon="18.167612229297355"><ele>146.0</ele><time>2026-04-11T12:46:36.926Z</time></trkpt><trkpt lat="40.026415114934004" lon="18.16776893200925"><ele>146.0</ele><time>2026-04-11T12:46:37.926Z</time></trkpt><trkpt lat="40.02624707911347" lon="18.167942121488142"><ele>146.0</ele><time>2026-04-11T12:46:38.926Z</time></trkpt><trkpt lat="40.02608267482904" lon="18.168132441468792"><ele>146.0</ele><time>2026-04-11T12:46:39.926Z</time></trkpt><trkpt lat="40.02591456583129" lon="18.168326525066316"><ele>146.0</ele><time>2026-04-11T12:46:40.926Z</time></trkpt><trkpt lat="40.02573948654754" lon="18.168517489803147"><ele>146.0</ele><time>2026-04-11T12:46:41.926Z</time></trkpt><trkpt lat="40.025563937038974" lon="18.16870920988418"><ele>146.0</ele><time>2026-04-11T12:46:42.926Z</time></trkpt><trkpt lat="40.0253926838675" lon="18.16890525339817"><ele>146.0</ele><time>2026-04-11T12:46:43.926Z</time></trkpt><trkpt lat="40.025225131897095" lon="18.169097738492322"><ele>145.33333333333331</ele><time>2026-04-11T12:46:44.926Z</time></trkpt><trkpt lat="40.025054626604586" lon="18.169285448820204"><ele>144.66666666666666</ele><time>2026-04-11T12:46:45.926Z</time></trkpt><trkpt lat="40.02488716728203" lon="18.16946960871953"><ele>144.0</ele><time>2026-04-11T12:46:46.926Z</time></trkpt><trkpt lat="40.02474103172133" lon="18.169636032806295"><ele>144.0</ele><time>2026-04-11T12:46:47.926Z</time></trkpt><trkpt lat="40.02461039619465" lon="18.16978128123413"><ele>144.0</ele><time>2026-04-11T12:46:48.926Z</time></trkpt><trkpt lat="40.0244932394049" lon="18.169913111447215"><ele>144.0</ele><time>2026-04-11T12:46:49.926Z</time></trkpt><trkpt lat="40.02438750235178" lon="18.17003725282105"><ele>144.5</ele><time>2026-04-11T12:46:50.926Z</time></trkpt><trkpt lat="40.02429075111153" lon="18.17014561757129"><ele>145.0</ele><time>2026-04-11T12:46:51.926Z</time></trkpt><trkpt lat="40.0241912499025" lon="18.170250311358497"><ele>145.5</ele><time>2026-04-11T12:46:52.926Z</time></trkpt><trkpt lat="40.02408790096055" lon="18.170363974438704"><ele>146.0</ele><time>2026-04-11T12:46:53.926Z</time></trkpt><trkpt lat="40.023972291973244" lon="18.170494630228976"><ele>146.0</ele><time>2026-04-11T12:46:54.926Z</time></trkpt><trkpt lat="40.02384196326001" lon="18.170639559843885"><ele>146.0</ele><time>2026-04-11T12:46:55.926Z</time></trkpt><trkpt lat="40.02370020774233" lon="18.170804435528574"><ele>146.0</ele><time>2026-04-11T12:46:56.926Z</time></trkpt><trkpt lat="40.02354272760786" lon="18.170984583083012"><ele>145.5</ele><time>2026-04-11T12:46:57.926Z</time></trkpt><trkpt lat="40.02337751435792" lon="18.171173737244832"><ele>145.0</ele><time>2026-04-11T12:46:58.925Z</time></trkpt><trkpt lat="40.02319724322851" lon="18.171377038307323"><ele>148.0</ele><time>2026-04-11T12:46:59.925Z</time></trkpt><trkpt lat="40.0230100947468" lon="18.171591816985067"><ele>151.0</ele><time>2026-04-11T12:47:00.925Z</time></trkpt><trkpt lat="40.022814495653584" lon="18.171814256721202"><ele>151.0</ele><time>2026-04-11T12:47:01.925Z</time></trkpt><trkpt lat="40.02261219248925" lon="18.172049520021204"><ele>151.0</ele><time>2026-04-11T12:47:02.925Z</time></trkpt><trkpt lat="40.02240399938933" lon="18.17229222679796"><ele>151.0</ele><time>2026-04-11T12:47:03.925Z</time></trkpt><trkpt lat="40.0221879602084" lon="18.17254113318598"><ele>151.0</ele><time>2026-04-11T12:47:04.925Z</time></trkpt><trkpt lat="40.02196604184592" lon="18.17278986377098"><ele>151.0</ele><time>2026-04-11T12:47:05.925Z</time></trkpt><trkpt lat="40.02174991853123" lon="18.1730340369445"><ele>151.0</ele><time>2026-04-11T12:47:06.925Z</time></trkpt><trkpt lat="40.02156071220679" lon="18.173250710950548"><ele>151.66666666666669</ele><time>2026-04-11T12:47:07.925Z</time></trkpt><trkpt lat="40.021387476330176" lon="18.173451493137875"><ele>152.33333333333334</ele><time>2026-04-11T12:47:08.925Z</time></trkpt><trkpt lat="40.02122626847526" lon="18.17364029471212"><ele>153.0</ele><time>2026-04-11T12:47:09.925Z</time></trkpt><trkpt lat="40.021070176447786" lon="18.173821796779972"><ele>153.0</ele><time>2026-04-11T12:47:10.925Z</time></trkpt><trkpt lat="40.02090541529217" lon="18.173999687225063"><ele>153.0</ele><time>2026-04-11T12:47:11.925Z</time></trkpt><trkpt lat="40.02074007972359" lon="18.174186142674927"><ele>153.0</ele><time>2026-04-11T12:47:12.925Z</time></trkpt><trkpt lat="40.02056962508016" lon="18.17437285334468"><ele>152.0</ele><time>2026-04-11T12:47:13.925Z</time></trkpt><trkpt lat="40.020398478618816" lon="18.174554420857636"><ele>151.0</ele><time>2026-04-11T12:47:14.925Z</time></trkpt><trkpt lat="40.020222106306214" lon="18.174732356075335"><ele>150.0</ele><time>2026-04-11T12:47:15.925Z</time></trkpt><trkpt lat="40.02004565699666" lon="18.174909871524363"><ele>149.33333333333334</ele><time>2026-04-11T12:47:16.925Z</time></trkpt><trkpt lat="40.019877721629385" lon="18.175074939178025"><ele>148.66666666666669</ele><time>2026-04-11T12:47:17.925Z</time></trkpt><trkpt lat="40.01971147455168" lon="18.175223756409494"><ele>148.0</ele><time>2026-04-11T12:47:18.925Z</time></trkpt><trkpt lat="40.019549872443775" lon="18.175352697154334"><ele>148.0</ele><time>2026-04-11T12:47:19.925Z</time></trkpt><trkpt lat="40.01939670249402" lon="18.17546653272289"><ele>148.0</ele><time>2026-04-11T12:47:20.925Z</time></trkpt><trkpt lat="40.019258756414594" lon="18.175563743122147"><ele>148.0</ele><time>2026-04-11T12:47:21.925Z</time></trkpt><trkpt lat="40.01913873873166" lon="18.175656420161616"><ele>148.0</ele><time>2026-04-11T12:47:22.925Z</time></trkpt><trkpt lat="40.019032481036156" lon="18.17573637471928"><ele>148.0</ele><time>2026-04-11T12:47:23.925Z</time></trkpt><trkpt lat="40.018938786987455" lon="18.175805317163707"><ele>148.0</ele><time>2026-04-11T12:47:24.925Z</time></trkpt><trkpt lat="40.01886163165196" lon="18.175857056642005"><ele>148.0</ele><time>2026-04-11T12:47:25.925Z</time></trkpt><trkpt lat="40.01878127821876" lon="18.175920308739837"><ele>148.0</ele><time>2026-04-11T12:47:26.925Z</time></trkpt><trkpt lat="40.01869209528209" lon="18.175992746381326"><ele>148.0</ele><time>2026-04-11T12:47:27.925Z</time></trkpt><trkpt lat="40.01857223414257" lon="18.176086592518768"><ele>148.0</ele><time>2026-04-11T12:47:28.925Z</time></trkpt><trkpt lat="40.01843394425705" lon="18.176198944104428"><ele>148.0</ele><time>2026-04-11T12:47:29.925Z</time></trkpt><trkpt lat="40.01826418721093" lon="18.17633637204126"><ele>148.33333333333334</ele><time>2026-04-11T12:47:30.925Z</time></trkpt><trkpt lat="40.01807995675393" lon="18.17646683122732"><ele>148.66666666666666</ele><time>2026-04-11T12:47:31.925Z</time></trkpt><trkpt lat="40.017870690115195" lon="18.176603461744676"><ele>149.0</ele><time>2026-04-11T12:47:32.925Z</time></trkpt><trkpt lat="40.017659981412145" lon="18.176742296633364"><ele>148.5</ele><time>2026-04-11T12:47:33.925Z</time></trkpt><trkpt lat="40.0174411808839" lon="18.176889043649634"><ele>148.0</ele><time>2026-04-11T12:47:34.925Z</time></trkpt><trkpt lat="40.01721723801063" lon="18.177051913662133"><ele>148.0</ele><time>2026-04-11T12:47:35.925Z</time></trkpt><trkpt lat="40.016996828191026" lon="18.17721071698613"><ele>148.0</ele><time>2026-04-11T12:47:36.925Z</time></trkpt><trkpt lat="40.01677612244254" lon="18.17737236050806"><ele>145.5</ele><time>2026-04-11T12:47:37.925Z</time></trkpt><trkpt lat="40.0165823821399" lon="18.177522762311902"><ele>143.0</ele><time>2026-04-11T12:47:38.925Z</time></trkpt><trkpt lat="40.01637331510741" lon="18.177676110192138"><ele>143.0</ele><time>2026-04-11T12:47:39.925Z</time></trkpt><trkpt lat="40.01618118994969" lon="18.177827814155233"><ele>143.0</ele><time>2026-04-11T12:47:40.925Z</time></trkpt><trkpt lat="40.01598086452131" lon="18.177968637744115"><ele>142.5</ele><time>2026-04-11T12:47:41.925Z</time></trkpt><trkpt lat="40.01581214726753" lon="18.178093562439415"><ele>142.0</ele><time>2026-04-11T12:47:42.925Z</time></trkpt><trkpt lat="40.01546730007959" lon="18.17834050504982"><ele>142.0</ele><time>2026-04-11T12:47:43.925Z</time></trkpt><trkpt lat="40.015244719252486" lon="18.178499500894482"><ele>142.0</ele><time>2026-04-11T12:47:44.925Z</time></trkpt><trkpt lat="40.015027235852656" lon="18.17866499195955"><ele>140.0</ele><time>2026-04-11T12:47:45.925Z</time></trkpt><trkpt lat="40.014806673391675" lon="18.178832177060226"><ele>138.0</ele><time>2026-04-11T12:47:46.925Z</time></trkpt><trkpt lat="40.01460603302136" lon="18.178988876222437"><ele>138.33333333333334</ele><time>2026-04-11T12:47:47.925Z</time></trkpt><trkpt lat="40.014419036049794" lon="18.179134329794483"><ele>138.66666666666669</ele><time>2026-04-11T12:47:48.925Z</time></trkpt><trkpt lat="40.01425122661842" lon="18.17926877748886"><ele>139.0</ele><time>2026-04-11T12:47:49.925Z</time></trkpt><trkpt lat="40.01409979274592" lon="18.179395147409924"><ele>139.25</ele><time>2026-04-11T12:47:50.925Z</time></trkpt><trkpt lat="40.01396413584715" lon="18.179507744567115"><ele>139.5</ele><time>2026-04-11T12:47:51.925Z</time></trkpt><trkpt lat="40.01383826106122" lon="18.179605790937575"><ele>139.75</ele><time>2026-04-11T12:47:52.925Z</time></trkpt><trkpt lat="40.01372580104091" lon="18.179695564555654"><ele>140.0</ele><time>2026-04-11T12:47:53.925Z</time></trkpt><trkpt lat="40.01363047671007" lon="18.179769348597233"><ele>140.0</ele><time>2026-04-11T12:47:54.925Z</time></trkpt><trkpt lat="40.013547757962776" lon="18.179830731102527"><ele>140.0</ele><time>2026-04-11T12:47:55.925Z</time></trkpt><trkpt lat="40.013483568513074" lon="18.17986222476715"><ele>140.0</ele><time>2026-04-11T12:47:56.925Z</time></trkpt><trkpt lat="40.0133629265442" lon="18.179844842910313"><ele>140.0</ele><time>2026-04-11T12:47:58.925Z</time></trkpt><trkpt lat="40.013280865618015" lon="18.179738137045447"><ele>140.0</ele><time>2026-04-11T12:48:00.925Z</time></trkpt><trkpt lat="40.01324410847671" lon="18.179638978024293"><ele>140.25</ele><time>2026-04-11T12:48:01.925Z</time></trkpt><trkpt lat="40.013204138382" lon="18.179498286200282"><ele>140.5</ele><time>2026-04-11T12:48:02.925Z</time></trkpt><trkpt lat="40.01315581843166" lon="18.179327275195124"><ele>140.75</ele><time>2026-04-11T12:48:03.925Z</time></trkpt><trkpt lat="40.0130981886885" lon="18.17912713421476"><ele>141.0</ele><time>2026-04-11T12:48:04.925Z</time></trkpt><trkpt lat="40.013048586367546" lon="18.178822329744154"><ele>141.33333333333334</ele><time>2026-04-11T12:48:05.925Z</time></trkpt><trkpt lat="40.01297952094843" lon="18.178591184089736"><ele>141.66666666666669</ele><time>2026-04-11T12:48:06.925Z</time></trkpt><trkpt lat="40.012901615786845" lon="18.17835109684345"><ele>142.0</ele><time>2026-04-11T12:48:07.925Z</time></trkpt><trkpt lat="40.01285084123185" lon="18.17813068003633"><ele>142.25</ele><time>2026-04-11T12:48:08.925Z</time></trkpt><trkpt lat="40.01280903920887" lon="18.177948693950935"><ele>142.5</ele><time>2026-04-11T12:48:09.925Z</time></trkpt><trkpt lat="40.01277253345746" lon="18.177783939725202"><ele>142.75</ele><time>2026-04-11T12:48:10.925Z</time></trkpt><trkpt lat="40.01272968265451" lon="18.177632519179134"><ele>143.0</ele><time>2026-04-11T12:48:11.925Z</time></trkpt><trkpt lat="40.01267454390319" lon="18.17750120591305"><ele>143.0</ele><time>2026-04-11T12:48:12.925Z</time></trkpt><trkpt lat="40.01262727984208" lon="18.17736595229327"><ele>143.0</ele><time>2026-04-11T12:48:13.925Z</time></trkpt><trkpt lat="40.01257242185387" lon="18.17723646812829"><ele>143.0</ele><time>2026-04-11T12:48:14.925Z</time></trkpt><trkpt lat="40.01252087932983" lon="18.177109437037387"><ele>143.0</ele><time>2026-04-11T12:48:15.925Z</time></trkpt><trkpt lat="40.01247623352909" lon="18.176986115088365"><ele>143.0</ele><time>2026-04-11T12:48:16.925Z</time></trkpt><trkpt lat="40.012439102643285" lon="18.176863666363793"><ele>142.6</ele><time>2026-04-11T12:48:17.925Z</time></trkpt><trkpt lat="40.01240314950932" lon="18.176741807821408"><ele>142.20000000000002</ele><time>2026-04-11T12:48:18.925Z</time></trkpt><trkpt lat="40.01236239022417" lon="18.176626687697592"><ele>141.8</ele><time>2026-04-11T12:48:19.925Z</time></trkpt><trkpt lat="40.01232530041082" lon="18.17650879224193"><ele>141.4</ele><time>2026-04-11T12:48:20.925Z</time></trkpt><trkpt lat="40.01229260252556" lon="18.176396637045634"><ele>141.0</ele><time>2026-04-11T12:48:21.925Z</time></trkpt><trkpt lat="40.01225636584356" lon="18.17628949356017"><ele>140.4</ele><time>2026-04-11T12:48:22.925Z</time></trkpt><trkpt lat="40.01222575836095" lon="18.176198810510524"><ele>139.8</ele><time>2026-04-11T12:48:23.925Z</time></trkpt><trkpt lat="40.0121913221535" lon="18.176127407052917"><ele>139.20000000000002</ele><time>2026-04-11T12:48:24.925Z</time></trkpt><trkpt lat="40.01215277200404" lon="18.176003095610447"><ele>138.6</ele><time>2026-04-11T12:48:26.925Z</time></trkpt><trkpt lat="40.01209951141716" lon="18.175894019293878"><ele>138.0</ele><time>2026-04-11T12:49:07.924Z</time></trkpt><trkpt lat="40.01203918588912" lon="18.175720642303695"><ele>137.4</ele><time>2026-04-11T12:49:09.924Z</time></trkpt><trkpt lat="40.01198794347089" lon="18.175617913288825"><ele>136.8</ele><time>2026-04-11T12:49:10.923Z</time></trkpt><trkpt lat="40.01192891315604" lon="18.175495459957208"><ele>136.2</ele><time>2026-04-11T12:49:11.923Z</time></trkpt><trkpt lat="40.01187390042254" lon="18.17537000196083"><ele>135.6</ele><time>2026-04-11T12:49:12.923Z</time></trkpt><trkpt lat="40.01182459651897" lon="18.175245184179047"><ele>135.0</ele><time>2026-04-11T12:49:13.923Z</time></trkpt><trkpt lat="40.01179750873051" lon="18.17513443003993"><ele>135.0</ele><time>2026-04-11T12:49:14.923Z</time></trkpt><trkpt lat="40.011785982501934" lon="18.17503026533948"><ele>135.0</ele><time>2026-04-11T12:49:15.923Z</time></trkpt><trkpt lat="40.011786562918196" lon="18.174906409957494"><ele>135.0</ele><time>2026-04-11T12:49:16.923Z</time></trkpt><trkpt lat="40.01180346637192" lon="18.17475157158275"><ele>135.0</ele><time>2026-04-11T12:49:17.923Z</time></trkpt><trkpt lat="40.01181977686289" lon="18.174594196508124"><ele>135.0</ele><time>2026-04-11T12:49:18.923Z</time></trkpt><trkpt lat="40.011830400842676" lon="18.17443885217691"><ele>134.5</ele><time>2026-04-11T12:49:19.923Z</time></trkpt><trkpt lat="40.01183792877729" lon="18.174290078794872"><ele>134.0</ele><time>2026-04-11T12:49:20.923Z</time></trkpt><trkpt lat="40.01184466380373" lon="18.174147901862387"><ele>133.5</ele><time>2026-04-11T12:49:21.923Z</time></trkpt><trkpt lat="40.0118422573674" lon="18.17398964716055"><ele>133.0</ele><time>2026-04-11T12:49:22.923Z</time></trkpt><trkpt lat="40.01184001858154" lon="18.17383499842191"><ele>132.5</ele><time>2026-04-11T12:49:23.923Z</time></trkpt><trkpt lat="40.011824963150644" lon="18.17371546465571"><ele>132.0</ele><time>2026-04-11T12:49:24.923Z</time></trkpt><trkpt lat="40.01180024656371" lon="18.173638743285423"><ele>131.5</ele><time>2026-04-11T12:49:25.923Z</time></trkpt><trkpt lat="40.01177519057801" lon="18.17352562205262"><ele>131.0</ele><time>2026-04-11T12:49:27.923Z</time></trkpt><trkpt lat="40.011718269012064" lon="18.173481081445857"><ele>130.5</ele><time>2026-04-11T12:49:29.923Z</time></trkpt><trkpt lat="40.011602768761364" lon="18.173530153886336"><ele>130.0</ele><time>2026-04-11T12:49:31.923Z</time></trkpt><trkpt lat="40.01152713147699" lon="18.173559345091387"><ele>130.0</ele><time>2026-04-11T12:49:32.923Z</time></trkpt><trkpt lat="40.01141972437106" lon="18.173600315792473"><ele>130.0</ele><time>2026-04-11T12:49:33.923Z</time></trkpt><trkpt lat="40.011303250982266" lon="18.173641715096263"><ele>130.0</ele><time>2026-04-11T12:49:34.923Z</time></trkpt><trkpt lat="40.01118328843625" lon="18.173683243890853"><ele>130.0</ele><time>2026-04-11T12:49:35.923Z</time></trkpt><trkpt lat="40.01105533966542" lon="18.17372478897061"><ele>130.0</ele><time>2026-04-11T12:49:36.923Z</time></trkpt><trkpt lat="40.010908491792776" lon="18.173766039651795"><ele>130.0</ele><time>2026-04-11T12:49:37.923Z</time></trkpt><trkpt lat="40.01073712260382" lon="18.1738126047596"><ele>130.0</ele><time>2026-04-11T12:49:38.923Z</time></trkpt><trkpt lat="40.01055511223937" lon="18.17386747790646"><ele>129.0</ele><time>2026-04-11T12:49:39.923Z</time></trkpt><trkpt lat="40.01036242412123" lon="18.173925043941416"><ele>128.0</ele><time>2026-04-11T12:49:40.923Z</time></trkpt><trkpt lat="40.01019119365668" lon="18.173983888507877"><ele>127.0</ele><time>2026-04-11T12:49:41.923Z</time></trkpt><trkpt lat="40.010036709089704" lon="18.174041594683324"><ele>128.66666666666669</ele><time>2026-04-11T12:49:42.923Z</time></trkpt><trkpt lat="40.009901053996956" lon="18.17410604039078"><ele>130.33333333333334</ele><time>2026-04-11T12:49:43.923Z</time></trkpt><trkpt lat="40.009748428191706" lon="18.17418064653791"><ele>132.0</ele><time>2026-04-11T12:49:44.923Z</time></trkpt><trkpt lat="40.00959952160598" lon="18.174281202335795"><ele>132.0</ele><time>2026-04-11T12:49:45.923Z</time></trkpt><trkpt lat="40.009440515976" lon="18.174398944302528"><ele>132.0</ele><time>2026-04-11T12:49:46.923Z</time></trkpt><trkpt lat="40.009277379672916" lon="18.174516827759575"><ele>132.0</ele><time>2026-04-11T12:49:47.923Z</time></trkpt><trkpt lat="40.009119688624146" lon="18.174621437190282"><ele>131.66666666666666</ele><time>2026-04-11T12:49:48.923Z</time></trkpt><trkpt lat="40.00895897180931" lon="18.174730821458603"><ele>131.33333333333331</ele><time>2026-04-11T12:49:49.923Z</time></trkpt><trkpt lat="40.0087946845897" lon="18.174842985179605"><ele>131.0</ele><time>2026-04-11T12:49:50.923Z</time></trkpt><trkpt lat="40.008645778840446" lon="18.174946853225865"><ele>134.66666666666666</ele><time>2026-04-11T12:49:51.923Z</time></trkpt><trkpt lat="40.008497671944475" lon="18.175044374746353"><ele>138.33333333333334</ele><time>2026-04-11T12:49:52.923Z</time></trkpt><trkpt lat="40.00834180052363" lon="18.17513736938619"><ele>142.0</ele><time>2026-04-11T12:49:53.923Z</time></trkpt><trkpt lat="40.00817887154781" lon="18.175247278764303"><ele>142.66666666666669</ele><time>2026-04-11T12:49:54.923Z</time></trkpt><trkpt lat="40.008013053066485" lon="18.175360243717275"><ele>143.33333333333334</ele><time>2026-04-11T12:49:55.923Z</time></trkpt><trkpt lat="40.00785066462326" lon="18.175467645324655"><ele>144.0</ele><time>2026-04-11T12:49:56.923Z</time></trkpt><trkpt lat="40.00771435752238" lon="18.175550432146313"><ele>144.0</ele><time>2026-04-11T12:49:57.923Z</time></trkpt><trkpt lat="40.00759865987039" lon="18.17561745461167"><ele>144.0</ele><time>2026-04-11T12:49:58.923Z</time></trkpt><trkpt lat="40.007494181348875" lon="18.175684351725"><ele>144.0</ele><time>2026-04-11T12:49:59.923Z</time></trkpt><trkpt lat="40.007398474169996" lon="18.17573716430748"><ele>144.0</ele><time>2026-04-11T12:50:00.923Z</time></trkpt><trkpt lat="40.00731643721516" lon="18.175799446017926"><ele>144.0</ele><time>2026-04-11T12:50:01.923Z</time></trkpt><trkpt lat="40.00724691923373" lon="18.175839397424447"><ele>145.83333333333334</ele><time>2026-04-11T12:50:02.923Z</time></trkpt><trkpt lat="40.00713788713541" lon="18.17587641835511"><ele>147.66666666666666</ele><time>2026-04-11T12:50:04.923Z</time></trkpt><trkpt lat="40.007062766454595" lon="18.17585809349435"><ele>149.5</ele><time>2026-04-11T12:50:05.923Z</time></trkpt><trkpt lat="40.006980009369784" lon="18.17583267128016"><ele>151.33333333333331</ele><time>2026-04-11T12:50:06.923Z</time></trkpt><trkpt lat="40.00689375422854" lon="18.17579982019239"><ele>153.16666666666666</ele><time>2026-04-11T12:50:07.923Z</time></trkpt><trkpt lat="40.00681528107474" lon="18.175767765668926"><ele>155.0</ele><time>2026-04-11T12:50:08.923Z</time></trkpt><trkpt lat="40.006741039456124" lon="18.17573763437576"><ele>155.0</ele><time>2026-04-11T12:50:09.923Z</time></trkpt><trkpt lat="40.006678400579915" lon="18.17570447150809"><ele>155.0</ele><time>2026-04-11T12:50:10.923Z</time></trkpt><trkpt lat="40.0066151725784" lon="18.175673734852463"><ele>155.0</ele><time>2026-04-11T12:50:11.923Z</time></trkpt><trkpt lat="40.006536204565805" lon="18.175649134884953"><ele>155.0</ele><time>2026-04-11T12:50:12.923Z</time></trkpt><trkpt lat="40.00645212455388" lon="18.17563513263552"><ele>155.0</ele><time>2026-04-11T12:50:13.923Z</time></trkpt><trkpt lat="40.00637352475213" lon="18.1756256297821"><ele>155.0</ele><time>2026-04-11T12:50:14.923Z</time></trkpt><trkpt lat="40.00625230172452" lon="18.175606310289805"><ele>154.66666666666666</ele><time>2026-04-11T12:50:16.923Z</time></trkpt><trkpt lat="40.00617554132082" lon="18.175622557267207"><ele>154.33333333333331</ele><time>2026-04-11T12:50:18.923Z</time></trkpt><trkpt lat="40.00609746624633" lon="18.175688972708357"><ele>154.0</ele><time>2026-04-11T12:50:20.923Z</time></trkpt><trkpt lat="40.00602841923876" lon="18.17578182149908"><ele>153.66666666666666</ele><time>2026-04-11T12:50:22.923Z</time></trkpt><trkpt lat="40.005958598192066" lon="18.175820883322793"><ele>153.33333333333334</ele><time>2026-04-11T12:50:23.923Z</time></trkpt><trkpt lat="40.0059061573473" lon="18.175866892951404"><ele>153.0</ele><time>2026-04-11T12:50:24.923Z</time></trkpt><trkpt lat="40.00584182779128" lon="18.175906358651506"><ele>150.6</ele><time>2026-04-11T12:50:25.923Z</time></trkpt><trkpt lat="40.00573870126891" lon="18.175972490170174"><ele>148.20000000000002</ele><time>2026-04-11T12:50:27.923Z</time></trkpt><trkpt lat="40.005669506974705" lon="18.176001289072346"><ele>145.8</ele><time>2026-04-11T12:50:29.923Z</time></trkpt><trkpt lat="40.005621364661145" lon="18.176067754233113"><ele>143.4</ele><time>2026-04-11T12:50:33.923Z</time></trkpt><trkpt lat="40.00570455664194" lon="18.176008220431388"><ele>141.0</ele><time>2026-04-11T12:50:38.922Z</time></trkpt><trkpt lat="40.00580768109116" lon="18.175938523784406"><ele>140.2</ele><time>2026-04-11T12:50:40.923Z</time></trkpt><trkpt lat="40.005907010977424" lon="18.175881816070987"><ele>139.39999999999998</ele><time>2026-04-11T12:50:41.922Z</time></trkpt><trkpt lat="40.00603048339437" lon="18.17579169273317"><ele>138.6</ele><time>2026-04-11T12:50:43.923Z</time></trkpt><trkpt lat="40.00608280000926" lon="18.1757425259866"><ele>137.79999999999998</ele><time>2026-04-11T12:50:44.922Z</time></trkpt><trkpt lat="40.00617032400373" lon="18.17564572418057"><ele>137.0</ele><time>2026-04-11T12:50:46.923Z</time></trkpt><trkpt lat="40.00630444905094" lon="18.175635302559837"><ele>137.0</ele><time>2026-04-11T12:50:48.922Z</time></trkpt><trkpt lat="40.00638407725718" lon="18.17565377943284"><ele>137.0</ele><time>2026-04-11T12:50:49.922Z</time></trkpt><trkpt lat="40.00648909625567" lon="18.17568207766097"><ele>137.0</ele><time>2026-04-11T12:50:50.923Z</time></trkpt><trkpt lat="40.0066215920056" lon="18.175723042832104"><ele>137.0</ele><time>2026-04-11T12:50:51.923Z</time></trkpt><trkpt lat="40.00676243469668" lon="18.175774478361653"><ele>140.6</ele><time>2026-04-11T12:50:52.923Z</time></trkpt><trkpt lat="40.00688735724424" lon="18.175829912598115"><ele>144.2</ele><time>2026-04-11T12:50:53.923Z</time></trkpt><trkpt lat="40.006995936232464" lon="18.175874727262276"><ele>147.8</ele><time>2026-04-11T12:50:54.923Z</time></trkpt><trkpt lat="40.007095486117564" lon="18.17590373538406"><ele>151.4</ele><time>2026-04-11T12:50:55.923Z</time></trkpt><trkpt lat="40.007183683373256" lon="18.175912277214508"><ele>155.0</ele><time>2026-04-11T12:50:56.923Z</time></trkpt><trkpt lat="40.00726303580226" lon="18.175893485036497"><ele>155.0</ele><time>2026-04-11T12:50:57.923Z</time></trkpt><trkpt lat="40.00734342171616" lon="18.17583757480711"><ele>155.0</ele><time>2026-04-11T12:50:58.923Z</time></trkpt><trkpt lat="40.00743622524205" lon="18.175759662011746"><ele>155.0</ele><time>2026-04-11T12:50:59.923Z</time></trkpt><trkpt lat="40.00753257845149" lon="18.1756856398625"><ele>155.0</ele><time>2026-04-11T12:51:00.923Z</time></trkpt><trkpt lat="40.00763122727041" lon="18.175617731400546"><ele>155.0</ele><time>2026-04-11T12:51:01.923Z</time></trkpt><trkpt lat="40.00772032482726" lon="18.17554762612641"><ele>152.8</ele><time>2026-04-11T12:51:02.923Z</time></trkpt><trkpt lat="40.00780254533321" lon="18.175486549510648"><ele>150.6</ele><time>2026-04-11T12:51:03.923Z</time></trkpt><trkpt lat="40.007890922843984" lon="18.175419739961153"><ele>148.4</ele><time>2026-04-11T12:51:04.923Z</time></trkpt><trkpt lat="40.00797573501172" lon="18.175370163695995"><ele>146.2</ele><time>2026-04-11T12:51:05.923Z</time></trkpt><trkpt lat="40.00805364798134" lon="18.17532154289949"><ele>144.0</ele><time>2026-04-11T12:51:06.923Z</time></trkpt><trkpt lat="40.00814894101277" lon="18.175269952016905"><ele>144.0</ele><time>2026-04-11T12:51:07.923Z</time></trkpt><trkpt lat="40.00825956242179" lon="18.175201111893276"><ele>144.0</ele><time>2026-04-11T12:51:08.923Z</time></trkpt><trkpt lat="40.00836070864996" lon="18.175133754091384"><ele>144.0</ele><time>2026-04-11T12:51:09.923Z</time></trkpt><trkpt lat="40.00848275334375" lon="18.175075839670203"><ele>144.0</ele><time>2026-04-11T12:51:10.923Z</time></trkpt><trkpt lat="40.008597202695384" lon="18.17500181380076"><ele>143.5</ele><time>2026-04-11T12:51:11.923Z</time></trkpt><trkpt lat="40.00870789263302" lon="18.174926494701786"><ele>143.0</ele><time>2026-04-11T12:51:12.923Z</time></trkpt><trkpt lat="40.00881118868632" lon="18.17485942077058"><ele>142.5</ele><time>2026-04-11T12:51:13.923Z</time></trkpt><trkpt lat="40.008909941899084" lon="18.17478786401128"><ele>142.0</ele><time>2026-04-11T12:51:14.923Z</time></trkpt><trkpt lat="40.00900437140085" lon="18.174711942795625"><ele>139.5</ele><time>2026-04-11T12:51:15.923Z</time></trkpt><trkpt lat="40.0090994055817" lon="18.174635863025948"><ele>137.0</ele><time>2026-04-11T12:51:16.923Z</time></trkpt><trkpt lat="40.00920132217958" lon="18.174549387010522"><ele>134.5</ele><time>2026-04-11T12:51:17.923Z</time></trkpt><trkpt lat="40.00931101206916" lon="18.174472779633977"><ele>132.0</ele><time>2026-04-11T12:51:18.922Z</time></trkpt><trkpt lat="40.0094273126757" lon="18.17440195572387"><ele>132.0</ele><time>2026-04-11T12:51:19.922Z</time></trkpt><trkpt lat="40.00954567055019" lon="18.174320389050465"><ele>132.0</ele><time>2026-04-11T12:51:20.922Z</time></trkpt><trkpt lat="40.00966588382751" lon="18.17423751105005"><ele>132.0</ele><time>2026-04-11T12:51:21.922Z</time></trkpt><trkpt lat="40.009792227550804" lon="18.17415422062328"><ele>132.0</ele><time>2026-04-11T12:51:22.922Z</time></trkpt><trkpt lat="40.00992991230759" lon="18.174073694022418"><ele>130.33333333333334</ele><time>2026-04-11T12:51:23.922Z</time></trkpt><trkpt lat="40.010080581209316" lon="18.17401261535358"><ele>128.66666666666669</ele><time>2026-04-11T12:51:24.922Z</time></trkpt><trkpt lat="40.01023511484035" lon="18.173961463400463"><ele>127.0</ele><time>2026-04-11T12:51:25.922Z</time></trkpt><trkpt lat="40.01038656318104" lon="18.17391445572178"><ele>127.0</ele><time>2026-04-11T12:51:26.922Z</time></trkpt><trkpt lat="40.01053194405954" lon="18.17386933647266"><ele>127.0</ele><time>2026-04-11T12:51:27.922Z</time></trkpt><trkpt lat="40.01065714843903" lon="18.173836580105696"><ele>127.0</ele><time>2026-04-11T12:51:28.922Z</time></trkpt><trkpt lat="40.010775252809005" lon="18.173802373299498"><ele>127.0</ele><time>2026-04-11T12:51:29.922Z</time></trkpt><trkpt lat="40.01089088919551" lon="18.173770568343652"><ele>127.6</ele><time>2026-04-11T12:51:30.922Z</time></trkpt><trkpt lat="40.0110004424604" lon="18.173742218756022"><ele>128.2</ele><time>2026-04-11T12:51:31.922Z</time></trkpt><trkpt lat="40.01110428915488" lon="18.173704038416297"><ele>128.8</ele><time>2026-04-11T12:51:32.922Z</time></trkpt><trkpt lat="40.01120136600135" lon="18.173676572967175"><ele>129.4</ele><time>2026-04-11T12:51:33.922Z</time></trkpt><trkpt lat="40.011290468485186" lon="18.173651062763373"><ele>130.0</ele><time>2026-04-11T12:51:34.922Z</time></trkpt><trkpt lat="40.011375017637" lon="18.173619178643026"><ele>130.0</ele><time>2026-04-11T12:51:35.922Z</time></trkpt><trkpt lat="40.01144553851901" lon="18.173588017189623"><ele>130.0</ele><time>2026-04-11T12:51:36.922Z</time></trkpt><trkpt lat="40.01150677855511" lon="18.173563555532212"><ele>130.0</ele><time>2026-04-11T12:51:37.922Z</time></trkpt><trkpt lat="40.011568060921476" lon="18.173544524545516"><ele>130.0</ele><time>2026-04-11T12:51:38.922Z</time></trkpt><trkpt lat="40.011647569575594" lon="18.17350583262542"><ele>130.0</ele><time>2026-04-11T12:51:40.922Z</time></trkpt><trkpt lat="40.011718198065545" lon="18.173482143279532"><ele>130.0</ele><time>2026-04-11T12:51:44.922Z</time></trkpt><trkpt lat="40.01178643636985" lon="18.17356861743884"><ele>130.5</ele><time>2026-04-11T12:51:47.922Z</time></trkpt><trkpt lat="40.01180474781849" lon="18.1736481330785"><ele>131.0</ele><time>2026-04-11T12:51:48.922Z</time></trkpt><trkpt lat="40.01181734837189" lon="18.173749019816928"><ele>131.5</ele><time>2026-04-11T12:51:49.922Z</time></trkpt><trkpt lat="40.01182529506225" lon="18.173862695273208"><ele>132.0</ele><time>2026-04-11T12:51:50.922Z</time></trkpt><trkpt lat="40.0118252103742" lon="18.1739909431226"><ele>132.5</ele><time>2026-04-11T12:51:51.922Z</time></trkpt><trkpt lat="40.011817680223885" lon="18.17412966079081"><ele>133.0</ele><time>2026-04-11T12:51:52.922Z</time></trkpt><trkpt lat="40.0118059188871" lon="18.17426917693831"><ele>133.0</ele><time>2026-04-11T12:51:53.922Z</time></trkpt><trkpt lat="40.01178302796243" lon="18.17441448390554"><ele>133.0</ele><time>2026-04-11T12:51:54.922Z</time></trkpt><trkpt lat="40.011765640592905" lon="18.17455811636809"><ele>133.0</ele><time>2026-04-11T12:51:55.922Z</time></trkpt><trkpt lat="40.01176446681934" lon="18.174677154012198"><ele>133.0</ele><time>2026-04-11T12:51:56.922Z</time></trkpt><trkpt lat="40.01174977579664" lon="18.17480367626583"><ele>133.0</ele><time>2026-04-11T12:51:57.922Z</time></trkpt><trkpt lat="40.01174482587458" lon="18.17491558987687"><ele>133.33333333333334</ele><time>2026-04-11T12:51:58.922Z</time></trkpt><trkpt lat="40.01174712951207" lon="18.175017200196947"><ele>133.66666666666669</ele><time>2026-04-11T12:51:59.922Z</time></trkpt><trkpt lat="40.01174446893703" lon="18.17512561662921"><ele>134.0</ele><time>2026-04-11T12:52:00.922Z</time></trkpt><trkpt lat="40.011745890293746" lon="18.175237016784"><ele>134.33333333333334</ele><time>2026-04-11T12:52:01.922Z</time></trkpt><trkpt lat="40.01173518592893" lon="18.175359921614216"><ele>134.66666666666666</ele><time>2026-04-11T12:52:02.922Z</time></trkpt><trkpt lat="40.01172362826595" lon="18.175488210684602"><ele>135.0</ele><time>2026-04-11T12:52:03.922Z</time></trkpt><trkpt lat="40.011704756188955" lon="18.175624480725684"><ele>135.75</ele><time>2026-04-11T12:52:04.922Z</time></trkpt><trkpt lat="40.01168474972203" lon="18.17577174926781"><ele>136.5</ele><time>2026-04-11T12:52:05.922Z</time></trkpt><trkpt lat="40.01166548864374" lon="18.175938244364524"><ele>137.25</ele><time>2026-04-11T12:52:06.922Z</time></trkpt><trkpt lat="40.01163685101285" lon="18.17612227504982"><ele>138.0</ele><time>2026-04-11T12:52:07.922Z</time></trkpt><trkpt lat="40.01159405343533" lon="18.176306184062476"><ele>139.25</ele><time>2026-04-11T12:52:08.922Z</time></trkpt><trkpt lat="40.01153839899674" lon="18.17646190583452"><ele>140.5</ele><time>2026-04-11T12:52:09.922Z</time></trkpt><trkpt lat="40.01149010575288" lon="18.176601615857766"><ele>141.75</ele><time>2026-04-11T12:52:10.922Z</time></trkpt><trkpt lat="40.011442195912345" lon="18.176736308967975"><ele>143.0</ele><time>2026-04-11T12:52:11.922Z</time></trkpt><trkpt lat="40.01137862757811" lon="18.176903066925533"><ele>143.0</ele><time>2026-04-11T12:52:12.922Z</time></trkpt><trkpt lat="40.01132080122321" lon="18.1770612273477"><ele>143.0</ele><time>2026-04-11T12:52:13.922Z</time></trkpt><trkpt lat="40.01124678006163" lon="18.17720999822766"><ele>143.0</ele><time>2026-04-11T12:52:14.922Z</time></trkpt><trkpt lat="40.011190943321026" lon="18.177332234578"><ele>143.0</ele><time>2026-04-11T12:52:15.922Z</time></trkpt><trkpt lat="40.01113781906614" lon="18.177403815377872"><ele>143.0</ele><time>2026-04-11T12:52:16.922Z</time></trkpt><trkpt lat="40.01143822766339" lon="18.177332525990924"><ele>143.0</ele><time>2026-04-11T12:52:18.922Z</time></trkpt><trkpt lat="40.01153813070171" lon="18.177362167007306"><ele>143.0</ele><time>2026-04-11T12:52:20.922Z</time></trkpt><trkpt lat="40.01161487189402" lon="18.17738787060284"><ele>143.16666666666666</ele><time>2026-04-11T12:52:21.922Z</time></trkpt><trkpt lat="40.01169844949068" lon="18.177427457700837"><ele>143.33333333333331</ele><time>2026-04-11T12:52:22.922Z</time></trkpt><trkpt lat="40.01179111428307" lon="18.17746774220669"><ele>143.5</ele><time>2026-04-11T12:52:23.922Z</time></trkpt><trkpt lat="40.011881807490795" lon="18.177474935766107"><ele>143.66666666666666</ele><time>2026-04-11T12:52:24.922Z</time></trkpt><trkpt lat="40.01195493761153" lon="18.177480507986495"><ele>143.83333333333334</ele><time>2026-04-11T12:52:25.922Z</time></trkpt><trkpt lat="40.012031957780216" lon="18.1774772253192"><ele>144.0</ele><time>2026-04-11T12:52:26.922Z</time></trkpt><trkpt lat="40.01212728609659" lon="18.17754740243729"><ele>144.0</ele><time>2026-04-11T12:52:28.922Z</time></trkpt><trkpt lat="40.01216887950532" lon="18.177686578060626"><ele>144.0</ele><time>2026-04-11T12:52:30.922Z</time></trkpt><trkpt lat="40.01220996542313" lon="18.17779455272922"><ele>144.0</ele><time>2026-04-11T12:52:32.922Z</time></trkpt><trkpt lat="40.01220566365668" lon="18.177899411238705"><ele>144.0</ele><time>2026-04-11T12:52:35.922Z</time></trkpt></trkseg></trk></gpx>